<?xml version="1.0" encoding="UTF-8" standalone="no" ?>
<gpx xmlns="http://www.topografix.com/GPX/1/1" xmlns:xsi="http://www.w3.org/2001/XMLSchema-instance" xsi:schemaLocation="http://www.topografix.com/GPX/1/1 http://www.topografix.com/GPX/1/1/gpx.xsd" version="1.1" creator="VisuGPX - https://www.visugpx.com">
  <metadata>
    <name>Belvédère du Mont Grèle</name>
    <desc><![CDATA[Super balade a faire par temps vraiment dégagé pour profiter des différents points de vue. Attention la 1ere partie de la descente du mont Grèle est assez difficile avec un single étroit et parfois exposé a des pentes très raides. On peut néanmoins pousser sans problème. La dernière montée après le km 24 est vraiment dure pour finir le circuit, a voir si elle peut être évitée.]]></desc>
  </metadata>
  <trk>
    <name><![CDATA[Piste 1]]></name>
    <cmt><![CDATA[Course (1,0 m | 5 s | 100,0 m)]]></cmt>
    <trkseg>
      <trkpt lat="45.43811" lon="5.77395">
        <ele>462.568359</ele>
        <time>2019-05-23T12:55:58.314Z</time>
      </trkpt>
      <trkpt lat="45.4381" lon="5.77396">
        <ele>463.67334</ele>
        <time>2019-05-23T12:56:23.316Z</time>
      </trkpt>
      <trkpt lat="45.43811" lon="5.77398">
        <ele>462.897888</ele>
        <time>2019-05-23T12:56:28.317Z</time>
      </trkpt>
      <trkpt lat="45.43811" lon="5.77401">
        <ele>461.852173</ele>
        <time>2019-05-23T12:56:34.314Z</time>
      </trkpt>
      <trkpt lat="45.4381" lon="5.77408">
        <ele>461.377625</ele>
        <time>2019-05-23T12:56:39.324Z</time>
      </trkpt>
      <trkpt lat="45.4381" lon="5.77411">
        <ele>462.925537</ele>
        <time>2019-05-23T12:56:44.377Z</time>
      </trkpt>
      <trkpt lat="45.43812" lon="5.77413">
        <ele>461.785645</ele>
        <time>2019-05-23T12:56:49.536Z</time>
      </trkpt>
      <trkpt lat="45.43815" lon="5.77414">
        <ele>454.978394</ele>
        <time>2019-05-23T12:56:54.564Z</time>
      </trkpt>
      <trkpt lat="45.43824" lon="5.77416">
        <ele>455.708618</ele>
        <time>2019-05-23T12:56:59.603Z</time>
      </trkpt>
      <trkpt lat="45.43828" lon="5.77412">
        <ele>454.597351</ele>
        <time>2019-05-23T12:57:14.315Z</time>
      </trkpt>
      <trkpt lat="45.43835" lon="5.7742">
        <ele>456.984924</ele>
        <time>2019-05-23T12:57:19.795Z</time>
      </trkpt>
      <trkpt lat="45.43845" lon="5.77427">
        <ele>455.22699</ele>
        <time>2019-05-23T12:57:24.846Z</time>
      </trkpt>
      <trkpt lat="45.43853" lon="5.77431">
        <ele>456.585327</ele>
        <time>2019-05-23T12:57:29.903Z</time>
      </trkpt>
      <trkpt lat="45.43858" lon="5.7743">
        <ele>458.968262</ele>
        <time>2019-05-23T12:57:34.943Z</time>
      </trkpt>
      <trkpt lat="45.43866" lon="5.77418">
        <ele>460.07373</ele>
        <time>2019-05-23T12:57:40.010Z</time>
      </trkpt>
      <trkpt lat="45.43881" lon="5.77424">
        <ele>461.432007</ele>
        <time>2019-05-23T12:57:45.062Z</time>
      </trkpt>
      <trkpt lat="45.43897" lon="5.77424">
        <ele>463.280334</ele>
        <time>2019-05-23T12:57:50.097Z</time>
      </trkpt>
      <trkpt lat="45.43906" lon="5.77446">
        <ele>461.905334</ele>
        <time>2019-05-23T12:57:55.144Z</time>
      </trkpt>
      <trkpt lat="45.43914" lon="5.77477">
        <ele>462.789917</ele>
        <time>2019-05-23T12:58:00.231Z</time>
      </trkpt>
      <trkpt lat="45.43927" lon="5.77507">
        <ele>458.213135</ele>
        <time>2019-05-23T12:58:05.285Z</time>
      </trkpt>
      <trkpt lat="45.43934" lon="5.77537">
        <ele>457.625549</ele>
        <time>2019-05-23T12:58:10.329Z</time>
      </trkpt>
      <trkpt lat="45.43941" lon="5.77556">
        <ele>457.473145</ele>
        <time>2019-05-23T12:58:15.365Z</time>
      </trkpt>
      <trkpt lat="45.43951" lon="5.77578">
        <ele>461.069885</ele>
        <time>2019-05-23T12:58:20.415Z</time>
      </trkpt>
      <trkpt lat="45.43958" lon="5.77592">
        <ele>462.830444</ele>
        <time>2019-05-23T12:58:25.488Z</time>
      </trkpt>
      <trkpt lat="45.43962" lon="5.77605">
        <ele>463.723511</ele>
        <time>2019-05-23T12:58:30.528Z</time>
      </trkpt>
      <trkpt lat="45.4397" lon="5.77624">
        <ele>463.218262</ele>
        <time>2019-05-23T12:58:35.599Z</time>
      </trkpt>
      <trkpt lat="45.43982" lon="5.77643">
        <ele>462.605591</ele>
        <time>2019-05-23T12:58:40.636Z</time>
      </trkpt>
      <trkpt lat="45.43995" lon="5.77666">
        <ele>465.82373</ele>
        <time>2019-05-23T12:58:45.686Z</time>
      </trkpt>
      <trkpt lat="45.44007" lon="5.77687">
        <ele>465.728638</ele>
        <time>2019-05-23T12:58:50.743Z</time>
      </trkpt>
      <trkpt lat="45.4402" lon="5.7771">
        <ele>465.392578</ele>
        <time>2019-05-23T12:58:55.796Z</time>
      </trkpt>
      <trkpt lat="45.44031" lon="5.77735">
        <ele>468.44989</ele>
        <time>2019-05-23T12:59:00.882Z</time>
      </trkpt>
      <trkpt lat="45.4404" lon="5.7776">
        <ele>467.060181</ele>
        <time>2019-05-23T12:59:05.922Z</time>
      </trkpt>
      <trkpt lat="45.44049" lon="5.77787">
        <ele>466.11438</ele>
        <time>2019-05-23T12:59:10.986Z</time>
      </trkpt>
      <trkpt lat="45.44058" lon="5.77814">
        <ele>465.279541</ele>
        <time>2019-05-23T12:59:16.043Z</time>
      </trkpt>
      <trkpt lat="45.44068" lon="5.77841">
        <ele>463.681763</ele>
        <time>2019-05-23T12:59:21.092Z</time>
      </trkpt>
      <trkpt lat="45.44075" lon="5.7787">
        <ele>462.359131</ele>
        <time>2019-05-23T12:59:26.140Z</time>
      </trkpt>
      <trkpt lat="45.44082" lon="5.77897">
        <ele>461.254333</ele>
        <time>2019-05-23T12:59:31.201Z</time>
      </trkpt>
      <trkpt lat="45.44089" lon="5.77923">
        <ele>460.48822</ele>
        <time>2019-05-23T12:59:36.250Z</time>
      </trkpt>
      <trkpt lat="45.44098" lon="5.77954">
        <ele>463.229126</ele>
        <time>2019-05-23T12:59:41.284Z</time>
      </trkpt>
      <trkpt lat="45.44108" lon="5.77992">
        <ele>461.700684</ele>
        <time>2019-05-23T12:59:46.308Z</time>
      </trkpt>
      <trkpt lat="45.44114" lon="5.78022">
        <ele>463.05481</ele>
        <time>2019-05-23T12:59:51.342Z</time>
      </trkpt>
      <trkpt lat="45.44121" lon="5.78055">
        <ele>463.440063</ele>
        <time>2019-05-23T12:59:56.408Z</time>
      </trkpt>
      <trkpt lat="45.44128" lon="5.78085">
        <ele>462.062134</ele>
        <time>2019-05-23T13:00:01.465Z</time>
      </trkpt>
      <trkpt lat="45.44136" lon="5.78117">
        <ele>462.183044</ele>
        <time>2019-05-23T13:00:06.504Z</time>
      </trkpt>
      <trkpt lat="45.4414" lon="5.78149">
        <ele>463.366394</ele>
        <time>2019-05-23T13:00:11.548Z</time>
      </trkpt>
      <trkpt lat="45.44152" lon="5.78182">
        <ele>464.50354</ele>
        <time>2019-05-23T13:00:16.598Z</time>
      </trkpt>
      <trkpt lat="45.44166" lon="5.78207">
        <ele>465.942444</ele>
        <time>2019-05-23T13:00:21.635Z</time>
      </trkpt>
      <trkpt lat="45.44184" lon="5.78228">
        <ele>466.484009</ele>
        <time>2019-05-23T13:00:26.699Z</time>
      </trkpt>
      <trkpt lat="45.44202" lon="5.78249">
        <ele>467.362305</ele>
        <time>2019-05-23T13:00:31.758Z</time>
      </trkpt>
      <trkpt lat="45.4422" lon="5.78269">
        <ele>469.044067</ele>
        <time>2019-05-23T13:00:36.805Z</time>
      </trkpt>
      <trkpt lat="45.4424" lon="5.78277">
        <ele>467.79541</ele>
        <time>2019-05-23T13:00:41.849Z</time>
      </trkpt>
      <trkpt lat="45.4426" lon="5.78276">
        <ele>476.903076</ele>
        <time>2019-05-23T13:00:46.893Z</time>
      </trkpt>
      <trkpt lat="45.44278" lon="5.78263">
        <ele>479.351318</ele>
        <time>2019-05-23T13:00:51.961Z</time>
      </trkpt>
      <trkpt lat="45.44294" lon="5.78242">
        <ele>480.042603</ele>
        <time>2019-05-23T13:00:57.015Z</time>
      </trkpt>
      <trkpt lat="45.44316" lon="5.78241">
        <ele>479.732666</ele>
        <time>2019-05-23T13:01:02.068Z</time>
      </trkpt>
      <trkpt lat="45.44338" lon="5.7824">
        <ele>480.156738</ele>
        <time>2019-05-23T13:01:07.135Z</time>
      </trkpt>
      <trkpt lat="45.4436" lon="5.78242">
        <ele>477.553955</ele>
        <time>2019-05-23T13:01:12.215Z</time>
      </trkpt>
      <trkpt lat="45.4438" lon="5.7825">
        <ele>472.253479</ele>
        <time>2019-05-23T13:01:17.265Z</time>
      </trkpt>
      <trkpt lat="45.44403" lon="5.78262">
        <ele>471.901611</ele>
        <time>2019-05-23T13:01:22.320Z</time>
      </trkpt>
      <trkpt lat="45.44427" lon="5.78261">
        <ele>466.577515</ele>
        <time>2019-05-23T13:01:27.366Z</time>
      </trkpt>
      <trkpt lat="45.44448" lon="5.78272">
        <ele>468.549011</ele>
        <time>2019-05-23T13:01:32.416Z</time>
      </trkpt>
      <trkpt lat="45.44462" lon="5.78285">
        <ele>471.917847</ele>
        <time>2019-05-23T13:01:37.472Z</time>
      </trkpt>
      <trkpt lat="45.44479" lon="5.78298">
        <ele>471.654297</ele>
        <time>2019-05-23T13:01:42.514Z</time>
      </trkpt>
      <trkpt lat="45.44494" lon="5.7831">
        <ele>472.101685</ele>
        <time>2019-05-23T13:01:47.546Z</time>
      </trkpt>
      <trkpt lat="45.44511" lon="5.78321">
        <ele>469.876038</ele>
        <time>2019-05-23T13:01:52.578Z</time>
      </trkpt>
      <trkpt lat="45.4453" lon="5.78332">
        <ele>474.93988</ele>
        <time>2019-05-23T13:01:57.619Z</time>
      </trkpt>
      <trkpt lat="45.44547" lon="5.78341">
        <ele>476.705322</ele>
        <time>2019-05-23T13:02:02.704Z</time>
      </trkpt>
      <trkpt lat="45.44562" lon="5.78353">
        <ele>478.353882</ele>
        <time>2019-05-23T13:02:07.750Z</time>
      </trkpt>
      <trkpt lat="45.44576" lon="5.78365">
        <ele>481.529236</ele>
        <time>2019-05-23T13:02:12.799Z</time>
      </trkpt>
      <trkpt lat="45.44592" lon="5.78378">
        <ele>480.959717</ele>
        <time>2019-05-23T13:02:17.867Z</time>
      </trkpt>
      <trkpt lat="45.44607" lon="5.78392">
        <ele>483.501221</ele>
        <time>2019-05-23T13:02:22.911Z</time>
      </trkpt>
      <trkpt lat="45.44619" lon="5.78407">
        <ele>484.6875</ele>
        <time>2019-05-23T13:02:27.970Z</time>
      </trkpt>
      <trkpt lat="45.44631" lon="5.78419">
        <ele>481.46582</ele>
        <time>2019-05-23T13:02:33.031Z</time>
      </trkpt>
      <trkpt lat="45.44638" lon="5.78431">
        <ele>481.846924</ele>
        <time>2019-05-23T13:02:38.065Z</time>
      </trkpt>
      <trkpt lat="45.44651" lon="5.78443">
        <ele>477.727661</ele>
        <time>2019-05-23T13:02:43.101Z</time>
      </trkpt>
      <trkpt lat="45.4466" lon="5.78456">
        <ele>477.968872</ele>
        <time>2019-05-23T13:02:48.158Z</time>
      </trkpt>
      <trkpt lat="45.4467" lon="5.78467">
        <ele>477.712402</ele>
        <time>2019-05-23T13:02:53.207Z</time>
      </trkpt>
      <trkpt lat="45.44679" lon="5.78474">
        <ele>482.925415</ele>
        <time>2019-05-23T13:02:58.256Z</time>
      </trkpt>
      <trkpt lat="45.44688" lon="5.78484">
        <ele>481.784851</ele>
        <time>2019-05-23T13:03:03.308Z</time>
      </trkpt>
      <trkpt lat="45.44698" lon="5.785">
        <ele>483.892639</ele>
        <time>2019-05-23T13:03:08.336Z</time>
      </trkpt>
      <trkpt lat="45.44708" lon="5.7851">
        <ele>486.344727</ele>
        <time>2019-05-23T13:03:13.400Z</time>
      </trkpt>
      <trkpt lat="45.44719" lon="5.78515">
        <ele>486.0271</ele>
        <time>2019-05-23T13:03:18.472Z</time>
      </trkpt>
      <trkpt lat="45.44731" lon="5.78516">
        <ele>493.253662</ele>
        <time>2019-05-23T13:03:23.531Z</time>
      </trkpt>
      <trkpt lat="45.4474" lon="5.7852">
        <ele>497.45343</ele>
        <time>2019-05-23T13:03:28.577Z</time>
      </trkpt>
      <trkpt lat="45.44751" lon="5.78524">
        <ele>496.73114</ele>
        <time>2019-05-23T13:03:33.606Z</time>
      </trkpt>
      <trkpt lat="45.4476" lon="5.78528">
        <ele>498.38269</ele>
        <time>2019-05-23T13:03:38.656Z</time>
      </trkpt>
      <trkpt lat="45.44769" lon="5.78529">
        <ele>501.093506</ele>
        <time>2019-05-23T13:03:43.717Z</time>
      </trkpt>
      <trkpt lat="45.44777" lon="5.7853">
        <ele>502.031799</ele>
        <time>2019-05-23T13:03:48.758Z</time>
      </trkpt>
      <trkpt lat="45.44785" lon="5.78532">
        <ele>505.87207</ele>
        <time>2019-05-23T13:03:53.817Z</time>
      </trkpt>
      <trkpt lat="45.44793" lon="5.78534">
        <ele>507.498962</ele>
        <time>2019-05-23T13:03:58.859Z</time>
      </trkpt>
      <trkpt lat="45.44801" lon="5.78537">
        <ele>507.933655</ele>
        <time>2019-05-23T13:04:03.928Z</time>
      </trkpt>
      <trkpt lat="45.4481" lon="5.78539">
        <ele>505.388</ele>
        <time>2019-05-23T13:04:08.974Z</time>
      </trkpt>
      <trkpt lat="45.44819" lon="5.78543">
        <ele>509.088501</ele>
        <time>2019-05-23T13:04:14.313Z</time>
      </trkpt>
      <trkpt lat="45.44827" lon="5.78548">
        <ele>511.275024</ele>
        <time>2019-05-23T13:04:19.342Z</time>
      </trkpt>
      <trkpt lat="45.44834" lon="5.78552">
        <ele>511.968201</ele>
        <time>2019-05-23T13:04:25.311Z</time>
      </trkpt>
      <trkpt lat="45.44843" lon="5.78555">
        <ele>514.809875</ele>
        <time>2019-05-23T13:04:30.328Z</time>
      </trkpt>
      <trkpt lat="45.44848" lon="5.78562">
        <ele>509.616577</ele>
        <time>2019-05-23T13:04:35.328Z</time>
      </trkpt>
      <trkpt lat="45.4485" lon="5.78566">
        <ele>506.220825</ele>
        <time>2019-05-23T13:04:41.327Z</time>
      </trkpt>
      <trkpt lat="45.44851" lon="5.7857">
        <ele>505.555542</ele>
        <time>2019-05-23T13:04:46.863Z</time>
      </trkpt>
      <trkpt lat="45.44853" lon="5.78574">
        <ele>504.568726</ele>
        <time>2019-05-23T13:04:51.945Z</time>
      </trkpt>
      <trkpt lat="45.44852" lon="5.78577">
        <ele>505.604858</ele>
        <time>2019-05-23T13:04:57.023Z</time>
      </trkpt>
      <trkpt lat="45.44852" lon="5.78579">
        <ele>506.546875</ele>
        <time>2019-05-23T13:05:04.593Z</time>
      </trkpt>
      <trkpt lat="45.44853" lon="5.78582">
        <ele>506.062317</ele>
        <time>2019-05-23T13:05:09.618Z</time>
      </trkpt>
      <trkpt lat="45.44852" lon="5.78585">
        <ele>504.598145</ele>
        <time>2019-05-23T13:05:14.650Z</time>
      </trkpt>
      <trkpt lat="45.44856" lon="5.78588">
        <ele>505.795349</ele>
        <time>2019-05-23T13:05:19.686Z</time>
      </trkpt>
      <trkpt lat="45.44858" lon="5.78593">
        <ele>505.986145</ele>
        <time>2019-05-23T13:05:25.305Z</time>
      </trkpt>
      <trkpt lat="45.44858" lon="5.78597">
        <ele>507.438721</ele>
        <time>2019-05-23T13:05:31.302Z</time>
      </trkpt>
      <trkpt lat="45.44859" lon="5.78603">
        <ele>506.94342</ele>
        <time>2019-05-23T13:05:37.317Z</time>
      </trkpt>
      <trkpt lat="45.44861" lon="5.78608">
        <ele>507.74707</ele>
        <time>2019-05-23T13:05:42.324Z</time>
      </trkpt>
      <trkpt lat="45.44861" lon="5.78612">
        <ele>508.707397</ele>
        <time>2019-05-23T13:05:47.462Z</time>
      </trkpt>
      <trkpt lat="45.44864" lon="5.78618">
        <ele>510.236511</ele>
        <time>2019-05-23T13:05:52.516Z</time>
      </trkpt>
      <trkpt lat="45.44868" lon="5.78623">
        <ele>509.905884</ele>
        <time>2019-05-23T13:05:57.546Z</time>
      </trkpt>
      <trkpt lat="45.44869" lon="5.78628">
        <ele>509.557739</ele>
        <time>2019-05-23T13:06:02.605Z</time>
      </trkpt>
      <trkpt lat="45.44872" lon="5.78634">
        <ele>512.871704</ele>
        <time>2019-05-23T13:06:07.659Z</time>
      </trkpt>
      <trkpt lat="45.44875" lon="5.78639">
        <ele>514.426025</ele>
        <time>2019-05-23T13:06:12.716Z</time>
      </trkpt>
      <trkpt lat="45.44876" lon="5.78643">
        <ele>513.13562</ele>
        <time>2019-05-23T13:06:17.757Z</time>
      </trkpt>
      <trkpt lat="45.44878" lon="5.78645">
        <ele>513.727722</ele>
        <time>2019-05-23T13:06:22.813Z</time>
      </trkpt>
      <trkpt lat="45.44879" lon="5.78647">
        <ele>513.152283</ele>
        <time>2019-05-23T13:06:32.909Z</time>
      </trkpt>
      <trkpt lat="45.44881" lon="5.7865">
        <ele>515.283875</ele>
        <time>2019-05-23T13:06:37.973Z</time>
      </trkpt>
      <trkpt lat="45.4488" lon="5.78655">
        <ele>514.730408</ele>
        <time>2019-05-23T13:06:44.305Z</time>
      </trkpt>
      <trkpt lat="45.44879" lon="5.7866">
        <ele>517.734741</ele>
        <time>2019-05-23T13:06:49.307Z</time>
      </trkpt>
      <trkpt lat="45.44881" lon="5.7866">
        <ele>519.181274</ele>
        <time>2019-05-23T13:06:57.310Z</time>
      </trkpt>
      <trkpt lat="45.44882" lon="5.78666">
        <ele>519.424194</ele>
        <time>2019-05-23T13:07:02.321Z</time>
      </trkpt>
      <trkpt lat="45.44882" lon="5.78674">
        <ele>519.721863</ele>
        <time>2019-05-23T13:07:07.325Z</time>
      </trkpt>
      <trkpt lat="45.44885" lon="5.78681">
        <ele>522.429016</ele>
        <time>2019-05-23T13:07:12.325Z</time>
      </trkpt>
      <trkpt lat="45.44887" lon="5.78689">
        <ele>521.186096</ele>
        <time>2019-05-23T13:07:17.325Z</time>
      </trkpt>
      <trkpt lat="45.44886" lon="5.78701">
        <ele>521.012451</ele>
        <time>2019-05-23T13:07:22.325Z</time>
      </trkpt>
      <trkpt lat="45.44884" lon="5.78713">
        <ele>523.321899</ele>
        <time>2019-05-23T13:07:28.319Z</time>
      </trkpt>
      <trkpt lat="45.44888" lon="5.78724">
        <ele>529.830322</ele>
        <time>2019-05-23T13:07:33.319Z</time>
      </trkpt>
      <trkpt lat="45.44894" lon="5.7873">
        <ele>534.69043</ele>
        <time>2019-05-23T13:07:38.319Z</time>
      </trkpt>
      <trkpt lat="45.44898" lon="5.78739">
        <ele>533.978394</ele>
        <time>2019-05-23T13:07:43.319Z</time>
      </trkpt>
      <trkpt lat="45.44901" lon="5.78744">
        <ele>532.39917</ele>
        <time>2019-05-23T13:07:48.323Z</time>
      </trkpt>
      <trkpt lat="45.44901" lon="5.78753">
        <ele>532.742065</ele>
        <time>2019-05-23T13:07:53.323Z</time>
      </trkpt>
      <trkpt lat="45.44902" lon="5.78761">
        <ele>532.549561</ele>
        <time>2019-05-23T13:07:58.323Z</time>
      </trkpt>
      <trkpt lat="45.44905" lon="5.78767">
        <ele>530.685547</ele>
        <time>2019-05-23T13:08:03.809Z</time>
      </trkpt>
      <trkpt lat="45.44909" lon="5.78772">
        <ele>528.454102</ele>
        <time>2019-05-23T13:08:08.870Z</time>
      </trkpt>
      <trkpt lat="45.44913" lon="5.78776">
        <ele>531.189209</ele>
        <time>2019-05-23T13:08:13.942Z</time>
      </trkpt>
      <trkpt lat="45.44917" lon="5.78782">
        <ele>532.812744</ele>
        <time>2019-05-23T13:08:18.985Z</time>
      </trkpt>
      <trkpt lat="45.4492" lon="5.78787">
        <ele>536.338623</ele>
        <time>2019-05-23T13:08:24.037Z</time>
      </trkpt>
      <trkpt lat="45.44924" lon="5.78792">
        <ele>537.251465</ele>
        <time>2019-05-23T13:08:29.115Z</time>
      </trkpt>
      <trkpt lat="45.44926" lon="5.78796">
        <ele>540.96521</ele>
        <time>2019-05-23T13:08:34.218Z</time>
      </trkpt>
      <trkpt lat="45.4493" lon="5.78801">
        <ele>540.749756</ele>
        <time>2019-05-23T13:08:39.268Z</time>
      </trkpt>
      <trkpt lat="45.44934" lon="5.78807">
        <ele>541.118164</ele>
        <time>2019-05-23T13:08:44.320Z</time>
      </trkpt>
      <trkpt lat="45.4494" lon="5.78811">
        <ele>538.096436</ele>
        <time>2019-05-23T13:08:49.320Z</time>
      </trkpt>
      <trkpt lat="45.44944" lon="5.78816">
        <ele>539.641846</ele>
        <time>2019-05-23T13:08:54.320Z</time>
      </trkpt>
      <trkpt lat="45.44945" lon="5.78823">
        <ele>540.856201</ele>
        <time>2019-05-23T13:08:59.320Z</time>
      </trkpt>
      <trkpt lat="45.44946" lon="5.78829">
        <ele>542.451904</ele>
        <time>2019-05-23T13:09:04.320Z</time>
      </trkpt>
      <trkpt lat="45.44948" lon="5.78831">
        <ele>543.967285</ele>
        <time>2019-05-23T13:09:09.797Z</time>
      </trkpt>
      <trkpt lat="45.44948" lon="5.78836">
        <ele>543.420898</ele>
        <time>2019-05-23T13:09:14.850Z</time>
      </trkpt>
      <trkpt lat="45.44949" lon="5.78841">
        <ele>544.516113</ele>
        <time>2019-05-23T13:09:19.890Z</time>
      </trkpt>
      <trkpt lat="45.44951" lon="5.78842">
        <ele>547.468872</ele>
        <time>2019-05-23T13:09:24.936Z</time>
      </trkpt>
      <trkpt lat="45.44954" lon="5.78844">
        <ele>551.456543</ele>
        <time>2019-05-23T13:09:32.515Z</time>
      </trkpt>
      <trkpt lat="45.44957" lon="5.78848">
        <ele>552.840576</ele>
        <time>2019-05-23T13:09:37.573Z</time>
      </trkpt>
      <trkpt lat="45.44961" lon="5.78848">
        <ele>554.666504</ele>
        <time>2019-05-23T13:09:42.610Z</time>
      </trkpt>
      <trkpt lat="45.44969" lon="5.78849">
        <ele>551.549561</ele>
        <time>2019-05-23T13:09:47.658Z</time>
      </trkpt>
      <trkpt lat="45.44976" lon="5.78853">
        <ele>550.319092</ele>
        <time>2019-05-23T13:09:52.706Z</time>
      </trkpt>
      <trkpt lat="45.44982" lon="5.78858">
        <ele>547.522461</ele>
        <time>2019-05-23T13:09:57.755Z</time>
      </trkpt>
      <trkpt lat="45.44985" lon="5.78865">
        <ele>548.499756</ele>
        <time>2019-05-23T13:10:02.792Z</time>
      </trkpt>
      <trkpt lat="45.44986" lon="5.78874">
        <ele>548.575195</ele>
        <time>2019-05-23T13:10:07.850Z</time>
      </trkpt>
      <trkpt lat="45.44986" lon="5.78877">
        <ele>544.795898</ele>
        <time>2019-05-23T13:10:12.894Z</time>
      </trkpt>
      <trkpt lat="45.44989" lon="5.78883">
        <ele>543.798096</ele>
        <time>2019-05-23T13:10:17.947Z</time>
      </trkpt>
      <trkpt lat="45.44993" lon="5.78894">
        <ele>545.545654</ele>
        <time>2019-05-23T13:10:23.005Z</time>
      </trkpt>
      <trkpt lat="45.44996" lon="5.78908">
        <ele>546.22229</ele>
        <time>2019-05-23T13:10:28.046Z</time>
      </trkpt>
      <trkpt lat="45.44999" lon="5.78919">
        <ele>544.771851</ele>
        <time>2019-05-23T13:10:33.086Z</time>
      </trkpt>
      <trkpt lat="45.45004" lon="5.7893">
        <ele>546.803223</ele>
        <time>2019-05-23T13:10:38.128Z</time>
      </trkpt>
      <trkpt lat="45.45011" lon="5.78939">
        <ele>548.999512</ele>
        <time>2019-05-23T13:10:43.207Z</time>
      </trkpt>
      <trkpt lat="45.45017" lon="5.78947">
        <ele>550.249512</ele>
        <time>2019-05-23T13:10:48.289Z</time>
      </trkpt>
      <trkpt lat="45.45026" lon="5.78956">
        <ele>554.759521</ele>
        <time>2019-05-23T13:10:53.328Z</time>
      </trkpt>
      <trkpt lat="45.45032" lon="5.78964">
        <ele>557.024292</ele>
        <time>2019-05-23T13:10:58.328Z</time>
      </trkpt>
      <trkpt lat="45.45038" lon="5.78972">
        <ele>557.723267</ele>
        <time>2019-05-23T13:11:03.465Z</time>
      </trkpt>
      <trkpt lat="45.45043" lon="5.78983">
        <ele>555.184814</ele>
        <time>2019-05-23T13:11:08.520Z</time>
      </trkpt>
      <trkpt lat="45.4505" lon="5.78995">
        <ele>555.329346</ele>
        <time>2019-05-23T13:11:13.547Z</time>
      </trkpt>
      <trkpt lat="45.45054" lon="5.79006">
        <ele>556.318848</ele>
        <time>2019-05-23T13:11:18.586Z</time>
      </trkpt>
      <trkpt lat="45.45056" lon="5.7902">
        <ele>555.832153</ele>
        <time>2019-05-23T13:11:23.635Z</time>
      </trkpt>
      <trkpt lat="45.45058" lon="5.79033">
        <ele>556.655273</ele>
        <time>2019-05-23T13:11:28.688Z</time>
      </trkpt>
      <trkpt lat="45.45061" lon="5.79046">
        <ele>557.958618</ele>
        <time>2019-05-23T13:11:33.739Z</time>
      </trkpt>
      <trkpt lat="45.45062" lon="5.79059">
        <ele>561.516846</ele>
        <time>2019-05-23T13:11:38.787Z</time>
      </trkpt>
      <trkpt lat="45.45065" lon="5.79071">
        <ele>562.367676</ele>
        <time>2019-05-23T13:11:43.852Z</time>
      </trkpt>
      <trkpt lat="45.45066" lon="5.79085">
        <ele>562.544678</ele>
        <time>2019-05-23T13:11:48.888Z</time>
      </trkpt>
      <trkpt lat="45.4507" lon="5.79093">
        <ele>563.391357</ele>
        <time>2019-05-23T13:11:53.947Z</time>
      </trkpt>
      <trkpt lat="45.45073" lon="5.791">
        <ele>561.333252</ele>
        <time>2019-05-23T13:11:58.981Z</time>
      </trkpt>
      <trkpt lat="45.45079" lon="5.7911">
        <ele>561.598511</ele>
        <time>2019-05-23T13:12:04.050Z</time>
      </trkpt>
      <trkpt lat="45.45084" lon="5.7912">
        <ele>563.835449</ele>
        <time>2019-05-23T13:12:09.114Z</time>
      </trkpt>
      <trkpt lat="45.45088" lon="5.79128">
        <ele>564.043213</ele>
        <time>2019-05-23T13:12:14.168Z</time>
      </trkpt>
      <trkpt lat="45.45096" lon="5.7913">
        <ele>568.467896</ele>
        <time>2019-05-23T13:12:19.211Z</time>
      </trkpt>
      <trkpt lat="45.45101" lon="5.79137">
        <ele>569.890869</ele>
        <time>2019-05-23T13:12:24.265Z</time>
      </trkpt>
      <trkpt lat="45.4511" lon="5.79145">
        <ele>574.647461</ele>
        <time>2019-05-23T13:12:29.317Z</time>
      </trkpt>
      <trkpt lat="45.45118" lon="5.79149">
        <ele>575.934814</ele>
        <time>2019-05-23T13:12:34.326Z</time>
      </trkpt>
      <trkpt lat="45.45127" lon="5.79155">
        <ele>576.537354</ele>
        <time>2019-05-23T13:12:39.326Z</time>
      </trkpt>
      <trkpt lat="45.45135" lon="5.79158">
        <ele>579.930298</ele>
        <time>2019-05-23T13:12:44.326Z</time>
      </trkpt>
      <trkpt lat="45.45145" lon="5.7916">
        <ele>585.506714</ele>
        <time>2019-05-23T13:12:49.483Z</time>
      </trkpt>
      <trkpt lat="45.45154" lon="5.79159">
        <ele>588.813599</ele>
        <time>2019-05-23T13:12:54.537Z</time>
      </trkpt>
      <trkpt lat="45.45163" lon="5.79157">
        <ele>591.405518</ele>
        <time>2019-05-23T13:12:59.589Z</time>
      </trkpt>
      <trkpt lat="45.45173" lon="5.79157">
        <ele>597.786865</ele>
        <time>2019-05-23T13:13:04.647Z</time>
      </trkpt>
      <trkpt lat="45.45181" lon="5.79159">
        <ele>599.727295</ele>
        <time>2019-05-23T13:13:09.692Z</time>
      </trkpt>
      <trkpt lat="45.4519" lon="5.79161">
        <ele>599.194702</ele>
        <time>2019-05-23T13:13:14.747Z</time>
      </trkpt>
      <trkpt lat="45.452" lon="5.79164">
        <ele>603.278564</ele>
        <time>2019-05-23T13:13:19.805Z</time>
      </trkpt>
      <trkpt lat="45.45209" lon="5.79162">
        <ele>604.000977</ele>
        <time>2019-05-23T13:13:24.845Z</time>
      </trkpt>
      <trkpt lat="45.45217" lon="5.79163">
        <ele>601.684082</ele>
        <time>2019-05-23T13:13:29.897Z</time>
      </trkpt>
      <trkpt lat="45.45226" lon="5.79163">
        <ele>605.305908</ele>
        <time>2019-05-23T13:13:34.951Z</time>
      </trkpt>
      <trkpt lat="45.45235" lon="5.79162">
        <ele>607.057007</ele>
        <time>2019-05-23T13:13:40.006Z</time>
      </trkpt>
      <trkpt lat="45.45245" lon="5.79165">
        <ele>600.358276</ele>
        <time>2019-05-23T13:13:45.039Z</time>
      </trkpt>
      <trkpt lat="45.45255" lon="5.79169">
        <ele>593.235352</ele>
        <time>2019-05-23T13:13:50.078Z</time>
      </trkpt>
      <trkpt lat="45.45265" lon="5.79173">
        <ele>596.318604</ele>
        <time>2019-05-23T13:13:55.127Z</time>
      </trkpt>
      <trkpt lat="45.45274" lon="5.79172">
        <ele>596.814697</ele>
        <time>2019-05-23T13:14:00.222Z</time>
      </trkpt>
      <trkpt lat="45.45284" lon="5.79172">
        <ele>598.898315</ele>
        <time>2019-05-23T13:14:05.264Z</time>
      </trkpt>
      <trkpt lat="45.45296" lon="5.7917">
        <ele>599.062988</ele>
        <time>2019-05-23T13:14:10.326Z</time>
      </trkpt>
      <trkpt lat="45.45305" lon="5.79174">
        <ele>594.718872</ele>
        <time>2019-05-23T13:14:15.336Z</time>
      </trkpt>
      <trkpt lat="45.45315" lon="5.79178">
        <ele>593.838623</ele>
        <time>2019-05-23T13:14:20.433Z</time>
      </trkpt>
      <trkpt lat="45.45324" lon="5.79183">
        <ele>590.945313</ele>
        <time>2019-05-23T13:14:25.486Z</time>
      </trkpt>
      <trkpt lat="45.45333" lon="5.79188">
        <ele>594.104004</ele>
        <time>2019-05-23T13:14:30.556Z</time>
      </trkpt>
      <trkpt lat="45.45339" lon="5.79189">
        <ele>592.574707</ele>
        <time>2019-05-23T13:14:35.583Z</time>
      </trkpt>
      <trkpt lat="45.45344" lon="5.79186">
        <ele>590.421265</ele>
        <time>2019-05-23T13:14:40.625Z</time>
      </trkpt>
      <trkpt lat="45.45339" lon="5.79183">
        <ele>588.895386</ele>
        <time>2019-05-23T13:14:45.676Z</time>
      </trkpt>
      <trkpt lat="45.4534" lon="5.79182">
        <ele>585.161377</ele>
        <time>2019-05-23T13:15:00.323Z</time>
      </trkpt>
      <trkpt lat="45.45344" lon="5.79182">
        <ele>583.777832</ele>
        <time>2019-05-23T13:15:05.876Z</time>
      </trkpt>
      <trkpt lat="45.45344" lon="5.79187">
        <ele>581.005127</ele>
        <time>2019-05-23T13:15:17.313Z</time>
      </trkpt>
      <trkpt lat="45.45346" lon="5.79196">
        <ele>582.440063</ele>
        <time>2019-05-23T13:15:22.313Z</time>
      </trkpt>
      <trkpt lat="45.45348" lon="5.79206">
        <ele>582.916992</ele>
        <time>2019-05-23T13:15:27.331Z</time>
      </trkpt>
      <trkpt lat="45.4535" lon="5.79219">
        <ele>584.454712</ele>
        <time>2019-05-23T13:15:33.323Z</time>
      </trkpt>
      <trkpt lat="45.45353" lon="5.79229">
        <ele>586.678955</ele>
        <time>2019-05-23T13:15:38.746Z</time>
      </trkpt>
      <trkpt lat="45.45356" lon="5.79241">
        <ele>586.63501</ele>
        <time>2019-05-23T13:15:43.795Z</time>
      </trkpt>
      <trkpt lat="45.45356" lon="5.79256">
        <ele>587.480225</ele>
        <time>2019-05-23T13:15:48.858Z</time>
      </trkpt>
      <trkpt lat="45.45355" lon="5.79269">
        <ele>586.713501</ele>
        <time>2019-05-23T13:15:53.906Z</time>
      </trkpt>
      <trkpt lat="45.45359" lon="5.79284">
        <ele>586.059082</ele>
        <time>2019-05-23T13:15:58.959Z</time>
      </trkpt>
      <trkpt lat="45.45354" lon="5.79298">
        <ele>585.596558</ele>
        <time>2019-05-23T13:16:04.000Z</time>
      </trkpt>
      <trkpt lat="45.45347" lon="5.79314">
        <ele>583.332764</ele>
        <time>2019-05-23T13:16:09.057Z</time>
      </trkpt>
      <trkpt lat="45.45353" lon="5.79329">
        <ele>583.787598</ele>
        <time>2019-05-23T13:16:14.124Z</time>
      </trkpt>
      <trkpt lat="45.45361" lon="5.79345">
        <ele>584.56543</ele>
        <time>2019-05-23T13:16:19.169Z</time>
      </trkpt>
      <trkpt lat="45.45366" lon="5.79361">
        <ele>586.682129</ele>
        <time>2019-05-23T13:16:24.208Z</time>
      </trkpt>
      <trkpt lat="45.4537" lon="5.79378">
        <ele>588.264893</ele>
        <time>2019-05-23T13:16:29.297Z</time>
      </trkpt>
      <trkpt lat="45.45378" lon="5.79397">
        <ele>589.69397</ele>
        <time>2019-05-23T13:16:34.304Z</time>
      </trkpt>
      <trkpt lat="45.45385" lon="5.79413">
        <ele>592.085938</ele>
        <time>2019-05-23T13:16:39.314Z</time>
      </trkpt>
      <trkpt lat="45.45392" lon="5.7943">
        <ele>595.606323</ele>
        <time>2019-05-23T13:16:44.320Z</time>
      </trkpt>
      <trkpt lat="45.454" lon="5.79449">
        <ele>596.724121</ele>
        <time>2019-05-23T13:16:49.320Z</time>
      </trkpt>
      <trkpt lat="45.45407" lon="5.79466">
        <ele>597.232056</ele>
        <time>2019-05-23T13:16:54.320Z</time>
      </trkpt>
      <trkpt lat="45.45413" lon="5.79481">
        <ele>597.250977</ele>
        <time>2019-05-23T13:16:59.320Z</time>
      </trkpt>
      <trkpt lat="45.45419" lon="5.79499">
        <ele>600.750732</ele>
        <time>2019-05-23T13:17:04.321Z</time>
      </trkpt>
      <trkpt lat="45.45424" lon="5.79518">
        <ele>601.495972</ele>
        <time>2019-05-23T13:17:09.695Z</time>
      </trkpt>
      <trkpt lat="45.45427" lon="5.79538">
        <ele>602.624268</ele>
        <time>2019-05-23T13:17:14.756Z</time>
      </trkpt>
      <trkpt lat="45.45429" lon="5.79559">
        <ele>603.355225</ele>
        <time>2019-05-23T13:17:19.804Z</time>
      </trkpt>
      <trkpt lat="45.4543" lon="5.7958">
        <ele>604.219116</ele>
        <time>2019-05-23T13:17:24.871Z</time>
      </trkpt>
      <trkpt lat="45.45429" lon="5.79601">
        <ele>605.517822</ele>
        <time>2019-05-23T13:17:29.903Z</time>
      </trkpt>
      <trkpt lat="45.45425" lon="5.79622">
        <ele>607.879883</ele>
        <time>2019-05-23T13:17:34.962Z</time>
      </trkpt>
      <trkpt lat="45.45421" lon="5.79645">
        <ele>607.699463</ele>
        <time>2019-05-23T13:17:40.025Z</time>
      </trkpt>
      <trkpt lat="45.45414" lon="5.79667">
        <ele>606.140503</ele>
        <time>2019-05-23T13:17:45.053Z</time>
      </trkpt>
      <trkpt lat="45.45406" lon="5.79689">
        <ele>605.244873</ele>
        <time>2019-05-23T13:17:50.118Z</time>
      </trkpt>
      <trkpt lat="45.45397" lon="5.79706">
        <ele>605.075195</ele>
        <time>2019-05-23T13:17:55.167Z</time>
      </trkpt>
      <trkpt lat="45.45385" lon="5.79721">
        <ele>605.709717</ele>
        <time>2019-05-23T13:18:00.227Z</time>
      </trkpt>
      <trkpt lat="45.45373" lon="5.79738">
        <ele>607.740967</ele>
        <time>2019-05-23T13:18:05.281Z</time>
      </trkpt>
      <trkpt lat="45.4536" lon="5.79756">
        <ele>607.308105</ele>
        <time>2019-05-23T13:18:10.340Z</time>
      </trkpt>
      <trkpt lat="45.45346" lon="5.79774">
        <ele>604.055908</ele>
        <time>2019-05-23T13:18:15.388Z</time>
      </trkpt>
      <trkpt lat="45.45335" lon="5.79794">
        <ele>606.031494</ele>
        <time>2019-05-23T13:18:20.424Z</time>
      </trkpt>
      <trkpt lat="45.45326" lon="5.79815">
        <ele>607.777344</ele>
        <time>2019-05-23T13:18:25.462Z</time>
      </trkpt>
      <trkpt lat="45.45317" lon="5.79836">
        <ele>607.069824</ele>
        <time>2019-05-23T13:18:30.511Z</time>
      </trkpt>
      <trkpt lat="45.45309" lon="5.79858">
        <ele>607.972168</ele>
        <time>2019-05-23T13:18:35.551Z</time>
      </trkpt>
      <trkpt lat="45.45303" lon="5.7988">
        <ele>610.191406</ele>
        <time>2019-05-23T13:18:40.612Z</time>
      </trkpt>
      <trkpt lat="45.45299" lon="5.79902">
        <ele>609.238525</ele>
        <time>2019-05-23T13:18:45.662Z</time>
      </trkpt>
      <trkpt lat="45.45293" lon="5.79927">
        <ele>606.524902</ele>
        <time>2019-05-23T13:18:50.709Z</time>
      </trkpt>
      <trkpt lat="45.45288" lon="5.79952">
        <ele>603.880127</ele>
        <time>2019-05-23T13:18:55.770Z</time>
      </trkpt>
      <trkpt lat="45.45289" lon="5.79977">
        <ele>605.290771</ele>
        <time>2019-05-23T13:19:00.812Z</time>
      </trkpt>
      <trkpt lat="45.45291" lon="5.80005">
        <ele>604.281494</ele>
        <time>2019-05-23T13:19:05.860Z</time>
      </trkpt>
      <trkpt lat="45.45295" lon="5.80032">
        <ele>606.091553</ele>
        <time>2019-05-23T13:19:10.907Z</time>
      </trkpt>
      <trkpt lat="45.45301" lon="5.80056">
        <ele>608.658447</ele>
        <time>2019-05-23T13:19:15.945Z</time>
      </trkpt>
      <trkpt lat="45.45308" lon="5.80079">
        <ele>612.074219</ele>
        <time>2019-05-23T13:19:21.003Z</time>
      </trkpt>
      <trkpt lat="45.45313" lon="5.801">
        <ele>610.881348</ele>
        <time>2019-05-23T13:19:26.043Z</time>
      </trkpt>
      <trkpt lat="45.45322" lon="5.80122">
        <ele>614.044922</ele>
        <time>2019-05-23T13:19:31.087Z</time>
      </trkpt>
      <trkpt lat="45.45335" lon="5.80142">
        <ele>613.35144</ele>
        <time>2019-05-23T13:19:36.128Z</time>
      </trkpt>
      <trkpt lat="45.45348" lon="5.80159">
        <ele>612.588135</ele>
        <time>2019-05-23T13:19:41.181Z</time>
      </trkpt>
      <trkpt lat="45.45361" lon="5.80173">
        <ele>613.894775</ele>
        <time>2019-05-23T13:19:46.240Z</time>
      </trkpt>
      <trkpt lat="45.45372" lon="5.80185">
        <ele>617.128174</ele>
        <time>2019-05-23T13:19:51.297Z</time>
      </trkpt>
      <trkpt lat="45.45392" lon="5.80207">
        <ele>616.851563</ele>
        <time>2019-05-23T13:19:56.330Z</time>
      </trkpt>
      <trkpt lat="45.45405" lon="5.80236">
        <ele>617.499023</ele>
        <time>2019-05-23T13:20:01.330Z</time>
      </trkpt>
      <trkpt lat="45.45416" lon="5.80267">
        <ele>618.048584</ele>
        <time>2019-05-23T13:20:06.330Z</time>
      </trkpt>
      <trkpt lat="45.45422" lon="5.80283">
        <ele>617.419312</ele>
        <time>2019-05-23T13:20:11.330Z</time>
      </trkpt>
      <trkpt lat="45.4543" lon="5.80306">
        <ele>621.802856</ele>
        <time>2019-05-23T13:20:16.330Z</time>
      </trkpt>
      <trkpt lat="45.45436" lon="5.80316">
        <ele>623.591553</ele>
        <time>2019-05-23T13:20:21.331Z</time>
      </trkpt>
      <trkpt lat="45.45441" lon="5.80322">
        <ele>625.197266</ele>
        <time>2019-05-23T13:20:26.331Z</time>
      </trkpt>
      <trkpt lat="45.45446" lon="5.80327">
        <ele>633.619019</ele>
        <time>2019-05-23T13:20:31.331Z</time>
      </trkpt>
      <trkpt lat="45.45454" lon="5.80335">
        <ele>630.707764</ele>
        <time>2019-05-23T13:20:37.372Z</time>
      </trkpt>
      <trkpt lat="45.45459" lon="5.80345">
        <ele>629.177246</ele>
        <time>2019-05-23T13:20:43.316Z</time>
      </trkpt>
      <trkpt lat="45.45463" lon="5.80351">
        <ele>626.023438</ele>
        <time>2019-05-23T13:20:48.349Z</time>
      </trkpt>
      <trkpt lat="45.45468" lon="5.80355">
        <ele>624.842285</ele>
        <time>2019-05-23T13:20:54.355Z</time>
      </trkpt>
      <trkpt lat="45.45475" lon="5.8036">
        <ele>622.280762</ele>
        <time>2019-05-23T13:20:59.437Z</time>
      </trkpt>
      <trkpt lat="45.45481" lon="5.80364">
        <ele>624.761719</ele>
        <time>2019-05-23T13:21:04.506Z</time>
      </trkpt>
      <trkpt lat="45.45486" lon="5.80367">
        <ele>627.129639</ele>
        <time>2019-05-23T13:21:09.548Z</time>
      </trkpt>
      <trkpt lat="45.45491" lon="5.8037">
        <ele>630.155884</ele>
        <time>2019-05-23T13:21:14.632Z</time>
      </trkpt>
      <trkpt lat="45.45496" lon="5.80374">
        <ele>628.893311</ele>
        <time>2019-05-23T13:21:19.674Z</time>
      </trkpt>
      <trkpt lat="45.455" lon="5.80377">
        <ele>632.748047</ele>
        <time>2019-05-23T13:21:24.712Z</time>
      </trkpt>
      <trkpt lat="45.45504" lon="5.80381">
        <ele>633.642944</ele>
        <time>2019-05-23T13:21:29.756Z</time>
      </trkpt>
      <trkpt lat="45.45509" lon="5.80383">
        <ele>639.9646</ele>
        <time>2019-05-23T13:21:34.810Z</time>
      </trkpt>
      <trkpt lat="45.45515" lon="5.80385">
        <ele>645.439697</ele>
        <time>2019-05-23T13:21:39.868Z</time>
      </trkpt>
      <trkpt lat="45.45521" lon="5.80387">
        <ele>649.199707</ele>
        <time>2019-05-23T13:21:44.902Z</time>
      </trkpt>
      <trkpt lat="45.45526" lon="5.80386">
        <ele>647.2771</ele>
        <time>2019-05-23T13:21:49.945Z</time>
      </trkpt>
      <trkpt lat="45.45535" lon="5.80391">
        <ele>646.349609</ele>
        <time>2019-05-23T13:21:54.998Z</time>
      </trkpt>
      <trkpt lat="45.45546" lon="5.80403">
        <ele>644.433105</ele>
        <time>2019-05-23T13:22:00.061Z</time>
      </trkpt>
      <trkpt lat="45.45555" lon="5.80414">
        <ele>644.698975</ele>
        <time>2019-05-23T13:22:05.114Z</time>
      </trkpt>
      <trkpt lat="45.45563" lon="5.80422">
        <ele>646.463013</ele>
        <time>2019-05-23T13:22:10.170Z</time>
      </trkpt>
      <trkpt lat="45.45572" lon="5.80431">
        <ele>645.505859</ele>
        <time>2019-05-23T13:22:15.221Z</time>
      </trkpt>
      <trkpt lat="45.4558" lon="5.80439">
        <ele>645.74585</ele>
        <time>2019-05-23T13:22:20.269Z</time>
      </trkpt>
      <trkpt lat="45.45588" lon="5.80446">
        <ele>644.697388</ele>
        <time>2019-05-23T13:22:25.327Z</time>
      </trkpt>
      <trkpt lat="45.45595" lon="5.80455">
        <ele>646.207275</ele>
        <time>2019-05-23T13:22:30.327Z</time>
      </trkpt>
      <trkpt lat="45.456" lon="5.80461">
        <ele>646.457275</ele>
        <time>2019-05-23T13:22:35.336Z</time>
      </trkpt>
      <trkpt lat="45.45607" lon="5.80469">
        <ele>645.404663</ele>
        <time>2019-05-23T13:22:40.470Z</time>
      </trkpt>
      <trkpt lat="45.45613" lon="5.80476">
        <ele>647.218384</ele>
        <time>2019-05-23T13:22:45.529Z</time>
      </trkpt>
      <trkpt lat="45.45617" lon="5.80483">
        <ele>650.911865</ele>
        <time>2019-05-23T13:22:50.570Z</time>
      </trkpt>
      <trkpt lat="45.45624" lon="5.80489">
        <ele>654.771729</ele>
        <time>2019-05-23T13:22:55.598Z</time>
      </trkpt>
      <trkpt lat="45.4563" lon="5.80494">
        <ele>657.37561</ele>
        <time>2019-05-23T13:23:00.650Z</time>
      </trkpt>
      <trkpt lat="45.45636" lon="5.80498">
        <ele>657.823242</ele>
        <time>2019-05-23T13:23:05.703Z</time>
      </trkpt>
      <trkpt lat="45.45642" lon="5.80502">
        <ele>658.246094</ele>
        <time>2019-05-23T13:23:10.754Z</time>
      </trkpt>
      <trkpt lat="45.45646" lon="5.80505">
        <ele>655.845459</ele>
        <time>2019-05-23T13:23:15.817Z</time>
      </trkpt>
      <trkpt lat="45.45653" lon="5.8051">
        <ele>655.884033</ele>
        <time>2019-05-23T13:23:20.876Z</time>
      </trkpt>
      <trkpt lat="45.45661" lon="5.80517">
        <ele>655.672607</ele>
        <time>2019-05-23T13:23:25.915Z</time>
      </trkpt>
      <trkpt lat="45.45669" lon="5.80525">
        <ele>657.334717</ele>
        <time>2019-05-23T13:23:30.956Z</time>
      </trkpt>
      <trkpt lat="45.45676" lon="5.80531">
        <ele>655.86084</ele>
        <time>2019-05-23T13:23:36.021Z</time>
      </trkpt>
      <trkpt lat="45.45682" lon="5.80537">
        <ele>657.067139</ele>
        <time>2019-05-23T13:23:41.053Z</time>
      </trkpt>
      <trkpt lat="45.45688" lon="5.80543">
        <ele>657.274658</ele>
        <time>2019-05-23T13:23:46.093Z</time>
      </trkpt>
      <trkpt lat="45.45694" lon="5.80548">
        <ele>656.359741</ele>
        <time>2019-05-23T13:23:51.145Z</time>
      </trkpt>
      <trkpt lat="45.45699" lon="5.80555">
        <ele>658.549683</ele>
        <time>2019-05-23T13:23:56.194Z</time>
      </trkpt>
      <trkpt lat="45.45704" lon="5.80562">
        <ele>658.993652</ele>
        <time>2019-05-23T13:24:01.273Z</time>
      </trkpt>
      <trkpt lat="45.45709" lon="5.80568">
        <ele>658.012451</ele>
        <time>2019-05-23T13:24:06.328Z</time>
      </trkpt>
      <trkpt lat="45.45714" lon="5.80575">
        <ele>658.434204</ele>
        <time>2019-05-23T13:24:11.329Z</time>
      </trkpt>
      <trkpt lat="45.45719" lon="5.80585">
        <ele>657.567261</ele>
        <time>2019-05-23T13:24:16.329Z</time>
      </trkpt>
      <trkpt lat="45.45721" lon="5.80596">
        <ele>659.509399</ele>
        <time>2019-05-23T13:24:21.482Z</time>
      </trkpt>
      <trkpt lat="45.45722" lon="5.80607">
        <ele>662.831909</ele>
        <time>2019-05-23T13:24:26.552Z</time>
      </trkpt>
      <trkpt lat="45.45723" lon="5.80626">
        <ele>663.380493</ele>
        <time>2019-05-23T13:24:31.603Z</time>
      </trkpt>
      <trkpt lat="45.45722" lon="5.80645">
        <ele>664.154785</ele>
        <time>2019-05-23T13:24:36.657Z</time>
      </trkpt>
      <trkpt lat="45.45721" lon="5.80663">
        <ele>664.026367</ele>
        <time>2019-05-23T13:24:41.707Z</time>
      </trkpt>
      <trkpt lat="45.45723" lon="5.80677">
        <ele>665.44043</ele>
        <time>2019-05-23T13:24:46.796Z</time>
      </trkpt>
      <trkpt lat="45.45724" lon="5.80693">
        <ele>663.352539</ele>
        <time>2019-05-23T13:24:51.845Z</time>
      </trkpt>
      <trkpt lat="45.45727" lon="5.80713">
        <ele>657.640869</ele>
        <time>2019-05-23T13:24:56.881Z</time>
      </trkpt>
      <trkpt lat="45.45736" lon="5.80735">
        <ele>655.966797</ele>
        <time>2019-05-23T13:25:01.936Z</time>
      </trkpt>
      <trkpt lat="45.45757" lon="5.80773">
        <ele>655.755127</ele>
        <time>2019-05-23T13:25:06.975Z</time>
      </trkpt>
      <trkpt lat="45.45775" lon="5.80808">
        <ele>654.721069</ele>
        <time>2019-05-23T13:25:12.035Z</time>
      </trkpt>
      <trkpt lat="45.45783" lon="5.80824">
        <ele>654.203125</ele>
        <time>2019-05-23T13:25:17.081Z</time>
      </trkpt>
      <trkpt lat="45.45793" lon="5.8084">
        <ele>659.212646</ele>
        <time>2019-05-23T13:25:22.113Z</time>
      </trkpt>
      <trkpt lat="45.45802" lon="5.80857">
        <ele>656.475586</ele>
        <time>2019-05-23T13:25:27.184Z</time>
      </trkpt>
      <trkpt lat="45.45813" lon="5.80871">
        <ele>657.904541</ele>
        <time>2019-05-23T13:25:32.218Z</time>
      </trkpt>
      <trkpt lat="45.45824" lon="5.80879">
        <ele>660.403076</ele>
        <time>2019-05-23T13:25:37.316Z</time>
      </trkpt>
      <trkpt lat="45.45836" lon="5.8089">
        <ele>664.590576</ele>
        <time>2019-05-23T13:25:42.332Z</time>
      </trkpt>
      <trkpt lat="45.45849" lon="5.80898">
        <ele>667.119873</ele>
        <time>2019-05-23T13:25:47.333Z</time>
      </trkpt>
      <trkpt lat="45.45861" lon="5.80909">
        <ele>663.463623</ele>
        <time>2019-05-23T13:25:52.333Z</time>
      </trkpt>
      <trkpt lat="45.45881" lon="5.80932">
        <ele>660.645996</ele>
        <time>2019-05-23T13:25:57.333Z</time>
      </trkpt>
      <trkpt lat="45.459" lon="5.80958">
        <ele>657.737671</ele>
        <time>2019-05-23T13:26:02.333Z</time>
      </trkpt>
      <trkpt lat="45.45915" lon="5.80973">
        <ele>657.904053</ele>
        <time>2019-05-23T13:26:07.333Z</time>
      </trkpt>
      <trkpt lat="45.45938" lon="5.80994">
        <ele>656.533325</ele>
        <time>2019-05-23T13:26:12.333Z</time>
      </trkpt>
      <trkpt lat="45.45956" lon="5.81014">
        <ele>653.52832</ele>
        <time>2019-05-23T13:26:17.333Z</time>
      </trkpt>
      <trkpt lat="45.45966" lon="5.81023">
        <ele>652.395264</ele>
        <time>2019-05-23T13:26:22.756Z</time>
      </trkpt>
      <trkpt lat="45.45976" lon="5.81032">
        <ele>650.644287</ele>
        <time>2019-05-23T13:26:27.798Z</time>
      </trkpt>
      <trkpt lat="45.45988" lon="5.81049">
        <ele>652.081299</ele>
        <time>2019-05-23T13:26:32.852Z</time>
      </trkpt>
      <trkpt lat="45.45999" lon="5.81061">
        <ele>652.029785</ele>
        <time>2019-05-23T13:26:37.902Z</time>
      </trkpt>
      <trkpt lat="45.46011" lon="5.81073">
        <ele>651.991455</ele>
        <time>2019-05-23T13:26:42.949Z</time>
      </trkpt>
      <trkpt lat="45.46024" lon="5.81085">
        <ele>653.441162</ele>
        <time>2019-05-23T13:26:48.011Z</time>
      </trkpt>
      <trkpt lat="45.46036" lon="5.81096">
        <ele>652.447021</ele>
        <time>2019-05-23T13:26:53.041Z</time>
      </trkpt>
      <trkpt lat="45.4605" lon="5.81106">
        <ele>653.269043</ele>
        <time>2019-05-23T13:26:58.101Z</time>
      </trkpt>
      <trkpt lat="45.46065" lon="5.81115">
        <ele>651.86377</ele>
        <time>2019-05-23T13:27:03.132Z</time>
      </trkpt>
      <trkpt lat="45.4608" lon="5.81124">
        <ele>654.822754</ele>
        <time>2019-05-23T13:27:08.167Z</time>
      </trkpt>
      <trkpt lat="45.46096" lon="5.81133">
        <ele>657.80249</ele>
        <time>2019-05-23T13:27:13.229Z</time>
      </trkpt>
      <trkpt lat="45.46111" lon="5.81145">
        <ele>658.735596</ele>
        <time>2019-05-23T13:27:18.293Z</time>
      </trkpt>
      <trkpt lat="45.46129" lon="5.81162">
        <ele>660.520508</ele>
        <time>2019-05-23T13:27:23.329Z</time>
      </trkpt>
      <trkpt lat="45.46145" lon="5.81171">
        <ele>659.459961</ele>
        <time>2019-05-23T13:27:28.329Z</time>
      </trkpt>
      <trkpt lat="45.46161" lon="5.81182">
        <ele>659.383545</ele>
        <time>2019-05-23T13:27:33.329Z</time>
      </trkpt>
      <trkpt lat="45.46178" lon="5.81195">
        <ele>659.219116</ele>
        <time>2019-05-23T13:27:38.329Z</time>
      </trkpt>
      <trkpt lat="45.46199" lon="5.81208">
        <ele>659.536255</ele>
        <time>2019-05-23T13:27:43.329Z</time>
      </trkpt>
      <trkpt lat="45.46221" lon="5.81221">
        <ele>659.303101</ele>
        <time>2019-05-23T13:27:48.329Z</time>
      </trkpt>
      <trkpt lat="45.46239" lon="5.81231">
        <ele>664.374512</ele>
        <time>2019-05-23T13:27:53.329Z</time>
      </trkpt>
      <trkpt lat="45.46259" lon="5.81249">
        <ele>665.599609</ele>
        <time>2019-05-23T13:27:58.329Z</time>
      </trkpt>
      <trkpt lat="45.46276" lon="5.81266">
        <ele>663.800903</ele>
        <time>2019-05-23T13:28:03.735Z</time>
      </trkpt>
      <trkpt lat="45.46292" lon="5.81281">
        <ele>663.552124</ele>
        <time>2019-05-23T13:28:08.793Z</time>
      </trkpt>
      <trkpt lat="45.46312" lon="5.81297">
        <ele>665.2146</ele>
        <time>2019-05-23T13:28:13.868Z</time>
      </trkpt>
      <trkpt lat="45.46332" lon="5.81313">
        <ele>664.603271</ele>
        <time>2019-05-23T13:28:18.897Z</time>
      </trkpt>
      <trkpt lat="45.46354" lon="5.81329">
        <ele>666.492188</ele>
        <time>2019-05-23T13:28:23.946Z</time>
      </trkpt>
      <trkpt lat="45.46373" lon="5.81347">
        <ele>666.911743</ele>
        <time>2019-05-23T13:28:28.993Z</time>
      </trkpt>
      <trkpt lat="45.46392" lon="5.8136">
        <ele>665.776123</ele>
        <time>2019-05-23T13:28:34.053Z</time>
      </trkpt>
      <trkpt lat="45.46413" lon="5.81376">
        <ele>667.613281</ele>
        <time>2019-05-23T13:28:39.135Z</time>
      </trkpt>
      <trkpt lat="45.46434" lon="5.81389">
        <ele>665.866943</ele>
        <time>2019-05-23T13:28:44.180Z</time>
      </trkpt>
      <trkpt lat="45.46454" lon="5.81402">
        <ele>667.738892</ele>
        <time>2019-05-23T13:28:49.245Z</time>
      </trkpt>
      <trkpt lat="45.46479" lon="5.81414">
        <ele>667.109253</ele>
        <time>2019-05-23T13:28:54.310Z</time>
      </trkpt>
      <trkpt lat="45.46498" lon="5.81424">
        <ele>667.036865</ele>
        <time>2019-05-23T13:28:59.319Z</time>
      </trkpt>
      <trkpt lat="45.46521" lon="5.81434">
        <ele>665.621582</ele>
        <time>2019-05-23T13:29:04.329Z</time>
      </trkpt>
      <trkpt lat="45.46541" lon="5.81446">
        <ele>666.16748</ele>
        <time>2019-05-23T13:29:09.852Z</time>
      </trkpt>
      <trkpt lat="45.4656" lon="5.81455">
        <ele>668.367188</ele>
        <time>2019-05-23T13:29:14.907Z</time>
      </trkpt>
      <trkpt lat="45.46581" lon="5.81466">
        <ele>668.542725</ele>
        <time>2019-05-23T13:29:19.949Z</time>
      </trkpt>
      <trkpt lat="45.46601" lon="5.81476">
        <ele>669.491455</ele>
        <time>2019-05-23T13:29:24.998Z</time>
      </trkpt>
      <trkpt lat="45.46619" lon="5.81485">
        <ele>669.377075</ele>
        <time>2019-05-23T13:29:30.048Z</time>
      </trkpt>
      <trkpt lat="45.4664" lon="5.81498">
        <ele>670.911499</ele>
        <time>2019-05-23T13:29:35.109Z</time>
      </trkpt>
      <trkpt lat="45.46661" lon="5.8151">
        <ele>671.915283</ele>
        <time>2019-05-23T13:29:40.159Z</time>
      </trkpt>
      <trkpt lat="45.46683" lon="5.8152">
        <ele>672.682983</ele>
        <time>2019-05-23T13:29:45.202Z</time>
      </trkpt>
      <trkpt lat="45.46705" lon="5.81528">
        <ele>674.300781</ele>
        <time>2019-05-23T13:29:50.268Z</time>
      </trkpt>
      <trkpt lat="45.46727" lon="5.81541">
        <ele>671.880249</ele>
        <time>2019-05-23T13:29:55.321Z</time>
      </trkpt>
      <trkpt lat="45.46748" lon="5.81552">
        <ele>670.37793</ele>
        <time>2019-05-23T13:30:00.321Z</time>
      </trkpt>
      <trkpt lat="45.46767" lon="5.81562">
        <ele>672.079956</ele>
        <time>2019-05-23T13:30:05.321Z</time>
      </trkpt>
      <trkpt lat="45.46784" lon="5.81573">
        <ele>668.695679</ele>
        <time>2019-05-23T13:30:10.321Z</time>
      </trkpt>
      <trkpt lat="45.46804" lon="5.81589">
        <ele>668.19104</ele>
        <time>2019-05-23T13:30:15.325Z</time>
      </trkpt>
      <trkpt lat="45.46827" lon="5.81607">
        <ele>670.103027</ele>
        <time>2019-05-23T13:30:20.325Z</time>
      </trkpt>
      <trkpt lat="45.46849" lon="5.81625">
        <ele>672.319458</ele>
        <time>2019-05-23T13:30:25.618Z</time>
      </trkpt>
      <trkpt lat="45.46867" lon="5.81645">
        <ele>671.804932</ele>
        <time>2019-05-23T13:30:30.680Z</time>
      </trkpt>
      <trkpt lat="45.46888" lon="5.81661">
        <ele>670.012939</ele>
        <time>2019-05-23T13:30:35.713Z</time>
      </trkpt>
      <trkpt lat="45.46905" lon="5.81684">
        <ele>668.817383</ele>
        <time>2019-05-23T13:30:40.754Z</time>
      </trkpt>
      <trkpt lat="45.46921" lon="5.81709">
        <ele>669.173096</ele>
        <time>2019-05-23T13:30:45.801Z</time>
      </trkpt>
      <trkpt lat="45.46939" lon="5.81734">
        <ele>667.247559</ele>
        <time>2019-05-23T13:30:50.886Z</time>
      </trkpt>
      <trkpt lat="45.46956" lon="5.81761">
        <ele>667.861328</ele>
        <time>2019-05-23T13:30:55.939Z</time>
      </trkpt>
      <trkpt lat="45.46973" lon="5.81786">
        <ele>667.338379</ele>
        <time>2019-05-23T13:31:00.996Z</time>
      </trkpt>
      <trkpt lat="45.46991" lon="5.81812">
        <ele>668.459473</ele>
        <time>2019-05-23T13:31:06.039Z</time>
      </trkpt>
      <trkpt lat="45.47009" lon="5.81839">
        <ele>664.160889</ele>
        <time>2019-05-23T13:31:11.104Z</time>
      </trkpt>
      <trkpt lat="45.47034" lon="5.81857">
        <ele>669.159424</ele>
        <time>2019-05-23T13:31:16.154Z</time>
      </trkpt>
      <trkpt lat="45.47055" lon="5.81872">
        <ele>670.849121</ele>
        <time>2019-05-23T13:31:21.196Z</time>
      </trkpt>
      <trkpt lat="45.47076" lon="5.81876">
        <ele>669.354614</ele>
        <time>2019-05-23T13:31:26.261Z</time>
      </trkpt>
      <trkpt lat="45.47107" lon="5.81883">
        <ele>669.572998</ele>
        <time>2019-05-23T13:31:31.319Z</time>
      </trkpt>
      <trkpt lat="45.4713" lon="5.81891">
        <ele>669.564941</ele>
        <time>2019-05-23T13:31:36.323Z</time>
      </trkpt>
      <trkpt lat="45.47149" lon="5.81895">
        <ele>670.537598</ele>
        <time>2019-05-23T13:31:41.323Z</time>
      </trkpt>
      <trkpt lat="45.47172" lon="5.81897">
        <ele>671.797852</ele>
        <time>2019-05-23T13:31:46.323Z</time>
      </trkpt>
      <trkpt lat="45.47189" lon="5.81897">
        <ele>672.296143</ele>
        <time>2019-05-23T13:31:51.325Z</time>
      </trkpt>
      <trkpt lat="45.47206" lon="5.81899">
        <ele>671.864502</ele>
        <time>2019-05-23T13:31:56.325Z</time>
      </trkpt>
      <trkpt lat="45.47227" lon="5.81906">
        <ele>672.191895</ele>
        <time>2019-05-23T13:32:01.325Z</time>
      </trkpt>
      <trkpt lat="45.47244" lon="5.81912">
        <ele>673.188965</ele>
        <time>2019-05-23T13:32:06.350Z</time>
      </trkpt>
      <trkpt lat="45.47262" lon="5.81917">
        <ele>673.239746</ele>
        <time>2019-05-23T13:32:11.350Z</time>
      </trkpt>
      <trkpt lat="45.47275" lon="5.81922">
        <ele>674.324951</ele>
        <time>2019-05-23T13:32:16.734Z</time>
      </trkpt>
      <trkpt lat="45.47289" lon="5.81927">
        <ele>673.977539</ele>
        <time>2019-05-23T13:32:21.792Z</time>
      </trkpt>
      <trkpt lat="45.47304" lon="5.81933">
        <ele>674.468384</ele>
        <time>2019-05-23T13:32:26.847Z</time>
      </trkpt>
      <trkpt lat="45.47321" lon="5.81941">
        <ele>674.403198</ele>
        <time>2019-05-23T13:32:31.895Z</time>
      </trkpt>
      <trkpt lat="45.47333" lon="5.81946">
        <ele>674.379395</ele>
        <time>2019-05-23T13:32:36.920Z</time>
      </trkpt>
      <trkpt lat="45.47349" lon="5.81953">
        <ele>674.993652</ele>
        <time>2019-05-23T13:32:41.965Z</time>
      </trkpt>
      <trkpt lat="45.47366" lon="5.81961">
        <ele>675.11731</ele>
        <time>2019-05-23T13:32:47.018Z</time>
      </trkpt>
      <trkpt lat="45.47382" lon="5.81967">
        <ele>674.462891</ele>
        <time>2019-05-23T13:32:52.062Z</time>
      </trkpt>
      <trkpt lat="45.47398" lon="5.8197">
        <ele>675.085938</ele>
        <time>2019-05-23T13:32:57.104Z</time>
      </trkpt>
      <trkpt lat="45.47408" lon="5.81974">
        <ele>675.497803</ele>
        <time>2019-05-23T13:33:02.172Z</time>
      </trkpt>
      <trkpt lat="45.47417" lon="5.8198">
        <ele>673.066406</ele>
        <time>2019-05-23T13:33:07.230Z</time>
      </trkpt>
      <trkpt lat="45.47427" lon="5.81988">
        <ele>672.350342</ele>
        <time>2019-05-23T13:33:12.278Z</time>
      </trkpt>
      <trkpt lat="45.47438" lon="5.81999">
        <ele>670.130127</ele>
        <time>2019-05-23T13:33:17.335Z</time>
      </trkpt>
      <trkpt lat="45.47445" lon="5.81997">
        <ele>672.392456</ele>
        <time>2019-05-23T13:33:22.335Z</time>
      </trkpt>
      <trkpt lat="45.47446" lon="5.81978">
        <ele>674.157471</ele>
        <time>2019-05-23T13:33:27.335Z</time>
      </trkpt>
      <trkpt lat="45.47447" lon="5.8196">
        <ele>675.227295</ele>
        <time>2019-05-23T13:33:32.335Z</time>
      </trkpt>
      <trkpt lat="45.4745" lon="5.81943">
        <ele>678.268311</ele>
        <time>2019-05-23T13:33:37.335Z</time>
      </trkpt>
      <trkpt lat="45.47458" lon="5.81932">
        <ele>674.207764</ele>
        <time>2019-05-23T13:33:42.335Z</time>
      </trkpt>
      <trkpt lat="45.47468" lon="5.81923">
        <ele>679.063477</ele>
        <time>2019-05-23T13:33:47.335Z</time>
      </trkpt>
      <trkpt lat="45.4748" lon="5.81919">
        <ele>675.041748</ele>
        <time>2019-05-23T13:33:52.335Z</time>
      </trkpt>
      <trkpt lat="45.47494" lon="5.81917">
        <ele>677.170166</ele>
        <time>2019-05-23T13:33:57.335Z</time>
      </trkpt>
      <trkpt lat="45.47509" lon="5.81918">
        <ele>678.602051</ele>
        <time>2019-05-23T13:34:02.755Z</time>
      </trkpt>
      <trkpt lat="45.47525" lon="5.81917">
        <ele>677.929199</ele>
        <time>2019-05-23T13:34:07.805Z</time>
      </trkpt>
      <trkpt lat="45.47539" lon="5.8192">
        <ele>682.48291</ele>
        <time>2019-05-23T13:34:12.891Z</time>
      </trkpt>
      <trkpt lat="45.47554" lon="5.8192">
        <ele>683.272705</ele>
        <time>2019-05-23T13:34:17.931Z</time>
      </trkpt>
      <trkpt lat="45.47563" lon="5.81922">
        <ele>684.831543</ele>
        <time>2019-05-23T13:34:22.977Z</time>
      </trkpt>
      <trkpt lat="45.47574" lon="5.81925">
        <ele>683.852539</ele>
        <time>2019-05-23T13:34:28.030Z</time>
      </trkpt>
      <trkpt lat="45.47586" lon="5.81928">
        <ele>683.348145</ele>
        <time>2019-05-23T13:34:33.065Z</time>
      </trkpt>
      <trkpt lat="45.47593" lon="5.81931">
        <ele>681.040894</ele>
        <time>2019-05-23T13:34:38.105Z</time>
      </trkpt>
      <trkpt lat="45.47605" lon="5.81931">
        <ele>674.687256</ele>
        <time>2019-05-23T13:34:43.141Z</time>
      </trkpt>
      <trkpt lat="45.47612" lon="5.81931">
        <ele>677.426025</ele>
        <time>2019-05-23T13:34:48.187Z</time>
      </trkpt>
      <trkpt lat="45.4762" lon="5.8193">
        <ele>684.329346</ele>
        <time>2019-05-23T13:34:53.220Z</time>
      </trkpt>
      <trkpt lat="45.47628" lon="5.8193">
        <ele>690.171875</ele>
        <time>2019-05-23T13:34:58.282Z</time>
      </trkpt>
      <trkpt lat="45.47639" lon="5.81926">
        <ele>689.558472</ele>
        <time>2019-05-23T13:35:03.324Z</time>
      </trkpt>
      <trkpt lat="45.47649" lon="5.81918">
        <ele>690.330688</ele>
        <time>2019-05-23T13:35:08.328Z</time>
      </trkpt>
      <trkpt lat="45.47657" lon="5.81913">
        <ele>693.361328</ele>
        <time>2019-05-23T13:35:13.339Z</time>
      </trkpt>
      <trkpt lat="45.47655" lon="5.81925">
        <ele>704.731689</ele>
        <time>2019-05-23T13:36:36.317Z</time>
      </trkpt>
      <trkpt lat="45.47661" lon="5.81925">
        <ele>703.589722</ele>
        <time>2019-05-23T13:36:41.325Z</time>
      </trkpt>
      <trkpt lat="45.47671" lon="5.81929">
        <ele>700.962402</ele>
        <time>2019-05-23T13:36:46.325Z</time>
      </trkpt>
      <trkpt lat="45.47679" lon="5.81931">
        <ele>701.757568</ele>
        <time>2019-05-23T13:36:51.325Z</time>
      </trkpt>
      <trkpt lat="45.47689" lon="5.81932">
        <ele>699.039063</ele>
        <time>2019-05-23T13:36:56.334Z</time>
      </trkpt>
      <trkpt lat="45.47699" lon="5.81933">
        <ele>697.187012</ele>
        <time>2019-05-23T13:37:01.334Z</time>
      </trkpt>
      <trkpt lat="45.47709" lon="5.81935">
        <ele>697.218384</ele>
        <time>2019-05-23T13:37:06.334Z</time>
      </trkpt>
      <trkpt lat="45.4772" lon="5.81938">
        <ele>698.48291</ele>
        <time>2019-05-23T13:37:11.334Z</time>
      </trkpt>
      <trkpt lat="45.4773" lon="5.8194">
        <ele>699.603394</ele>
        <time>2019-05-23T13:37:17.095Z</time>
      </trkpt>
      <trkpt lat="45.47742" lon="5.81943">
        <ele>701.820679</ele>
        <time>2019-05-23T13:37:22.146Z</time>
      </trkpt>
      <trkpt lat="45.47755" lon="5.81947">
        <ele>701.477051</ele>
        <time>2019-05-23T13:37:27.205Z</time>
      </trkpt>
      <trkpt lat="45.47767" lon="5.8195">
        <ele>707.285034</ele>
        <time>2019-05-23T13:37:32.253Z</time>
      </trkpt>
      <trkpt lat="45.47771" lon="5.81955">
        <ele>705.27417</ele>
        <time>2019-05-23T13:37:37.288Z</time>
      </trkpt>
      <trkpt lat="45.47781" lon="5.81961">
        <ele>706.35791</ele>
        <time>2019-05-23T13:37:42.329Z</time>
      </trkpt>
      <trkpt lat="45.47795" lon="5.81966">
        <ele>709.311401</ele>
        <time>2019-05-23T13:37:47.329Z</time>
      </trkpt>
      <trkpt lat="45.47806" lon="5.81969">
        <ele>710.808472</ele>
        <time>2019-05-23T13:37:52.411Z</time>
      </trkpt>
      <trkpt lat="45.47817" lon="5.81973">
        <ele>713.359985</ele>
        <time>2019-05-23T13:37:57.482Z</time>
      </trkpt>
      <trkpt lat="45.47828" lon="5.81979">
        <ele>716.603516</ele>
        <time>2019-05-23T13:38:02.532Z</time>
      </trkpt>
      <trkpt lat="45.47839" lon="5.81984">
        <ele>717.463867</ele>
        <time>2019-05-23T13:38:07.563Z</time>
      </trkpt>
      <trkpt lat="45.47849" lon="5.81988">
        <ele>720.993164</ele>
        <time>2019-05-23T13:38:12.608Z</time>
      </trkpt>
      <trkpt lat="45.47857" lon="5.81991">
        <ele>720.84729</ele>
        <time>2019-05-23T13:38:17.647Z</time>
      </trkpt>
      <trkpt lat="45.47868" lon="5.81991">
        <ele>722.554932</ele>
        <time>2019-05-23T13:38:22.709Z</time>
      </trkpt>
      <trkpt lat="45.47878" lon="5.81996">
        <ele>720.638672</ele>
        <time>2019-05-23T13:38:27.748Z</time>
      </trkpt>
      <trkpt lat="45.47888" lon="5.82002">
        <ele>721.436768</ele>
        <time>2019-05-23T13:38:32.784Z</time>
      </trkpt>
      <trkpt lat="45.47898" lon="5.82004">
        <ele>721.710449</ele>
        <time>2019-05-23T13:38:37.844Z</time>
      </trkpt>
      <trkpt lat="45.47908" lon="5.8201">
        <ele>720.233643</ele>
        <time>2019-05-23T13:38:42.876Z</time>
      </trkpt>
      <trkpt lat="45.47918" lon="5.82011">
        <ele>719.778687</ele>
        <time>2019-05-23T13:38:47.922Z</time>
      </trkpt>
      <trkpt lat="45.47924" lon="5.82015">
        <ele>717.299072</ele>
        <time>2019-05-23T13:38:52.959Z</time>
      </trkpt>
      <trkpt lat="45.47931" lon="5.82018">
        <ele>720.031982</ele>
        <time>2019-05-23T13:38:58.010Z</time>
      </trkpt>
      <trkpt lat="45.47941" lon="5.82018">
        <ele>721.79187</ele>
        <time>2019-05-23T13:39:03.071Z</time>
      </trkpt>
      <trkpt lat="45.47952" lon="5.8202">
        <ele>722.005737</ele>
        <time>2019-05-23T13:39:08.120Z</time>
      </trkpt>
      <trkpt lat="45.47962" lon="5.82028">
        <ele>723.561279</ele>
        <time>2019-05-23T13:39:13.163Z</time>
      </trkpt>
      <trkpt lat="45.47973" lon="5.82033">
        <ele>725.529175</ele>
        <time>2019-05-23T13:39:18.223Z</time>
      </trkpt>
      <trkpt lat="45.47981" lon="5.82035">
        <ele>725.233398</ele>
        <time>2019-05-23T13:39:23.288Z</time>
      </trkpt>
      <trkpt lat="45.47991" lon="5.82044">
        <ele>727.526855</ele>
        <time>2019-05-23T13:39:28.315Z</time>
      </trkpt>
      <trkpt lat="45.47998" lon="5.82048">
        <ele>729.43042</ele>
        <time>2019-05-23T13:39:33.322Z</time>
      </trkpt>
      <trkpt lat="45.48008" lon="5.82055">
        <ele>727.375732</ele>
        <time>2019-05-23T13:39:38.322Z</time>
      </trkpt>
      <trkpt lat="45.48019" lon="5.82061">
        <ele>728.044678</ele>
        <time>2019-05-23T13:39:43.324Z</time>
      </trkpt>
      <trkpt lat="45.48027" lon="5.82068">
        <ele>726.361328</ele>
        <time>2019-05-23T13:39:48.330Z</time>
      </trkpt>
      <trkpt lat="45.48038" lon="5.82075">
        <ele>724.592529</ele>
        <time>2019-05-23T13:39:53.330Z</time>
      </trkpt>
      <trkpt lat="45.48045" lon="5.82077">
        <ele>724.244995</ele>
        <time>2019-05-23T13:39:58.344Z</time>
      </trkpt>
      <trkpt lat="45.48053" lon="5.82081">
        <ele>727.264893</ele>
        <time>2019-05-23T13:40:03.344Z</time>
      </trkpt>
      <trkpt lat="45.48062" lon="5.82086">
        <ele>727.290649</ele>
        <time>2019-05-23T13:40:08.751Z</time>
      </trkpt>
      <trkpt lat="45.4807" lon="5.8209">
        <ele>727.994385</ele>
        <time>2019-05-23T13:40:13.809Z</time>
      </trkpt>
      <trkpt lat="45.48078" lon="5.82092">
        <ele>727.948242</ele>
        <time>2019-05-23T13:40:18.887Z</time>
      </trkpt>
      <trkpt lat="45.48086" lon="5.82092">
        <ele>727.317627</ele>
        <time>2019-05-23T13:40:23.918Z</time>
      </trkpt>
      <trkpt lat="45.48093" lon="5.82095">
        <ele>726.385864</ele>
        <time>2019-05-23T13:40:28.957Z</time>
      </trkpt>
      <trkpt lat="45.48101" lon="5.82098">
        <ele>724.558838</ele>
        <time>2019-05-23T13:40:34.012Z</time>
      </trkpt>
      <trkpt lat="45.48108" lon="5.82103">
        <ele>726.018311</ele>
        <time>2019-05-23T13:40:39.066Z</time>
      </trkpt>
      <trkpt lat="45.48117" lon="5.82106">
        <ele>728.969238</ele>
        <time>2019-05-23T13:40:44.118Z</time>
      </trkpt>
      <trkpt lat="45.48127" lon="5.8211">
        <ele>733.662598</ele>
        <time>2019-05-23T13:40:49.148Z</time>
      </trkpt>
      <trkpt lat="45.48136" lon="5.82117">
        <ele>733.881836</ele>
        <time>2019-05-23T13:40:54.193Z</time>
      </trkpt>
      <trkpt lat="45.48145" lon="5.82123">
        <ele>735.881836</ele>
        <time>2019-05-23T13:40:59.279Z</time>
      </trkpt>
      <trkpt lat="45.48152" lon="5.82129">
        <ele>735.679688</ele>
        <time>2019-05-23T13:41:04.301Z</time>
      </trkpt>
      <trkpt lat="45.4816" lon="5.82134">
        <ele>734.351807</ele>
        <time>2019-05-23T13:41:09.331Z</time>
      </trkpt>
      <trkpt lat="45.48167" lon="5.82137">
        <ele>734.766479</ele>
        <time>2019-05-23T13:41:14.331Z</time>
      </trkpt>
      <trkpt lat="45.48175" lon="5.8214">
        <ele>736.57666</ele>
        <time>2019-05-23T13:41:19.331Z</time>
      </trkpt>
      <trkpt lat="45.48183" lon="5.82144">
        <ele>738.028076</ele>
        <time>2019-05-23T13:41:24.331Z</time>
      </trkpt>
      <trkpt lat="45.4819" lon="5.82147">
        <ele>739.534546</ele>
        <time>2019-05-23T13:41:29.331Z</time>
      </trkpt>
      <trkpt lat="45.48196" lon="5.82148">
        <ele>738.013062</ele>
        <time>2019-05-23T13:41:34.332Z</time>
      </trkpt>
      <trkpt lat="45.482" lon="5.82149">
        <ele>740.720581</ele>
        <time>2019-05-23T13:42:18.313Z</time>
      </trkpt>
      <trkpt lat="45.48205" lon="5.82146">
        <ele>741.976807</ele>
        <time>2019-05-23T13:42:49.325Z</time>
      </trkpt>
      <trkpt lat="45.48211" lon="5.82146">
        <ele>741.813599</ele>
        <time>2019-05-23T13:42:54.325Z</time>
      </trkpt>
      <trkpt lat="45.48222" lon="5.82147">
        <ele>742.822998</ele>
        <time>2019-05-23T13:42:59.325Z</time>
      </trkpt>
      <trkpt lat="45.48228" lon="5.8215">
        <ele>743.862061</ele>
        <time>2019-05-23T13:43:04.325Z</time>
      </trkpt>
      <trkpt lat="45.48233" lon="5.82149">
        <ele>742.113403</ele>
        <time>2019-05-23T13:43:09.325Z</time>
      </trkpt>
      <trkpt lat="45.48239" lon="5.82147">
        <ele>742.162109</ele>
        <time>2019-05-23T13:43:14.325Z</time>
      </trkpt>
      <trkpt lat="45.48245" lon="5.82144">
        <ele>744.200073</ele>
        <time>2019-05-23T13:43:19.325Z</time>
      </trkpt>
      <trkpt lat="45.48251" lon="5.82142">
        <ele>745.67395</ele>
        <time>2019-05-23T13:43:25.318Z</time>
      </trkpt>
      <trkpt lat="45.48259" lon="5.82139">
        <ele>745.293335</ele>
        <time>2019-05-23T13:43:30.318Z</time>
      </trkpt>
      <trkpt lat="45.48266" lon="5.82139">
        <ele>747.408203</ele>
        <time>2019-05-23T13:43:35.318Z</time>
      </trkpt>
      <trkpt lat="45.48273" lon="5.82135">
        <ele>745.449707</ele>
        <time>2019-05-23T13:43:40.318Z</time>
      </trkpt>
      <trkpt lat="45.48279" lon="5.82128">
        <ele>746.794678</ele>
        <time>2019-05-23T13:43:45.318Z</time>
      </trkpt>
      <trkpt lat="45.48278" lon="5.82118">
        <ele>747.517334</ele>
        <time>2019-05-23T13:43:50.318Z</time>
      </trkpt>
      <trkpt lat="45.48271" lon="5.82111">
        <ele>747.42041</ele>
        <time>2019-05-23T13:43:55.320Z</time>
      </trkpt>
      <trkpt lat="45.48259" lon="5.82106">
        <ele>747.474854</ele>
        <time>2019-05-23T13:44:00.927Z</time>
      </trkpt>
      <trkpt lat="45.48248" lon="5.82104">
        <ele>748.046875</ele>
        <time>2019-05-23T13:44:05.961Z</time>
      </trkpt>
      <trkpt lat="45.48239" lon="5.821">
        <ele>747.706787</ele>
        <time>2019-05-23T13:44:11.008Z</time>
      </trkpt>
      <trkpt lat="45.48235" lon="5.82098">
        <ele>749.158447</ele>
        <time>2019-05-23T13:44:16.060Z</time>
      </trkpt>
      <trkpt lat="45.48228" lon="5.82099">
        <ele>752.029663</ele>
        <time>2019-05-23T13:44:21.116Z</time>
      </trkpt>
      <trkpt lat="45.48221" lon="5.82097">
        <ele>750.866089</ele>
        <time>2019-05-23T13:44:26.161Z</time>
      </trkpt>
      <trkpt lat="45.48214" lon="5.82093">
        <ele>752.997559</ele>
        <time>2019-05-23T13:44:31.204Z</time>
      </trkpt>
      <trkpt lat="45.48207" lon="5.82091">
        <ele>753.397461</ele>
        <time>2019-05-23T13:44:36.238Z</time>
      </trkpt>
      <trkpt lat="45.482" lon="5.82087">
        <ele>755.812256</ele>
        <time>2019-05-23T13:44:41.277Z</time>
      </trkpt>
      <trkpt lat="45.48193" lon="5.82083">
        <ele>754.352295</ele>
        <time>2019-05-23T13:44:46.332Z</time>
      </trkpt>
      <trkpt lat="45.48186" lon="5.82077">
        <ele>755.583008</ele>
        <time>2019-05-23T13:44:51.332Z</time>
      </trkpt>
      <trkpt lat="45.48177" lon="5.82068">
        <ele>756.132813</ele>
        <time>2019-05-23T13:44:56.340Z</time>
      </trkpt>
      <trkpt lat="45.48171" lon="5.82063">
        <ele>757.313477</ele>
        <time>2019-05-23T13:45:01.419Z</time>
      </trkpt>
      <trkpt lat="45.48167" lon="5.82059">
        <ele>759.441284</ele>
        <time>2019-05-23T13:45:06.457Z</time>
      </trkpt>
      <trkpt lat="45.48162" lon="5.82053">
        <ele>759.218628</ele>
        <time>2019-05-23T13:45:11.498Z</time>
      </trkpt>
      <trkpt lat="45.48156" lon="5.82047">
        <ele>759.565552</ele>
        <time>2019-05-23T13:45:16.540Z</time>
      </trkpt>
      <trkpt lat="45.4815" lon="5.8204">
        <ele>760.74646</ele>
        <time>2019-05-23T13:45:21.582Z</time>
      </trkpt>
      <trkpt lat="45.48144" lon="5.82034">
        <ele>762.196289</ele>
        <time>2019-05-23T13:45:26.634Z</time>
      </trkpt>
      <trkpt lat="45.48139" lon="5.82028">
        <ele>765.17627</ele>
        <time>2019-05-23T13:45:31.686Z</time>
      </trkpt>
      <trkpt lat="45.48133" lon="5.82021">
        <ele>765.24585</ele>
        <time>2019-05-23T13:45:36.760Z</time>
      </trkpt>
      <trkpt lat="45.48127" lon="5.82015">
        <ele>765.642822</ele>
        <time>2019-05-23T13:45:41.825Z</time>
      </trkpt>
      <trkpt lat="45.48121" lon="5.82009">
        <ele>766.510254</ele>
        <time>2019-05-23T13:45:46.893Z</time>
      </trkpt>
      <trkpt lat="45.48114" lon="5.82002">
        <ele>766.77002</ele>
        <time>2019-05-23T13:45:51.930Z</time>
      </trkpt>
      <trkpt lat="45.48108" lon="5.81995">
        <ele>767.236328</ele>
        <time>2019-05-23T13:45:56.956Z</time>
      </trkpt>
      <trkpt lat="45.48103" lon="5.81989">
        <ele>768.653564</ele>
        <time>2019-05-23T13:46:01.990Z</time>
      </trkpt>
      <trkpt lat="45.48097" lon="5.81982">
        <ele>769.919434</ele>
        <time>2019-05-23T13:46:07.031Z</time>
      </trkpt>
      <trkpt lat="45.48091" lon="5.81976">
        <ele>772.255127</ele>
        <time>2019-05-23T13:46:12.082Z</time>
      </trkpt>
      <trkpt lat="45.48086" lon="5.81969">
        <ele>773.954956</ele>
        <time>2019-05-23T13:46:17.132Z</time>
      </trkpt>
      <trkpt lat="45.4808" lon="5.81962">
        <ele>774.602783</ele>
        <time>2019-05-23T13:46:22.186Z</time>
      </trkpt>
      <trkpt lat="45.48073" lon="5.81956">
        <ele>774.794189</ele>
        <time>2019-05-23T13:46:27.230Z</time>
      </trkpt>
      <trkpt lat="45.48067" lon="5.8195">
        <ele>774.498901</ele>
        <time>2019-05-23T13:46:32.267Z</time>
      </trkpt>
      <trkpt lat="45.48059" lon="5.81942">
        <ele>776.317383</ele>
        <time>2019-05-23T13:46:37.321Z</time>
      </trkpt>
      <trkpt lat="45.4805" lon="5.81937">
        <ele>777.285767</ele>
        <time>2019-05-23T13:46:42.335Z</time>
      </trkpt>
      <trkpt lat="45.48042" lon="5.81932">
        <ele>779.727539</ele>
        <time>2019-05-23T13:46:47.410Z</time>
      </trkpt>
      <trkpt lat="45.48034" lon="5.81922">
        <ele>779.046387</ele>
        <time>2019-05-23T13:46:52.476Z</time>
      </trkpt>
      <trkpt lat="45.48039" lon="5.81911">
        <ele>780.365723</ele>
        <time>2019-05-23T13:46:57.505Z</time>
      </trkpt>
      <trkpt lat="45.48052" lon="5.81914">
        <ele>781.015869</ele>
        <time>2019-05-23T13:47:02.530Z</time>
      </trkpt>
      <trkpt lat="45.48064" lon="5.81925">
        <ele>781.34082</ele>
        <time>2019-05-23T13:47:07.571Z</time>
      </trkpt>
      <trkpt lat="45.48073" lon="5.81933">
        <ele>781.626221</ele>
        <time>2019-05-23T13:47:12.627Z</time>
      </trkpt>
      <trkpt lat="45.48081" lon="5.81941">
        <ele>781.980347</ele>
        <time>2019-05-23T13:47:17.669Z</time>
      </trkpt>
      <trkpt lat="45.48091" lon="5.81948">
        <ele>782.621948</ele>
        <time>2019-05-23T13:47:22.725Z</time>
      </trkpt>
      <trkpt lat="45.48098" lon="5.81952">
        <ele>784.001953</ele>
        <time>2019-05-23T13:47:27.771Z</time>
      </trkpt>
      <trkpt lat="45.48107" lon="5.81958">
        <ele>785.33667</ele>
        <time>2019-05-23T13:47:32.822Z</time>
      </trkpt>
      <trkpt lat="45.48116" lon="5.81964">
        <ele>785.095825</ele>
        <time>2019-05-23T13:47:37.870Z</time>
      </trkpt>
      <trkpt lat="45.48126" lon="5.81968">
        <ele>785.625</ele>
        <time>2019-05-23T13:47:42.905Z</time>
      </trkpt>
      <trkpt lat="45.48136" lon="5.81971">
        <ele>784.876221</ele>
        <time>2019-05-23T13:47:47.947Z</time>
      </trkpt>
      <trkpt lat="45.48145" lon="5.81972">
        <ele>785.411621</ele>
        <time>2019-05-23T13:47:53.004Z</time>
      </trkpt>
      <trkpt lat="45.48155" lon="5.81974">
        <ele>785.913086</ele>
        <time>2019-05-23T13:47:58.042Z</time>
      </trkpt>
      <trkpt lat="45.48167" lon="5.81978">
        <ele>787.397705</ele>
        <time>2019-05-23T13:48:03.103Z</time>
      </trkpt>
      <trkpt lat="45.48178" lon="5.81984">
        <ele>789.250122</ele>
        <time>2019-05-23T13:48:08.132Z</time>
      </trkpt>
      <trkpt lat="45.48187" lon="5.8199">
        <ele>790.01123</ele>
        <time>2019-05-23T13:48:13.166Z</time>
      </trkpt>
      <trkpt lat="45.48197" lon="5.81993">
        <ele>789.194092</ele>
        <time>2019-05-23T13:48:18.197Z</time>
      </trkpt>
      <trkpt lat="45.48199" lon="5.81991">
        <ele>790.209473</ele>
        <time>2019-05-23T13:48:51.321Z</time>
      </trkpt>
      <trkpt lat="45.48206" lon="5.81993">
        <ele>791.17688</ele>
        <time>2019-05-23T13:48:56.321Z</time>
      </trkpt>
      <trkpt lat="45.48214" lon="5.81995">
        <ele>792.609863</ele>
        <time>2019-05-23T13:49:01.321Z</time>
      </trkpt>
      <trkpt lat="45.48223" lon="5.81994">
        <ele>791.385986</ele>
        <time>2019-05-23T13:49:06.322Z</time>
      </trkpt>
      <trkpt lat="45.48231" lon="5.81995">
        <ele>792.22876</ele>
        <time>2019-05-23T13:49:11.327Z</time>
      </trkpt>
      <trkpt lat="45.4824" lon="5.81995">
        <ele>790.563477</ele>
        <time>2019-05-23T13:49:17.307Z</time>
      </trkpt>
      <trkpt lat="45.48247" lon="5.81994">
        <ele>795.278442</ele>
        <time>2019-05-23T13:49:22.309Z</time>
      </trkpt>
      <trkpt lat="45.48255" lon="5.81992">
        <ele>794.238892</ele>
        <time>2019-05-23T13:49:27.314Z</time>
      </trkpt>
      <trkpt lat="45.48262" lon="5.81992">
        <ele>797.844482</ele>
        <time>2019-05-23T13:49:32.318Z</time>
      </trkpt>
      <trkpt lat="45.4827" lon="5.81989">
        <ele>795.469971</ele>
        <time>2019-05-23T13:49:37.318Z</time>
      </trkpt>
      <trkpt lat="45.48278" lon="5.81987">
        <ele>796.82312</ele>
        <time>2019-05-23T13:49:42.318Z</time>
      </trkpt>
      <trkpt lat="45.48287" lon="5.81984">
        <ele>796.549561</ele>
        <time>2019-05-23T13:49:47.331Z</time>
      </trkpt>
      <trkpt lat="45.48295" lon="5.81979">
        <ele>793.983032</ele>
        <time>2019-05-23T13:49:52.331Z</time>
      </trkpt>
      <trkpt lat="45.48305" lon="5.81977">
        <ele>795.708496</ele>
        <time>2019-05-23T13:49:57.336Z</time>
      </trkpt>
      <trkpt lat="45.48313" lon="5.81977">
        <ele>797.89209</ele>
        <time>2019-05-23T13:50:02.336Z</time>
      </trkpt>
      <trkpt lat="45.4832" lon="5.81978">
        <ele>800.805908</ele>
        <time>2019-05-23T13:50:07.434Z</time>
      </trkpt>
      <trkpt lat="45.48328" lon="5.81982">
        <ele>801.578857</ele>
        <time>2019-05-23T13:50:13.327Z</time>
      </trkpt>
      <trkpt lat="45.48337" lon="5.81986">
        <ele>803.813721</ele>
        <time>2019-05-23T13:50:18.327Z</time>
      </trkpt>
      <trkpt lat="45.48346" lon="5.81991">
        <ele>805.095215</ele>
        <time>2019-05-23T13:50:23.328Z</time>
      </trkpt>
      <trkpt lat="45.48354" lon="5.81992">
        <ele>803.776367</ele>
        <time>2019-05-23T13:50:28.366Z</time>
      </trkpt>
      <trkpt lat="45.48363" lon="5.81995">
        <ele>803.222412</ele>
        <time>2019-05-23T13:50:34.343Z</time>
      </trkpt>
      <trkpt lat="45.48371" lon="5.81999">
        <ele>804.061768</ele>
        <time>2019-05-23T13:50:39.343Z</time>
      </trkpt>
      <trkpt lat="45.48378" lon="5.82001">
        <ele>804.262939</ele>
        <time>2019-05-23T13:50:44.594Z</time>
      </trkpt>
      <trkpt lat="45.48385" lon="5.82001">
        <ele>807.240234</ele>
        <time>2019-05-23T13:50:49.624Z</time>
      </trkpt>
      <trkpt lat="45.48395" lon="5.81999">
        <ele>807.2323</ele>
        <time>2019-05-23T13:50:54.678Z</time>
      </trkpt>
      <trkpt lat="45.48404" lon="5.81998">
        <ele>805.873413</ele>
        <time>2019-05-23T13:50:59.703Z</time>
      </trkpt>
      <trkpt lat="45.48412" lon="5.81999">
        <ele>808.110229</ele>
        <time>2019-05-23T13:51:04.759Z</time>
      </trkpt>
      <trkpt lat="45.48418" lon="5.82003">
        <ele>810.595703</ele>
        <time>2019-05-23T13:51:09.795Z</time>
      </trkpt>
      <trkpt lat="45.48424" lon="5.82011">
        <ele>812.957642</ele>
        <time>2019-05-23T13:51:14.855Z</time>
      </trkpt>
      <trkpt lat="45.48432" lon="5.82017">
        <ele>813.46814</ele>
        <time>2019-05-23T13:51:19.904Z</time>
      </trkpt>
      <trkpt lat="45.48438" lon="5.82024">
        <ele>812.330322</ele>
        <time>2019-05-23T13:51:24.942Z</time>
      </trkpt>
      <trkpt lat="45.48445" lon="5.82029">
        <ele>812.311035</ele>
        <time>2019-05-23T13:51:30.007Z</time>
      </trkpt>
      <trkpt lat="45.48452" lon="5.82035">
        <ele>815.113037</ele>
        <time>2019-05-23T13:51:35.036Z</time>
      </trkpt>
      <trkpt lat="45.48459" lon="5.82042">
        <ele>815.404907</ele>
        <time>2019-05-23T13:51:40.075Z</time>
      </trkpt>
      <trkpt lat="45.48465" lon="5.82048">
        <ele>815.560669</ele>
        <time>2019-05-23T13:51:45.144Z</time>
      </trkpt>
      <trkpt lat="45.48472" lon="5.82052">
        <ele>814.521118</ele>
        <time>2019-05-23T13:51:50.200Z</time>
      </trkpt>
      <trkpt lat="45.4848" lon="5.82057">
        <ele>816.978394</ele>
        <time>2019-05-23T13:51:55.247Z</time>
      </trkpt>
      <trkpt lat="45.48487" lon="5.82062">
        <ele>820.758545</ele>
        <time>2019-05-23T13:52:00.321Z</time>
      </trkpt>
      <trkpt lat="45.48497" lon="5.82068">
        <ele>822.593994</ele>
        <time>2019-05-23T13:52:05.322Z</time>
      </trkpt>
      <trkpt lat="45.48506" lon="5.82073">
        <ele>823.19873</ele>
        <time>2019-05-23T13:52:10.325Z</time>
      </trkpt>
      <trkpt lat="45.48513" lon="5.82076">
        <ele>823.790771</ele>
        <time>2019-05-23T13:52:15.327Z</time>
      </trkpt>
      <trkpt lat="45.48521" lon="5.82079">
        <ele>824.486694</ele>
        <time>2019-05-23T13:52:20.327Z</time>
      </trkpt>
      <trkpt lat="45.48529" lon="5.82082">
        <ele>827.737793</ele>
        <time>2019-05-23T13:52:25.327Z</time>
      </trkpt>
      <trkpt lat="45.48537" lon="5.82086">
        <ele>829.232422</ele>
        <time>2019-05-23T13:52:30.327Z</time>
      </trkpt>
      <trkpt lat="45.48545" lon="5.82091">
        <ele>830.564575</ele>
        <time>2019-05-23T13:52:35.327Z</time>
      </trkpt>
      <trkpt lat="45.48552" lon="5.82097">
        <ele>831.082764</ele>
        <time>2019-05-23T13:52:40.327Z</time>
      </trkpt>
      <trkpt lat="45.4856" lon="5.82101">
        <ele>833.672607</ele>
        <time>2019-05-23T13:52:45.327Z</time>
      </trkpt>
      <trkpt lat="45.48567" lon="5.82106">
        <ele>834.015015</ele>
        <time>2019-05-23T13:52:50.327Z</time>
      </trkpt>
      <trkpt lat="45.48574" lon="5.82108">
        <ele>835.114258</ele>
        <time>2019-05-23T13:52:55.327Z</time>
      </trkpt>
      <trkpt lat="45.48581" lon="5.82109">
        <ele>835.008057</ele>
        <time>2019-05-23T13:53:00.327Z</time>
      </trkpt>
      <trkpt lat="45.48586" lon="5.82109">
        <ele>836.112305</ele>
        <time>2019-05-23T13:53:07.312Z</time>
      </trkpt>
      <trkpt lat="45.48592" lon="5.82111">
        <ele>836.207886</ele>
        <time>2019-05-23T13:53:12.334Z</time>
      </trkpt>
      <trkpt lat="45.48596" lon="5.82115">
        <ele>837.179443</ele>
        <time>2019-05-23T13:53:17.334Z</time>
      </trkpt>
      <trkpt lat="45.48602" lon="5.82115">
        <ele>838.330811</ele>
        <time>2019-05-23T13:53:22.334Z</time>
      </trkpt>
      <trkpt lat="45.48608" lon="5.82116">
        <ele>838.039063</ele>
        <time>2019-05-23T13:53:27.334Z</time>
      </trkpt>
      <trkpt lat="45.48614" lon="5.82119">
        <ele>838.766846</ele>
        <time>2019-05-23T13:53:33.323Z</time>
      </trkpt>
      <trkpt lat="45.48619" lon="5.82121">
        <ele>839.593018</ele>
        <time>2019-05-23T13:53:38.845Z</time>
      </trkpt>
      <trkpt lat="45.48624" lon="5.82122">
        <ele>840.27124</ele>
        <time>2019-05-23T13:53:51.440Z</time>
      </trkpt>
      <trkpt lat="45.48623" lon="5.82121">
        <ele>838.882813</ele>
        <time>2019-05-23T13:54:01.516Z</time>
      </trkpt>
      <trkpt lat="45.48626" lon="5.82121">
        <ele>838.866211</ele>
        <time>2019-05-23T13:54:23.332Z</time>
      </trkpt>
      <trkpt lat="45.48625" lon="5.82123">
        <ele>837.241455</ele>
        <time>2019-05-23T13:54:31.819Z</time>
      </trkpt>
      <trkpt lat="45.48631" lon="5.82124">
        <ele>838.248535</ele>
        <time>2019-05-23T13:54:36.840Z</time>
      </trkpt>
      <trkpt lat="45.48638" lon="5.82126">
        <ele>838.844849</ele>
        <time>2019-05-23T13:54:41.881Z</time>
      </trkpt>
      <trkpt lat="45.48645" lon="5.82128">
        <ele>839.828613</ele>
        <time>2019-05-23T13:54:46.909Z</time>
      </trkpt>
      <trkpt lat="45.48651" lon="5.82131">
        <ele>841.740967</ele>
        <time>2019-05-23T13:54:51.963Z</time>
      </trkpt>
      <trkpt lat="45.48657" lon="5.82133">
        <ele>844.646362</ele>
        <time>2019-05-23T13:54:57.012Z</time>
      </trkpt>
      <trkpt lat="45.48663" lon="5.82136">
        <ele>845.363403</ele>
        <time>2019-05-23T13:55:02.055Z</time>
      </trkpt>
      <trkpt lat="45.48669" lon="5.82139">
        <ele>846.936035</ele>
        <time>2019-05-23T13:55:07.097Z</time>
      </trkpt>
      <trkpt lat="45.48675" lon="5.82142">
        <ele>847.885132</ele>
        <time>2019-05-23T13:55:12.168Z</time>
      </trkpt>
      <trkpt lat="45.48681" lon="5.82145">
        <ele>848.978027</ele>
        <time>2019-05-23T13:55:17.207Z</time>
      </trkpt>
      <trkpt lat="45.48687" lon="5.82147">
        <ele>850.059692</ele>
        <time>2019-05-23T13:55:22.269Z</time>
      </trkpt>
      <trkpt lat="45.48695" lon="5.82149">
        <ele>849.034912</ele>
        <time>2019-05-23T13:55:27.310Z</time>
      </trkpt>
      <trkpt lat="45.48704" lon="5.82151">
        <ele>850.933228</ele>
        <time>2019-05-23T13:55:32.315Z</time>
      </trkpt>
      <trkpt lat="45.4871" lon="5.82152">
        <ele>850.237549</ele>
        <time>2019-05-23T13:55:37.330Z</time>
      </trkpt>
      <trkpt lat="45.48713" lon="5.82152">
        <ele>851.601807</ele>
        <time>2019-05-23T13:55:42.330Z</time>
      </trkpt>
      <trkpt lat="45.48721" lon="5.82154">
        <ele>852.151489</ele>
        <time>2019-05-23T13:55:47.330Z</time>
      </trkpt>
      <trkpt lat="45.48731" lon="5.82157">
        <ele>853.495361</ele>
        <time>2019-05-23T13:55:52.330Z</time>
      </trkpt>
      <trkpt lat="45.48741" lon="5.82162">
        <ele>854.073242</ele>
        <time>2019-05-23T13:55:57.330Z</time>
      </trkpt>
      <trkpt lat="45.48752" lon="5.82167">
        <ele>854.698242</ele>
        <time>2019-05-23T13:56:02.330Z</time>
      </trkpt>
      <trkpt lat="45.48762" lon="5.8217">
        <ele>856.083984</ele>
        <time>2019-05-23T13:56:07.330Z</time>
      </trkpt>
      <trkpt lat="45.48769" lon="5.82172">
        <ele>856.482178</ele>
        <time>2019-05-23T13:56:12.330Z</time>
      </trkpt>
      <trkpt lat="45.48776" lon="5.82173">
        <ele>856.252441</ele>
        <time>2019-05-23T13:56:17.330Z</time>
      </trkpt>
      <trkpt lat="45.48781" lon="5.82172">
        <ele>858.807129</ele>
        <time>2019-05-23T13:56:22.330Z</time>
      </trkpt>
      <trkpt lat="45.48788" lon="5.82171">
        <ele>860.268555</ele>
        <time>2019-05-23T13:56:27.330Z</time>
      </trkpt>
      <trkpt lat="45.48797" lon="5.82171">
        <ele>861.103394</ele>
        <time>2019-05-23T13:56:32.333Z</time>
      </trkpt>
      <trkpt lat="45.48806" lon="5.82171">
        <ele>861.845459</ele>
        <time>2019-05-23T13:56:37.333Z</time>
      </trkpt>
      <trkpt lat="45.48814" lon="5.82172">
        <ele>860.859863</ele>
        <time>2019-05-23T13:56:42.333Z</time>
      </trkpt>
      <trkpt lat="45.48823" lon="5.82171">
        <ele>861.47876</ele>
        <time>2019-05-23T13:56:47.333Z</time>
      </trkpt>
      <trkpt lat="45.48832" lon="5.8217">
        <ele>861.347412</ele>
        <time>2019-05-23T13:56:52.333Z</time>
      </trkpt>
      <trkpt lat="45.48841" lon="5.8217">
        <ele>862.523438</ele>
        <time>2019-05-23T13:56:57.333Z</time>
      </trkpt>
      <trkpt lat="45.48849" lon="5.82171">
        <ele>866.732178</ele>
        <time>2019-05-23T13:57:02.333Z</time>
      </trkpt>
      <trkpt lat="45.48857" lon="5.82173">
        <ele>865.762207</ele>
        <time>2019-05-23T13:57:07.333Z</time>
      </trkpt>
      <trkpt lat="45.48867" lon="5.82174">
        <ele>868.099365</ele>
        <time>2019-05-23T13:57:12.333Z</time>
      </trkpt>
      <trkpt lat="45.48876" lon="5.82178">
        <ele>867.87085</ele>
        <time>2019-05-23T13:57:17.333Z</time>
      </trkpt>
      <trkpt lat="45.48884" lon="5.82179">
        <ele>868.155518</ele>
        <time>2019-05-23T13:57:22.333Z</time>
      </trkpt>
      <trkpt lat="45.48893" lon="5.82181">
        <ele>869.311279</ele>
        <time>2019-05-23T13:57:27.333Z</time>
      </trkpt>
      <trkpt lat="45.48902" lon="5.82176">
        <ele>870.177612</ele>
        <time>2019-05-23T13:57:32.336Z</time>
      </trkpt>
      <trkpt lat="45.48905" lon="5.82164">
        <ele>871.839966</ele>
        <time>2019-05-23T13:57:38.329Z</time>
      </trkpt>
      <trkpt lat="45.489" lon="5.82153">
        <ele>871.799683</ele>
        <time>2019-05-23T13:57:43.329Z</time>
      </trkpt>
      <trkpt lat="45.48892" lon="5.82145">
        <ele>871.993652</ele>
        <time>2019-05-23T13:57:48.329Z</time>
      </trkpt>
      <trkpt lat="45.48882" lon="5.82141">
        <ele>871.133301</ele>
        <time>2019-05-23T13:57:53.338Z</time>
      </trkpt>
      <trkpt lat="45.48872" lon="5.82137">
        <ele>872.638916</ele>
        <time>2019-05-23T13:57:58.338Z</time>
      </trkpt>
      <trkpt lat="45.48863" lon="5.82129">
        <ele>873.592773</ele>
        <time>2019-05-23T13:58:03.338Z</time>
      </trkpt>
      <trkpt lat="45.48859" lon="5.82119">
        <ele>874.463013</ele>
        <time>2019-05-23T13:58:08.338Z</time>
      </trkpt>
      <trkpt lat="45.4886" lon="5.82105">
        <ele>874.089111</ele>
        <time>2019-05-23T13:58:13.338Z</time>
      </trkpt>
      <trkpt lat="45.48864" lon="5.82088">
        <ele>873.690552</ele>
        <time>2019-05-23T13:58:18.338Z</time>
      </trkpt>
      <trkpt lat="45.48869" lon="5.82075">
        <ele>873.150391</ele>
        <time>2019-05-23T13:58:23.338Z</time>
      </trkpt>
      <trkpt lat="45.48876" lon="5.82059">
        <ele>872.276489</ele>
        <time>2019-05-23T13:58:28.883Z</time>
      </trkpt>
      <trkpt lat="45.4888" lon="5.8204">
        <ele>870.714355</ele>
        <time>2019-05-23T13:58:33.925Z</time>
      </trkpt>
      <trkpt lat="45.48876" lon="5.82025">
        <ele>873.732422</ele>
        <time>2019-05-23T13:58:38.977Z</time>
      </trkpt>
      <trkpt lat="45.48869" lon="5.82014">
        <ele>873.821289</ele>
        <time>2019-05-23T13:58:44.007Z</time>
      </trkpt>
      <trkpt lat="45.48863" lon="5.82007">
        <ele>874.916992</ele>
        <time>2019-05-23T13:58:49.063Z</time>
      </trkpt>
      <trkpt lat="45.48856" lon="5.81999">
        <ele>879.083008</ele>
        <time>2019-05-23T13:58:54.090Z</time>
      </trkpt>
      <trkpt lat="45.48849" lon="5.81991">
        <ele>880.541504</ele>
        <time>2019-05-23T13:58:59.120Z</time>
      </trkpt>
      <trkpt lat="45.48844" lon="5.81983">
        <ele>883.811279</ele>
        <time>2019-05-23T13:59:04.147Z</time>
      </trkpt>
      <trkpt lat="45.48839" lon="5.81973">
        <ele>883.265625</ele>
        <time>2019-05-23T13:59:09.191Z</time>
      </trkpt>
      <trkpt lat="45.48835" lon="5.81963">
        <ele>885.986328</ele>
        <time>2019-05-23T13:59:14.237Z</time>
      </trkpt>
      <trkpt lat="45.48832" lon="5.81953">
        <ele>885.217896</ele>
        <time>2019-05-23T13:59:19.276Z</time>
      </trkpt>
      <trkpt lat="45.48827" lon="5.81944">
        <ele>886.291016</ele>
        <time>2019-05-23T13:59:24.322Z</time>
      </trkpt>
      <trkpt lat="45.48823" lon="5.81933">
        <ele>887.162842</ele>
        <time>2019-05-23T13:59:29.322Z</time>
      </trkpt>
      <trkpt lat="45.48817" lon="5.81923">
        <ele>886.876221</ele>
        <time>2019-05-23T13:59:34.322Z</time>
      </trkpt>
      <trkpt lat="45.48813" lon="5.81913">
        <ele>884.709351</ele>
        <time>2019-05-23T13:59:39.332Z</time>
      </trkpt>
      <trkpt lat="45.48807" lon="5.81906">
        <ele>885.401123</ele>
        <time>2019-05-23T13:59:44.332Z</time>
      </trkpt>
      <trkpt lat="45.488" lon="5.81901">
        <ele>886.314941</ele>
        <time>2019-05-23T13:59:49.332Z</time>
      </trkpt>
      <trkpt lat="45.48792" lon="5.81897">
        <ele>886.521484</ele>
        <time>2019-05-23T13:59:54.332Z</time>
      </trkpt>
      <trkpt lat="45.48785" lon="5.81892">
        <ele>886.948242</ele>
        <time>2019-05-23T13:59:59.332Z</time>
      </trkpt>
      <trkpt lat="45.48778" lon="5.81887">
        <ele>887.625854</ele>
        <time>2019-05-23T14:00:04.688Z</time>
      </trkpt>
      <trkpt lat="45.48772" lon="5.81883">
        <ele>888.215942</ele>
        <time>2019-05-23T14:00:09.730Z</time>
      </trkpt>
      <trkpt lat="45.48766" lon="5.81876">
        <ele>889.965576</ele>
        <time>2019-05-23T14:00:14.798Z</time>
      </trkpt>
      <trkpt lat="45.4876" lon="5.81869">
        <ele>891.746826</ele>
        <time>2019-05-23T14:00:19.857Z</time>
      </trkpt>
      <trkpt lat="45.48753" lon="5.81862">
        <ele>893.624634</ele>
        <time>2019-05-23T14:00:24.905Z</time>
      </trkpt>
      <trkpt lat="45.48746" lon="5.81856">
        <ele>894.258545</ele>
        <time>2019-05-23T14:00:29.936Z</time>
      </trkpt>
      <trkpt lat="45.4874" lon="5.8185">
        <ele>895.195313</ele>
        <time>2019-05-23T14:00:34.983Z</time>
      </trkpt>
      <trkpt lat="45.48733" lon="5.81843">
        <ele>896.779663</ele>
        <time>2019-05-23T14:00:40.043Z</time>
      </trkpt>
      <trkpt lat="45.48726" lon="5.81837">
        <ele>896.526611</ele>
        <time>2019-05-23T14:00:45.090Z</time>
      </trkpt>
      <trkpt lat="45.4872" lon="5.8183">
        <ele>896.280029</ele>
        <time>2019-05-23T14:00:50.126Z</time>
      </trkpt>
      <trkpt lat="45.48713" lon="5.81824">
        <ele>895.035278</ele>
        <time>2019-05-23T14:00:55.175Z</time>
      </trkpt>
      <trkpt lat="45.48705" lon="5.81818">
        <ele>896.049316</ele>
        <time>2019-05-23T14:01:00.234Z</time>
      </trkpt>
      <trkpt lat="45.48698" lon="5.81814">
        <ele>896.75647</ele>
        <time>2019-05-23T14:01:05.271Z</time>
      </trkpt>
      <trkpt lat="45.48692" lon="5.8181">
        <ele>898.273193</ele>
        <time>2019-05-23T14:01:10.302Z</time>
      </trkpt>
      <trkpt lat="45.48682" lon="5.81805">
        <ele>900.520752</ele>
        <time>2019-05-23T14:01:15.340Z</time>
      </trkpt>
      <trkpt lat="45.48675" lon="5.81803">
        <ele>902.52124</ele>
        <time>2019-05-23T14:01:20.340Z</time>
      </trkpt>
      <trkpt lat="45.4867" lon="5.81801">
        <ele>901.865845</ele>
        <time>2019-05-23T14:02:10.897Z</time>
      </trkpt>
      <trkpt lat="45.48672" lon="5.81797">
        <ele>900.800293</ele>
        <time>2019-05-23T14:03:00.297Z</time>
      </trkpt>
      <trkpt lat="45.48671" lon="5.81796">
        <ele>899.731445</ele>
        <time>2019-05-23T14:03:18.956Z</time>
      </trkpt>
      <trkpt lat="45.4867" lon="5.81795">
        <ele>895.044434</ele>
        <time>2019-05-23T14:03:43.311Z</time>
      </trkpt>
      <trkpt lat="45.48673" lon="5.81799">
        <ele>900.023193</ele>
        <time>2019-05-23T14:03:48.337Z</time>
      </trkpt>
      <trkpt lat="45.48675" lon="5.81795">
        <ele>897.86084</ele>
        <time>2019-05-23T14:04:27.322Z</time>
      </trkpt>
      <trkpt lat="45.48669" lon="5.81796">
        <ele>896.145508</ele>
        <time>2019-05-23T14:04:32.322Z</time>
      </trkpt>
      <trkpt lat="45.48663" lon="5.818">
        <ele>895.018066</ele>
        <time>2019-05-23T14:04:37.322Z</time>
      </trkpt>
      <trkpt lat="45.48658" lon="5.81799">
        <ele>894.716309</ele>
        <time>2019-05-23T14:04:42.322Z</time>
      </trkpt>
      <trkpt lat="45.48649" lon="5.81794">
        <ele>898.519531</ele>
        <time>2019-05-23T14:04:47.328Z</time>
      </trkpt>
      <trkpt lat="45.4864" lon="5.8179">
        <ele>901.199463</ele>
        <time>2019-05-23T14:04:52.328Z</time>
      </trkpt>
      <trkpt lat="45.48634" lon="5.81787">
        <ele>903.675293</ele>
        <time>2019-05-23T14:04:57.328Z</time>
      </trkpt>
      <trkpt lat="45.48627" lon="5.81784">
        <ele>904.331299</ele>
        <time>2019-05-23T14:05:02.328Z</time>
      </trkpt>
      <trkpt lat="45.4862" lon="5.8178">
        <ele>907.076904</ele>
        <time>2019-05-23T14:05:07.328Z</time>
      </trkpt>
      <trkpt lat="45.48614" lon="5.81773">
        <ele>906.041626</ele>
        <time>2019-05-23T14:05:12.328Z</time>
      </trkpt>
      <trkpt lat="45.48608" lon="5.81768">
        <ele>905.797729</ele>
        <time>2019-05-23T14:05:17.328Z</time>
      </trkpt>
      <trkpt lat="45.48602" lon="5.81762">
        <ele>906.301758</ele>
        <time>2019-05-23T14:05:22.328Z</time>
      </trkpt>
      <trkpt lat="45.48597" lon="5.81758">
        <ele>906.448486</ele>
        <time>2019-05-23T14:05:27.328Z</time>
      </trkpt>
      <trkpt lat="45.48591" lon="5.81753">
        <ele>906.51709</ele>
        <time>2019-05-23T14:05:32.328Z</time>
      </trkpt>
      <trkpt lat="45.48584" lon="5.81748">
        <ele>907.1521</ele>
        <time>2019-05-23T14:05:37.328Z</time>
      </trkpt>
      <trkpt lat="45.48578" lon="5.81744">
        <ele>908.635254</ele>
        <time>2019-05-23T14:05:42.328Z</time>
      </trkpt>
      <trkpt lat="45.48572" lon="5.81739">
        <ele>909.695801</ele>
        <time>2019-05-23T14:05:47.328Z</time>
      </trkpt>
      <trkpt lat="45.48566" lon="5.81734">
        <ele>910.622314</ele>
        <time>2019-05-23T14:05:52.329Z</time>
      </trkpt>
      <trkpt lat="45.4856" lon="5.8173">
        <ele>912.996582</ele>
        <time>2019-05-23T14:05:57.330Z</time>
      </trkpt>
      <trkpt lat="45.48554" lon="5.81724">
        <ele>914.250732</ele>
        <time>2019-05-23T14:06:02.330Z</time>
      </trkpt>
      <trkpt lat="45.48548" lon="5.8172">
        <ele>917.177246</ele>
        <time>2019-05-23T14:06:07.330Z</time>
      </trkpt>
      <trkpt lat="45.48543" lon="5.81714">
        <ele>917.234253</ele>
        <time>2019-05-23T14:06:12.330Z</time>
      </trkpt>
      <trkpt lat="45.48537" lon="5.81709">
        <ele>918.97522</ele>
        <time>2019-05-23T14:06:17.330Z</time>
      </trkpt>
      <trkpt lat="45.48532" lon="5.81703">
        <ele>919.090088</ele>
        <time>2019-05-23T14:06:22.330Z</time>
      </trkpt>
      <trkpt lat="45.48526" lon="5.81698">
        <ele>918.916138</ele>
        <time>2019-05-23T14:06:27.337Z</time>
      </trkpt>
      <trkpt lat="45.4852" lon="5.81693">
        <ele>918.776123</ele>
        <time>2019-05-23T14:06:32.337Z</time>
      </trkpt>
      <trkpt lat="45.48514" lon="5.81688">
        <ele>920.557373</ele>
        <time>2019-05-23T14:06:37.337Z</time>
      </trkpt>
      <trkpt lat="45.48509" lon="5.81684">
        <ele>921.270752</ele>
        <time>2019-05-23T14:06:42.337Z</time>
      </trkpt>
      <trkpt lat="45.48503" lon="5.81677">
        <ele>922.070313</ele>
        <time>2019-05-23T14:06:47.337Z</time>
      </trkpt>
      <trkpt lat="45.48497" lon="5.81672">
        <ele>923.266724</ele>
        <time>2019-05-23T14:06:52.337Z</time>
      </trkpt>
      <trkpt lat="45.48489" lon="5.8167">
        <ele>922.994629</ele>
        <time>2019-05-23T14:06:57.337Z</time>
      </trkpt>
      <trkpt lat="45.48483" lon="5.81671">
        <ele>925.526611</ele>
        <time>2019-05-23T14:07:02.347Z</time>
      </trkpt>
      <trkpt lat="45.48476" lon="5.8167">
        <ele>926.353271</ele>
        <time>2019-05-23T14:07:07.347Z</time>
      </trkpt>
      <trkpt lat="45.48468" lon="5.8167">
        <ele>925.67334</ele>
        <time>2019-05-23T14:07:13.322Z</time>
      </trkpt>
      <trkpt lat="45.48461" lon="5.81669">
        <ele>925.27124</ele>
        <time>2019-05-23T14:07:18.322Z</time>
      </trkpt>
      <trkpt lat="45.48454" lon="5.81665">
        <ele>925.691895</ele>
        <time>2019-05-23T14:07:23.322Z</time>
      </trkpt>
      <trkpt lat="45.48448" lon="5.81659">
        <ele>926.354004</ele>
        <time>2019-05-23T14:07:28.322Z</time>
      </trkpt>
      <trkpt lat="45.48442" lon="5.81653">
        <ele>925.966064</ele>
        <time>2019-05-23T14:07:33.322Z</time>
      </trkpt>
      <trkpt lat="45.48436" lon="5.81648">
        <ele>926.904053</ele>
        <time>2019-05-23T14:07:38.322Z</time>
      </trkpt>
      <trkpt lat="45.4843" lon="5.81644">
        <ele>927.557861</ele>
        <time>2019-05-23T14:07:43.322Z</time>
      </trkpt>
      <trkpt lat="45.48423" lon="5.81638">
        <ele>929.006714</ele>
        <time>2019-05-23T14:07:48.322Z</time>
      </trkpt>
      <trkpt lat="45.48417" lon="5.81633">
        <ele>929.70752</ele>
        <time>2019-05-23T14:07:53.322Z</time>
      </trkpt>
      <trkpt lat="45.48411" lon="5.81628">
        <ele>930.252686</ele>
        <time>2019-05-23T14:07:58.322Z</time>
      </trkpt>
      <trkpt lat="45.48404" lon="5.81625">
        <ele>931.171631</ele>
        <time>2019-05-23T14:08:03.322Z</time>
      </trkpt>
      <trkpt lat="45.48397" lon="5.8162">
        <ele>933.989746</ele>
        <time>2019-05-23T14:08:08.322Z</time>
      </trkpt>
      <trkpt lat="45.48391" lon="5.81615">
        <ele>936.217285</ele>
        <time>2019-05-23T14:08:13.322Z</time>
      </trkpt>
      <trkpt lat="45.48385" lon="5.81611">
        <ele>938.16626</ele>
        <time>2019-05-23T14:08:18.322Z</time>
      </trkpt>
      <trkpt lat="45.48379" lon="5.81606">
        <ele>940.067993</ele>
        <time>2019-05-23T14:08:23.322Z</time>
      </trkpt>
      <trkpt lat="45.48375" lon="5.81598">
        <ele>939.196533</ele>
        <time>2019-05-23T14:08:28.322Z</time>
      </trkpt>
      <trkpt lat="45.48371" lon="5.81591">
        <ele>941.90625</ele>
        <time>2019-05-23T14:08:33.322Z</time>
      </trkpt>
      <trkpt lat="45.48367" lon="5.81584">
        <ele>941.719727</ele>
        <time>2019-05-23T14:08:38.322Z</time>
      </trkpt>
      <trkpt lat="45.48363" lon="5.81574">
        <ele>942.922363</ele>
        <time>2019-05-23T14:08:44.314Z</time>
      </trkpt>
      <trkpt lat="45.48359" lon="5.81567">
        <ele>941.85083</ele>
        <time>2019-05-23T14:08:49.314Z</time>
      </trkpt>
      <trkpt lat="45.48356" lon="5.81559">
        <ele>942.768555</ele>
        <time>2019-05-23T14:08:54.316Z</time>
      </trkpt>
      <trkpt lat="45.48351" lon="5.81551">
        <ele>942.551392</ele>
        <time>2019-05-23T14:08:59.327Z</time>
      </trkpt>
      <trkpt lat="45.48346" lon="5.81545">
        <ele>942.873047</ele>
        <time>2019-05-23T14:09:04.327Z</time>
      </trkpt>
      <trkpt lat="45.48341" lon="5.81544">
        <ele>945.761475</ele>
        <time>2019-05-23T14:09:09.327Z</time>
      </trkpt>
      <trkpt lat="45.48334" lon="5.81548">
        <ele>945.971558</ele>
        <time>2019-05-23T14:09:14.331Z</time>
      </trkpt>
      <trkpt lat="45.48325" lon="5.81552">
        <ele>944.978516</ele>
        <time>2019-05-23T14:09:19.333Z</time>
      </trkpt>
      <trkpt lat="45.48318" lon="5.81558">
        <ele>944.552124</ele>
        <time>2019-05-23T14:09:24.333Z</time>
      </trkpt>
      <trkpt lat="45.4831" lon="5.81565">
        <ele>947.791992</ele>
        <time>2019-05-23T14:09:29.333Z</time>
      </trkpt>
      <trkpt lat="45.48301" lon="5.81569">
        <ele>949.167847</ele>
        <time>2019-05-23T14:09:34.333Z</time>
      </trkpt>
      <trkpt lat="45.48292" lon="5.81568">
        <ele>949.867432</ele>
        <time>2019-05-23T14:09:39.333Z</time>
      </trkpt>
      <trkpt lat="45.48283" lon="5.81566">
        <ele>950.419434</ele>
        <time>2019-05-23T14:09:44.333Z</time>
      </trkpt>
      <trkpt lat="45.48275" lon="5.81562">
        <ele>951.138672</ele>
        <time>2019-05-23T14:09:49.333Z</time>
      </trkpt>
      <trkpt lat="45.48266" lon="5.81557">
        <ele>951.953247</ele>
        <time>2019-05-23T14:09:54.333Z</time>
      </trkpt>
      <trkpt lat="45.48258" lon="5.81553">
        <ele>953.951172</ele>
        <time>2019-05-23T14:09:59.333Z</time>
      </trkpt>
      <trkpt lat="45.48251" lon="5.8155">
        <ele>956.043823</ele>
        <time>2019-05-23T14:10:04.333Z</time>
      </trkpt>
      <trkpt lat="45.48243" lon="5.81548">
        <ele>958.155762</ele>
        <time>2019-05-23T14:10:09.333Z</time>
      </trkpt>
      <trkpt lat="45.48238" lon="5.81542">
        <ele>957.665161</ele>
        <time>2019-05-23T14:10:14.333Z</time>
      </trkpt>
      <trkpt lat="45.48232" lon="5.81536">
        <ele>959.038696</ele>
        <time>2019-05-23T14:10:19.333Z</time>
      </trkpt>
      <trkpt lat="45.48225" lon="5.8153">
        <ele>958.300049</ele>
        <time>2019-05-23T14:10:24.333Z</time>
      </trkpt>
      <trkpt lat="45.4822" lon="5.81524">
        <ele>959.390137</ele>
        <time>2019-05-23T14:10:29.333Z</time>
      </trkpt>
      <trkpt lat="45.48214" lon="5.81519">
        <ele>959.793213</ele>
        <time>2019-05-23T14:10:34.333Z</time>
      </trkpt>
      <trkpt lat="45.48208" lon="5.81512">
        <ele>960.548096</ele>
        <time>2019-05-23T14:10:39.333Z</time>
      </trkpt>
      <trkpt lat="45.48202" lon="5.81506">
        <ele>960.84082</ele>
        <time>2019-05-23T14:10:44.333Z</time>
      </trkpt>
      <trkpt lat="45.48194" lon="5.81497">
        <ele>960.97168</ele>
        <time>2019-05-23T14:10:50.333Z</time>
      </trkpt>
      <trkpt lat="45.48188" lon="5.81492">
        <ele>963.418701</ele>
        <time>2019-05-23T14:10:55.341Z</time>
      </trkpt>
      <trkpt lat="45.48182" lon="5.81486">
        <ele>963.19812</ele>
        <time>2019-05-23T14:11:00.341Z</time>
      </trkpt>
      <trkpt lat="45.48177" lon="5.81478">
        <ele>963.989136</ele>
        <time>2019-05-23T14:11:05.341Z</time>
      </trkpt>
      <trkpt lat="45.4817" lon="5.81471">
        <ele>964.216064</ele>
        <time>2019-05-23T14:11:10.343Z</time>
      </trkpt>
      <trkpt lat="45.48164" lon="5.81465">
        <ele>965.656738</ele>
        <time>2019-05-23T14:11:15.343Z</time>
      </trkpt>
      <trkpt lat="45.48158" lon="5.81458">
        <ele>965.538818</ele>
        <time>2019-05-23T14:11:21.023Z</time>
      </trkpt>
      <trkpt lat="45.48153" lon="5.81451">
        <ele>967.880615</ele>
        <time>2019-05-23T14:11:26.055Z</time>
      </trkpt>
      <trkpt lat="45.48147" lon="5.81443">
        <ele>968.929443</ele>
        <time>2019-05-23T14:11:31.078Z</time>
      </trkpt>
      <trkpt lat="45.48142" lon="5.81436">
        <ele>968.284424</ele>
        <time>2019-05-23T14:11:36.128Z</time>
      </trkpt>
      <trkpt lat="45.48136" lon="5.8143">
        <ele>969.789063</ele>
        <time>2019-05-23T14:11:41.208Z</time>
      </trkpt>
      <trkpt lat="45.4813" lon="5.81423">
        <ele>971.291626</ele>
        <time>2019-05-23T14:11:46.260Z</time>
      </trkpt>
      <trkpt lat="45.48124" lon="5.81415">
        <ele>971.686035</ele>
        <time>2019-05-23T14:11:51.308Z</time>
      </trkpt>
      <trkpt lat="45.48117" lon="5.81406">
        <ele>971.798218</ele>
        <time>2019-05-23T14:11:56.334Z</time>
      </trkpt>
      <trkpt lat="45.48113" lon="5.81396">
        <ele>972.516846</ele>
        <time>2019-05-23T14:12:01.335Z</time>
      </trkpt>
      <trkpt lat="45.4811" lon="5.81386">
        <ele>971.616333</ele>
        <time>2019-05-23T14:12:06.335Z</time>
      </trkpt>
      <trkpt lat="45.48107" lon="5.81376">
        <ele>972.427979</ele>
        <time>2019-05-23T14:12:11.335Z</time>
      </trkpt>
      <trkpt lat="45.48102" lon="5.81367">
        <ele>972.2146</ele>
        <time>2019-05-23T14:12:16.335Z</time>
      </trkpt>
      <trkpt lat="45.48096" lon="5.8136">
        <ele>972.985107</ele>
        <time>2019-05-23T14:12:21.335Z</time>
      </trkpt>
      <trkpt lat="45.4809" lon="5.81354">
        <ele>975.306519</ele>
        <time>2019-05-23T14:12:26.335Z</time>
      </trkpt>
      <trkpt lat="45.48083" lon="5.81346">
        <ele>976.724854</ele>
        <time>2019-05-23T14:12:31.335Z</time>
      </trkpt>
      <trkpt lat="45.48077" lon="5.8134">
        <ele>977.898682</ele>
        <time>2019-05-23T14:12:36.335Z</time>
      </trkpt>
      <trkpt lat="45.48073" lon="5.81331">
        <ele>976.250488</ele>
        <time>2019-05-23T14:12:41.335Z</time>
      </trkpt>
      <trkpt lat="45.48068" lon="5.81322">
        <ele>976.448608</ele>
        <time>2019-05-23T14:12:46.335Z</time>
      </trkpt>
      <trkpt lat="45.48063" lon="5.81314">
        <ele>976.996094</ele>
        <time>2019-05-23T14:12:51.335Z</time>
      </trkpt>
      <trkpt lat="45.48058" lon="5.81305">
        <ele>977.489502</ele>
        <time>2019-05-23T14:12:56.335Z</time>
      </trkpt>
      <trkpt lat="45.48055" lon="5.81295">
        <ele>977.454102</ele>
        <time>2019-05-23T14:13:01.335Z</time>
      </trkpt>
      <trkpt lat="45.48055" lon="5.81284">
        <ele>978.505493</ele>
        <time>2019-05-23T14:13:07.097Z</time>
      </trkpt>
      <trkpt lat="45.48062" lon="5.81274">
        <ele>978.349121</ele>
        <time>2019-05-23T14:13:12.139Z</time>
      </trkpt>
      <trkpt lat="45.48072" lon="5.81266">
        <ele>979.250732</ele>
        <time>2019-05-23T14:13:17.193Z</time>
      </trkpt>
      <trkpt lat="45.4808" lon="5.8126">
        <ele>980.307495</ele>
        <time>2019-05-23T14:13:22.212Z</time>
      </trkpt>
      <trkpt lat="45.48087" lon="5.81257">
        <ele>980.409424</ele>
        <time>2019-05-23T14:13:27.280Z</time>
      </trkpt>
      <trkpt lat="45.48095" lon="5.8125">
        <ele>984.922607</ele>
        <time>2019-05-23T14:13:32.322Z</time>
      </trkpt>
      <trkpt lat="45.48104" lon="5.81248">
        <ele>985.065186</ele>
        <time>2019-05-23T14:13:37.331Z</time>
      </trkpt>
      <trkpt lat="45.48106" lon="5.81249">
        <ele>984.640137</ele>
        <time>2019-05-23T14:13:43.390Z</time>
      </trkpt>
      <trkpt lat="45.48108" lon="5.81247">
        <ele>983.726563</ele>
        <time>2019-05-23T14:14:01.321Z</time>
      </trkpt>
      <trkpt lat="45.48107" lon="5.81246">
        <ele>984.727173</ele>
        <time>2019-05-23T14:14:08.373Z</time>
      </trkpt>
      <trkpt lat="45.48103" lon="5.81247">
        <ele>987.157227</ele>
        <time>2019-05-23T14:14:14.325Z</time>
      </trkpt>
      <trkpt lat="45.48103" lon="5.81248">
        <ele>988.645996</ele>
        <time>2019-05-23T14:14:22.827Z</time>
      </trkpt>
      <trkpt lat="45.48102" lon="5.81248">
        <ele>988.813721</ele>
        <time>2019-05-23T14:14:31.384Z</time>
      </trkpt>
      <trkpt lat="45.48094" lon="5.81253">
        <ele>988.663574</ele>
        <time>2019-05-23T14:14:37.323Z</time>
      </trkpt>
      <trkpt lat="45.48084" lon="5.81258">
        <ele>987.809937</ele>
        <time>2019-05-23T14:14:42.323Z</time>
      </trkpt>
      <trkpt lat="45.48076" lon="5.81264">
        <ele>986.240479</ele>
        <time>2019-05-23T14:14:47.323Z</time>
      </trkpt>
      <trkpt lat="45.4807" lon="5.81271">
        <ele>983.194702</ele>
        <time>2019-05-23T14:14:52.324Z</time>
      </trkpt>
      <trkpt lat="45.48064" lon="5.81277">
        <ele>984.101807</ele>
        <time>2019-05-23T14:14:58.151Z</time>
      </trkpt>
      <trkpt lat="45.48061" lon="5.81276">
        <ele>984.202881</ele>
        <time>2019-05-23T14:15:06.373Z</time>
      </trkpt>
      <trkpt lat="45.4806" lon="5.81275">
        <ele>984.465088</ele>
        <time>2019-05-23T14:15:36.053Z</time>
      </trkpt>
      <trkpt lat="45.48058" lon="5.81274">
        <ele>984.8125</ele>
        <time>2019-05-23T14:16:01.310Z</time>
      </trkpt>
      <trkpt lat="45.48059" lon="5.81277">
        <ele>983.276855</ele>
        <time>2019-05-23T14:16:06.315Z</time>
      </trkpt>
      <trkpt lat="45.48061" lon="5.81275">
        <ele>982.804443</ele>
        <time>2019-05-23T14:16:11.321Z</time>
      </trkpt>
      <trkpt lat="45.48068" lon="5.81268">
        <ele>982.763184</ele>
        <time>2019-05-23T14:16:16.325Z</time>
      </trkpt>
      <trkpt lat="45.48074" lon="5.81262">
        <ele>986.190308</ele>
        <time>2019-05-23T14:16:21.345Z</time>
      </trkpt>
      <trkpt lat="45.48082" lon="5.81257">
        <ele>986.615112</ele>
        <time>2019-05-23T14:16:26.345Z</time>
      </trkpt>
      <trkpt lat="45.48091" lon="5.81255">
        <ele>984.152344</ele>
        <time>2019-05-23T14:16:37.326Z</time>
      </trkpt>
      <trkpt lat="45.48098" lon="5.81249">
        <ele>985.113159</ele>
        <time>2019-05-23T14:16:42.327Z</time>
      </trkpt>
      <trkpt lat="45.48105" lon="5.81244">
        <ele>985.96875</ele>
        <time>2019-05-23T14:16:47.329Z</time>
      </trkpt>
      <trkpt lat="45.48114" lon="5.81243">
        <ele>984.773193</ele>
        <time>2019-05-23T14:16:52.331Z</time>
      </trkpt>
      <trkpt lat="45.48124" lon="5.81239">
        <ele>983.604858</ele>
        <time>2019-05-23T14:16:57.331Z</time>
      </trkpt>
      <trkpt lat="45.48133" lon="5.81236">
        <ele>984.221191</ele>
        <time>2019-05-23T14:17:02.331Z</time>
      </trkpt>
      <trkpt lat="45.48142" lon="5.81234">
        <ele>985.760742</ele>
        <time>2019-05-23T14:17:07.331Z</time>
      </trkpt>
      <trkpt lat="45.48152" lon="5.81231">
        <ele>987.702637</ele>
        <time>2019-05-23T14:17:12.331Z</time>
      </trkpt>
      <trkpt lat="45.4816" lon="5.81231">
        <ele>989.671875</ele>
        <time>2019-05-23T14:17:17.331Z</time>
      </trkpt>
      <trkpt lat="45.4817" lon="5.8123">
        <ele>988.831543</ele>
        <time>2019-05-23T14:17:22.331Z</time>
      </trkpt>
      <trkpt lat="45.48178" lon="5.81233">
        <ele>990.751465</ele>
        <time>2019-05-23T14:17:27.332Z</time>
      </trkpt>
      <trkpt lat="45.48186" lon="5.81234">
        <ele>993.677856</ele>
        <time>2019-05-23T14:17:32.332Z</time>
      </trkpt>
      <trkpt lat="45.48193" lon="5.81234">
        <ele>993.505249</ele>
        <time>2019-05-23T14:17:37.332Z</time>
      </trkpt>
      <trkpt lat="45.48199" lon="5.81233">
        <ele>994.181641</ele>
        <time>2019-05-23T14:17:42.332Z</time>
      </trkpt>
      <trkpt lat="45.48207" lon="5.81235">
        <ele>993.84021</ele>
        <time>2019-05-23T14:17:47.332Z</time>
      </trkpt>
      <trkpt lat="45.48212" lon="5.81232">
        <ele>995.574951</ele>
        <time>2019-05-23T14:17:52.332Z</time>
      </trkpt>
      <trkpt lat="45.4822" lon="5.81229">
        <ele>996.193359</ele>
        <time>2019-05-23T14:17:57.347Z</time>
      </trkpt>
      <trkpt lat="45.48228" lon="5.81225">
        <ele>995.547852</ele>
        <time>2019-05-23T14:18:02.347Z</time>
      </trkpt>
      <trkpt lat="45.48236" lon="5.81224">
        <ele>1002.136353</ele>
        <time>2019-05-23T14:18:07.347Z</time>
      </trkpt>
      <trkpt lat="45.48243" lon="5.81224">
        <ele>1004.45459</ele>
        <time>2019-05-23T14:18:12.347Z</time>
      </trkpt>
      <trkpt lat="45.4825" lon="5.81219">
        <ele>1005.98877</ele>
        <time>2019-05-23T14:18:17.347Z</time>
      </trkpt>
      <trkpt lat="45.48258" lon="5.81216">
        <ele>1007.38269</ele>
        <time>2019-05-23T14:18:22.347Z</time>
      </trkpt>
      <trkpt lat="45.48263" lon="5.81213">
        <ele>1008.812744</ele>
        <time>2019-05-23T14:18:27.347Z</time>
      </trkpt>
      <trkpt lat="45.48268" lon="5.81209">
        <ele>1009.433105</ele>
        <time>2019-05-23T14:18:32.771Z</time>
      </trkpt>
      <trkpt lat="45.48276" lon="5.81205">
        <ele>1010.019287</ele>
        <time>2019-05-23T14:18:37.814Z</time>
      </trkpt>
      <trkpt lat="45.48285" lon="5.81201">
        <ele>1013.14917</ele>
        <time>2019-05-23T14:18:42.883Z</time>
      </trkpt>
      <trkpt lat="45.48293" lon="5.81197">
        <ele>1014.444336</ele>
        <time>2019-05-23T14:18:47.945Z</time>
      </trkpt>
      <trkpt lat="45.48302" lon="5.81193">
        <ele>1015.338257</ele>
        <time>2019-05-23T14:18:52.996Z</time>
      </trkpt>
      <trkpt lat="45.4831" lon="5.8119">
        <ele>1016.607422</ele>
        <time>2019-05-23T14:18:58.039Z</time>
      </trkpt>
      <trkpt lat="45.48317" lon="5.81188">
        <ele>1017.829956</ele>
        <time>2019-05-23T14:19:03.064Z</time>
      </trkpt>
      <trkpt lat="45.48327" lon="5.81185">
        <ele>1016.75708</ele>
        <time>2019-05-23T14:19:08.120Z</time>
      </trkpt>
      <trkpt lat="45.48335" lon="5.81183">
        <ele>1015.59082</ele>
        <time>2019-05-23T14:19:13.141Z</time>
      </trkpt>
      <trkpt lat="45.48343" lon="5.81183">
        <ele>1016.104736</ele>
        <time>2019-05-23T14:19:18.201Z</time>
      </trkpt>
      <trkpt lat="45.48351" lon="5.81183">
        <ele>1017.085205</ele>
        <time>2019-05-23T14:19:23.275Z</time>
      </trkpt>
      <trkpt lat="45.48359" lon="5.81184">
        <ele>1015.024414</ele>
        <time>2019-05-23T14:19:28.334Z</time>
      </trkpt>
      <trkpt lat="45.48365" lon="5.81184">
        <ele>1015.460938</ele>
        <time>2019-05-23T14:19:33.334Z</time>
      </trkpt>
      <trkpt lat="45.48377" lon="5.81182">
        <ele>1017.059937</ele>
        <time>2019-05-23T14:19:38.334Z</time>
      </trkpt>
      <trkpt lat="45.48388" lon="5.81184">
        <ele>1016.802856</ele>
        <time>2019-05-23T14:19:43.334Z</time>
      </trkpt>
      <trkpt lat="45.48398" lon="5.81195">
        <ele>1017.709351</ele>
        <time>2019-05-23T14:19:57.368Z</time>
      </trkpt>
      <trkpt lat="45.48399" lon="5.81201">
        <ele>1022.393799</ele>
        <time>2019-05-23T14:20:09.328Z</time>
      </trkpt>
      <trkpt lat="45.48404" lon="5.81206">
        <ele>1022.799805</ele>
        <time>2019-05-23T14:20:14.328Z</time>
      </trkpt>
      <trkpt lat="45.48409" lon="5.81213">
        <ele>1021.80957</ele>
        <time>2019-05-23T14:20:19.331Z</time>
      </trkpt>
      <trkpt lat="45.48411" lon="5.81222">
        <ele>1021.580811</ele>
        <time>2019-05-23T14:20:24.331Z</time>
      </trkpt>
      <trkpt lat="45.48417" lon="5.81229">
        <ele>1022.372681</ele>
        <time>2019-05-23T14:20:29.361Z</time>
      </trkpt>
      <trkpt lat="45.48424" lon="5.81233">
        <ele>1023.007813</ele>
        <time>2019-05-23T14:20:34.361Z</time>
      </trkpt>
      <trkpt lat="45.48429" lon="5.81237">
        <ele>1023.432983</ele>
        <time>2019-05-23T14:20:39.361Z</time>
      </trkpt>
      <trkpt lat="45.48436" lon="5.81239">
        <ele>1024.414551</ele>
        <time>2019-05-23T14:20:44.361Z</time>
      </trkpt>
      <trkpt lat="45.48444" lon="5.8124">
        <ele>1024.489746</ele>
        <time>2019-05-23T14:20:50.381Z</time>
      </trkpt>
      <trkpt lat="45.48453" lon="5.81241">
        <ele>1023.145996</ele>
        <time>2019-05-23T14:20:56.332Z</time>
      </trkpt>
      <trkpt lat="45.48459" lon="5.8124">
        <ele>1025.675537</ele>
        <time>2019-05-23T14:21:01.332Z</time>
      </trkpt>
      <trkpt lat="45.48466" lon="5.81241">
        <ele>1026.175903</ele>
        <time>2019-05-23T14:21:06.332Z</time>
      </trkpt>
      <trkpt lat="45.48476" lon="5.81241">
        <ele>1026.450684</ele>
        <time>2019-05-23T14:21:11.332Z</time>
      </trkpt>
      <trkpt lat="45.48484" lon="5.8124">
        <ele>1026.037109</ele>
        <time>2019-05-23T14:21:16.332Z</time>
      </trkpt>
      <trkpt lat="45.4849" lon="5.81237">
        <ele>1028.534058</ele>
        <time>2019-05-23T14:21:21.334Z</time>
      </trkpt>
      <trkpt lat="45.48498" lon="5.81236">
        <ele>1030.577271</ele>
        <time>2019-05-23T14:21:26.334Z</time>
      </trkpt>
      <trkpt lat="45.48506" lon="5.81236">
        <ele>1031.045898</ele>
        <time>2019-05-23T14:21:31.334Z</time>
      </trkpt>
      <trkpt lat="45.48512" lon="5.81237">
        <ele>1031.602905</ele>
        <time>2019-05-23T14:21:36.334Z</time>
      </trkpt>
      <trkpt lat="45.48518" lon="5.81237">
        <ele>1032.59375</ele>
        <time>2019-05-23T14:21:41.334Z</time>
      </trkpt>
      <trkpt lat="45.48525" lon="5.81237">
        <ele>1033.617676</ele>
        <time>2019-05-23T14:21:46.334Z</time>
      </trkpt>
      <trkpt lat="45.48532" lon="5.81239">
        <ele>1033.328247</ele>
        <time>2019-05-23T14:21:51.334Z</time>
      </trkpt>
      <trkpt lat="45.48541" lon="5.81242">
        <ele>1033.012329</ele>
        <time>2019-05-23T14:21:56.334Z</time>
      </trkpt>
      <trkpt lat="45.48549" lon="5.81243">
        <ele>1033.465698</ele>
        <time>2019-05-23T14:22:01.334Z</time>
      </trkpt>
      <trkpt lat="45.48556" lon="5.81246">
        <ele>1033.877319</ele>
        <time>2019-05-23T14:22:06.334Z</time>
      </trkpt>
      <trkpt lat="45.48564" lon="5.81251">
        <ele>1037.333984</ele>
        <time>2019-05-23T14:22:11.334Z</time>
      </trkpt>
      <trkpt lat="45.48575" lon="5.81255">
        <ele>1039.585938</ele>
        <time>2019-05-23T14:22:16.336Z</time>
      </trkpt>
      <trkpt lat="45.48583" lon="5.81259">
        <ele>1040.404419</ele>
        <time>2019-05-23T14:22:21.336Z</time>
      </trkpt>
      <trkpt lat="45.48591" lon="5.81264">
        <ele>1041.609863</ele>
        <time>2019-05-23T14:22:26.336Z</time>
      </trkpt>
      <trkpt lat="45.48601" lon="5.81267">
        <ele>1041.774658</ele>
        <time>2019-05-23T14:22:31.336Z</time>
      </trkpt>
      <trkpt lat="45.48609" lon="5.8127">
        <ele>1042.188232</ele>
        <time>2019-05-23T14:22:36.362Z</time>
      </trkpt>
      <trkpt lat="45.48619" lon="5.81271">
        <ele>1043.899658</ele>
        <time>2019-05-23T14:22:41.362Z</time>
      </trkpt>
      <trkpt lat="45.48628" lon="5.81273">
        <ele>1043.820557</ele>
        <time>2019-05-23T14:22:46.362Z</time>
      </trkpt>
      <trkpt lat="45.48639" lon="5.81274">
        <ele>1044.156006</ele>
        <time>2019-05-23T14:22:51.362Z</time>
      </trkpt>
      <trkpt lat="45.48646" lon="5.81275">
        <ele>1044.786621</ele>
        <time>2019-05-23T14:22:56.362Z</time>
      </trkpt>
      <trkpt lat="45.48655" lon="5.81279">
        <ele>1045.089966</ele>
        <time>2019-05-23T14:23:02.324Z</time>
      </trkpt>
      <trkpt lat="45.48664" lon="5.8128">
        <ele>1045.21167</ele>
        <time>2019-05-23T14:23:07.329Z</time>
      </trkpt>
      <trkpt lat="45.48674" lon="5.81285">
        <ele>1045.264771</ele>
        <time>2019-05-23T14:23:12.329Z</time>
      </trkpt>
      <trkpt lat="45.48682" lon="5.81285">
        <ele>1045.615967</ele>
        <time>2019-05-23T14:23:17.336Z</time>
      </trkpt>
      <trkpt lat="45.48692" lon="5.81285">
        <ele>1047.113647</ele>
        <time>2019-05-23T14:23:22.336Z</time>
      </trkpt>
      <trkpt lat="45.48699" lon="5.81288">
        <ele>1046.087891</ele>
        <time>2019-05-23T14:23:27.336Z</time>
      </trkpt>
      <trkpt lat="45.48708" lon="5.8129">
        <ele>1046.032959</ele>
        <time>2019-05-23T14:23:32.336Z</time>
      </trkpt>
      <trkpt lat="45.48713" lon="5.81293">
        <ele>1050.008423</ele>
        <time>2019-05-23T14:23:37.336Z</time>
      </trkpt>
      <trkpt lat="45.4872" lon="5.81294">
        <ele>1050.113281</ele>
        <time>2019-05-23T14:23:42.336Z</time>
      </trkpt>
      <trkpt lat="45.48727" lon="5.81296">
        <ele>1051.301025</ele>
        <time>2019-05-23T14:23:47.336Z</time>
      </trkpt>
      <trkpt lat="45.48735" lon="5.81298">
        <ele>1051.989136</ele>
        <time>2019-05-23T14:23:52.336Z</time>
      </trkpt>
      <trkpt lat="45.48742" lon="5.81301">
        <ele>1054.261719</ele>
        <time>2019-05-23T14:23:57.369Z</time>
      </trkpt>
      <trkpt lat="45.48751" lon="5.813">
        <ele>1054.614014</ele>
        <time>2019-05-23T14:24:03.331Z</time>
      </trkpt>
      <trkpt lat="45.48759" lon="5.81303">
        <ele>1055.595581</ele>
        <time>2019-05-23T14:24:08.331Z</time>
      </trkpt>
      <trkpt lat="45.48767" lon="5.81306">
        <ele>1057.971191</ele>
        <time>2019-05-23T14:24:13.331Z</time>
      </trkpt>
      <trkpt lat="45.48774" lon="5.81312">
        <ele>1060.807129</ele>
        <time>2019-05-23T14:24:18.331Z</time>
      </trkpt>
      <trkpt lat="45.4878" lon="5.81318">
        <ele>1063.363159</ele>
        <time>2019-05-23T14:24:23.331Z</time>
      </trkpt>
      <trkpt lat="45.48789" lon="5.81322">
        <ele>1062.950684</ele>
        <time>2019-05-23T14:24:28.331Z</time>
      </trkpt>
      <trkpt lat="45.48798" lon="5.81324">
        <ele>1062.599609</ele>
        <time>2019-05-23T14:24:33.331Z</time>
      </trkpt>
      <trkpt lat="45.48806" lon="5.81324">
        <ele>1062.362549</ele>
        <time>2019-05-23T14:24:38.331Z</time>
      </trkpt>
      <trkpt lat="45.48813" lon="5.81327">
        <ele>1066.067139</ele>
        <time>2019-05-23T14:24:43.331Z</time>
      </trkpt>
      <trkpt lat="45.48821" lon="5.81331">
        <ele>1065.935791</ele>
        <time>2019-05-23T14:24:48.331Z</time>
      </trkpt>
      <trkpt lat="45.48829" lon="5.81334">
        <ele>1062.71521</ele>
        <time>2019-05-23T14:24:53.333Z</time>
      </trkpt>
      <trkpt lat="45.48838" lon="5.81335">
        <ele>1063.355103</ele>
        <time>2019-05-23T14:24:58.333Z</time>
      </trkpt>
      <trkpt lat="45.48845" lon="5.81335">
        <ele>1064.929077</ele>
        <time>2019-05-23T14:25:03.333Z</time>
      </trkpt>
      <trkpt lat="45.48853" lon="5.81336">
        <ele>1065.380005</ele>
        <time>2019-05-23T14:25:08.333Z</time>
      </trkpt>
      <trkpt lat="45.48862" lon="5.81338">
        <ele>1063.089478</ele>
        <time>2019-05-23T14:25:13.333Z</time>
      </trkpt>
      <trkpt lat="45.48869" lon="5.8134">
        <ele>1066.067505</ele>
        <time>2019-05-23T14:25:18.333Z</time>
      </trkpt>
      <trkpt lat="45.48878" lon="5.81343">
        <ele>1065.374268</ele>
        <time>2019-05-23T14:25:23.333Z</time>
      </trkpt>
      <trkpt lat="45.48885" lon="5.81341">
        <ele>1066.77124</ele>
        <time>2019-05-23T14:25:28.333Z</time>
      </trkpt>
      <trkpt lat="45.48893" lon="5.81342">
        <ele>1069.75708</ele>
        <time>2019-05-23T14:25:33.333Z</time>
      </trkpt>
      <trkpt lat="45.48903" lon="5.81344">
        <ele>1068.978882</ele>
        <time>2019-05-23T14:25:38.333Z</time>
      </trkpt>
      <trkpt lat="45.48913" lon="5.81347">
        <ele>1069.14209</ele>
        <time>2019-05-23T14:25:43.333Z</time>
      </trkpt>
      <trkpt lat="45.4892" lon="5.8135">
        <ele>1074.213257</ele>
        <time>2019-05-23T14:25:49.327Z</time>
      </trkpt>
      <trkpt lat="45.48926" lon="5.81353">
        <ele>1074.756958</ele>
        <time>2019-05-23T14:25:54.327Z</time>
      </trkpt>
      <trkpt lat="45.48933" lon="5.81356">
        <ele>1075.930054</ele>
        <time>2019-05-23T14:25:59.327Z</time>
      </trkpt>
      <trkpt lat="45.48941" lon="5.81357">
        <ele>1075.059082</ele>
        <time>2019-05-23T14:26:04.329Z</time>
      </trkpt>
      <trkpt lat="45.48948" lon="5.8136">
        <ele>1077.792969</ele>
        <time>2019-05-23T14:26:09.329Z</time>
      </trkpt>
      <trkpt lat="45.48957" lon="5.81365">
        <ele>1078.162964</ele>
        <time>2019-05-23T14:26:14.329Z</time>
      </trkpt>
      <trkpt lat="45.48964" lon="5.8137">
        <ele>1075.814819</ele>
        <time>2019-05-23T14:26:23.386Z</time>
      </trkpt>
      <trkpt lat="45.48971" lon="5.81376">
        <ele>1075.814453</ele>
        <time>2019-05-23T14:26:28.386Z</time>
      </trkpt>
      <trkpt lat="45.48978" lon="5.81383">
        <ele>1076.365234</ele>
        <time>2019-05-23T14:26:33.386Z</time>
      </trkpt>
      <trkpt lat="45.48987" lon="5.81388">
        <ele>1078.390381</ele>
        <time>2019-05-23T14:26:39.325Z</time>
      </trkpt>
      <trkpt lat="45.48987" lon="5.81386">
        <ele>1078.165527</ele>
        <time>2019-05-23T14:26:56.316Z</time>
      </trkpt>
      <trkpt lat="45.4899" lon="5.81387">
        <ele>1078.530029</ele>
        <time>2019-05-23T14:27:01.326Z</time>
      </trkpt>
      <trkpt lat="45.48991" lon="5.81385">
        <ele>1075.103149</ele>
        <time>2019-05-23T14:27:24.326Z</time>
      </trkpt>
      <trkpt lat="45.48993" lon="5.81385">
        <ele>1078.930664</ele>
        <time>2019-05-23T14:27:44.325Z</time>
      </trkpt>
      <trkpt lat="45.48998" lon="5.81389">
        <ele>1078.359497</ele>
        <time>2019-05-23T14:27:49.325Z</time>
      </trkpt>
      <trkpt lat="45.49005" lon="5.81393">
        <ele>1077.702271</ele>
        <time>2019-05-23T14:27:54.325Z</time>
      </trkpt>
      <trkpt lat="45.49014" lon="5.81398">
        <ele>1078.431519</ele>
        <time>2019-05-23T14:27:59.325Z</time>
      </trkpt>
      <trkpt lat="45.4902" lon="5.81401">
        <ele>1080.371094</ele>
        <time>2019-05-23T14:28:04.325Z</time>
      </trkpt>
      <trkpt lat="45.49029" lon="5.81403">
        <ele>1079.992065</ele>
        <time>2019-05-23T14:28:09.325Z</time>
      </trkpt>
      <trkpt lat="45.49036" lon="5.81403">
        <ele>1081.031982</ele>
        <time>2019-05-23T14:28:14.325Z</time>
      </trkpt>
      <trkpt lat="45.49043" lon="5.81405">
        <ele>1081.264771</ele>
        <time>2019-05-23T14:28:19.326Z</time>
      </trkpt>
      <trkpt lat="45.49051" lon="5.81407">
        <ele>1080.965942</ele>
        <time>2019-05-23T14:28:24.338Z</time>
      </trkpt>
      <trkpt lat="45.4906" lon="5.81409">
        <ele>1082.284302</ele>
        <time>2019-05-23T14:28:29.338Z</time>
      </trkpt>
      <trkpt lat="45.49067" lon="5.81412">
        <ele>1085.94812</ele>
        <time>2019-05-23T14:28:34.338Z</time>
      </trkpt>
      <trkpt lat="45.49074" lon="5.81417">
        <ele>1084.821411</ele>
        <time>2019-05-23T14:28:39.338Z</time>
      </trkpt>
      <trkpt lat="45.49081" lon="5.81421">
        <ele>1087.356445</ele>
        <time>2019-05-23T14:28:44.342Z</time>
      </trkpt>
      <trkpt lat="45.4909" lon="5.81424">
        <ele>1085.85022</ele>
        <time>2019-05-23T14:28:49.342Z</time>
      </trkpt>
      <trkpt lat="45.49096" lon="5.81427">
        <ele>1091.186035</ele>
        <time>2019-05-23T14:28:54.342Z</time>
      </trkpt>
      <trkpt lat="45.49106" lon="5.8143">
        <ele>1093.505859</ele>
        <time>2019-05-23T14:29:00.321Z</time>
      </trkpt>
      <trkpt lat="45.49112" lon="5.81434">
        <ele>1096.785522</ele>
        <time>2019-05-23T14:29:05.335Z</time>
      </trkpt>
      <trkpt lat="45.49119" lon="5.81439">
        <ele>1095.661377</ele>
        <time>2019-05-23T14:29:10.335Z</time>
      </trkpt>
      <trkpt lat="45.49126" lon="5.81441">
        <ele>1093.22229</ele>
        <time>2019-05-23T14:29:15.371Z</time>
      </trkpt>
      <trkpt lat="45.49134" lon="5.81444">
        <ele>1094.578491</ele>
        <time>2019-05-23T14:29:21.333Z</time>
      </trkpt>
      <trkpt lat="45.49142" lon="5.81449">
        <ele>1094.264404</ele>
        <time>2019-05-23T14:29:26.333Z</time>
      </trkpt>
      <trkpt lat="45.49147" lon="5.81458">
        <ele>1094.273804</ele>
        <time>2019-05-23T14:29:31.333Z</time>
      </trkpt>
      <trkpt lat="45.49156" lon="5.81464">
        <ele>1092.858276</ele>
        <time>2019-05-23T14:29:36.333Z</time>
      </trkpt>
      <trkpt lat="45.49163" lon="5.8147">
        <ele>1093.893677</ele>
        <time>2019-05-23T14:29:41.333Z</time>
      </trkpt>
      <trkpt lat="45.4917" lon="5.81473">
        <ele>1091.842041</ele>
        <time>2019-05-23T14:29:46.333Z</time>
      </trkpt>
      <trkpt lat="45.49177" lon="5.81479">
        <ele>1095.720215</ele>
        <time>2019-05-23T14:29:51.359Z</time>
      </trkpt>
      <trkpt lat="45.49184" lon="5.81485">
        <ele>1096.343018</ele>
        <time>2019-05-23T14:29:56.989Z</time>
      </trkpt>
      <trkpt lat="45.49191" lon="5.81488">
        <ele>1097.382568</ele>
        <time>2019-05-23T14:30:02.035Z</time>
      </trkpt>
      <trkpt lat="45.49198" lon="5.81495">
        <ele>1101.812378</ele>
        <time>2019-05-23T14:30:07.079Z</time>
      </trkpt>
      <trkpt lat="45.49206" lon="5.81498">
        <ele>1104.675293</ele>
        <time>2019-05-23T14:30:12.109Z</time>
      </trkpt>
      <trkpt lat="45.49214" lon="5.81499">
        <ele>1104.350952</ele>
        <time>2019-05-23T14:30:17.157Z</time>
      </trkpt>
      <trkpt lat="45.49224" lon="5.81505">
        <ele>1104.160156</ele>
        <time>2019-05-23T14:30:22.208Z</time>
      </trkpt>
      <trkpt lat="45.49236" lon="5.81511">
        <ele>1104.811035</ele>
        <time>2019-05-23T14:30:27.305Z</time>
      </trkpt>
      <trkpt lat="45.49244" lon="5.81515">
        <ele>1104.420532</ele>
        <time>2019-05-23T14:30:32.326Z</time>
      </trkpt>
      <trkpt lat="45.49256" lon="5.81521">
        <ele>1102.755981</ele>
        <time>2019-05-23T14:30:37.328Z</time>
      </trkpt>
      <trkpt lat="45.49267" lon="5.81526">
        <ele>1101.734741</ele>
        <time>2019-05-23T14:30:42.328Z</time>
      </trkpt>
      <trkpt lat="45.49277" lon="5.8153">
        <ele>1099.983887</ele>
        <time>2019-05-23T14:30:47.330Z</time>
      </trkpt>
      <trkpt lat="45.49286" lon="5.81532">
        <ele>1099.890869</ele>
        <time>2019-05-23T14:30:52.330Z</time>
      </trkpt>
      <trkpt lat="45.49296" lon="5.81533">
        <ele>1101.928711</ele>
        <time>2019-05-23T14:30:57.330Z</time>
      </trkpt>
      <trkpt lat="45.49303" lon="5.81536">
        <ele>1105.111572</ele>
        <time>2019-05-23T14:31:02.330Z</time>
      </trkpt>
      <trkpt lat="45.49309" lon="5.81541">
        <ele>1107.894897</ele>
        <time>2019-05-23T14:31:07.330Z</time>
      </trkpt>
      <trkpt lat="45.49316" lon="5.81545">
        <ele>1108.79187</ele>
        <time>2019-05-23T14:31:12.330Z</time>
      </trkpt>
      <trkpt lat="45.49323" lon="5.81549">
        <ele>1110.984253</ele>
        <time>2019-05-23T14:31:17.330Z</time>
      </trkpt>
      <trkpt lat="45.4933" lon="5.81552">
        <ele>1111.824097</ele>
        <time>2019-05-23T14:31:22.331Z</time>
      </trkpt>
      <trkpt lat="45.49337" lon="5.81556">
        <ele>1108.41626</ele>
        <time>2019-05-23T14:31:27.331Z</time>
      </trkpt>
      <trkpt lat="45.49344" lon="5.81557">
        <ele>1109.135986</ele>
        <time>2019-05-23T14:31:32.331Z</time>
      </trkpt>
      <trkpt lat="45.49353" lon="5.81557">
        <ele>1105.985229</ele>
        <time>2019-05-23T14:31:37.331Z</time>
      </trkpt>
      <trkpt lat="45.49361" lon="5.81559">
        <ele>1106.312134</ele>
        <time>2019-05-23T14:31:42.331Z</time>
      </trkpt>
      <trkpt lat="45.49368" lon="5.81561">
        <ele>1109.205933</ele>
        <time>2019-05-23T14:31:47.331Z</time>
      </trkpt>
      <trkpt lat="45.49373" lon="5.81562">
        <ele>1113.087769</ele>
        <time>2019-05-23T14:31:52.331Z</time>
      </trkpt>
      <trkpt lat="45.49379" lon="5.81562">
        <ele>1116.107056</ele>
        <time>2019-05-23T14:31:57.331Z</time>
      </trkpt>
      <trkpt lat="45.49386" lon="5.81563">
        <ele>1116.609497</ele>
        <time>2019-05-23T14:32:02.331Z</time>
      </trkpt>
      <trkpt lat="45.49394" lon="5.81563">
        <ele>1119.006714</ele>
        <time>2019-05-23T14:32:07.331Z</time>
      </trkpt>
      <trkpt lat="45.494" lon="5.81561">
        <ele>1119.042603</ele>
        <time>2019-05-23T14:32:12.331Z</time>
      </trkpt>
      <trkpt lat="45.49406" lon="5.8156">
        <ele>1121.095215</ele>
        <time>2019-05-23T14:32:17.331Z</time>
      </trkpt>
      <trkpt lat="45.49413" lon="5.81558">
        <ele>1119.793823</ele>
        <time>2019-05-23T14:32:22.331Z</time>
      </trkpt>
      <trkpt lat="45.4942" lon="5.81552">
        <ele>1117.709961</ele>
        <time>2019-05-23T14:32:27.331Z</time>
      </trkpt>
      <trkpt lat="45.49426" lon="5.81545">
        <ele>1117.637329</ele>
        <time>2019-05-23T14:32:32.331Z</time>
      </trkpt>
      <trkpt lat="45.49428" lon="5.81541">
        <ele>1118.147583</ele>
        <time>2019-05-23T14:32:37.331Z</time>
      </trkpt>
      <trkpt lat="45.49429" lon="5.81531">
        <ele>1116.854614</ele>
        <time>2019-05-23T14:32:42.332Z</time>
      </trkpt>
      <trkpt lat="45.49431" lon="5.81521">
        <ele>1117.525635</ele>
        <time>2019-05-23T14:32:47.339Z</time>
      </trkpt>
      <trkpt lat="45.49432" lon="5.81519">
        <ele>1118.075562</ele>
        <time>2019-05-23T14:32:53.671Z</time>
      </trkpt>
      <trkpt lat="45.4943" lon="5.8151">
        <ele>1117.729004</ele>
        <time>2019-05-23T14:32:58.736Z</time>
      </trkpt>
      <trkpt lat="45.49434" lon="5.81502">
        <ele>1118.294678</ele>
        <time>2019-05-23T14:33:03.796Z</time>
      </trkpt>
      <trkpt lat="45.49439" lon="5.8149">
        <ele>1119.27356</ele>
        <time>2019-05-23T14:33:08.865Z</time>
      </trkpt>
      <trkpt lat="45.49444" lon="5.81482">
        <ele>1119.303711</ele>
        <time>2019-05-23T14:33:13.930Z</time>
      </trkpt>
      <trkpt lat="45.4945" lon="5.81478">
        <ele>1117.434937</ele>
        <time>2019-05-23T14:33:18.947Z</time>
      </trkpt>
      <trkpt lat="45.49458" lon="5.81476">
        <ele>1118.760498</ele>
        <time>2019-05-23T14:33:23.993Z</time>
      </trkpt>
      <trkpt lat="45.49464" lon="5.81471">
        <ele>1119.721802</ele>
        <time>2019-05-23T14:33:29.044Z</time>
      </trkpt>
      <trkpt lat="45.49469" lon="5.81464">
        <ele>1121.517334</ele>
        <time>2019-05-23T14:33:34.091Z</time>
      </trkpt>
      <trkpt lat="45.49472" lon="5.81457">
        <ele>1122.047852</ele>
        <time>2019-05-23T14:33:39.133Z</time>
      </trkpt>
      <trkpt lat="45.49474" lon="5.81448">
        <ele>1122.99585</ele>
        <time>2019-05-23T14:33:44.166Z</time>
      </trkpt>
      <trkpt lat="45.49475" lon="5.81439">
        <ele>1122.978394</ele>
        <time>2019-05-23T14:33:49.230Z</time>
      </trkpt>
      <trkpt lat="45.49474" lon="5.81428">
        <ele>1124.450439</ele>
        <time>2019-05-23T14:33:54.267Z</time>
      </trkpt>
      <trkpt lat="45.4947" lon="5.81421">
        <ele>1125.383911</ele>
        <time>2019-05-23T14:33:59.336Z</time>
      </trkpt>
      <trkpt lat="45.49464" lon="5.8141">
        <ele>1126.679688</ele>
        <time>2019-05-23T14:34:04.342Z</time>
      </trkpt>
      <trkpt lat="45.4946" lon="5.81401">
        <ele>1129.623413</ele>
        <time>2019-05-23T14:34:09.342Z</time>
      </trkpt>
      <trkpt lat="45.49456" lon="5.81393">
        <ele>1129.665894</ele>
        <time>2019-05-23T14:34:14.342Z</time>
      </trkpt>
      <trkpt lat="45.49455" lon="5.81391">
        <ele>1128.981934</ele>
        <time>2019-05-23T14:34:29.619Z</time>
      </trkpt>
      <trkpt lat="45.49457" lon="5.81387">
        <ele>1131.471802</ele>
        <time>2019-05-23T14:34:55.773Z</time>
      </trkpt>
      <trkpt lat="45.49455" lon="5.81386">
        <ele>1129.979858</ele>
        <time>2019-05-23T14:35:30.335Z</time>
      </trkpt>
      <trkpt lat="45.49457" lon="5.81387">
        <ele>1130.983521</ele>
        <time>2019-05-23T14:35:38.328Z</time>
      </trkpt>
      <trkpt lat="45.49459" lon="5.8138">
        <ele>1136.45874</ele>
        <time>2019-05-23T14:36:50.345Z</time>
      </trkpt>
      <trkpt lat="45.49456" lon="5.81372">
        <ele>1137.217896</ele>
        <time>2019-05-23T14:36:55.345Z</time>
      </trkpt>
      <trkpt lat="45.49459" lon="5.81362">
        <ele>1136.164185</ele>
        <time>2019-05-23T14:37:01.108Z</time>
      </trkpt>
      <trkpt lat="45.49463" lon="5.81352">
        <ele>1134.044434</ele>
        <time>2019-05-23T14:37:06.156Z</time>
      </trkpt>
      <trkpt lat="45.49469" lon="5.81341">
        <ele>1132.887573</ele>
        <time>2019-05-23T14:37:11.201Z</time>
      </trkpt>
      <trkpt lat="45.49473" lon="5.81327">
        <ele>1135.218994</ele>
        <time>2019-05-23T14:37:16.285Z</time>
      </trkpt>
      <trkpt lat="45.49479" lon="5.81313">
        <ele>1134.156006</ele>
        <time>2019-05-23T14:37:21.335Z</time>
      </trkpt>
      <trkpt lat="45.49485" lon="5.81295">
        <ele>1133.189087</ele>
        <time>2019-05-23T14:37:26.335Z</time>
      </trkpt>
      <trkpt lat="45.49491" lon="5.8128">
        <ele>1132.578491</ele>
        <time>2019-05-23T14:37:31.335Z</time>
      </trkpt>
      <trkpt lat="45.49499" lon="5.81265">
        <ele>1131.512451</ele>
        <time>2019-05-23T14:37:36.335Z</time>
      </trkpt>
      <trkpt lat="45.49504" lon="5.81255">
        <ele>1131.371826</ele>
        <time>2019-05-23T14:37:41.335Z</time>
      </trkpt>
      <trkpt lat="45.49514" lon="5.81242">
        <ele>1132.268555</ele>
        <time>2019-05-23T14:37:46.335Z</time>
      </trkpt>
      <trkpt lat="45.49521" lon="5.8123">
        <ele>1133.437866</ele>
        <time>2019-05-23T14:37:51.335Z</time>
      </trkpt>
      <trkpt lat="45.49525" lon="5.81231">
        <ele>1137.45752</ele>
        <time>2019-05-23T14:38:00.321Z</time>
      </trkpt>
      <trkpt lat="45.49535" lon="5.81232">
        <ele>1136.259277</ele>
        <time>2019-05-23T14:38:05.321Z</time>
      </trkpt>
      <trkpt lat="45.49545" lon="5.81237">
        <ele>1138.644775</ele>
        <time>2019-05-23T14:38:10.321Z</time>
      </trkpt>
      <trkpt lat="45.49554" lon="5.81238">
        <ele>1141.57959</ele>
        <time>2019-05-23T14:38:15.378Z</time>
      </trkpt>
      <trkpt lat="45.49557" lon="5.81245">
        <ele>1147.941162</ele>
        <time>2019-05-23T14:39:31.331Z</time>
      </trkpt>
      <trkpt lat="45.49562" lon="5.8124">
        <ele>1143.610352</ele>
        <time>2019-05-23T14:39:36.331Z</time>
      </trkpt>
      <trkpt lat="45.4957" lon="5.81235">
        <ele>1140.487793</ele>
        <time>2019-05-23T14:39:41.331Z</time>
      </trkpt>
      <trkpt lat="45.49583" lon="5.81223">
        <ele>1139.808838</ele>
        <time>2019-05-23T14:39:46.331Z</time>
      </trkpt>
      <trkpt lat="45.49591" lon="5.81209">
        <ele>1141.646484</ele>
        <time>2019-05-23T14:39:51.331Z</time>
      </trkpt>
      <trkpt lat="45.49596" lon="5.81198">
        <ele>1142.697021</ele>
        <time>2019-05-23T14:39:56.331Z</time>
      </trkpt>
      <trkpt lat="45.49599" lon="5.81189">
        <ele>1146.71228</ele>
        <time>2019-05-23T14:40:01.331Z</time>
      </trkpt>
      <trkpt lat="45.49604" lon="5.8118">
        <ele>1148.836792</ele>
        <time>2019-05-23T14:40:06.331Z</time>
      </trkpt>
      <trkpt lat="45.49611" lon="5.81172">
        <ele>1150.953125</ele>
        <time>2019-05-23T14:40:11.331Z</time>
      </trkpt>
      <trkpt lat="45.49621" lon="5.81164">
        <ele>1151.678467</ele>
        <time>2019-05-23T14:40:16.331Z</time>
      </trkpt>
      <trkpt lat="45.49629" lon="5.8116">
        <ele>1153.277344</ele>
        <time>2019-05-23T14:40:21.331Z</time>
      </trkpt>
      <trkpt lat="45.49639" lon="5.81155">
        <ele>1151.899048</ele>
        <time>2019-05-23T14:40:26.331Z</time>
      </trkpt>
      <trkpt lat="45.49648" lon="5.81156">
        <ele>1149.365356</ele>
        <time>2019-05-23T14:40:31.331Z</time>
      </trkpt>
      <trkpt lat="45.49655" lon="5.81159">
        <ele>1145.507813</ele>
        <time>2019-05-23T14:40:36.333Z</time>
      </trkpt>
      <trkpt lat="45.49666" lon="5.81161">
        <ele>1143.911377</ele>
        <time>2019-05-23T14:40:41.333Z</time>
      </trkpt>
      <trkpt lat="45.49678" lon="5.81163">
        <ele>1140.486572</ele>
        <time>2019-05-23T14:40:46.333Z</time>
      </trkpt>
      <trkpt lat="45.49689" lon="5.81166">
        <ele>1143.05188</ele>
        <time>2019-05-23T14:40:51.333Z</time>
      </trkpt>
      <trkpt lat="45.49703" lon="5.81169">
        <ele>1141.767334</ele>
        <time>2019-05-23T14:40:56.341Z</time>
      </trkpt>
      <trkpt lat="45.49716" lon="5.8117">
        <ele>1143.592651</ele>
        <time>2019-05-23T14:41:01.351Z</time>
      </trkpt>
      <trkpt lat="45.49729" lon="5.81167">
        <ele>1142.502563</ele>
        <time>2019-05-23T14:41:06.351Z</time>
      </trkpt>
      <trkpt lat="45.49741" lon="5.81157">
        <ele>1141.361328</ele>
        <time>2019-05-23T14:41:12.368Z</time>
      </trkpt>
      <trkpt lat="45.49754" lon="5.81148">
        <ele>1140.79248</ele>
        <time>2019-05-23T14:41:17.368Z</time>
      </trkpt>
      <trkpt lat="45.4977" lon="5.81145">
        <ele>1141.548462</ele>
        <time>2019-05-23T14:41:22.368Z</time>
      </trkpt>
      <trkpt lat="45.49783" lon="5.81143">
        <ele>1147.360718</ele>
        <time>2019-05-23T14:41:28.335Z</time>
      </trkpt>
      <trkpt lat="45.49795" lon="5.81154">
        <ele>1148.506958</ele>
        <time>2019-05-23T14:41:33.335Z</time>
      </trkpt>
      <trkpt lat="45.49803" lon="5.81166">
        <ele>1146.289551</ele>
        <time>2019-05-23T14:41:38.335Z</time>
      </trkpt>
      <trkpt lat="45.49811" lon="5.81178">
        <ele>1147.451294</ele>
        <time>2019-05-23T14:41:43.344Z</time>
      </trkpt>
      <trkpt lat="45.49819" lon="5.81188">
        <ele>1148.30896</ele>
        <time>2019-05-23T14:41:48.344Z</time>
      </trkpt>
      <trkpt lat="45.49817" lon="5.81191">
        <ele>1150.492798</ele>
        <time>2019-05-23T14:42:50.349Z</time>
      </trkpt>
      <trkpt lat="45.49819" lon="5.81197">
        <ele>1151.412598</ele>
        <time>2019-05-23T14:42:55.349Z</time>
      </trkpt>
      <trkpt lat="45.49824" lon="5.81201">
        <ele>1153.825195</ele>
        <time>2019-05-23T14:43:01.326Z</time>
      </trkpt>
      <trkpt lat="45.49829" lon="5.81207">
        <ele>1154.297607</ele>
        <time>2019-05-23T14:43:06.333Z</time>
      </trkpt>
      <trkpt lat="45.49836" lon="5.81216">
        <ele>1156.075806</ele>
        <time>2019-05-23T14:43:11.333Z</time>
      </trkpt>
      <trkpt lat="45.49844" lon="5.81223">
        <ele>1155.78833</ele>
        <time>2019-05-23T14:43:16.333Z</time>
      </trkpt>
      <trkpt lat="45.49851" lon="5.81232">
        <ele>1154.930054</ele>
        <time>2019-05-23T14:43:21.333Z</time>
      </trkpt>
      <trkpt lat="45.49857" lon="5.81244">
        <ele>1155.751099</ele>
        <time>2019-05-23T14:43:26.335Z</time>
      </trkpt>
      <trkpt lat="45.49862" lon="5.81255">
        <ele>1156.210205</ele>
        <time>2019-05-23T14:43:31.335Z</time>
      </trkpt>
      <trkpt lat="45.49869" lon="5.81265">
        <ele>1154.3573</ele>
        <time>2019-05-23T14:43:36.335Z</time>
      </trkpt>
      <trkpt lat="45.49873" lon="5.81271">
        <ele>1157.912476</ele>
        <time>2019-05-23T14:43:41.335Z</time>
      </trkpt>
      <trkpt lat="45.49873" lon="5.81273">
        <ele>1159.928589</ele>
        <time>2019-05-23T14:43:58.321Z</time>
      </trkpt>
      <trkpt lat="45.49877" lon="5.81281">
        <ele>1161.528198</ele>
        <time>2019-05-23T14:44:03.329Z</time>
      </trkpt>
      <trkpt lat="45.49884" lon="5.81291">
        <ele>1160.258545</ele>
        <time>2019-05-23T14:44:08.329Z</time>
      </trkpt>
      <trkpt lat="45.49889" lon="5.81305">
        <ele>1164.156372</ele>
        <time>2019-05-23T14:44:13.329Z</time>
      </trkpt>
      <trkpt lat="45.49894" lon="5.81314">
        <ele>1163.247803</ele>
        <time>2019-05-23T14:44:18.338Z</time>
      </trkpt>
      <trkpt lat="45.49902" lon="5.81324">
        <ele>1160.242432</ele>
        <time>2019-05-23T14:44:23.338Z</time>
      </trkpt>
      <trkpt lat="45.49912" lon="5.81332">
        <ele>1158.364258</ele>
        <time>2019-05-23T14:44:28.338Z</time>
      </trkpt>
      <trkpt lat="45.49924" lon="5.81339">
        <ele>1157.571899</ele>
        <time>2019-05-23T14:44:33.338Z</time>
      </trkpt>
      <trkpt lat="45.49932" lon="5.81341">
        <ele>1156.779907</ele>
        <time>2019-05-23T14:44:38.338Z</time>
      </trkpt>
      <trkpt lat="45.49941" lon="5.81346">
        <ele>1158.30188</ele>
        <time>2019-05-23T14:44:43.338Z</time>
      </trkpt>
      <trkpt lat="45.4995" lon="5.8135">
        <ele>1158.577148</ele>
        <time>2019-05-23T14:44:48.338Z</time>
      </trkpt>
      <trkpt lat="45.49961" lon="5.81354">
        <ele>1161.436157</ele>
        <time>2019-05-23T14:44:53.338Z</time>
      </trkpt>
      <trkpt lat="45.49971" lon="5.81355">
        <ele>1160.311157</ele>
        <time>2019-05-23T14:44:58.338Z</time>
      </trkpt>
      <trkpt lat="45.49982" lon="5.81352">
        <ele>1158.73877</ele>
        <time>2019-05-23T14:45:03.338Z</time>
      </trkpt>
      <trkpt lat="45.49994" lon="5.81355">
        <ele>1161.10376</ele>
        <time>2019-05-23T14:45:08.338Z</time>
      </trkpt>
      <trkpt lat="45.50005" lon="5.81357">
        <ele>1160.603638</ele>
        <time>2019-05-23T14:45:13.338Z</time>
      </trkpt>
      <trkpt lat="45.50015" lon="5.81358">
        <ele>1159.526611</ele>
        <time>2019-05-23T14:45:18.338Z</time>
      </trkpt>
      <trkpt lat="45.50025" lon="5.8136">
        <ele>1162.413452</ele>
        <time>2019-05-23T14:45:23.338Z</time>
      </trkpt>
      <trkpt lat="45.50035" lon="5.81365">
        <ele>1165.192139</ele>
        <time>2019-05-23T14:45:28.342Z</time>
      </trkpt>
      <trkpt lat="45.50043" lon="5.81366">
        <ele>1169.083862</ele>
        <time>2019-05-23T14:45:33.342Z</time>
      </trkpt>
      <trkpt lat="45.50053" lon="5.81367">
        <ele>1169.276001</ele>
        <time>2019-05-23T14:45:38.342Z</time>
      </trkpt>
      <trkpt lat="45.50062" lon="5.81367">
        <ele>1167.931763</ele>
        <time>2019-05-23T14:45:43.342Z</time>
      </trkpt>
      <trkpt lat="45.50074" lon="5.81364">
        <ele>1169.659668</ele>
        <time>2019-05-23T14:45:48.342Z</time>
      </trkpt>
      <trkpt lat="45.50085" lon="5.81361">
        <ele>1172.517212</ele>
        <time>2019-05-23T14:45:53.342Z</time>
      </trkpt>
      <trkpt lat="45.50096" lon="5.8136">
        <ele>1172.869629</ele>
        <time>2019-05-23T14:45:58.342Z</time>
      </trkpt>
      <trkpt lat="45.50106" lon="5.81364">
        <ele>1171.317017</ele>
        <time>2019-05-23T14:46:03.342Z</time>
      </trkpt>
      <trkpt lat="45.50115" lon="5.81372">
        <ele>1170.682983</ele>
        <time>2019-05-23T14:46:08.342Z</time>
      </trkpt>
      <trkpt lat="45.50124" lon="5.81377">
        <ele>1172.644653</ele>
        <time>2019-05-23T14:46:13.342Z</time>
      </trkpt>
      <trkpt lat="45.50134" lon="5.81381">
        <ele>1173.16626</ele>
        <time>2019-05-23T14:46:18.342Z</time>
      </trkpt>
      <trkpt lat="45.50143" lon="5.81384">
        <ele>1172.732178</ele>
        <time>2019-05-23T14:46:23.342Z</time>
      </trkpt>
      <trkpt lat="45.50151" lon="5.81386">
        <ele>1172.126099</ele>
        <time>2019-05-23T14:46:28.342Z</time>
      </trkpt>
      <trkpt lat="45.5016" lon="5.8139">
        <ele>1173.505371</ele>
        <time>2019-05-23T14:46:33.342Z</time>
      </trkpt>
      <trkpt lat="45.50169" lon="5.81391">
        <ele>1174.762085</ele>
        <time>2019-05-23T14:46:38.342Z</time>
      </trkpt>
      <trkpt lat="45.50177" lon="5.81389">
        <ele>1176.782593</ele>
        <time>2019-05-23T14:46:43.342Z</time>
      </trkpt>
      <trkpt lat="45.50186" lon="5.81386">
        <ele>1175.912476</ele>
        <time>2019-05-23T14:46:48.342Z</time>
      </trkpt>
      <trkpt lat="45.50195" lon="5.81381">
        <ele>1175.427368</ele>
        <time>2019-05-23T14:46:53.342Z</time>
      </trkpt>
      <trkpt lat="45.50205" lon="5.81378">
        <ele>1173.578491</ele>
        <time>2019-05-23T14:46:58.342Z</time>
      </trkpt>
      <trkpt lat="45.50214" lon="5.81377">
        <ele>1173.165527</ele>
        <time>2019-05-23T14:47:03.342Z</time>
      </trkpt>
      <trkpt lat="45.50224" lon="5.81375">
        <ele>1172.733276</ele>
        <time>2019-05-23T14:47:08.342Z</time>
      </trkpt>
      <trkpt lat="45.50233" lon="5.81376">
        <ele>1172.810303</ele>
        <time>2019-05-23T14:47:13.342Z</time>
      </trkpt>
      <trkpt lat="45.50242" lon="5.81376">
        <ele>1173.02417</ele>
        <time>2019-05-23T14:47:18.342Z</time>
      </trkpt>
      <trkpt lat="45.50251" lon="5.81378">
        <ele>1173.435913</ele>
        <time>2019-05-23T14:47:23.342Z</time>
      </trkpt>
      <trkpt lat="45.5026" lon="5.81383">
        <ele>1176.595093</ele>
        <time>2019-05-23T14:47:28.342Z</time>
      </trkpt>
      <trkpt lat="45.50267" lon="5.81389">
        <ele>1179.222412</ele>
        <time>2019-05-23T14:47:33.342Z</time>
      </trkpt>
      <trkpt lat="45.50277" lon="5.8139">
        <ele>1180.439453</ele>
        <time>2019-05-23T14:47:38.342Z</time>
      </trkpt>
      <trkpt lat="45.50286" lon="5.81393">
        <ele>1181.599243</ele>
        <time>2019-05-23T14:47:43.342Z</time>
      </trkpt>
      <trkpt lat="45.50296" lon="5.81391">
        <ele>1180.361816</ele>
        <time>2019-05-23T14:47:48.342Z</time>
      </trkpt>
      <trkpt lat="45.50304" lon="5.81392">
        <ele>1180.585327</ele>
        <time>2019-05-23T14:47:53.342Z</time>
      </trkpt>
      <trkpt lat="45.5031" lon="5.81394">
        <ele>1180.910522</ele>
        <time>2019-05-23T14:48:03.332Z</time>
      </trkpt>
      <trkpt lat="45.50316" lon="5.81396">
        <ele>1181.073242</ele>
        <time>2019-05-23T14:48:08.346Z</time>
      </trkpt>
      <trkpt lat="45.50326" lon="5.81399">
        <ele>1181.929565</ele>
        <time>2019-05-23T14:48:13.347Z</time>
      </trkpt>
      <trkpt lat="45.50334" lon="5.81405">
        <ele>1184.266968</ele>
        <time>2019-05-23T14:48:18.347Z</time>
      </trkpt>
      <trkpt lat="45.50342" lon="5.81413">
        <ele>1187.477417</ele>
        <time>2019-05-23T14:48:23.347Z</time>
      </trkpt>
      <trkpt lat="45.50347" lon="5.81421">
        <ele>1185.63562</ele>
        <time>2019-05-23T14:48:28.347Z</time>
      </trkpt>
      <trkpt lat="45.5035" lon="5.81432">
        <ele>1189.446411</ele>
        <time>2019-05-23T14:48:33.347Z</time>
      </trkpt>
      <trkpt lat="45.50352" lon="5.81445">
        <ele>1191.935425</ele>
        <time>2019-05-23T14:48:38.347Z</time>
      </trkpt>
      <trkpt lat="45.50356" lon="5.81458">
        <ele>1193.394165</ele>
        <time>2019-05-23T14:48:43.347Z</time>
      </trkpt>
      <trkpt lat="45.50361" lon="5.81472">
        <ele>1196.017822</ele>
        <time>2019-05-23T14:48:48.347Z</time>
      </trkpt>
      <trkpt lat="45.50365" lon="5.81485">
        <ele>1195.062988</ele>
        <time>2019-05-23T14:48:53.347Z</time>
      </trkpt>
      <trkpt lat="45.50369" lon="5.81496">
        <ele>1197.705078</ele>
        <time>2019-05-23T14:48:58.347Z</time>
      </trkpt>
      <trkpt lat="45.50375" lon="5.81507">
        <ele>1198.838135</ele>
        <time>2019-05-23T14:49:03.347Z</time>
      </trkpt>
      <trkpt lat="45.50384" lon="5.81515">
        <ele>1198.842163</ele>
        <time>2019-05-23T14:49:08.347Z</time>
      </trkpt>
      <trkpt lat="45.50393" lon="5.8152">
        <ele>1199.906616</ele>
        <time>2019-05-23T14:49:13.347Z</time>
      </trkpt>
      <trkpt lat="45.50401" lon="5.81525">
        <ele>1200.938232</ele>
        <time>2019-05-23T14:49:18.347Z</time>
      </trkpt>
      <trkpt lat="45.50409" lon="5.81532">
        <ele>1201.125366</ele>
        <time>2019-05-23T14:49:23.347Z</time>
      </trkpt>
      <trkpt lat="45.50416" lon="5.81541">
        <ele>1202.610596</ele>
        <time>2019-05-23T14:49:28.347Z</time>
      </trkpt>
      <trkpt lat="45.50422" lon="5.81547">
        <ele>1201.6698</ele>
        <time>2019-05-23T14:49:33.347Z</time>
      </trkpt>
      <trkpt lat="45.5043" lon="5.81555">
        <ele>1203.291382</ele>
        <time>2019-05-23T14:49:38.347Z</time>
      </trkpt>
      <trkpt lat="45.50438" lon="5.81558">
        <ele>1204.863403</ele>
        <time>2019-05-23T14:49:43.347Z</time>
      </trkpt>
      <trkpt lat="45.50447" lon="5.8156">
        <ele>1207.040405</ele>
        <time>2019-05-23T14:49:48.347Z</time>
      </trkpt>
      <trkpt lat="45.50455" lon="5.8156">
        <ele>1209.006226</ele>
        <time>2019-05-23T14:49:53.347Z</time>
      </trkpt>
      <trkpt lat="45.50463" lon="5.8156">
        <ele>1209.731934</ele>
        <time>2019-05-23T14:49:58.347Z</time>
      </trkpt>
      <trkpt lat="45.50471" lon="5.81561">
        <ele>1211.754028</ele>
        <time>2019-05-23T14:50:03.347Z</time>
      </trkpt>
      <trkpt lat="45.50479" lon="5.81563">
        <ele>1209.112671</ele>
        <time>2019-05-23T14:50:08.347Z</time>
      </trkpt>
      <trkpt lat="45.50483" lon="5.81564">
        <ele>1209.515503</ele>
        <time>2019-05-23T14:50:13.631Z</time>
      </trkpt>
      <trkpt lat="45.50488" lon="5.81567">
        <ele>1209.22229</ele>
        <time>2019-05-23T14:50:18.689Z</time>
      </trkpt>
      <trkpt lat="45.50494" lon="5.81571">
        <ele>1208.565918</ele>
        <time>2019-05-23T14:50:23.712Z</time>
      </trkpt>
      <trkpt lat="45.505" lon="5.81575">
        <ele>1211.022461</ele>
        <time>2019-05-23T14:50:28.757Z</time>
      </trkpt>
      <trkpt lat="45.50505" lon="5.81578">
        <ele>1213.893921</ele>
        <time>2019-05-23T14:50:33.782Z</time>
      </trkpt>
      <trkpt lat="45.50512" lon="5.81583">
        <ele>1215.008179</ele>
        <time>2019-05-23T14:50:38.836Z</time>
      </trkpt>
      <trkpt lat="45.50516" lon="5.81586">
        <ele>1216.063354</ele>
        <time>2019-05-23T14:50:43.861Z</time>
      </trkpt>
      <trkpt lat="45.50522" lon="5.81589">
        <ele>1216.85376</ele>
        <time>2019-05-23T14:50:48.941Z</time>
      </trkpt>
      <trkpt lat="45.50528" lon="5.81591">
        <ele>1217.812622</ele>
        <time>2019-05-23T14:50:53.979Z</time>
      </trkpt>
      <trkpt lat="45.50527" lon="5.81591">
        <ele>1217.586304</ele>
        <time>2019-05-23T14:51:03.321Z</time>
      </trkpt>
      <trkpt lat="45.50534" lon="5.81594">
        <ele>1219.524292</ele>
        <time>2019-05-23T14:51:08.321Z</time>
      </trkpt>
      <trkpt lat="45.50541" lon="5.816">
        <ele>1220.291382</ele>
        <time>2019-05-23T14:51:13.322Z</time>
      </trkpt>
      <trkpt lat="45.50549" lon="5.81605">
        <ele>1221.011963</ele>
        <time>2019-05-23T14:51:18.322Z</time>
      </trkpt>
      <trkpt lat="45.50556" lon="5.81609">
        <ele>1221.195068</ele>
        <time>2019-05-23T14:51:23.323Z</time>
      </trkpt>
      <trkpt lat="45.50564" lon="5.81611">
        <ele>1220.446533</ele>
        <time>2019-05-23T14:51:28.323Z</time>
      </trkpt>
      <trkpt lat="45.50571" lon="5.81616">
        <ele>1222.643433</ele>
        <time>2019-05-23T14:51:33.323Z</time>
      </trkpt>
      <trkpt lat="45.50578" lon="5.8162">
        <ele>1223.53125</ele>
        <time>2019-05-23T14:51:38.323Z</time>
      </trkpt>
      <trkpt lat="45.50585" lon="5.81623">
        <ele>1222.077393</ele>
        <time>2019-05-23T14:51:43.323Z</time>
      </trkpt>
      <trkpt lat="45.50592" lon="5.81628">
        <ele>1222.972046</ele>
        <time>2019-05-23T14:51:48.325Z</time>
      </trkpt>
      <trkpt lat="45.50601" lon="5.81633">
        <ele>1222.609375</ele>
        <time>2019-05-23T14:51:53.325Z</time>
      </trkpt>
      <trkpt lat="45.50609" lon="5.81637">
        <ele>1221.19104</ele>
        <time>2019-05-23T14:51:58.327Z</time>
      </trkpt>
      <trkpt lat="45.50617" lon="5.81639">
        <ele>1221.36853</ele>
        <time>2019-05-23T14:52:03.328Z</time>
      </trkpt>
      <trkpt lat="45.50623" lon="5.81642">
        <ele>1223.469727</ele>
        <time>2019-05-23T14:52:08.335Z</time>
      </trkpt>
      <trkpt lat="45.50629" lon="5.81648">
        <ele>1224.443726</ele>
        <time>2019-05-23T14:52:13.335Z</time>
      </trkpt>
      <trkpt lat="45.50635" lon="5.81655">
        <ele>1223.507568</ele>
        <time>2019-05-23T14:52:18.339Z</time>
      </trkpt>
      <trkpt lat="45.50638" lon="5.81666">
        <ele>1225.401245</ele>
        <time>2019-05-23T14:52:23.341Z</time>
      </trkpt>
      <trkpt lat="45.50639" lon="5.81679">
        <ele>1226.663086</ele>
        <time>2019-05-23T14:52:28.341Z</time>
      </trkpt>
      <trkpt lat="45.50643" lon="5.8169">
        <ele>1225.008179</ele>
        <time>2019-05-23T14:52:33.341Z</time>
      </trkpt>
      <trkpt lat="45.50649" lon="5.81698">
        <ele>1224.17395</ele>
        <time>2019-05-23T14:52:38.341Z</time>
      </trkpt>
      <trkpt lat="45.50657" lon="5.817">
        <ele>1224.598511</ele>
        <time>2019-05-23T14:52:43.341Z</time>
      </trkpt>
      <trkpt lat="45.50664" lon="5.81703">
        <ele>1224.198242</ele>
        <time>2019-05-23T14:52:48.341Z</time>
      </trkpt>
      <trkpt lat="45.5067" lon="5.81709">
        <ele>1228.544189</ele>
        <time>2019-05-23T14:52:53.341Z</time>
      </trkpt>
      <trkpt lat="45.50676" lon="5.81714">
        <ele>1227.776978</ele>
        <time>2019-05-23T14:52:58.341Z</time>
      </trkpt>
      <trkpt lat="45.50681" lon="5.81719">
        <ele>1229.120483</ele>
        <time>2019-05-23T14:53:03.341Z</time>
      </trkpt>
      <trkpt lat="45.50689" lon="5.81724">
        <ele>1230.58252</ele>
        <time>2019-05-23T14:53:08.341Z</time>
      </trkpt>
      <trkpt lat="45.50696" lon="5.81729">
        <ele>1231.744751</ele>
        <time>2019-05-23T14:53:13.341Z</time>
      </trkpt>
      <trkpt lat="45.50702" lon="5.81732">
        <ele>1234.492065</ele>
        <time>2019-05-23T14:53:18.341Z</time>
      </trkpt>
      <trkpt lat="45.5071" lon="5.81736">
        <ele>1237.623413</ele>
        <time>2019-05-23T14:53:23.341Z</time>
      </trkpt>
      <trkpt lat="45.50718" lon="5.81741">
        <ele>1236.479858</ele>
        <time>2019-05-23T14:53:28.342Z</time>
      </trkpt>
      <trkpt lat="45.50726" lon="5.81744">
        <ele>1236.165894</ele>
        <time>2019-05-23T14:53:33.342Z</time>
      </trkpt>
      <trkpt lat="45.50733" lon="5.81748">
        <ele>1235.740112</ele>
        <time>2019-05-23T14:53:38.342Z</time>
      </trkpt>
      <trkpt lat="45.50739" lon="5.81754">
        <ele>1233.968018</ele>
        <time>2019-05-23T14:53:43.342Z</time>
      </trkpt>
      <trkpt lat="45.50742" lon="5.81762">
        <ele>1237.863892</ele>
        <time>2019-05-23T14:53:48.342Z</time>
      </trkpt>
      <trkpt lat="45.50745" lon="5.81772">
        <ele>1238.536377</ele>
        <time>2019-05-23T14:53:53.342Z</time>
      </trkpt>
      <trkpt lat="45.5075" lon="5.8178">
        <ele>1241.482422</ele>
        <time>2019-05-23T14:53:58.353Z</time>
      </trkpt>
      <trkpt lat="45.50758" lon="5.81783">
        <ele>1241.718018</ele>
        <time>2019-05-23T14:54:03.353Z</time>
      </trkpt>
      <trkpt lat="45.50766" lon="5.81783">
        <ele>1242.995728</ele>
        <time>2019-05-23T14:54:08.353Z</time>
      </trkpt>
      <trkpt lat="45.50773" lon="5.81785">
        <ele>1242.56189</ele>
        <time>2019-05-23T14:54:13.353Z</time>
      </trkpt>
      <trkpt lat="45.5078" lon="5.81788">
        <ele>1243.341797</ele>
        <time>2019-05-23T14:54:18.353Z</time>
      </trkpt>
      <trkpt lat="45.50785" lon="5.81792">
        <ele>1243.528198</ele>
        <time>2019-05-23T14:54:23.353Z</time>
      </trkpt>
      <trkpt lat="45.5079" lon="5.81797">
        <ele>1243.703735</ele>
        <time>2019-05-23T14:54:28.353Z</time>
      </trkpt>
      <trkpt lat="45.50798" lon="5.81799">
        <ele>1246.864136</ele>
        <time>2019-05-23T14:54:33.353Z</time>
      </trkpt>
      <trkpt lat="45.50804" lon="5.81802">
        <ele>1251.885376</ele>
        <time>2019-05-23T14:54:38.353Z</time>
      </trkpt>
      <trkpt lat="45.50813" lon="5.81803">
        <ele>1252.79834</ele>
        <time>2019-05-23T14:54:43.353Z</time>
      </trkpt>
      <trkpt lat="45.5082" lon="5.81805">
        <ele>1251.599976</ele>
        <time>2019-05-23T14:54:48.353Z</time>
      </trkpt>
      <trkpt lat="45.50826" lon="5.8181">
        <ele>1250.737915</ele>
        <time>2019-05-23T14:54:53.353Z</time>
      </trkpt>
      <trkpt lat="45.50832" lon="5.81812">
        <ele>1251.560547</ele>
        <time>2019-05-23T14:54:58.353Z</time>
      </trkpt>
      <trkpt lat="45.50839" lon="5.81814">
        <ele>1254.522339</ele>
        <time>2019-05-23T14:55:03.353Z</time>
      </trkpt>
      <trkpt lat="45.50847" lon="5.81815">
        <ele>1253.762695</ele>
        <time>2019-05-23T14:55:08.353Z</time>
      </trkpt>
      <trkpt lat="45.50855" lon="5.81815">
        <ele>1252.276855</ele>
        <time>2019-05-23T14:55:13.361Z</time>
      </trkpt>
      <trkpt lat="45.5086" lon="5.81816">
        <ele>1253.01709</ele>
        <time>2019-05-23T14:55:18.860Z</time>
      </trkpt>
      <trkpt lat="45.50865" lon="5.81814">
        <ele>1252.227051</ele>
        <time>2019-05-23T14:55:23.927Z</time>
      </trkpt>
      <trkpt lat="45.50872" lon="5.81812">
        <ele>1252.840454</ele>
        <time>2019-05-23T14:55:28.956Z</time>
      </trkpt>
      <trkpt lat="45.50878" lon="5.81812">
        <ele>1252.161499</ele>
        <time>2019-05-23T14:55:34.037Z</time>
      </trkpt>
      <trkpt lat="45.50883" lon="5.81814">
        <ele>1253.266724</ele>
        <time>2019-05-23T14:55:39.083Z</time>
      </trkpt>
      <trkpt lat="45.5089" lon="5.81816">
        <ele>1253.540039</ele>
        <time>2019-05-23T14:55:44.109Z</time>
      </trkpt>
      <trkpt lat="45.50896" lon="5.81817">
        <ele>1253.889282</ele>
        <time>2019-05-23T14:55:49.172Z</time>
      </trkpt>
      <trkpt lat="45.50903" lon="5.81821">
        <ele>1255.465088</ele>
        <time>2019-05-23T14:55:54.212Z</time>
      </trkpt>
      <trkpt lat="45.50909" lon="5.81823">
        <ele>1253.906006</ele>
        <time>2019-05-23T14:55:59.239Z</time>
      </trkpt>
      <trkpt lat="45.50913" lon="5.81824">
        <ele>1254.783325</ele>
        <time>2019-05-23T14:56:04.298Z</time>
      </trkpt>
      <trkpt lat="45.50921" lon="5.81826">
        <ele>1256.191406</ele>
        <time>2019-05-23T14:56:09.331Z</time>
      </trkpt>
      <trkpt lat="45.5092" lon="5.81826">
        <ele>1256.549194</ele>
        <time>2019-05-23T14:56:14.331Z</time>
      </trkpt>
      <trkpt lat="45.50926" lon="5.81832">
        <ele>1258.97168</ele>
        <time>2019-05-23T14:56:19.337Z</time>
      </trkpt>
      <trkpt lat="45.50933" lon="5.81837">
        <ele>1258.611572</ele>
        <time>2019-05-23T14:56:24.337Z</time>
      </trkpt>
      <trkpt lat="45.50942" lon="5.81841">
        <ele>1258.770264</ele>
        <time>2019-05-23T14:56:29.337Z</time>
      </trkpt>
      <trkpt lat="45.50952" lon="5.81845">
        <ele>1259.84082</ele>
        <time>2019-05-23T14:56:34.337Z</time>
      </trkpt>
      <trkpt lat="45.50955" lon="5.81849">
        <ele>1263.613525</ele>
        <time>2019-05-23T14:57:14.334Z</time>
      </trkpt>
      <trkpt lat="45.50959" lon="5.81851">
        <ele>1263.546143</ele>
        <time>2019-05-23T14:57:19.334Z</time>
      </trkpt>
      <trkpt lat="45.50965" lon="5.81853">
        <ele>1264.912598</ele>
        <time>2019-05-23T14:57:24.335Z</time>
      </trkpt>
      <trkpt lat="45.50971" lon="5.81857">
        <ele>1265.82373</ele>
        <time>2019-05-23T14:57:29.335Z</time>
      </trkpt>
      <trkpt lat="45.50979" lon="5.8186">
        <ele>1263.693359</ele>
        <time>2019-05-23T14:57:34.335Z</time>
      </trkpt>
      <trkpt lat="45.50987" lon="5.81863">
        <ele>1263.915894</ele>
        <time>2019-05-23T14:57:39.335Z</time>
      </trkpt>
      <trkpt lat="45.50996" lon="5.81865">
        <ele>1264.229736</ele>
        <time>2019-05-23T14:57:44.335Z</time>
      </trkpt>
      <trkpt lat="45.51007" lon="5.81867">
        <ele>1263.620361</ele>
        <time>2019-05-23T14:57:49.335Z</time>
      </trkpt>
      <trkpt lat="45.51018" lon="5.81868">
        <ele>1264.083374</ele>
        <time>2019-05-23T14:57:54.338Z</time>
      </trkpt>
      <trkpt lat="45.51029" lon="5.81871">
        <ele>1264.07959</ele>
        <time>2019-05-23T14:57:59.338Z</time>
      </trkpt>
      <trkpt lat="45.51041" lon="5.81873">
        <ele>1261.482422</ele>
        <time>2019-05-23T14:58:05.320Z</time>
      </trkpt>
      <trkpt lat="45.5105" lon="5.81877">
        <ele>1263.4375</ele>
        <time>2019-05-23T14:58:10.341Z</time>
      </trkpt>
      <trkpt lat="45.51058" lon="5.8188">
        <ele>1266.668579</ele>
        <time>2019-05-23T14:58:15.345Z</time>
      </trkpt>
      <trkpt lat="45.51065" lon="5.81883">
        <ele>1265.712769</ele>
        <time>2019-05-23T14:58:20.353Z</time>
      </trkpt>
      <trkpt lat="45.51075" lon="5.81884">
        <ele>1267.302368</ele>
        <time>2019-05-23T14:58:25.353Z</time>
      </trkpt>
      <trkpt lat="45.51084" lon="5.81889">
        <ele>1268.999146</ele>
        <time>2019-05-23T14:58:30.369Z</time>
      </trkpt>
      <trkpt lat="45.51091" lon="5.81891">
        <ele>1269.331543</ele>
        <time>2019-05-23T14:58:35.369Z</time>
      </trkpt>
      <trkpt lat="45.511" lon="5.81892">
        <ele>1269.223633</ele>
        <time>2019-05-23T14:58:40.369Z</time>
      </trkpt>
      <trkpt lat="45.51109" lon="5.81894">
        <ele>1270.949707</ele>
        <time>2019-05-23T14:58:45.853Z</time>
      </trkpt>
      <trkpt lat="45.51117" lon="5.81894">
        <ele>1269.73645</ele>
        <time>2019-05-23T14:58:50.917Z</time>
      </trkpt>
      <trkpt lat="45.51125" lon="5.81894">
        <ele>1269.389771</ele>
        <time>2019-05-23T14:58:55.953Z</time>
      </trkpt>
      <trkpt lat="45.51133" lon="5.81896">
        <ele>1273.706909</ele>
        <time>2019-05-23T14:59:00.987Z</time>
      </trkpt>
      <trkpt lat="45.51141" lon="5.81897">
        <ele>1274.193604</ele>
        <time>2019-05-23T14:59:06.009Z</time>
      </trkpt>
      <trkpt lat="45.51148" lon="5.81899">
        <ele>1276.303833</ele>
        <time>2019-05-23T14:59:11.058Z</time>
      </trkpt>
      <trkpt lat="45.51155" lon="5.81902">
        <ele>1279.295776</ele>
        <time>2019-05-23T14:59:16.090Z</time>
      </trkpt>
      <trkpt lat="45.51161" lon="5.81905">
        <ele>1276.738403</ele>
        <time>2019-05-23T14:59:21.155Z</time>
      </trkpt>
      <trkpt lat="45.51168" lon="5.8191">
        <ele>1275.813599</ele>
        <time>2019-05-23T14:59:26.221Z</time>
      </trkpt>
      <trkpt lat="45.51176" lon="5.81915">
        <ele>1276.904541</ele>
        <time>2019-05-23T14:59:31.261Z</time>
      </trkpt>
      <trkpt lat="45.51183" lon="5.81919">
        <ele>1278.090576</ele>
        <time>2019-05-23T14:59:36.308Z</time>
      </trkpt>
      <trkpt lat="45.51191" lon="5.81924">
        <ele>1279.836792</ele>
        <time>2019-05-23T14:59:41.359Z</time>
      </trkpt>
      <trkpt lat="45.51199" lon="5.81925">
        <ele>1280.128784</ele>
        <time>2019-05-23T14:59:46.359Z</time>
      </trkpt>
      <trkpt lat="45.51207" lon="5.81926">
        <ele>1280.089111</ele>
        <time>2019-05-23T14:59:51.359Z</time>
      </trkpt>
      <trkpt lat="45.51214" lon="5.81925">
        <ele>1280.377197</ele>
        <time>2019-05-23T14:59:56.359Z</time>
      </trkpt>
      <trkpt lat="45.51223" lon="5.81926">
        <ele>1280.406738</ele>
        <time>2019-05-23T15:00:01.359Z</time>
      </trkpt>
      <trkpt lat="45.51232" lon="5.81926">
        <ele>1279.379272</ele>
        <time>2019-05-23T15:00:06.359Z</time>
      </trkpt>
      <trkpt lat="45.5124" lon="5.81927">
        <ele>1280.803589</ele>
        <time>2019-05-23T15:00:11.359Z</time>
      </trkpt>
      <trkpt lat="45.51247" lon="5.81924">
        <ele>1282.942993</ele>
        <time>2019-05-23T15:00:16.359Z</time>
      </trkpt>
      <trkpt lat="45.51255" lon="5.8192">
        <ele>1284.446411</ele>
        <time>2019-05-23T15:00:21.359Z</time>
      </trkpt>
      <trkpt lat="45.51261" lon="5.81914">
        <ele>1286.717163</ele>
        <time>2019-05-23T15:00:26.359Z</time>
      </trkpt>
      <trkpt lat="45.51268" lon="5.81911">
        <ele>1287.637939</ele>
        <time>2019-05-23T15:00:31.359Z</time>
      </trkpt>
      <trkpt lat="45.51275" lon="5.81906">
        <ele>1291.006958</ele>
        <time>2019-05-23T15:00:36.359Z</time>
      </trkpt>
      <trkpt lat="45.51281" lon="5.81905">
        <ele>1291.241699</ele>
        <time>2019-05-23T15:00:41.359Z</time>
      </trkpt>
      <trkpt lat="45.51284" lon="5.81904">
        <ele>1292.875</ele>
        <time>2019-05-23T15:00:46.956Z</time>
      </trkpt>
      <trkpt lat="45.51282" lon="5.81907">
        <ele>1292.351685</ele>
        <time>2019-05-23T15:00:54.336Z</time>
      </trkpt>
      <trkpt lat="45.51286" lon="5.81908">
        <ele>1293.173584</ele>
        <time>2019-05-23T15:00:59.336Z</time>
      </trkpt>
      <trkpt lat="45.51287" lon="5.81905">
        <ele>1292.053345</ele>
        <time>2019-05-23T15:01:20.334Z</time>
      </trkpt>
      <trkpt lat="45.51288" lon="5.81905">
        <ele>1293.213745</ele>
        <time>2019-05-23T15:01:33.329Z</time>
      </trkpt>
      <trkpt lat="45.51293" lon="5.81905">
        <ele>1293.921997</ele>
        <time>2019-05-23T15:01:38.329Z</time>
      </trkpt>
      <trkpt lat="45.51298" lon="5.81903">
        <ele>1293.062744</ele>
        <time>2019-05-23T15:01:43.333Z</time>
      </trkpt>
      <trkpt lat="45.51304" lon="5.81901">
        <ele>1292.781616</ele>
        <time>2019-05-23T15:01:48.333Z</time>
      </trkpt>
      <trkpt lat="45.51309" lon="5.81899">
        <ele>1295.230103</ele>
        <time>2019-05-23T15:01:53.333Z</time>
      </trkpt>
      <trkpt lat="45.51316" lon="5.81897">
        <ele>1294.195435</ele>
        <time>2019-05-23T15:01:58.333Z</time>
      </trkpt>
      <trkpt lat="45.5132" lon="5.81896">
        <ele>1296.159302</ele>
        <time>2019-05-23T15:02:03.333Z</time>
      </trkpt>
      <trkpt lat="45.51324" lon="5.81896">
        <ele>1298.647217</ele>
        <time>2019-05-23T15:02:08.333Z</time>
      </trkpt>
      <trkpt lat="45.5133" lon="5.819">
        <ele>1302.72583</ele>
        <time>2019-05-23T15:02:13.333Z</time>
      </trkpt>
      <trkpt lat="45.51336" lon="5.81902">
        <ele>1300.946777</ele>
        <time>2019-05-23T15:02:18.333Z</time>
      </trkpt>
      <trkpt lat="45.51345" lon="5.81902">
        <ele>1300.169678</ele>
        <time>2019-05-23T15:02:23.340Z</time>
      </trkpt>
      <trkpt lat="45.51352" lon="5.81903">
        <ele>1300.794678</ele>
        <time>2019-05-23T15:02:28.340Z</time>
      </trkpt>
      <trkpt lat="45.51357" lon="5.819">
        <ele>1302.175781</ele>
        <time>2019-05-23T15:02:35.320Z</time>
      </trkpt>
      <trkpt lat="45.51362" lon="5.81893">
        <ele>1300.166382</ele>
        <time>2019-05-23T15:02:40.321Z</time>
      </trkpt>
      <trkpt lat="45.51368" lon="5.81892">
        <ele>1300.643799</ele>
        <time>2019-05-23T15:02:57.326Z</time>
      </trkpt>
      <trkpt lat="45.51374" lon="5.81888">
        <ele>1301.566162</ele>
        <time>2019-05-23T15:03:02.326Z</time>
      </trkpt>
      <trkpt lat="45.5138" lon="5.81884">
        <ele>1302.058716</ele>
        <time>2019-05-23T15:03:07.326Z</time>
      </trkpt>
      <trkpt lat="45.51387" lon="5.81885">
        <ele>1302.367188</ele>
        <time>2019-05-23T15:03:12.326Z</time>
      </trkpt>
      <trkpt lat="45.51394" lon="5.81884">
        <ele>1305.163452</ele>
        <time>2019-05-23T15:03:17.326Z</time>
      </trkpt>
      <trkpt lat="45.51401" lon="5.81883">
        <ele>1305.70105</ele>
        <time>2019-05-23T15:03:22.326Z</time>
      </trkpt>
      <trkpt lat="45.51408" lon="5.81882">
        <ele>1308.047485</ele>
        <time>2019-05-23T15:03:27.326Z</time>
      </trkpt>
      <trkpt lat="45.51417" lon="5.8188">
        <ele>1308.093262</ele>
        <time>2019-05-23T15:03:32.335Z</time>
      </trkpt>
      <trkpt lat="45.51425" lon="5.81878">
        <ele>1309.517334</ele>
        <time>2019-05-23T15:03:37.335Z</time>
      </trkpt>
      <trkpt lat="45.51431" lon="5.81877">
        <ele>1308.615845</ele>
        <time>2019-05-23T15:03:42.335Z</time>
      </trkpt>
      <trkpt lat="45.51436" lon="5.81875">
        <ele>1308.57312</ele>
        <time>2019-05-23T15:03:47.335Z</time>
      </trkpt>
      <trkpt lat="45.51441" lon="5.81873">
        <ele>1309.064453</ele>
        <time>2019-05-23T15:03:52.336Z</time>
      </trkpt>
      <trkpt lat="45.51446" lon="5.81872">
        <ele>1308.553589</ele>
        <time>2019-05-23T15:03:57.341Z</time>
      </trkpt>
      <trkpt lat="45.51451" lon="5.81872">
        <ele>1308.769897</ele>
        <time>2019-05-23T15:04:02.342Z</time>
      </trkpt>
      <trkpt lat="45.51456" lon="5.8187">
        <ele>1308.248901</ele>
        <time>2019-05-23T15:04:07.342Z</time>
      </trkpt>
      <trkpt lat="45.51461" lon="5.81872">
        <ele>1309.742188</ele>
        <time>2019-05-23T15:04:13.334Z</time>
      </trkpt>
      <trkpt lat="45.51464" lon="5.81876">
        <ele>1310.708252</ele>
        <time>2019-05-23T15:04:18.884Z</time>
      </trkpt>
      <trkpt lat="45.51468" lon="5.81877">
        <ele>1309.383179</ele>
        <time>2019-05-23T15:04:23.917Z</time>
      </trkpt>
      <trkpt lat="45.51474" lon="5.81878">
        <ele>1309.005615</ele>
        <time>2019-05-23T15:04:28.945Z</time>
      </trkpt>
      <trkpt lat="45.51476" lon="5.8188">
        <ele>1309.069946</ele>
        <time>2019-05-23T15:04:33.987Z</time>
      </trkpt>
      <trkpt lat="45.51481" lon="5.81883">
        <ele>1312.549194</ele>
        <time>2019-05-23T15:04:39.057Z</time>
      </trkpt>
      <trkpt lat="45.51486" lon="5.81881">
        <ele>1315.205688</ele>
        <time>2019-05-23T15:04:44.088Z</time>
      </trkpt>
      <trkpt lat="45.51489" lon="5.81881">
        <ele>1316.293457</ele>
        <time>2019-05-23T15:04:51.648Z</time>
      </trkpt>
      <trkpt lat="45.51493" lon="5.8188">
        <ele>1316.431274</ele>
        <time>2019-05-23T15:04:56.711Z</time>
      </trkpt>
      <trkpt lat="45.51499" lon="5.81882">
        <ele>1317.540771</ele>
        <time>2019-05-23T15:05:01.738Z</time>
      </trkpt>
      <trkpt lat="45.51505" lon="5.81884">
        <ele>1317.355103</ele>
        <time>2019-05-23T15:05:06.808Z</time>
      </trkpt>
      <trkpt lat="45.51511" lon="5.81886">
        <ele>1316.19165</ele>
        <time>2019-05-23T15:05:11.873Z</time>
      </trkpt>
      <trkpt lat="45.51512" lon="5.81887">
        <ele>1315.71814</ele>
        <time>2019-05-23T15:05:22.329Z</time>
      </trkpt>
      <trkpt lat="45.51517" lon="5.8189">
        <ele>1317.081299</ele>
        <time>2019-05-23T15:05:27.332Z</time>
      </trkpt>
      <trkpt lat="45.51524" lon="5.81894">
        <ele>1320.004028</ele>
        <time>2019-05-23T15:05:33.333Z</time>
      </trkpt>
      <trkpt lat="45.5153" lon="5.81898">
        <ele>1320.385376</ele>
        <time>2019-05-23T15:05:38.342Z</time>
      </trkpt>
      <trkpt lat="45.51534" lon="5.81896">
        <ele>1321.8396</ele>
        <time>2019-05-23T15:05:44.335Z</time>
      </trkpt>
      <trkpt lat="45.5154" lon="5.81898">
        <ele>1322.240845</ele>
        <time>2019-05-23T15:05:49.346Z</time>
      </trkpt>
      <trkpt lat="45.51546" lon="5.81898">
        <ele>1322.651611</ele>
        <time>2019-05-23T15:05:54.346Z</time>
      </trkpt>
      <trkpt lat="45.51551" lon="5.81896">
        <ele>1324.55249</ele>
        <time>2019-05-23T15:05:59.793Z</time>
      </trkpt>
      <trkpt lat="45.51556" lon="5.81895">
        <ele>1325.57251</ele>
        <time>2019-05-23T15:06:04.836Z</time>
      </trkpt>
      <trkpt lat="45.51562" lon="5.81897">
        <ele>1325.744385</ele>
        <time>2019-05-23T15:06:09.868Z</time>
      </trkpt>
      <trkpt lat="45.51567" lon="5.81899">
        <ele>1326.361328</ele>
        <time>2019-05-23T15:06:14.927Z</time>
      </trkpt>
      <trkpt lat="45.51571" lon="5.819">
        <ele>1327.237061</ele>
        <time>2019-05-23T15:06:19.968Z</time>
      </trkpt>
      <trkpt lat="45.51577" lon="5.819">
        <ele>1328.277954</ele>
        <time>2019-05-23T15:06:25.012Z</time>
      </trkpt>
      <trkpt lat="45.51582" lon="5.81901">
        <ele>1329.385498</ele>
        <time>2019-05-23T15:06:30.067Z</time>
      </trkpt>
      <trkpt lat="45.51584" lon="5.81901">
        <ele>1331.300171</ele>
        <time>2019-05-23T15:06:35.108Z</time>
      </trkpt>
      <trkpt lat="45.51589" lon="5.81903">
        <ele>1333.140381</ele>
        <time>2019-05-23T15:06:40.158Z</time>
      </trkpt>
      <trkpt lat="45.51592" lon="5.81904">
        <ele>1332.182739</ele>
        <time>2019-05-23T15:06:52.769Z</time>
      </trkpt>
      <trkpt lat="45.51598" lon="5.81906">
        <ele>1332.231812</ele>
        <time>2019-05-23T15:06:57.787Z</time>
      </trkpt>
      <trkpt lat="45.51607" lon="5.81911">
        <ele>1331.393555</ele>
        <time>2019-05-23T15:07:02.869Z</time>
      </trkpt>
      <trkpt lat="45.51616" lon="5.8191">
        <ele>1333.314453</ele>
        <time>2019-05-23T15:07:07.941Z</time>
      </trkpt>
      <trkpt lat="45.51623" lon="5.8191">
        <ele>1334.791626</ele>
        <time>2019-05-23T15:07:12.999Z</time>
      </trkpt>
      <trkpt lat="45.51633" lon="5.81913">
        <ele>1335.801758</ele>
        <time>2019-05-23T15:07:18.075Z</time>
      </trkpt>
      <trkpt lat="45.51643" lon="5.81916">
        <ele>1336.207397</ele>
        <time>2019-05-23T15:07:23.102Z</time>
      </trkpt>
      <trkpt lat="45.51654" lon="5.81921">
        <ele>1337.180542</ele>
        <time>2019-05-23T15:07:28.135Z</time>
      </trkpt>
      <trkpt lat="45.51664" lon="5.81925">
        <ele>1337.255615</ele>
        <time>2019-05-23T15:07:33.187Z</time>
      </trkpt>
      <trkpt lat="45.51675" lon="5.8193">
        <ele>1337.872437</ele>
        <time>2019-05-23T15:07:38.199Z</time>
      </trkpt>
      <trkpt lat="45.51689" lon="5.81934">
        <ele>1338.501221</ele>
        <time>2019-05-23T15:07:43.252Z</time>
      </trkpt>
      <trkpt lat="45.51702" lon="5.81939">
        <ele>1340.112915</ele>
        <time>2019-05-23T15:07:48.315Z</time>
      </trkpt>
      <trkpt lat="45.51715" lon="5.81942">
        <ele>1342.618774</ele>
        <time>2019-05-23T15:07:53.339Z</time>
      </trkpt>
      <trkpt lat="45.51722" lon="5.81944">
        <ele>1342.734253</ele>
        <time>2019-05-23T15:07:58.339Z</time>
      </trkpt>
      <trkpt lat="45.51727" lon="5.81942">
        <ele>1344.551392</ele>
        <time>2019-05-23T15:08:11.330Z</time>
      </trkpt>
      <trkpt lat="45.51729" lon="5.81946">
        <ele>1346.452148</ele>
        <time>2019-05-23T15:08:16.337Z</time>
      </trkpt>
      <trkpt lat="45.51737" lon="5.81946">
        <ele>1346.481445</ele>
        <time>2019-05-23T15:08:21.337Z</time>
      </trkpt>
      <trkpt lat="45.51742" lon="5.81944">
        <ele>1345.948364</ele>
        <time>2019-05-23T15:08:26.337Z</time>
      </trkpt>
      <trkpt lat="45.51745" lon="5.81945">
        <ele>1345.773804</ele>
        <time>2019-05-23T15:08:37.317Z</time>
      </trkpt>
      <trkpt lat="45.51752" lon="5.81943">
        <ele>1345.969727</ele>
        <time>2019-05-23T15:08:42.317Z</time>
      </trkpt>
      <trkpt lat="45.51757" lon="5.81942">
        <ele>1346.064453</ele>
        <time>2019-05-23T15:08:47.336Z</time>
      </trkpt>
      <trkpt lat="45.51764" lon="5.81941">
        <ele>1346.648804</ele>
        <time>2019-05-23T15:08:52.337Z</time>
      </trkpt>
      <trkpt lat="45.51771" lon="5.81939">
        <ele>1347.239624</ele>
        <time>2019-05-23T15:08:57.337Z</time>
      </trkpt>
      <trkpt lat="45.51778" lon="5.81935">
        <ele>1349.637817</ele>
        <time>2019-05-23T15:09:02.337Z</time>
      </trkpt>
      <trkpt lat="45.5179" lon="5.81926">
        <ele>1349.262329</ele>
        <time>2019-05-23T15:09:07.337Z</time>
      </trkpt>
      <trkpt lat="45.51802" lon="5.81919">
        <ele>1348.588013</ele>
        <time>2019-05-23T15:09:12.337Z</time>
      </trkpt>
      <trkpt lat="45.51813" lon="5.81912">
        <ele>1349.55481</ele>
        <time>2019-05-23T15:09:17.337Z</time>
      </trkpt>
      <trkpt lat="45.51821" lon="5.81905">
        <ele>1349.092285</ele>
        <time>2019-05-23T15:09:22.337Z</time>
      </trkpt>
      <trkpt lat="45.51825" lon="5.81903">
        <ele>1349.474243</ele>
        <time>2019-05-23T15:09:41.945Z</time>
      </trkpt>
      <trkpt lat="45.51829" lon="5.819">
        <ele>1349.521729</ele>
        <time>2019-05-23T15:09:47.014Z</time>
      </trkpt>
      <trkpt lat="45.51833" lon="5.81895">
        <ele>1350.151733</ele>
        <time>2019-05-23T15:09:52.047Z</time>
      </trkpt>
      <trkpt lat="45.51838" lon="5.81889">
        <ele>1351.946289</ele>
        <time>2019-05-23T15:09:57.229Z</time>
      </trkpt>
      <trkpt lat="45.51844" lon="5.81882">
        <ele>1354.229492</ele>
        <time>2019-05-23T15:10:02.295Z</time>
      </trkpt>
      <trkpt lat="45.51841" lon="5.81876">
        <ele>1353.25415</ele>
        <time>2019-05-23T15:10:07.340Z</time>
      </trkpt>
      <trkpt lat="45.51837" lon="5.81879">
        <ele>1353.292847</ele>
        <time>2019-05-23T15:10:12.340Z</time>
      </trkpt>
      <trkpt lat="45.51831" lon="5.81882">
        <ele>1354.037964</ele>
        <time>2019-05-23T15:10:17.340Z</time>
      </trkpt>
      <trkpt lat="45.51826" lon="5.81885">
        <ele>1354.860474</ele>
        <time>2019-05-23T15:10:22.340Z</time>
      </trkpt>
      <trkpt lat="45.51821" lon="5.81889">
        <ele>1355.213501</ele>
        <time>2019-05-23T15:10:27.340Z</time>
      </trkpt>
      <trkpt lat="45.51815" lon="5.81895">
        <ele>1355.343384</ele>
        <time>2019-05-23T15:10:32.342Z</time>
      </trkpt>
      <trkpt lat="45.51809" lon="5.81897">
        <ele>1356.262085</ele>
        <time>2019-05-23T15:10:37.342Z</time>
      </trkpt>
      <trkpt lat="45.51806" lon="5.81897">
        <ele>1356.540527</ele>
        <time>2019-05-23T15:10:42.682Z</time>
      </trkpt>
      <trkpt lat="45.51804" lon="5.81899">
        <ele>1359.113281</ele>
        <time>2019-05-23T15:11:28.336Z</time>
      </trkpt>
      <trkpt lat="45.51808" lon="5.81898">
        <ele>1361.119995</ele>
        <time>2019-05-23T15:11:34.352Z</time>
      </trkpt>
      <trkpt lat="45.51807" lon="5.81899">
        <ele>1360.809937</ele>
        <time>2019-05-23T15:11:39.352Z</time>
      </trkpt>
      <trkpt lat="45.51809" lon="5.81897">
        <ele>1361.596313</ele>
        <time>2019-05-23T15:11:51.338Z</time>
      </trkpt>
      <trkpt lat="45.51808" lon="5.81899">
        <ele>1359.24707</ele>
        <time>2019-05-23T15:12:04.368Z</time>
      </trkpt>
      <trkpt lat="45.51809" lon="5.81896">
        <ele>1357.842529</ele>
        <time>2019-05-23T15:12:21.859Z</time>
      </trkpt>
      <trkpt lat="45.51807" lon="5.81896">
        <ele>1357.151611</ele>
        <time>2019-05-23T15:12:41.254Z</time>
      </trkpt>
      <trkpt lat="45.51804" lon="5.81895">
        <ele>1356.81189</ele>
        <time>2019-05-23T15:12:46.306Z</time>
      </trkpt>
      <trkpt lat="45.51806" lon="5.81896">
        <ele>1357.724854</ele>
        <time>2019-05-23T15:12:53.899Z</time>
      </trkpt>
      <trkpt lat="45.51805" lon="5.81896">
        <ele>1358.080688</ele>
        <time>2019-05-23T15:12:58.946Z</time>
      </trkpt>
      <trkpt lat="45.51804" lon="5.81897">
        <ele>1358.109497</ele>
        <time>2019-05-23T15:13:13.327Z</time>
      </trkpt>
      <trkpt lat="45.51796" lon="5.81895">
        <ele>1356.085571</ele>
        <time>2019-05-23T15:13:18.327Z</time>
      </trkpt>
      <trkpt lat="45.51786" lon="5.81895">
        <ele>1356.703247</ele>
        <time>2019-05-23T15:13:23.330Z</time>
      </trkpt>
      <trkpt lat="45.51778" lon="5.81896">
        <ele>1360.067627</ele>
        <time>2019-05-23T15:13:28.336Z</time>
      </trkpt>
      <trkpt lat="45.51769" lon="5.81897">
        <ele>1359.480957</ele>
        <time>2019-05-23T15:13:33.339Z</time>
      </trkpt>
      <trkpt lat="45.51762" lon="5.81897">
        <ele>1360.869873</ele>
        <time>2019-05-23T15:13:38.339Z</time>
      </trkpt>
      <trkpt lat="45.51756" lon="5.81894">
        <ele>1360.581299</ele>
        <time>2019-05-23T15:13:43.340Z</time>
      </trkpt>
      <trkpt lat="45.5175" lon="5.81888">
        <ele>1360.237305</ele>
        <time>2019-05-23T15:13:48.340Z</time>
      </trkpt>
      <trkpt lat="45.51743" lon="5.81881">
        <ele>1361.200684</ele>
        <time>2019-05-23T15:13:53.340Z</time>
      </trkpt>
      <trkpt lat="45.51737" lon="5.81874">
        <ele>1361.425781</ele>
        <time>2019-05-23T15:13:58.340Z</time>
      </trkpt>
      <trkpt lat="45.5173" lon="5.81867">
        <ele>1362.139282</ele>
        <time>2019-05-23T15:14:03.341Z</time>
      </trkpt>
      <trkpt lat="45.51723" lon="5.8186">
        <ele>1361.363159</ele>
        <time>2019-05-23T15:14:08.341Z</time>
      </trkpt>
      <trkpt lat="45.51716" lon="5.81854">
        <ele>1360.728516</ele>
        <time>2019-05-23T15:14:13.341Z</time>
      </trkpt>
      <trkpt lat="45.51709" lon="5.8185">
        <ele>1361.800903</ele>
        <time>2019-05-23T15:14:18.341Z</time>
      </trkpt>
      <trkpt lat="45.51702" lon="5.81846">
        <ele>1362.482178</ele>
        <time>2019-05-23T15:14:23.341Z</time>
      </trkpt>
      <trkpt lat="45.51695" lon="5.81841">
        <ele>1362.374634</ele>
        <time>2019-05-23T15:14:28.341Z</time>
      </trkpt>
      <trkpt lat="45.51689" lon="5.81833">
        <ele>1363.396973</ele>
        <time>2019-05-23T15:14:33.341Z</time>
      </trkpt>
      <trkpt lat="45.51681" lon="5.81832">
        <ele>1364.165405</ele>
        <time>2019-05-23T15:14:38.341Z</time>
      </trkpt>
      <trkpt lat="45.51675" lon="5.81828">
        <ele>1366.303589</ele>
        <time>2019-05-23T15:14:43.341Z</time>
      </trkpt>
      <trkpt lat="45.5167" lon="5.81826">
        <ele>1367.882324</ele>
        <time>2019-05-23T15:14:48.341Z</time>
      </trkpt>
      <trkpt lat="45.51665" lon="5.81821">
        <ele>1366.220337</ele>
        <time>2019-05-23T15:14:53.341Z</time>
      </trkpt>
      <trkpt lat="45.51659" lon="5.81816">
        <ele>1366.432739</ele>
        <time>2019-05-23T15:14:58.341Z</time>
      </trkpt>
      <trkpt lat="45.51654" lon="5.8181">
        <ele>1368.789795</ele>
        <time>2019-05-23T15:15:03.341Z</time>
      </trkpt>
      <trkpt lat="45.51647" lon="5.81802">
        <ele>1368.973877</ele>
        <time>2019-05-23T15:15:08.341Z</time>
      </trkpt>
      <trkpt lat="45.51639" lon="5.81793">
        <ele>1370.260132</ele>
        <time>2019-05-23T15:15:13.352Z</time>
      </trkpt>
      <trkpt lat="45.51633" lon="5.81787">
        <ele>1370.613647</ele>
        <time>2019-05-23T15:15:18.352Z</time>
      </trkpt>
      <trkpt lat="45.51627" lon="5.81781">
        <ele>1369.828125</ele>
        <time>2019-05-23T15:15:23.352Z</time>
      </trkpt>
      <trkpt lat="45.5162" lon="5.81776">
        <ele>1370.75769</ele>
        <time>2019-05-23T15:15:28.352Z</time>
      </trkpt>
      <trkpt lat="45.51614" lon="5.81767">
        <ele>1370.600586</ele>
        <time>2019-05-23T15:15:33.352Z</time>
      </trkpt>
      <trkpt lat="45.51609" lon="5.81758">
        <ele>1372.854248</ele>
        <time>2019-05-23T15:15:38.352Z</time>
      </trkpt>
      <trkpt lat="45.51603" lon="5.81749">
        <ele>1374.557617</ele>
        <time>2019-05-23T15:15:43.389Z</time>
      </trkpt>
      <trkpt lat="45.51597" lon="5.81737">
        <ele>1375.217163</ele>
        <time>2019-05-23T15:15:49.331Z</time>
      </trkpt>
      <trkpt lat="45.51592" lon="5.81729">
        <ele>1377.138794</ele>
        <time>2019-05-23T15:15:54.333Z</time>
      </trkpt>
      <trkpt lat="45.51586" lon="5.8172">
        <ele>1380.286377</ele>
        <time>2019-05-23T15:15:59.338Z</time>
      </trkpt>
      <trkpt lat="45.51582" lon="5.8171">
        <ele>1381.175903</ele>
        <time>2019-05-23T15:16:04.344Z</time>
      </trkpt>
      <trkpt lat="45.51578" lon="5.81699">
        <ele>1382.384644</ele>
        <time>2019-05-23T15:16:09.344Z</time>
      </trkpt>
      <trkpt lat="45.51573" lon="5.81695">
        <ele>1382.181641</ele>
        <time>2019-05-23T15:16:14.344Z</time>
      </trkpt>
      <trkpt lat="45.51566" lon="5.81692">
        <ele>1382.556641</ele>
        <time>2019-05-23T15:16:19.344Z</time>
      </trkpt>
      <trkpt lat="45.51559" lon="5.81688">
        <ele>1381.670532</ele>
        <time>2019-05-23T15:16:24.344Z</time>
      </trkpt>
      <trkpt lat="45.51553" lon="5.81683">
        <ele>1381.509155</ele>
        <time>2019-05-23T15:16:29.344Z</time>
      </trkpt>
      <trkpt lat="45.51549" lon="5.81675">
        <ele>1382.868408</ele>
        <time>2019-05-23T15:16:34.347Z</time>
      </trkpt>
      <trkpt lat="45.51546" lon="5.8167">
        <ele>1382.960205</ele>
        <time>2019-05-23T15:16:41.343Z</time>
      </trkpt>
      <trkpt lat="45.51542" lon="5.81662">
        <ele>1383.230713</ele>
        <time>2019-05-23T15:16:46.343Z</time>
      </trkpt>
      <trkpt lat="45.51538" lon="5.81656">
        <ele>1385.453369</ele>
        <time>2019-05-23T15:16:51.343Z</time>
      </trkpt>
      <trkpt lat="45.51534" lon="5.81648">
        <ele>1390.098755</ele>
        <time>2019-05-23T15:16:56.343Z</time>
      </trkpt>
      <trkpt lat="45.51529" lon="5.81644">
        <ele>1391.889282</ele>
        <time>2019-05-23T15:17:01.343Z</time>
      </trkpt>
      <trkpt lat="45.51523" lon="5.81638">
        <ele>1389.775269</ele>
        <time>2019-05-23T15:17:06.343Z</time>
      </trkpt>
      <trkpt lat="45.51517" lon="5.81636">
        <ele>1390.663452</ele>
        <time>2019-05-23T15:17:11.361Z</time>
      </trkpt>
      <trkpt lat="45.51512" lon="5.81632">
        <ele>1390.042603</ele>
        <time>2019-05-23T15:17:16.361Z</time>
      </trkpt>
      <trkpt lat="45.51508" lon="5.81629">
        <ele>1389.018555</ele>
        <time>2019-05-23T15:17:21.485Z</time>
      </trkpt>
      <trkpt lat="45.51502" lon="5.81624">
        <ele>1390.472534</ele>
        <time>2019-05-23T15:17:26.522Z</time>
      </trkpt>
      <trkpt lat="45.51498" lon="5.81616">
        <ele>1390.601563</ele>
        <time>2019-05-23T15:17:31.596Z</time>
      </trkpt>
      <trkpt lat="45.51491" lon="5.81604">
        <ele>1391.462402</ele>
        <time>2019-05-23T15:17:37.346Z</time>
      </trkpt>
      <trkpt lat="45.51485" lon="5.81593">
        <ele>1392.860962</ele>
        <time>2019-05-23T15:17:42.349Z</time>
      </trkpt>
      <trkpt lat="45.51479" lon="5.81587">
        <ele>1392.80835</ele>
        <time>2019-05-23T15:17:47.353Z</time>
      </trkpt>
      <trkpt lat="45.51472" lon="5.81588">
        <ele>1392.619507</ele>
        <time>2019-05-23T15:17:52.353Z</time>
      </trkpt>
      <trkpt lat="45.51465" lon="5.81595">
        <ele>1393.139038</ele>
        <time>2019-05-23T15:17:57.360Z</time>
      </trkpt>
      <trkpt lat="45.51461" lon="5.81602">
        <ele>1393.805176</ele>
        <time>2019-05-23T15:18:02.360Z</time>
      </trkpt>
      <trkpt lat="45.51452" lon="5.81605">
        <ele>1394.154297</ele>
        <time>2019-05-23T15:18:07.360Z</time>
      </trkpt>
      <trkpt lat="45.51444" lon="5.81605">
        <ele>1397.322266</ele>
        <time>2019-05-23T15:18:12.360Z</time>
      </trkpt>
      <trkpt lat="45.51434" lon="5.81599">
        <ele>1397.784912</ele>
        <time>2019-05-23T15:18:17.360Z</time>
      </trkpt>
      <trkpt lat="45.51426" lon="5.81592">
        <ele>1398.171753</ele>
        <time>2019-05-23T15:18:22.360Z</time>
      </trkpt>
      <trkpt lat="45.51418" lon="5.81585">
        <ele>1398.509155</ele>
        <time>2019-05-23T15:18:29.355Z</time>
      </trkpt>
      <trkpt lat="45.51414" lon="5.81579">
        <ele>1398.03064</ele>
        <time>2019-05-23T15:18:34.355Z</time>
      </trkpt>
      <trkpt lat="45.51409" lon="5.81573">
        <ele>1398.502075</ele>
        <time>2019-05-23T15:18:39.355Z</time>
      </trkpt>
      <trkpt lat="45.51406" lon="5.81567">
        <ele>1398.594849</ele>
        <time>2019-05-23T15:18:44.355Z</time>
      </trkpt>
      <trkpt lat="45.51402" lon="5.8156">
        <ele>1398.900635</ele>
        <time>2019-05-23T15:18:49.355Z</time>
      </trkpt>
      <trkpt lat="45.51402" lon="5.81556">
        <ele>1398.484619</ele>
        <time>2019-05-23T15:18:54.355Z</time>
      </trkpt>
      <trkpt lat="45.51396" lon="5.81547">
        <ele>1399.017944</ele>
        <time>2019-05-23T15:18:59.384Z</time>
      </trkpt>
      <trkpt lat="45.51392" lon="5.81538">
        <ele>1401.502197</ele>
        <time>2019-05-23T15:19:04.922Z</time>
      </trkpt>
      <trkpt lat="45.51387" lon="5.8153">
        <ele>1403.980591</ele>
        <time>2019-05-23T15:19:09.966Z</time>
      </trkpt>
      <trkpt lat="45.51382" lon="5.81521">
        <ele>1405.154297</ele>
        <time>2019-05-23T15:19:15.052Z</time>
      </trkpt>
      <trkpt lat="45.51378" lon="5.81513">
        <ele>1408.486816</ele>
        <time>2019-05-23T15:19:20.086Z</time>
      </trkpt>
      <trkpt lat="45.51373" lon="5.81506">
        <ele>1413.230835</ele>
        <time>2019-05-23T15:19:25.127Z</time>
      </trkpt>
      <trkpt lat="45.51371" lon="5.81497">
        <ele>1413.177856</ele>
        <time>2019-05-23T15:19:30.174Z</time>
      </trkpt>
      <trkpt lat="45.51369" lon="5.81491">
        <ele>1412.857544</ele>
        <time>2019-05-23T15:19:35.192Z</time>
      </trkpt>
      <trkpt lat="45.51367" lon="5.81484">
        <ele>1414.755615</ele>
        <time>2019-05-23T15:19:40.254Z</time>
      </trkpt>
      <trkpt lat="45.51364" lon="5.81477">
        <ele>1415.80603</ele>
        <time>2019-05-23T15:19:45.267Z</time>
      </trkpt>
      <trkpt lat="45.51359" lon="5.81471">
        <ele>1416.719849</ele>
        <time>2019-05-23T15:19:50.333Z</time>
      </trkpt>
      <trkpt lat="45.51356" lon="5.81463">
        <ele>1415.546997</ele>
        <time>2019-05-23T15:19:55.365Z</time>
      </trkpt>
      <trkpt lat="45.51352" lon="5.81458">
        <ele>1415.381226</ele>
        <time>2019-05-23T15:20:00.365Z</time>
      </trkpt>
      <trkpt lat="45.51348" lon="5.81452">
        <ele>1415.690918</ele>
        <time>2019-05-23T15:20:05.365Z</time>
      </trkpt>
      <trkpt lat="45.51345" lon="5.81441">
        <ele>1416.237549</ele>
        <time>2019-05-23T15:20:10.365Z</time>
      </trkpt>
      <trkpt lat="45.51343" lon="5.81435">
        <ele>1415.770508</ele>
        <time>2019-05-23T15:20:15.365Z</time>
      </trkpt>
      <trkpt lat="45.51342" lon="5.81429">
        <ele>1414.877075</ele>
        <time>2019-05-23T15:20:20.365Z</time>
      </trkpt>
      <trkpt lat="45.51341" lon="5.81424">
        <ele>1417.198364</ele>
        <time>2019-05-23T15:20:29.319Z</time>
      </trkpt>
      <trkpt lat="45.51335" lon="5.81413">
        <ele>1417.427734</ele>
        <time>2019-05-23T15:20:34.330Z</time>
      </trkpt>
      <trkpt lat="45.51331" lon="5.81407">
        <ele>1420.837891</ele>
        <time>2019-05-23T15:20:39.333Z</time>
      </trkpt>
      <trkpt lat="45.51328" lon="5.81397">
        <ele>1420.935669</ele>
        <time>2019-05-23T15:20:44.339Z</time>
      </trkpt>
      <trkpt lat="45.51322" lon="5.81389">
        <ele>1423.340088</ele>
        <time>2019-05-23T15:20:49.341Z</time>
      </trkpt>
      <trkpt lat="45.51316" lon="5.81381">
        <ele>1421.403809</ele>
        <time>2019-05-23T15:20:54.343Z</time>
      </trkpt>
      <trkpt lat="45.5131" lon="5.81374">
        <ele>1422.000366</ele>
        <time>2019-05-23T15:20:59.343Z</time>
      </trkpt>
      <trkpt lat="45.51304" lon="5.81368">
        <ele>1422.055908</ele>
        <time>2019-05-23T15:21:04.351Z</time>
      </trkpt>
      <trkpt lat="45.51305" lon="5.81366">
        <ele>1422.719238</ele>
        <time>2019-05-23T15:21:15.340Z</time>
      </trkpt>
      <trkpt lat="45.51306" lon="5.81365">
        <ele>1423.757202</ele>
        <time>2019-05-23T15:21:33.770Z</time>
      </trkpt>
      <trkpt lat="45.51304" lon="5.81364">
        <ele>1424.77478</ele>
        <time>2019-05-23T15:21:38.826Z</time>
      </trkpt>
      <trkpt lat="45.513" lon="5.81362">
        <ele>1423.981445</ele>
        <time>2019-05-23T15:21:43.856Z</time>
      </trkpt>
      <trkpt lat="45.51298" lon="5.81356">
        <ele>1423.005371</ele>
        <time>2019-05-23T15:21:48.899Z</time>
      </trkpt>
      <trkpt lat="45.51299" lon="5.81351">
        <ele>1425.685059</ele>
        <time>2019-05-23T15:21:53.953Z</time>
      </trkpt>
      <trkpt lat="45.51301" lon="5.81348">
        <ele>1428.243286</ele>
        <time>2019-05-23T15:21:59.001Z</time>
      </trkpt>
      <trkpt lat="45.51302" lon="5.81349">
        <ele>1423.813599</ele>
        <time>2019-05-23T15:22:25.332Z</time>
      </trkpt>
      <trkpt lat="45.51302" lon="5.81346">
        <ele>1423.888428</ele>
        <time>2019-05-23T15:22:51.957Z</time>
      </trkpt>
      <trkpt lat="45.51308" lon="5.8135">
        <ele>1426.392456</ele>
        <time>2019-05-23T15:22:57.025Z</time>
      </trkpt>
      <trkpt lat="45.51315" lon="5.81355">
        <ele>1426.721924</ele>
        <time>2019-05-23T15:23:02.037Z</time>
      </trkpt>
      <trkpt lat="45.51325" lon="5.81362">
        <ele>1426.528931</ele>
        <time>2019-05-23T15:23:07.095Z</time>
      </trkpt>
      <trkpt lat="45.51334" lon="5.8137">
        <ele>1425.916382</ele>
        <time>2019-05-23T15:23:12.117Z</time>
      </trkpt>
      <trkpt lat="45.51341" lon="5.81374">
        <ele>1428.920898</ele>
        <time>2019-05-23T15:23:17.148Z</time>
      </trkpt>
      <trkpt lat="45.5135" lon="5.81376">
        <ele>1431.579224</ele>
        <time>2019-05-23T15:23:22.211Z</time>
      </trkpt>
      <trkpt lat="45.51359" lon="5.81376">
        <ele>1431.103516</ele>
        <time>2019-05-23T15:23:27.260Z</time>
      </trkpt>
      <trkpt lat="45.51369" lon="5.8138">
        <ele>1431.552856</ele>
        <time>2019-05-23T15:23:32.274Z</time>
      </trkpt>
      <trkpt lat="45.51378" lon="5.81386">
        <ele>1434.914551</ele>
        <time>2019-05-23T15:23:37.344Z</time>
      </trkpt>
      <trkpt lat="45.51388" lon="5.81392">
        <ele>1436.834839</ele>
        <time>2019-05-23T15:23:42.344Z</time>
      </trkpt>
      <trkpt lat="45.51397" lon="5.81399">
        <ele>1436.548584</ele>
        <time>2019-05-23T15:23:47.344Z</time>
      </trkpt>
      <trkpt lat="45.51405" lon="5.81404">
        <ele>1440.568237</ele>
        <time>2019-05-23T15:23:52.345Z</time>
      </trkpt>
      <trkpt lat="45.51416" lon="5.81409">
        <ele>1442.678711</ele>
        <time>2019-05-23T15:23:57.355Z</time>
      </trkpt>
      <trkpt lat="45.51425" lon="5.81412">
        <ele>1443.737183</ele>
        <time>2019-05-23T15:24:02.355Z</time>
      </trkpt>
      <trkpt lat="45.51432" lon="5.81411">
        <ele>1444.487549</ele>
        <time>2019-05-23T15:24:07.355Z</time>
      </trkpt>
      <trkpt lat="45.5144" lon="5.81408">
        <ele>1445.00647</ele>
        <time>2019-05-23T15:24:12.355Z</time>
      </trkpt>
      <trkpt lat="45.51448" lon="5.81408">
        <ele>1445.050049</ele>
        <time>2019-05-23T15:24:17.355Z</time>
      </trkpt>
      <trkpt lat="45.51458" lon="5.81406">
        <ele>1445.09668</ele>
        <time>2019-05-23T15:24:22.355Z</time>
      </trkpt>
      <trkpt lat="45.51469" lon="5.81405">
        <ele>1446.930298</ele>
        <time>2019-05-23T15:24:27.355Z</time>
      </trkpt>
      <trkpt lat="45.51481" lon="5.81407">
        <ele>1448.005127</ele>
        <time>2019-05-23T15:24:32.355Z</time>
      </trkpt>
      <trkpt lat="45.51495" lon="5.81409">
        <ele>1447.615112</ele>
        <time>2019-05-23T15:24:37.355Z</time>
      </trkpt>
      <trkpt lat="45.51512" lon="5.81412">
        <ele>1446.460571</ele>
        <time>2019-05-23T15:24:42.355Z</time>
      </trkpt>
      <trkpt lat="45.51527" lon="5.81412">
        <ele>1446.074707</ele>
        <time>2019-05-23T15:24:47.358Z</time>
      </trkpt>
      <trkpt lat="45.51547" lon="5.81418">
        <ele>1447.313599</ele>
        <time>2019-05-23T15:24:52.358Z</time>
      </trkpt>
      <trkpt lat="45.51563" lon="5.81443">
        <ele>1444.44165</ele>
        <time>2019-05-23T15:24:57.358Z</time>
      </trkpt>
      <trkpt lat="45.51576" lon="5.81469">
        <ele>1442.7052</ele>
        <time>2019-05-23T15:25:02.358Z</time>
      </trkpt>
      <trkpt lat="45.51601" lon="5.81496">
        <ele>1445.520142</ele>
        <time>2019-05-23T15:25:07.358Z</time>
      </trkpt>
      <trkpt lat="45.51618" lon="5.81514">
        <ele>1443.802002</ele>
        <time>2019-05-23T15:25:12.358Z</time>
      </trkpt>
      <trkpt lat="45.51628" lon="5.81521">
        <ele>1443.658081</ele>
        <time>2019-05-23T15:25:17.358Z</time>
      </trkpt>
      <trkpt lat="45.51651" lon="5.81524">
        <ele>1445.162109</ele>
        <time>2019-05-23T15:25:22.358Z</time>
      </trkpt>
      <trkpt lat="45.51666" lon="5.81515">
        <ele>1443.39209</ele>
        <time>2019-05-23T15:25:27.358Z</time>
      </trkpt>
      <trkpt lat="45.51692" lon="5.81519">
        <ele>1442.058838</ele>
        <time>2019-05-23T15:25:32.358Z</time>
      </trkpt>
      <trkpt lat="45.51709" lon="5.81521">
        <ele>1443.022583</ele>
        <time>2019-05-23T15:25:37.358Z</time>
      </trkpt>
      <trkpt lat="45.5173" lon="5.81527">
        <ele>1443.977051</ele>
        <time>2019-05-23T15:25:42.358Z</time>
      </trkpt>
      <trkpt lat="45.5174" lon="5.81547">
        <ele>1443.340454</ele>
        <time>2019-05-23T15:25:47.358Z</time>
      </trkpt>
      <trkpt lat="45.51742" lon="5.81565">
        <ele>1440.359375</ele>
        <time>2019-05-23T15:25:52.358Z</time>
      </trkpt>
      <trkpt lat="45.5174" lon="5.81571">
        <ele>1440.824341</ele>
        <time>2019-05-23T15:25:57.358Z</time>
      </trkpt>
      <trkpt lat="45.51738" lon="5.81589">
        <ele>1439.117554</ele>
        <time>2019-05-23T15:26:02.358Z</time>
      </trkpt>
      <trkpt lat="45.5174" lon="5.81606">
        <ele>1435.152344</ele>
        <time>2019-05-23T15:26:16.335Z</time>
      </trkpt>
      <trkpt lat="45.51743" lon="5.81618">
        <ele>1434.629028</ele>
        <time>2019-05-23T15:26:21.341Z</time>
      </trkpt>
      <trkpt lat="45.51752" lon="5.81634">
        <ele>1435.526123</ele>
        <time>2019-05-23T15:26:26.342Z</time>
      </trkpt>
      <trkpt lat="45.51763" lon="5.81645">
        <ele>1434.31189</ele>
        <time>2019-05-23T15:26:31.342Z</time>
      </trkpt>
      <trkpt lat="45.51786" lon="5.81663">
        <ele>1433.664307</ele>
        <time>2019-05-23T15:26:36.342Z</time>
      </trkpt>
      <trkpt lat="45.51806" lon="5.81673">
        <ele>1432.15686</ele>
        <time>2019-05-23T15:26:41.342Z</time>
      </trkpt>
      <trkpt lat="45.51804" lon="5.81674">
        <ele>1431.638306</ele>
        <time>2019-05-23T15:26:57.345Z</time>
      </trkpt>
      <trkpt lat="45.51809" lon="5.81676">
        <ele>1428.518921</ele>
        <time>2019-05-23T15:30:04.338Z</time>
      </trkpt>
      <trkpt lat="45.51818" lon="5.81676">
        <ele>1427.98291</ele>
        <time>2019-05-23T15:30:09.338Z</time>
      </trkpt>
      <trkpt lat="45.51832" lon="5.8167">
        <ele>1427.323853</ele>
        <time>2019-05-23T15:30:14.338Z</time>
      </trkpt>
      <trkpt lat="45.51843" lon="5.81658">
        <ele>1425.937866</ele>
        <time>2019-05-23T15:30:19.339Z</time>
      </trkpt>
      <trkpt lat="45.51856" lon="5.81641">
        <ele>1422.396362</ele>
        <time>2019-05-23T15:30:24.339Z</time>
      </trkpt>
      <trkpt lat="45.51869" lon="5.81629">
        <ele>1422.870361</ele>
        <time>2019-05-23T15:30:29.347Z</time>
      </trkpt>
      <trkpt lat="45.51889" lon="5.81617">
        <ele>1423.112793</ele>
        <time>2019-05-23T15:30:34.347Z</time>
      </trkpt>
      <trkpt lat="45.519" lon="5.81611">
        <ele>1424.127563</ele>
        <time>2019-05-23T15:30:39.347Z</time>
      </trkpt>
      <trkpt lat="45.51909" lon="5.81606">
        <ele>1421.192139</ele>
        <time>2019-05-23T15:30:44.347Z</time>
      </trkpt>
      <trkpt lat="45.51918" lon="5.81598">
        <ele>1422.143188</ele>
        <time>2019-05-23T15:30:49.347Z</time>
      </trkpt>
      <trkpt lat="45.51923" lon="5.81593">
        <ele>1424.688843</ele>
        <time>2019-05-23T15:31:04.338Z</time>
      </trkpt>
      <trkpt lat="45.51923" lon="5.81588">
        <ele>1426.252075</ele>
        <time>2019-05-23T15:31:09.338Z</time>
      </trkpt>
      <trkpt lat="45.51921" lon="5.81587">
        <ele>1428.449097</ele>
        <time>2019-05-23T15:31:14.342Z</time>
      </trkpt>
      <trkpt lat="45.51919" lon="5.81586">
        <ele>1427.853271</ele>
        <time>2019-05-23T15:31:27.352Z</time>
      </trkpt>
      <trkpt lat="45.51918" lon="5.81583">
        <ele>1432.257324</ele>
        <time>2019-05-23T15:31:53.333Z</time>
      </trkpt>
      <trkpt lat="45.51914" lon="5.81581">
        <ele>1432.695923</ele>
        <time>2019-05-23T15:32:01.337Z</time>
      </trkpt>
      <trkpt lat="45.51906" lon="5.81578">
        <ele>1434.55835</ele>
        <time>2019-05-23T15:32:06.339Z</time>
      </trkpt>
      <trkpt lat="45.51904" lon="5.81578">
        <ele>1436.145142</ele>
        <time>2019-05-23T15:32:11.339Z</time>
      </trkpt>
      <trkpt lat="45.51903" lon="5.81579">
        <ele>1435.559692</ele>
        <time>2019-05-23T15:32:56.339Z</time>
      </trkpt>
      <trkpt lat="45.51899" lon="5.81579">
        <ele>1436.582275</ele>
        <time>2019-05-23T15:33:01.346Z</time>
      </trkpt>
      <trkpt lat="45.519" lon="5.81576">
        <ele>1436.300415</ele>
        <time>2019-05-23T15:33:07.625Z</time>
      </trkpt>
      <trkpt lat="45.51904" lon="5.81569">
        <ele>1437.189087</ele>
        <time>2019-05-23T15:33:12.681Z</time>
      </trkpt>
      <trkpt lat="45.51905" lon="5.81561">
        <ele>1438.142578</ele>
        <time>2019-05-23T15:33:17.734Z</time>
      </trkpt>
      <trkpt lat="45.51905" lon="5.81555">
        <ele>1439.396851</ele>
        <time>2019-05-23T15:33:25.301Z</time>
      </trkpt>
      <trkpt lat="45.51904" lon="5.81548">
        <ele>1441.206787</ele>
        <time>2019-05-23T15:33:30.361Z</time>
      </trkpt>
      <trkpt lat="45.51904" lon="5.81546">
        <ele>1441.829468</ele>
        <time>2019-05-23T15:33:35.361Z</time>
      </trkpt>
      <trkpt lat="45.51901" lon="5.81543">
        <ele>1442.442017</ele>
        <time>2019-05-23T15:33:40.474Z</time>
      </trkpt>
      <trkpt lat="45.51899" lon="5.81537">
        <ele>1443.651001</ele>
        <time>2019-05-23T15:33:48.028Z</time>
      </trkpt>
      <trkpt lat="45.51899" lon="5.8153">
        <ele>1443.757935</ele>
        <time>2019-05-23T15:33:53.111Z</time>
      </trkpt>
      <trkpt lat="45.51899" lon="5.81527">
        <ele>1444.918213</ele>
        <time>2019-05-23T15:33:58.140Z</time>
      </trkpt>
      <trkpt lat="45.519" lon="5.81521">
        <ele>1450.29248</ele>
        <time>2019-05-23T15:34:10.755Z</time>
      </trkpt>
      <trkpt lat="45.51898" lon="5.81518">
        <ele>1452.043579</ele>
        <time>2019-05-23T15:34:15.832Z</time>
      </trkpt>
      <trkpt lat="45.51897" lon="5.81513">
        <ele>1452.165894</ele>
        <time>2019-05-23T15:34:20.859Z</time>
      </trkpt>
      <trkpt lat="45.51896" lon="5.81508">
        <ele>1451.292114</ele>
        <time>2019-05-23T15:34:25.986Z</time>
      </trkpt>
      <trkpt lat="45.51896" lon="5.81505">
        <ele>1450.727417</ele>
        <time>2019-05-23T15:34:33.549Z</time>
      </trkpt>
      <trkpt lat="45.51896" lon="5.81502">
        <ele>1452.786743</ele>
        <time>2019-05-23T15:34:46.166Z</time>
      </trkpt>
      <trkpt lat="45.51897" lon="5.81497">
        <ele>1452.510254</ele>
        <time>2019-05-23T15:34:51.230Z</time>
      </trkpt>
      <trkpt lat="45.51896" lon="5.81486">
        <ele>1451.532593</ele>
        <time>2019-05-23T15:34:56.278Z</time>
      </trkpt>
      <trkpt lat="45.51892" lon="5.81483">
        <ele>1453.01416</ele>
        <time>2019-05-23T15:35:01.322Z</time>
      </trkpt>
      <trkpt lat="45.5189" lon="5.81488">
        <ele>1454.703003</ele>
        <time>2019-05-23T15:35:06.339Z</time>
      </trkpt>
      <trkpt lat="45.5189" lon="5.8149">
        <ele>1458.012939</ele>
        <time>2019-05-23T15:35:13.918Z</time>
      </trkpt>
      <trkpt lat="45.51888" lon="5.81491">
        <ele>1458.554077</ele>
        <time>2019-05-23T15:35:18.974Z</time>
      </trkpt>
      <trkpt lat="45.51884" lon="5.81491">
        <ele>1457.179565</ele>
        <time>2019-05-23T15:35:25.346Z</time>
      </trkpt>
      <trkpt lat="45.51883" lon="5.81491">
        <ele>1457.670898</ele>
        <time>2019-05-23T15:35:30.346Z</time>
      </trkpt>
      <trkpt lat="45.51878" lon="5.81487">
        <ele>1457.244629</ele>
        <time>2019-05-23T15:35:35.346Z</time>
      </trkpt>
      <trkpt lat="45.51876" lon="5.81486">
        <ele>1455.587891</ele>
        <time>2019-05-23T15:35:40.346Z</time>
      </trkpt>
      <trkpt lat="45.51875" lon="5.81487">
        <ele>1454.08667</ele>
        <time>2019-05-23T15:35:46.332Z</time>
      </trkpt>
      <trkpt lat="45.51874" lon="5.81487">
        <ele>1455.695068</ele>
        <time>2019-05-23T15:35:58.339Z</time>
      </trkpt>
      <trkpt lat="45.51873" lon="5.81485">
        <ele>1457.552368</ele>
        <time>2019-05-23T15:36:06.333Z</time>
      </trkpt>
      <trkpt lat="45.51874" lon="5.81486">
        <ele>1459.338013</ele>
        <time>2019-05-23T15:36:11.360Z</time>
      </trkpt>
      <trkpt lat="45.51869" lon="5.81482">
        <ele>1459.120239</ele>
        <time>2019-05-23T15:36:16.937Z</time>
      </trkpt>
      <trkpt lat="45.51869" lon="5.81484">
        <ele>1459.502197</ele>
        <time>2019-05-23T15:36:23.344Z</time>
      </trkpt>
      <trkpt lat="45.51865" lon="5.8148">
        <ele>1458.808594</ele>
        <time>2019-05-23T15:36:28.344Z</time>
      </trkpt>
      <trkpt lat="45.51867" lon="5.81477">
        <ele>1459.747437</ele>
        <time>2019-05-23T15:36:34.631Z</time>
      </trkpt>
      <trkpt lat="45.51868" lon="5.81474">
        <ele>1461.758423</ele>
        <time>2019-05-23T15:36:40.356Z</time>
      </trkpt>
      <trkpt lat="45.51867" lon="5.81471">
        <ele>1462.988647</ele>
        <time>2019-05-23T15:36:47.332Z</time>
      </trkpt>
      <trkpt lat="45.51864" lon="5.8147">
        <ele>1465.54248</ele>
        <time>2019-05-23T15:36:52.346Z</time>
      </trkpt>
      <trkpt lat="45.51858" lon="5.8147">
        <ele>1463.662354</ele>
        <time>2019-05-23T15:36:57.356Z</time>
      </trkpt>
      <trkpt lat="45.51855" lon="5.81463">
        <ele>1461.759155</ele>
        <time>2019-05-23T15:37:02.356Z</time>
      </trkpt>
      <trkpt lat="45.51852" lon="5.81458">
        <ele>1462.699219</ele>
        <time>2019-05-23T15:37:07.356Z</time>
      </trkpt>
      <trkpt lat="45.51855" lon="5.81455">
        <ele>1464.459839</ele>
        <time>2019-05-23T15:37:12.463Z</time>
      </trkpt>
      <trkpt lat="45.51855" lon="5.81451">
        <ele>1465.658081</ele>
        <time>2019-05-23T15:37:17.522Z</time>
      </trkpt>
      <trkpt lat="45.51855" lon="5.81445">
        <ele>1466.354614</ele>
        <time>2019-05-23T15:37:22.561Z</time>
      </trkpt>
      <trkpt lat="45.51856" lon="5.81444">
        <ele>1466.917969</ele>
        <time>2019-05-23T15:37:30.153Z</time>
      </trkpt>
      <trkpt lat="45.51856" lon="5.81443">
        <ele>1467.848511</ele>
        <time>2019-05-23T15:37:35.166Z</time>
      </trkpt>
      <trkpt lat="45.51854" lon="5.81441">
        <ele>1470.827271</ele>
        <time>2019-05-23T15:37:40.220Z</time>
      </trkpt>
      <trkpt lat="45.51858" lon="5.8144">
        <ele>1467.191895</ele>
        <time>2019-05-23T15:38:07.328Z</time>
      </trkpt>
      <trkpt lat="45.51867" lon="5.81438">
        <ele>1461.195923</ele>
        <time>2019-05-23T15:38:12.330Z</time>
      </trkpt>
      <trkpt lat="45.5187" lon="5.8144">
        <ele>1463.837769</ele>
        <time>2019-05-23T15:38:17.332Z</time>
      </trkpt>
      <trkpt lat="45.51874" lon="5.81439">
        <ele>1461.767456</ele>
        <time>2019-05-23T15:38:22.333Z</time>
      </trkpt>
      <trkpt lat="45.51875" lon="5.81437">
        <ele>1462.594482</ele>
        <time>2019-05-23T15:38:27.333Z</time>
      </trkpt>
      <trkpt lat="45.51876" lon="5.81435">
        <ele>1462.881104</ele>
        <time>2019-05-23T15:38:34.331Z</time>
      </trkpt>
      <trkpt lat="45.51877" lon="5.81433">
        <ele>1466.053589</ele>
        <time>2019-05-23T15:38:45.325Z</time>
      </trkpt>
      <trkpt lat="45.51876" lon="5.81435">
        <ele>1464.47644</ele>
        <time>2019-05-23T15:39:08.376Z</time>
      </trkpt>
      <trkpt lat="45.51877" lon="5.81434">
        <ele>1464.887329</ele>
        <time>2019-05-23T15:39:14.330Z</time>
      </trkpt>
      <trkpt lat="45.51878" lon="5.81435">
        <ele>1463.297241</ele>
        <time>2019-05-23T15:39:54.322Z</time>
      </trkpt>
      <trkpt lat="45.51877" lon="5.81435">
        <ele>1464.112793</ele>
        <time>2019-05-23T15:40:00.327Z</time>
      </trkpt>
      <trkpt lat="45.51874" lon="5.81434">
        <ele>1467.263672</ele>
        <time>2019-05-23T15:40:08.357Z</time>
      </trkpt>
      <trkpt lat="45.51876" lon="5.81433">
        <ele>1466.867188</ele>
        <time>2019-05-23T15:40:16.265Z</time>
      </trkpt>
      <trkpt lat="45.51877" lon="5.81434">
        <ele>1467.435059</ele>
        <time>2019-05-23T15:40:30.331Z</time>
      </trkpt>
      <trkpt lat="45.51878" lon="5.81434">
        <ele>1468.343994</ele>
        <time>2019-05-23T15:40:51.338Z</time>
      </trkpt>
      <trkpt lat="45.51877" lon="5.81434">
        <ele>1466.713013</ele>
        <time>2019-05-23T15:41:03.991Z</time>
      </trkpt>
      <trkpt lat="45.51876" lon="5.81432">
        <ele>1466.306885</ele>
        <time>2019-05-23T15:41:09.330Z</time>
      </trkpt>
      <trkpt lat="45.51877" lon="5.81433">
        <ele>1466.951782</ele>
        <time>2019-05-23T15:41:23.357Z</time>
      </trkpt>
      <trkpt lat="45.51878" lon="5.81435">
        <ele>1467.09729</ele>
        <time>2019-05-23T15:41:35.328Z</time>
      </trkpt>
      <trkpt lat="45.51878" lon="5.81433">
        <ele>1466.813843</ele>
        <time>2019-05-23T15:41:41.723Z</time>
      </trkpt>
      <trkpt lat="45.51877" lon="5.81433">
        <ele>1467.233765</ele>
        <time>2019-05-23T15:42:54.324Z</time>
      </trkpt>
      <trkpt lat="45.51874" lon="5.81432">
        <ele>1468.072998</ele>
        <time>2019-05-23T15:43:24.328Z</time>
      </trkpt>
      <trkpt lat="45.51876" lon="5.81433">
        <ele>1465.013428</ele>
        <time>2019-05-23T15:43:33.339Z</time>
      </trkpt>
      <trkpt lat="45.51877" lon="5.81433">
        <ele>1462.773071</ele>
        <time>2019-05-23T15:43:40.078Z</time>
      </trkpt>
      <trkpt lat="45.51876" lon="5.81436">
        <ele>1464.13562</ele>
        <time>2019-05-23T15:43:48.342Z</time>
      </trkpt>
      <trkpt lat="45.51878" lon="5.81436">
        <ele>1462.849731</ele>
        <time>2019-05-23T15:44:15.336Z</time>
      </trkpt>
      <trkpt lat="45.51877" lon="5.81435">
        <ele>1461.740967</ele>
        <time>2019-05-23T15:45:03.363Z</time>
      </trkpt>
      <trkpt lat="45.51879" lon="5.81435">
        <ele>1461.860596</ele>
        <time>2019-05-23T15:45:30.346Z</time>
      </trkpt>
      <trkpt lat="45.51877" lon="5.81433">
        <ele>1463.463989</ele>
        <time>2019-05-23T15:45:46.676Z</time>
      </trkpt>
      <trkpt lat="45.51875" lon="5.81433">
        <ele>1466.756104</ele>
        <time>2019-05-23T15:46:04.363Z</time>
      </trkpt>
      <trkpt lat="45.51876" lon="5.81435">
        <ele>1471.722046</ele>
        <time>2019-05-23T15:46:29.640Z</time>
      </trkpt>
      <trkpt lat="45.51875" lon="5.81432">
        <ele>1468.314941</ele>
        <time>2019-05-23T15:47:09.336Z</time>
      </trkpt>
      <trkpt lat="45.51876" lon="5.81433">
        <ele>1465.533203</ele>
        <time>2019-05-23T15:47:15.052Z</time>
      </trkpt>
      <trkpt lat="45.51877" lon="5.81426">
        <ele>1466.30835</ele>
        <time>2019-05-23T15:47:20.137Z</time>
      </trkpt>
      <trkpt lat="45.51878" lon="5.81431">
        <ele>1462.976563</ele>
        <time>2019-05-23T15:47:44.326Z</time>
      </trkpt>
      <trkpt lat="45.51878" lon="5.81433">
        <ele>1462.737549</ele>
        <time>2019-05-23T15:47:52.334Z</time>
      </trkpt>
      <trkpt lat="45.51878" lon="5.81435">
        <ele>1462.077759</ele>
        <time>2019-05-23T15:47:57.334Z</time>
      </trkpt>
      <trkpt lat="45.51876" lon="5.81435">
        <ele>1463.235229</ele>
        <time>2019-05-23T15:48:02.334Z</time>
      </trkpt>
      <trkpt lat="45.51875" lon="5.81433">
        <ele>1461.830566</ele>
        <time>2019-05-23T15:48:07.334Z</time>
      </trkpt>
      <trkpt lat="45.51871" lon="5.81433">
        <ele>1461.901367</ele>
        <time>2019-05-23T15:48:12.334Z</time>
      </trkpt>
      <trkpt lat="45.5187" lon="5.81435">
        <ele>1463.314453</ele>
        <time>2019-05-23T15:48:31.368Z</time>
      </trkpt>
      <trkpt lat="45.51872" lon="5.81439">
        <ele>1464.44519</ele>
        <time>2019-05-23T15:48:36.379Z</time>
      </trkpt>
      <trkpt lat="45.51875" lon="5.81437">
        <ele>1464.091919</ele>
        <time>2019-05-23T15:48:41.379Z</time>
      </trkpt>
      <trkpt lat="45.51875" lon="5.81435">
        <ele>1465.921997</ele>
        <time>2019-05-23T15:48:57.371Z</time>
      </trkpt>
      <trkpt lat="45.51874" lon="5.81437">
        <ele>1466.760132</ele>
        <time>2019-05-23T15:49:04.330Z</time>
      </trkpt>
      <trkpt lat="45.51873" lon="5.81437">
        <ele>1466.590088</ele>
        <time>2019-05-23T15:49:20.328Z</time>
      </trkpt>
      <trkpt lat="45.51872" lon="5.81435">
        <ele>1466.445801</ele>
        <time>2019-05-23T15:49:31.363Z</time>
      </trkpt>
      <trkpt lat="45.51874" lon="5.81438">
        <ele>1466.376099</ele>
        <time>2019-05-23T15:49:36.363Z</time>
      </trkpt>
      <trkpt lat="45.51875" lon="5.81439">
        <ele>1466.994995</ele>
        <time>2019-05-23T15:49:41.502Z</time>
      </trkpt>
      <trkpt lat="45.51875" lon="5.81435">
        <ele>1467.03479</ele>
        <time>2019-05-23T15:49:57.256Z</time>
      </trkpt>
      <trkpt lat="45.5187" lon="5.81435">
        <ele>1465.345825</ele>
        <time>2019-05-23T15:50:02.328Z</time>
      </trkpt>
      <trkpt lat="45.51866" lon="5.81438">
        <ele>1465.969971</ele>
        <time>2019-05-23T15:50:07.333Z</time>
      </trkpt>
      <trkpt lat="45.51867" lon="5.81441">
        <ele>1466.962158</ele>
        <time>2019-05-23T15:50:57.265Z</time>
      </trkpt>
      <trkpt lat="45.5187" lon="5.81438">
        <ele>1464.646362</ele>
        <time>2019-05-23T15:51:02.333Z</time>
      </trkpt>
      <trkpt lat="45.51875" lon="5.81438">
        <ele>1467.064209</ele>
        <time>2019-05-23T15:51:09.925Z</time>
      </trkpt>
      <trkpt lat="45.51876" lon="5.81433">
        <ele>1465.962524</ele>
        <time>2019-05-23T15:53:11.149Z</time>
      </trkpt>
      <trkpt lat="45.51874" lon="5.81434">
        <ele>1464.443848</ele>
        <time>2019-05-23T15:57:47.187Z</time>
      </trkpt>
      <trkpt lat="45.51875" lon="5.81434">
        <ele>1464.608643</ele>
        <time>2019-05-23T15:57:52.210Z</time>
      </trkpt>
      <trkpt lat="45.51876" lon="5.81435">
        <ele>1463.184082</ele>
        <time>2019-05-23T15:57:58.324Z</time>
      </trkpt>
      <trkpt lat="45.51875" lon="5.81436">
        <ele>1461.24939</ele>
        <time>2019-05-23T15:58:07.322Z</time>
      </trkpt>
      <trkpt lat="45.51876" lon="5.81435">
        <ele>1464.788818</ele>
        <time>2019-05-23T15:58:18.343Z</time>
      </trkpt>
      <trkpt lat="45.51876" lon="5.81437">
        <ele>1465.118286</ele>
        <time>2019-05-23T15:58:34.344Z</time>
      </trkpt>
      <trkpt lat="45.51875" lon="5.81436">
        <ele>1465.730591</ele>
        <time>2019-05-23T15:58:40.112Z</time>
      </trkpt>
      <trkpt lat="45.51872" lon="5.81437">
        <ele>1462.735962</ele>
        <time>2019-05-23T15:58:50.357Z</time>
      </trkpt>
      <trkpt lat="45.51869" lon="5.81438">
        <ele>1463.678467</ele>
        <time>2019-05-23T15:58:55.357Z</time>
      </trkpt>
      <trkpt lat="45.51871" lon="5.81435">
        <ele>1467.963867</ele>
        <time>2019-05-23T15:59:02.335Z</time>
      </trkpt>
      <trkpt lat="45.51872" lon="5.81435">
        <ele>1468.097656</ele>
        <time>2019-05-23T15:59:11.347Z</time>
      </trkpt>
      <trkpt lat="45.51873" lon="5.81436">
        <ele>1463.514282</ele>
        <time>2019-05-23T15:59:23.092Z</time>
      </trkpt>
      <trkpt lat="45.5187" lon="5.81435">
        <ele>1463.017456</ele>
        <time>2019-05-23T15:59:28.133Z</time>
      </trkpt>
      <trkpt lat="45.51864" lon="5.81441">
        <ele>1463.326904</ele>
        <time>2019-05-23T15:59:33.176Z</time>
      </trkpt>
      <trkpt lat="45.51859" lon="5.81445">
        <ele>1463.192505</ele>
        <time>2019-05-23T15:59:38.254Z</time>
      </trkpt>
      <trkpt lat="45.51857" lon="5.81447">
        <ele>1465.026001</ele>
        <time>2019-05-23T15:59:43.334Z</time>
      </trkpt>
      <trkpt lat="45.51859" lon="5.81443">
        <ele>1466.575073</ele>
        <time>2019-05-23T16:00:01.342Z</time>
      </trkpt>
      <trkpt lat="45.5186" lon="5.81442">
        <ele>1465.944946</ele>
        <time>2019-05-23T16:00:39.344Z</time>
      </trkpt>
      <trkpt lat="45.51856" lon="5.8144">
        <ele>1466.967651</ele>
        <time>2019-05-23T16:00:44.348Z</time>
      </trkpt>
      <trkpt lat="45.51853" lon="5.81439">
        <ele>1467.337646</ele>
        <time>2019-05-23T16:00:49.348Z</time>
      </trkpt>
      <trkpt lat="45.51851" lon="5.8144">
        <ele>1465.891357</ele>
        <time>2019-05-23T16:01:00.339Z</time>
      </trkpt>
      <trkpt lat="45.51845" lon="5.81441">
        <ele>1465.442627</ele>
        <time>2019-05-23T16:01:05.339Z</time>
      </trkpt>
      <trkpt lat="45.5184" lon="5.81443">
        <ele>1464.617676</ele>
        <time>2019-05-23T16:01:22.326Z</time>
      </trkpt>
      <trkpt lat="45.51833" lon="5.8144">
        <ele>1464.476685</ele>
        <time>2019-05-23T16:01:28.334Z</time>
      </trkpt>
      <trkpt lat="45.51831" lon="5.81432">
        <ele>1465.255371</ele>
        <time>2019-05-23T16:01:33.349Z</time>
      </trkpt>
      <trkpt lat="45.51829" lon="5.81427">
        <ele>1467.940186</ele>
        <time>2019-05-23T16:01:39.361Z</time>
      </trkpt>
      <trkpt lat="45.51828" lon="5.81424">
        <ele>1468.967651</ele>
        <time>2019-05-23T16:01:46.355Z</time>
      </trkpt>
      <trkpt lat="45.51829" lon="5.81417">
        <ele>1471.009521</ele>
        <time>2019-05-23T16:01:52.336Z</time>
      </trkpt>
      <trkpt lat="45.51831" lon="5.81412">
        <ele>1472.763184</ele>
        <time>2019-05-23T16:01:57.338Z</time>
      </trkpt>
      <trkpt lat="45.51832" lon="5.81407">
        <ele>1472.515991</ele>
        <time>2019-05-23T16:02:02.341Z</time>
      </trkpt>
      <trkpt lat="45.51829" lon="5.81403">
        <ele>1472.793457</ele>
        <time>2019-05-23T16:02:14.354Z</time>
      </trkpt>
      <trkpt lat="45.51827" lon="5.81401">
        <ele>1474.213257</ele>
        <time>2019-05-23T16:02:19.354Z</time>
      </trkpt>
      <trkpt lat="45.5182" lon="5.81397">
        <ele>1471.890747</ele>
        <time>2019-05-23T16:02:24.354Z</time>
      </trkpt>
      <trkpt lat="45.51816" lon="5.81399">
        <ele>1472.045288</ele>
        <time>2019-05-23T16:02:31.348Z</time>
      </trkpt>
      <trkpt lat="45.51813" lon="5.814">
        <ele>1471.664307</ele>
        <time>2019-05-23T16:02:36.367Z</time>
      </trkpt>
      <trkpt lat="45.51811" lon="5.81399">
        <ele>1471.477051</ele>
        <time>2019-05-23T16:02:41.378Z</time>
      </trkpt>
      <trkpt lat="45.51809" lon="5.81398">
        <ele>1471.291382</ele>
        <time>2019-05-23T16:02:47.343Z</time>
      </trkpt>
      <trkpt lat="45.51807" lon="5.81399">
        <ele>1470.148193</ele>
        <time>2019-05-23T16:02:56.366Z</time>
      </trkpt>
      <trkpt lat="45.51806" lon="5.81398">
        <ele>1469.889404</ele>
        <time>2019-05-23T16:03:06.367Z</time>
      </trkpt>
      <trkpt lat="45.51802" lon="5.81395">
        <ele>1469.856445</ele>
        <time>2019-05-23T16:03:13.364Z</time>
      </trkpt>
      <trkpt lat="45.51801" lon="5.81394">
        <ele>1469.842285</ele>
        <time>2019-05-23T16:03:30.345Z</time>
      </trkpt>
      <trkpt lat="45.51789" lon="5.81388">
        <ele>1468.782349</ele>
        <time>2019-05-23T16:03:35.345Z</time>
      </trkpt>
      <trkpt lat="45.51785" lon="5.81384">
        <ele>1469.072388</ele>
        <time>2019-05-23T16:03:41.326Z</time>
      </trkpt>
      <trkpt lat="45.51783" lon="5.81384">
        <ele>1467.037354</ele>
        <time>2019-05-23T16:03:46.365Z</time>
      </trkpt>
      <trkpt lat="45.51779" lon="5.81378">
        <ele>1468.554932</ele>
        <time>2019-05-23T16:03:51.365Z</time>
      </trkpt>
      <trkpt lat="45.51775" lon="5.81371">
        <ele>1471.469116</ele>
        <time>2019-05-23T16:03:56.365Z</time>
      </trkpt>
      <trkpt lat="45.51772" lon="5.81366">
        <ele>1472.836792</ele>
        <time>2019-05-23T16:04:06.330Z</time>
      </trkpt>
      <trkpt lat="45.51766" lon="5.8136">
        <ele>1472.857056</ele>
        <time>2019-05-23T16:04:11.349Z</time>
      </trkpt>
      <trkpt lat="45.51758" lon="5.81357">
        <ele>1472.893555</ele>
        <time>2019-05-23T16:04:16.353Z</time>
      </trkpt>
      <trkpt lat="45.51753" lon="5.81351">
        <ele>1472.415649</ele>
        <time>2019-05-23T16:04:26.849Z</time>
      </trkpt>
      <trkpt lat="45.51752" lon="5.8135">
        <ele>1471.729004</ele>
        <time>2019-05-23T16:04:32.345Z</time>
      </trkpt>
      <trkpt lat="45.51751" lon="5.81352">
        <ele>1473.221313</ele>
        <time>2019-05-23T16:07:11.396Z</time>
      </trkpt>
      <trkpt lat="45.5175" lon="5.81349">
        <ele>1471.37854</ele>
        <time>2019-05-23T16:10:06.337Z</time>
      </trkpt>
      <trkpt lat="45.5175" lon="5.81347">
        <ele>1471.452271</ele>
        <time>2019-05-23T16:10:17.352Z</time>
      </trkpt>
      <trkpt lat="45.51749" lon="5.81345">
        <ele>1469.326294</ele>
        <time>2019-05-23T16:10:22.352Z</time>
      </trkpt>
      <trkpt lat="45.51745" lon="5.81341">
        <ele>1470.199341</ele>
        <time>2019-05-23T16:10:27.352Z</time>
      </trkpt>
      <trkpt lat="45.51743" lon="5.8134">
        <ele>1471.084473</ele>
        <time>2019-05-23T16:10:33.377Z</time>
      </trkpt>
      <trkpt lat="45.51739" lon="5.81339">
        <ele>1470.823486</ele>
        <time>2019-05-23T16:10:38.377Z</time>
      </trkpt>
      <trkpt lat="45.51731" lon="5.81334">
        <ele>1469.769287</ele>
        <time>2019-05-23T16:10:43.377Z</time>
      </trkpt>
      <trkpt lat="45.51723" lon="5.81326">
        <ele>1470.223145</ele>
        <time>2019-05-23T16:10:48.377Z</time>
      </trkpt>
      <trkpt lat="45.51713" lon="5.81317">
        <ele>1470.241577</ele>
        <time>2019-05-23T16:10:53.377Z</time>
      </trkpt>
      <trkpt lat="45.51701" lon="5.81313">
        <ele>1469.961426</ele>
        <time>2019-05-23T16:10:58.377Z</time>
      </trkpt>
      <trkpt lat="45.51692" lon="5.81312">
        <ele>1469.602173</ele>
        <time>2019-05-23T16:11:03.377Z</time>
      </trkpt>
      <trkpt lat="45.51682" lon="5.8131">
        <ele>1469.866455</ele>
        <time>2019-05-23T16:11:08.377Z</time>
      </trkpt>
      <trkpt lat="45.51673" lon="5.81306">
        <ele>1470.501465</ele>
        <time>2019-05-23T16:11:13.377Z</time>
      </trkpt>
      <trkpt lat="45.51664" lon="5.81303">
        <ele>1470.937622</ele>
        <time>2019-05-23T16:11:18.377Z</time>
      </trkpt>
      <trkpt lat="45.51656" lon="5.81298">
        <ele>1471.743042</ele>
        <time>2019-05-23T16:11:23.377Z</time>
      </trkpt>
      <trkpt lat="45.5165" lon="5.81293">
        <ele>1472.965088</ele>
        <time>2019-05-23T16:11:28.377Z</time>
      </trkpt>
      <trkpt lat="45.51645" lon="5.81287">
        <ele>1473.291382</ele>
        <time>2019-05-23T16:11:33.377Z</time>
      </trkpt>
      <trkpt lat="45.51642" lon="5.81278">
        <ele>1473.450562</ele>
        <time>2019-05-23T16:11:38.377Z</time>
      </trkpt>
      <trkpt lat="45.51639" lon="5.81269">
        <ele>1473.078613</ele>
        <time>2019-05-23T16:11:43.377Z</time>
      </trkpt>
      <trkpt lat="45.51635" lon="5.81263">
        <ele>1472.956177</ele>
        <time>2019-05-23T16:11:48.377Z</time>
      </trkpt>
      <trkpt lat="45.51629" lon="5.81263">
        <ele>1473.926147</ele>
        <time>2019-05-23T16:11:53.377Z</time>
      </trkpt>
      <trkpt lat="45.51624" lon="5.8126">
        <ele>1473.514526</ele>
        <time>2019-05-23T16:11:59.340Z</time>
      </trkpt>
      <trkpt lat="45.51619" lon="5.81257">
        <ele>1473.317627</ele>
        <time>2019-05-23T16:12:04.743Z</time>
      </trkpt>
      <trkpt lat="45.51615" lon="5.81252">
        <ele>1472.434082</ele>
        <time>2019-05-23T16:12:09.802Z</time>
      </trkpt>
      <trkpt lat="45.51616" lon="5.81253">
        <ele>1472.391968</ele>
        <time>2019-05-23T16:12:14.836Z</time>
      </trkpt>
      <trkpt lat="45.51611" lon="5.81249">
        <ele>1472.842285</ele>
        <time>2019-05-23T16:12:19.903Z</time>
      </trkpt>
      <trkpt lat="45.51605" lon="5.81247">
        <ele>1473.137939</ele>
        <time>2019-05-23T16:12:25.131Z</time>
      </trkpt>
      <trkpt lat="45.51598" lon="5.81246">
        <ele>1473.241943</ele>
        <time>2019-05-23T16:12:30.226Z</time>
      </trkpt>
      <trkpt lat="45.51595" lon="5.81235">
        <ele>1473.05127</ele>
        <time>2019-05-23T16:12:35.253Z</time>
      </trkpt>
      <trkpt lat="45.51586" lon="5.81225">
        <ele>1471.965942</ele>
        <time>2019-05-23T16:12:40.307Z</time>
      </trkpt>
      <trkpt lat="45.51568" lon="5.81215">
        <ele>1472.868286</ele>
        <time>2019-05-23T16:12:45.384Z</time>
      </trkpt>
      <trkpt lat="45.51553" lon="5.812">
        <ele>1470.728149</ele>
        <time>2019-05-23T16:12:50.384Z</time>
      </trkpt>
      <trkpt lat="45.51542" lon="5.81203">
        <ele>1469.931885</ele>
        <time>2019-05-23T16:12:57.364Z</time>
      </trkpt>
      <trkpt lat="45.51534" lon="5.81199">
        <ele>1468.297607</ele>
        <time>2019-05-23T16:13:02.364Z</time>
      </trkpt>
      <trkpt lat="45.51533" lon="5.81195">
        <ele>1469.119507</ele>
        <time>2019-05-23T16:13:11.347Z</time>
      </trkpt>
      <trkpt lat="45.5153" lon="5.81195">
        <ele>1470.493896</ele>
        <time>2019-05-23T16:13:16.350Z</time>
      </trkpt>
      <trkpt lat="45.51524" lon="5.81183">
        <ele>1468.870483</ele>
        <time>2019-05-23T16:13:21.350Z</time>
      </trkpt>
      <trkpt lat="45.51521" lon="5.81169">
        <ele>1466.573853</ele>
        <time>2019-05-23T16:13:26.359Z</time>
      </trkpt>
      <trkpt lat="45.51516" lon="5.81158">
        <ele>1466.046997</ele>
        <time>2019-05-23T16:13:31.359Z</time>
      </trkpt>
      <trkpt lat="45.51508" lon="5.81151">
        <ele>1466.340942</ele>
        <time>2019-05-23T16:13:36.359Z</time>
      </trkpt>
      <trkpt lat="45.51501" lon="5.81143">
        <ele>1468.123535</ele>
        <time>2019-05-23T16:13:41.359Z</time>
      </trkpt>
      <trkpt lat="45.51497" lon="5.81141">
        <ele>1469.978149</ele>
        <time>2019-05-23T16:13:47.350Z</time>
      </trkpt>
      <trkpt lat="45.5149" lon="5.81137">
        <ele>1469.579956</ele>
        <time>2019-05-23T16:13:52.357Z</time>
      </trkpt>
      <trkpt lat="45.51489" lon="5.81132">
        <ele>1471.883789</ele>
        <time>2019-05-23T16:13:58.352Z</time>
      </trkpt>
      <trkpt lat="45.51485" lon="5.8113">
        <ele>1471.627563</ele>
        <time>2019-05-23T16:14:03.352Z</time>
      </trkpt>
      <trkpt lat="45.51474" lon="5.81121">
        <ele>1470.307495</ele>
        <time>2019-05-23T16:14:08.352Z</time>
      </trkpt>
      <trkpt lat="45.5147" lon="5.81113">
        <ele>1470.972412</ele>
        <time>2019-05-23T16:14:13.352Z</time>
      </trkpt>
      <trkpt lat="45.51466" lon="5.81105">
        <ele>1471.412231</ele>
        <time>2019-05-23T16:14:18.352Z</time>
      </trkpt>
      <trkpt lat="45.51462" lon="5.81093">
        <ele>1473.250366</ele>
        <time>2019-05-23T16:14:23.353Z</time>
      </trkpt>
      <trkpt lat="45.51458" lon="5.8108">
        <ele>1472.670898</ele>
        <time>2019-05-23T16:14:28.358Z</time>
      </trkpt>
      <trkpt lat="45.51448" lon="5.81072">
        <ele>1473.852905</ele>
        <time>2019-05-23T16:14:33.358Z</time>
      </trkpt>
      <trkpt lat="45.51442" lon="5.81068">
        <ele>1473.882324</ele>
        <time>2019-05-23T16:14:38.358Z</time>
      </trkpt>
      <trkpt lat="45.51446" lon="5.81067">
        <ele>1474.053589</ele>
        <time>2019-05-23T16:15:04.633Z</time>
      </trkpt>
      <trkpt lat="45.51441" lon="5.81064">
        <ele>1474.90625</ele>
        <time>2019-05-23T16:15:09.709Z</time>
      </trkpt>
      <trkpt lat="45.51437" lon="5.81065">
        <ele>1475.319458</ele>
        <time>2019-05-23T16:15:14.733Z</time>
      </trkpt>
      <trkpt lat="45.51434" lon="5.81065">
        <ele>1475.621338</ele>
        <time>2019-05-23T16:15:22.315Z</time>
      </trkpt>
      <trkpt lat="45.51426" lon="5.81063">
        <ele>1474.265991</ele>
        <time>2019-05-23T16:15:27.338Z</time>
      </trkpt>
      <trkpt lat="45.51416" lon="5.8106">
        <ele>1475.422607</ele>
        <time>2019-05-23T16:15:32.338Z</time>
      </trkpt>
      <trkpt lat="45.51407" lon="5.81058">
        <ele>1476.427124</ele>
        <time>2019-05-23T16:15:37.357Z</time>
      </trkpt>
      <trkpt lat="45.51399" lon="5.81057">
        <ele>1477.887451</ele>
        <time>2019-05-23T16:15:42.357Z</time>
      </trkpt>
      <trkpt lat="45.51392" lon="5.8105">
        <ele>1474.838501</ele>
        <time>2019-05-23T16:15:47.360Z</time>
      </trkpt>
      <trkpt lat="45.51387" lon="5.81038">
        <ele>1474.865601</ele>
        <time>2019-05-23T16:15:52.360Z</time>
      </trkpt>
      <trkpt lat="45.51378" lon="5.81023">
        <ele>1472.505737</ele>
        <time>2019-05-23T16:15:57.360Z</time>
      </trkpt>
      <trkpt lat="45.51363" lon="5.81009">
        <ele>1472.078857</ele>
        <time>2019-05-23T16:16:02.360Z</time>
      </trkpt>
      <trkpt lat="45.5135" lon="5.81006">
        <ele>1467.47998</ele>
        <time>2019-05-23T16:16:07.360Z</time>
      </trkpt>
      <trkpt lat="45.51338" lon="5.8099">
        <ele>1466.907593</ele>
        <time>2019-05-23T16:16:12.360Z</time>
      </trkpt>
      <trkpt lat="45.51319" lon="5.80969">
        <ele>1464.583862</ele>
        <time>2019-05-23T16:16:17.361Z</time>
      </trkpt>
      <trkpt lat="45.51303" lon="5.80952">
        <ele>1467.498535</ele>
        <time>2019-05-23T16:16:22.367Z</time>
      </trkpt>
      <trkpt lat="45.51289" lon="5.80941">
        <ele>1466.566284</ele>
        <time>2019-05-23T16:16:27.367Z</time>
      </trkpt>
      <trkpt lat="45.5128" lon="5.80934">
        <ele>1466.770508</ele>
        <time>2019-05-23T16:16:32.367Z</time>
      </trkpt>
      <trkpt lat="45.5127" lon="5.80929">
        <ele>1467.003662</ele>
        <time>2019-05-23T16:16:37.367Z</time>
      </trkpt>
      <trkpt lat="45.5126" lon="5.80916">
        <ele>1469.546387</ele>
        <time>2019-05-23T16:16:42.367Z</time>
      </trkpt>
      <trkpt lat="45.51254" lon="5.80909">
        <ele>1470.641724</ele>
        <time>2019-05-23T16:16:47.367Z</time>
      </trkpt>
      <trkpt lat="45.51243" lon="5.80907">
        <ele>1470.966431</ele>
        <time>2019-05-23T16:16:52.367Z</time>
      </trkpt>
      <trkpt lat="45.5123" lon="5.80903">
        <ele>1472.35022</ele>
        <time>2019-05-23T16:16:57.367Z</time>
      </trkpt>
      <trkpt lat="45.51219" lon="5.80898">
        <ele>1472.219849</ele>
        <time>2019-05-23T16:17:02.367Z</time>
      </trkpt>
      <trkpt lat="45.51212" lon="5.80891">
        <ele>1471.386719</ele>
        <time>2019-05-23T16:17:07.367Z</time>
      </trkpt>
      <trkpt lat="45.51204" lon="5.80883">
        <ele>1470.718628</ele>
        <time>2019-05-23T16:17:12.367Z</time>
      </trkpt>
      <trkpt lat="45.51194" lon="5.80873">
        <ele>1471.005371</ele>
        <time>2019-05-23T16:17:17.373Z</time>
      </trkpt>
      <trkpt lat="45.51179" lon="5.80866">
        <ele>1470.120239</ele>
        <time>2019-05-23T16:17:22.373Z</time>
      </trkpt>
      <trkpt lat="45.5117" lon="5.80846">
        <ele>1470.276855</ele>
        <time>2019-05-23T16:17:27.373Z</time>
      </trkpt>
      <trkpt lat="45.51159" lon="5.8082">
        <ele>1470.179932</ele>
        <time>2019-05-23T16:17:32.373Z</time>
      </trkpt>
      <trkpt lat="45.51131" lon="5.80808">
        <ele>1467.332642</ele>
        <time>2019-05-23T16:17:37.373Z</time>
      </trkpt>
      <trkpt lat="45.51108" lon="5.80793">
        <ele>1463.903076</ele>
        <time>2019-05-23T16:17:42.373Z</time>
      </trkpt>
      <trkpt lat="45.51086" lon="5.80773">
        <ele>1462.547607</ele>
        <time>2019-05-23T16:17:47.373Z</time>
      </trkpt>
      <trkpt lat="45.51073" lon="5.80762">
        <ele>1464.315674</ele>
        <time>2019-05-23T16:17:52.373Z</time>
      </trkpt>
      <trkpt lat="45.51065" lon="5.80749">
        <ele>1464.926147</ele>
        <time>2019-05-23T16:17:57.373Z</time>
      </trkpt>
      <trkpt lat="45.51055" lon="5.80733">
        <ele>1461.154541</ele>
        <time>2019-05-23T16:18:02.373Z</time>
      </trkpt>
      <trkpt lat="45.51043" lon="5.80718">
        <ele>1460.169312</ele>
        <time>2019-05-23T16:18:07.373Z</time>
      </trkpt>
      <trkpt lat="45.51031" lon="5.807">
        <ele>1461.288208</ele>
        <time>2019-05-23T16:18:12.373Z</time>
      </trkpt>
      <trkpt lat="45.51026" lon="5.80682">
        <ele>1464.999146</ele>
        <time>2019-05-23T16:18:17.373Z</time>
      </trkpt>
      <trkpt lat="45.51021" lon="5.80669">
        <ele>1463.962524</ele>
        <time>2019-05-23T16:18:22.373Z</time>
      </trkpt>
      <trkpt lat="45.51013" lon="5.80654">
        <ele>1464.745972</ele>
        <time>2019-05-23T16:18:27.373Z</time>
      </trkpt>
      <trkpt lat="45.51002" lon="5.80639">
        <ele>1466.629761</ele>
        <time>2019-05-23T16:18:32.378Z</time>
      </trkpt>
      <trkpt lat="45.50988" lon="5.80629">
        <ele>1467.728882</ele>
        <time>2019-05-23T16:18:37.378Z</time>
      </trkpt>
      <trkpt lat="45.50976" lon="5.80614">
        <ele>1471.506592</ele>
        <time>2019-05-23T16:18:42.378Z</time>
      </trkpt>
      <trkpt lat="45.50963" lon="5.80606">
        <ele>1469.590698</ele>
        <time>2019-05-23T16:18:47.378Z</time>
      </trkpt>
      <trkpt lat="45.50956" lon="5.80598">
        <ele>1472.60498</ele>
        <time>2019-05-23T16:18:52.378Z</time>
      </trkpt>
      <trkpt lat="45.50945" lon="5.80586">
        <ele>1471.610107</ele>
        <time>2019-05-23T16:18:57.378Z</time>
      </trkpt>
      <trkpt lat="45.50929" lon="5.80569">
        <ele>1473.16748</ele>
        <time>2019-05-23T16:19:02.378Z</time>
      </trkpt>
      <trkpt lat="45.50913" lon="5.80551">
        <ele>1474.337524</ele>
        <time>2019-05-23T16:19:07.378Z</time>
      </trkpt>
      <trkpt lat="45.50899" lon="5.80537">
        <ele>1471.590698</ele>
        <time>2019-05-23T16:19:12.378Z</time>
      </trkpt>
      <trkpt lat="45.50884" lon="5.80523">
        <ele>1468.187744</ele>
        <time>2019-05-23T16:19:17.378Z</time>
      </trkpt>
      <trkpt lat="45.50867" lon="5.80506">
        <ele>1466.628906</ele>
        <time>2019-05-23T16:19:22.378Z</time>
      </trkpt>
      <trkpt lat="45.50852" lon="5.80479">
        <ele>1469.017578</ele>
        <time>2019-05-23T16:19:27.378Z</time>
      </trkpt>
      <trkpt lat="45.50834" lon="5.80463">
        <ele>1468.150635</ele>
        <time>2019-05-23T16:19:32.378Z</time>
      </trkpt>
      <trkpt lat="45.50811" lon="5.80455">
        <ele>1469.824341</ele>
        <time>2019-05-23T16:19:37.378Z</time>
      </trkpt>
      <trkpt lat="45.50788" lon="5.80436">
        <ele>1468.691284</ele>
        <time>2019-05-23T16:19:42.378Z</time>
      </trkpt>
      <trkpt lat="45.50758" lon="5.80422">
        <ele>1467.188477</ele>
        <time>2019-05-23T16:19:47.378Z</time>
      </trkpt>
      <trkpt lat="45.50734" lon="5.80419">
        <ele>1464.854858</ele>
        <time>2019-05-23T16:19:52.378Z</time>
      </trkpt>
      <trkpt lat="45.50713" lon="5.80411">
        <ele>1457.201416</ele>
        <time>2019-05-23T16:19:57.378Z</time>
      </trkpt>
      <trkpt lat="45.50684" lon="5.80388">
        <ele>1456.195801</ele>
        <time>2019-05-23T16:20:02.378Z</time>
      </trkpt>
      <trkpt lat="45.50658" lon="5.80378">
        <ele>1453.956421</ele>
        <time>2019-05-23T16:20:07.378Z</time>
      </trkpt>
      <trkpt lat="45.50637" lon="5.80361">
        <ele>1450.006592</ele>
        <time>2019-05-23T16:20:12.378Z</time>
      </trkpt>
      <trkpt lat="45.50618" lon="5.80352">
        <ele>1447.434937</ele>
        <time>2019-05-23T16:20:17.378Z</time>
      </trkpt>
      <trkpt lat="45.50591" lon="5.80337">
        <ele>1444.021362</ele>
        <time>2019-05-23T16:20:22.378Z</time>
      </trkpt>
      <trkpt lat="45.50569" lon="5.80319">
        <ele>1439.249756</ele>
        <time>2019-05-23T16:20:27.378Z</time>
      </trkpt>
      <trkpt lat="45.50552" lon="5.80299">
        <ele>1436.848267</ele>
        <time>2019-05-23T16:20:32.378Z</time>
      </trkpt>
      <trkpt lat="45.50539" lon="5.80283">
        <ele>1432.450806</ele>
        <time>2019-05-23T16:20:38.339Z</time>
      </trkpt>
      <trkpt lat="45.50516" lon="5.80269">
        <ele>1423.839111</ele>
        <time>2019-05-23T16:20:43.375Z</time>
      </trkpt>
      <trkpt lat="45.50498" lon="5.80265">
        <ele>1415.35376</ele>
        <time>2019-05-23T16:20:48.375Z</time>
      </trkpt>
      <trkpt lat="45.50489" lon="5.80259">
        <ele>1410.534546</ele>
        <time>2019-05-23T16:20:53.375Z</time>
      </trkpt>
      <trkpt lat="45.50487" lon="5.80263">
        <ele>1409.907349</ele>
        <time>2019-05-23T16:21:01.371Z</time>
      </trkpt>
      <trkpt lat="45.50485" lon="5.80261">
        <ele>1409.580811</ele>
        <time>2019-05-23T16:21:18.337Z</time>
      </trkpt>
      <trkpt lat="45.50486" lon="5.80262">
        <ele>1409.528442</ele>
        <time>2019-05-23T16:21:29.338Z</time>
      </trkpt>
      <trkpt lat="45.50488" lon="5.8026">
        <ele>1410.203735</ele>
        <time>2019-05-23T16:21:34.346Z</time>
      </trkpt>
      <trkpt lat="45.50487" lon="5.80257">
        <ele>1410.56189</ele>
        <time>2019-05-23T16:21:42.336Z</time>
      </trkpt>
      <trkpt lat="45.50488" lon="5.80256">
        <ele>1410.010254</ele>
        <time>2019-05-23T16:21:51.405Z</time>
      </trkpt>
      <trkpt lat="45.50487" lon="5.80255">
        <ele>1411.110107</ele>
        <time>2019-05-23T16:21:57.333Z</time>
      </trkpt>
      <trkpt lat="45.50487" lon="5.80258">
        <ele>1412.10083</ele>
        <time>2019-05-23T16:22:05.335Z</time>
      </trkpt>
      <trkpt lat="45.50487" lon="5.80257">
        <ele>1411.615112</ele>
        <time>2019-05-23T16:22:16.609Z</time>
      </trkpt>
      <trkpt lat="45.50489" lon="5.80257">
        <ele>1412.157227</ele>
        <time>2019-05-23T16:22:49.339Z</time>
      </trkpt>
      <trkpt lat="45.5049" lon="5.80256">
        <ele>1411.846069</ele>
        <time>2019-05-23T16:22:54.350Z</time>
      </trkpt>
      <trkpt lat="45.50487" lon="5.80257">
        <ele>1413.982666</ele>
        <time>2019-05-23T16:23:11.349Z</time>
      </trkpt>
      <trkpt lat="45.5048" lon="5.80255">
        <ele>1415.759033</ele>
        <time>2019-05-23T16:23:16.349Z</time>
      </trkpt>
      <trkpt lat="45.50463" lon="5.80254">
        <ele>1414.564331</ele>
        <time>2019-05-23T16:23:21.349Z</time>
      </trkpt>
      <trkpt lat="45.50444" lon="5.80251">
        <ele>1409.955811</ele>
        <time>2019-05-23T16:23:26.349Z</time>
      </trkpt>
      <trkpt lat="45.50444" lon="5.80247">
        <ele>1407.477173</ele>
        <time>2019-05-23T16:23:43.329Z</time>
      </trkpt>
      <trkpt lat="45.50437" lon="5.80241">
        <ele>1403.714722</ele>
        <time>2019-05-23T16:23:48.349Z</time>
      </trkpt>
      <trkpt lat="45.50427" lon="5.80236">
        <ele>1404.576538</ele>
        <time>2019-05-23T16:23:53.349Z</time>
      </trkpt>
      <trkpt lat="45.50418" lon="5.80229">
        <ele>1403.747314</ele>
        <time>2019-05-23T16:23:58.349Z</time>
      </trkpt>
      <trkpt lat="45.50408" lon="5.80224">
        <ele>1404.428711</ele>
        <time>2019-05-23T16:24:03.349Z</time>
      </trkpt>
      <trkpt lat="45.50397" lon="5.80225">
        <ele>1401.119873</ele>
        <time>2019-05-23T16:24:08.349Z</time>
      </trkpt>
      <trkpt lat="45.50389" lon="5.80224">
        <ele>1402.09375</ele>
        <time>2019-05-23T16:24:13.349Z</time>
      </trkpt>
      <trkpt lat="45.5038" lon="5.8022">
        <ele>1396.586304</ele>
        <time>2019-05-23T16:24:18.349Z</time>
      </trkpt>
      <trkpt lat="45.50374" lon="5.80211">
        <ele>1391.877563</ele>
        <time>2019-05-23T16:24:23.349Z</time>
      </trkpt>
      <trkpt lat="45.50371" lon="5.80202">
        <ele>1390.984131</ele>
        <time>2019-05-23T16:24:28.349Z</time>
      </trkpt>
      <trkpt lat="45.50359" lon="5.80188">
        <ele>1391.667358</ele>
        <time>2019-05-23T16:24:33.349Z</time>
      </trkpt>
      <trkpt lat="45.50345" lon="5.80176">
        <ele>1389.691406</ele>
        <time>2019-05-23T16:24:38.349Z</time>
      </trkpt>
      <trkpt lat="45.50335" lon="5.80162">
        <ele>1386.897461</ele>
        <time>2019-05-23T16:24:43.352Z</time>
      </trkpt>
      <trkpt lat="45.50326" lon="5.80159">
        <ele>1380.669189</ele>
        <time>2019-05-23T16:24:48.354Z</time>
      </trkpt>
      <trkpt lat="45.50316" lon="5.80152">
        <ele>1375.724609</ele>
        <time>2019-05-23T16:24:53.354Z</time>
      </trkpt>
      <trkpt lat="45.50305" lon="5.80143">
        <ele>1369.811157</ele>
        <time>2019-05-23T16:24:58.354Z</time>
      </trkpt>
      <trkpt lat="45.50298" lon="5.80135">
        <ele>1362.444824</ele>
        <time>2019-05-23T16:25:03.354Z</time>
      </trkpt>
      <trkpt lat="45.50292" lon="5.80128">
        <ele>1362.532471</ele>
        <time>2019-05-23T16:25:08.355Z</time>
      </trkpt>
      <trkpt lat="45.50278" lon="5.80119">
        <ele>1360.329712</ele>
        <time>2019-05-23T16:25:13.355Z</time>
      </trkpt>
      <trkpt lat="45.50263" lon="5.80107">
        <ele>1357.617554</ele>
        <time>2019-05-23T16:25:18.356Z</time>
      </trkpt>
      <trkpt lat="45.50251" lon="5.80088">
        <ele>1353.841553</ele>
        <time>2019-05-23T16:25:23.356Z</time>
      </trkpt>
      <trkpt lat="45.50234" lon="5.80075">
        <ele>1349.765137</ele>
        <time>2019-05-23T16:25:28.356Z</time>
      </trkpt>
      <trkpt lat="45.50217" lon="5.80064">
        <ele>1350.656372</ele>
        <time>2019-05-23T16:25:33.356Z</time>
      </trkpt>
      <trkpt lat="45.50199" lon="5.80054">
        <ele>1348.743164</ele>
        <time>2019-05-23T16:25:38.356Z</time>
      </trkpt>
      <trkpt lat="45.50192" lon="5.80049">
        <ele>1339.922485</ele>
        <time>2019-05-23T16:25:45.348Z</time>
      </trkpt>
      <trkpt lat="45.50191" lon="5.8005">
        <ele>1336.949219</ele>
        <time>2019-05-23T16:25:53.348Z</time>
      </trkpt>
      <trkpt lat="45.50186" lon="5.80048">
        <ele>1334.418213</ele>
        <time>2019-05-23T16:25:59.653Z</time>
      </trkpt>
      <trkpt lat="45.50185" lon="5.80046">
        <ele>1334.122681</ele>
        <time>2019-05-23T16:26:04.674Z</time>
      </trkpt>
      <trkpt lat="45.50185" lon="5.80043">
        <ele>1331.325562</ele>
        <time>2019-05-23T16:26:11.373Z</time>
      </trkpt>
      <trkpt lat="45.50188" lon="5.80045">
        <ele>1331.072632</ele>
        <time>2019-05-23T16:26:16.373Z</time>
      </trkpt>
      <trkpt lat="45.50192" lon="5.80043">
        <ele>1329.965332</ele>
        <time>2019-05-23T16:26:22.336Z</time>
      </trkpt>
      <trkpt lat="45.50194" lon="5.80041">
        <ele>1331.263184</ele>
        <time>2019-05-23T16:26:27.353Z</time>
      </trkpt>
      <trkpt lat="45.50203" lon="5.80034">
        <ele>1331.174683</ele>
        <time>2019-05-23T16:26:32.353Z</time>
      </trkpt>
      <trkpt lat="45.50206" lon="5.80039">
        <ele>1329.629883</ele>
        <time>2019-05-23T16:26:41.353Z</time>
      </trkpt>
      <trkpt lat="45.50205" lon="5.80038">
        <ele>1326.208862</ele>
        <time>2019-05-23T16:26:58.325Z</time>
      </trkpt>
      <trkpt lat="45.50208" lon="5.80035">
        <ele>1327.000854</ele>
        <time>2019-05-23T16:27:06.355Z</time>
      </trkpt>
      <trkpt lat="45.50208" lon="5.80032">
        <ele>1327.761353</ele>
        <time>2019-05-23T16:27:14.370Z</time>
      </trkpt>
      <trkpt lat="45.5021" lon="5.80031">
        <ele>1324.709229</ele>
        <time>2019-05-23T16:27:20.340Z</time>
      </trkpt>
      <trkpt lat="45.50211" lon="5.80034">
        <ele>1325.043945</ele>
        <time>2019-05-23T16:27:25.344Z</time>
      </trkpt>
      <trkpt lat="45.50213" lon="5.80037">
        <ele>1323.632568</ele>
        <time>2019-05-23T16:27:30.362Z</time>
      </trkpt>
      <trkpt lat="45.50213" lon="5.8004">
        <ele>1324.305786</ele>
        <time>2019-05-23T16:27:35.556Z</time>
      </trkpt>
      <trkpt lat="45.50216" lon="5.8004">
        <ele>1322.748657</ele>
        <time>2019-05-23T16:27:57.388Z</time>
      </trkpt>
      <trkpt lat="45.50219" lon="5.80041">
        <ele>1321.231567</ele>
        <time>2019-05-23T16:28:46.293Z</time>
      </trkpt>
      <trkpt lat="45.5022" lon="5.8004">
        <ele>1320.138062</ele>
        <time>2019-05-23T16:28:51.366Z</time>
      </trkpt>
      <trkpt lat="45.50222" lon="5.80028">
        <ele>1322.627808</ele>
        <time>2019-05-23T16:29:54.347Z</time>
      </trkpt>
      <trkpt lat="45.50226" lon="5.80029">
        <ele>1318.972778</ele>
        <time>2019-05-23T16:30:20.335Z</time>
      </trkpt>
      <trkpt lat="45.50226" lon="5.80028">
        <ele>1317.245605</ele>
        <time>2019-05-23T16:30:25.350Z</time>
      </trkpt>
      <trkpt lat="45.50233" lon="5.80029">
        <ele>1313.905884</ele>
        <time>2019-05-23T16:30:30.355Z</time>
      </trkpt>
      <trkpt lat="45.50245" lon="5.80032">
        <ele>1312.487305</ele>
        <time>2019-05-23T16:30:35.355Z</time>
      </trkpt>
      <trkpt lat="45.50253" lon="5.80036">
        <ele>1310.128052</ele>
        <time>2019-05-23T16:30:47.343Z</time>
      </trkpt>
      <trkpt lat="45.50258" lon="5.80041">
        <ele>1310.764038</ele>
        <time>2019-05-23T16:30:52.343Z</time>
      </trkpt>
      <trkpt lat="45.50263" lon="5.80044">
        <ele>1312.041016</ele>
        <time>2019-05-23T16:30:57.343Z</time>
      </trkpt>
      <trkpt lat="45.50271" lon="5.80046">
        <ele>1310.055298</ele>
        <time>2019-05-23T16:31:02.347Z</time>
      </trkpt>
      <trkpt lat="45.50274" lon="5.80048">
        <ele>1308.716309</ele>
        <time>2019-05-23T16:31:08.047Z</time>
      </trkpt>
      <trkpt lat="45.50278" lon="5.8005">
        <ele>1309.641357</ele>
        <time>2019-05-23T16:31:13.079Z</time>
      </trkpt>
      <trkpt lat="45.50286" lon="5.80049">
        <ele>1311.761963</ele>
        <time>2019-05-23T16:31:18.100Z</time>
      </trkpt>
      <trkpt lat="45.50289" lon="5.80051">
        <ele>1310.80603</ele>
        <time>2019-05-23T16:31:23.354Z</time>
      </trkpt>
      <trkpt lat="45.50289" lon="5.80052">
        <ele>1309.733521</ele>
        <time>2019-05-23T16:31:32.343Z</time>
      </trkpt>
      <trkpt lat="45.50289" lon="5.8005">
        <ele>1309.412842</ele>
        <time>2019-05-23T16:31:38.334Z</time>
      </trkpt>
      <trkpt lat="45.50288" lon="5.80052">
        <ele>1309.443481</ele>
        <time>2019-05-23T16:31:43.335Z</time>
      </trkpt>
      <trkpt lat="45.50289" lon="5.80052">
        <ele>1310.669189</ele>
        <time>2019-05-23T16:31:53.340Z</time>
      </trkpt>
      <trkpt lat="45.50292" lon="5.80055">
        <ele>1308.373047</ele>
        <time>2019-05-23T16:31:59.542Z</time>
      </trkpt>
      <trkpt lat="45.50291" lon="5.80057">
        <ele>1310.84729</ele>
        <time>2019-05-23T16:32:05.338Z</time>
      </trkpt>
      <trkpt lat="45.503" lon="5.80052">
        <ele>1315.181641</ele>
        <time>2019-05-23T16:32:13.325Z</time>
      </trkpt>
      <trkpt lat="45.50306" lon="5.80051">
        <ele>1313.722168</ele>
        <time>2019-05-23T16:32:18.608Z</time>
      </trkpt>
      <trkpt lat="45.50305" lon="5.80054">
        <ele>1312.594116</ele>
        <time>2019-05-23T16:32:24.329Z</time>
      </trkpt>
      <trkpt lat="45.50302" lon="5.80053">
        <ele>1310.338501</ele>
        <time>2019-05-23T16:32:29.344Z</time>
      </trkpt>
      <trkpt lat="45.50302" lon="5.80051">
        <ele>1310.134033</ele>
        <time>2019-05-23T16:32:38.347Z</time>
      </trkpt>
      <trkpt lat="45.50296" lon="5.80049">
        <ele>1309.767212</ele>
        <time>2019-05-23T16:32:55.341Z</time>
      </trkpt>
      <trkpt lat="45.50296" lon="5.80056">
        <ele>1307.963013</ele>
        <time>2019-05-23T16:33:00.350Z</time>
      </trkpt>
      <trkpt lat="45.50301" lon="5.80064">
        <ele>1308.739868</ele>
        <time>2019-05-23T16:33:05.350Z</time>
      </trkpt>
      <trkpt lat="45.50304" lon="5.80062">
        <ele>1313.549316</ele>
        <time>2019-05-23T16:33:11.544Z</time>
      </trkpt>
      <trkpt lat="45.5031" lon="5.80063">
        <ele>1312.684448</ele>
        <time>2019-05-23T16:33:16.594Z</time>
      </trkpt>
      <trkpt lat="45.50315" lon="5.80065">
        <ele>1311.034912</ele>
        <time>2019-05-23T16:33:21.611Z</time>
      </trkpt>
      <trkpt lat="45.50318" lon="5.80062">
        <ele>1311.387085</ele>
        <time>2019-05-23T16:33:38.349Z</time>
      </trkpt>
      <trkpt lat="45.50319" lon="5.80061">
        <ele>1312.173096</ele>
        <time>2019-05-23T16:33:44.365Z</time>
      </trkpt>
      <trkpt lat="45.50322" lon="5.80059">
        <ele>1310.976196</ele>
        <time>2019-05-23T16:33:52.365Z</time>
      </trkpt>
      <trkpt lat="45.50326" lon="5.80058">
        <ele>1311.380737</ele>
        <time>2019-05-23T16:33:58.342Z</time>
      </trkpt>
      <trkpt lat="45.50328" lon="5.80056">
        <ele>1309.516357</ele>
        <time>2019-05-23T16:34:04.351Z</time>
      </trkpt>
      <trkpt lat="45.50332" lon="5.80052">
        <ele>1309.346313</ele>
        <time>2019-05-23T16:34:09.351Z</time>
      </trkpt>
      <trkpt lat="45.50335" lon="5.80052">
        <ele>1308.053345</ele>
        <time>2019-05-23T16:34:16.345Z</time>
      </trkpt>
      <trkpt lat="45.50336" lon="5.80051">
        <ele>1308.719604</ele>
        <time>2019-05-23T16:34:22.226Z</time>
      </trkpt>
      <trkpt lat="45.50337" lon="5.80051">
        <ele>1309.112183</ele>
        <time>2019-05-23T16:34:29.323Z</time>
      </trkpt>
      <trkpt lat="45.50338" lon="5.80052">
        <ele>1307.47229</ele>
        <time>2019-05-23T16:34:39.372Z</time>
      </trkpt>
      <trkpt lat="45.50342" lon="5.80051">
        <ele>1306.045288</ele>
        <time>2019-05-23T16:34:44.372Z</time>
      </trkpt>
      <trkpt lat="45.50345" lon="5.80051">
        <ele>1305.212524</ele>
        <time>2019-05-23T16:34:49.372Z</time>
      </trkpt>
      <trkpt lat="45.50351" lon="5.8005">
        <ele>1304.837524</ele>
        <time>2019-05-23T16:34:54.372Z</time>
      </trkpt>
      <trkpt lat="45.50352" lon="5.80052">
        <ele>1302.460571</ele>
        <time>2019-05-23T16:35:00.347Z</time>
      </trkpt>
      <trkpt lat="45.50354" lon="5.80052">
        <ele>1300.106445</ele>
        <time>2019-05-23T16:35:05.347Z</time>
      </trkpt>
      <trkpt lat="45.5036" lon="5.80052">
        <ele>1298.759399</ele>
        <time>2019-05-23T16:35:11.389Z</time>
      </trkpt>
      <trkpt lat="45.50362" lon="5.80053">
        <ele>1298.881226</ele>
        <time>2019-05-23T16:35:18.345Z</time>
      </trkpt>
      <trkpt lat="45.50368" lon="5.80057">
        <ele>1295.761841</ele>
        <time>2019-05-23T16:35:23.360Z</time>
      </trkpt>
      <trkpt lat="45.50372" lon="5.80054">
        <ele>1296.472778</ele>
        <time>2019-05-23T16:35:28.508Z</time>
      </trkpt>
      <trkpt lat="45.50379" lon="5.80055">
        <ele>1295.88269</ele>
        <time>2019-05-23T16:35:34.355Z</time>
      </trkpt>
      <trkpt lat="45.50383" lon="5.80056">
        <ele>1294.339844</ele>
        <time>2019-05-23T16:35:39.380Z</time>
      </trkpt>
      <trkpt lat="45.50387" lon="5.80054">
        <ele>1295.705566</ele>
        <time>2019-05-23T16:35:45.351Z</time>
      </trkpt>
      <trkpt lat="45.50389" lon="5.80053">
        <ele>1298.229248</ele>
        <time>2019-05-23T16:35:50.360Z</time>
      </trkpt>
      <trkpt lat="45.50392" lon="5.80053">
        <ele>1295.430054</ele>
        <time>2019-05-23T16:35:56.532Z</time>
      </trkpt>
      <trkpt lat="45.50398" lon="5.80052">
        <ele>1292.673584</ele>
        <time>2019-05-23T16:36:02.354Z</time>
      </trkpt>
      <trkpt lat="45.50401" lon="5.80051">
        <ele>1291.695435</ele>
        <time>2019-05-23T16:36:07.354Z</time>
      </trkpt>
      <trkpt lat="45.50404" lon="5.80047">
        <ele>1291.143921</ele>
        <time>2019-05-23T16:36:12.354Z</time>
      </trkpt>
      <trkpt lat="45.50405" lon="5.80043">
        <ele>1287.606201</ele>
        <time>2019-05-23T16:36:17.369Z</time>
      </trkpt>
      <trkpt lat="45.50405" lon="5.8004">
        <ele>1286.465576</ele>
        <time>2019-05-23T16:36:24.422Z</time>
      </trkpt>
      <trkpt lat="45.50402" lon="5.80037">
        <ele>1284.111328</ele>
        <time>2019-05-23T16:36:30.352Z</time>
      </trkpt>
      <trkpt lat="45.50391" lon="5.80035">
        <ele>1281.046753</ele>
        <time>2019-05-23T16:36:35.353Z</time>
      </trkpt>
      <trkpt lat="45.50387" lon="5.80031">
        <ele>1276.618042</ele>
        <time>2019-05-23T16:36:41.206Z</time>
      </trkpt>
      <trkpt lat="45.50387" lon="5.8003">
        <ele>1276.808838</ele>
        <time>2019-05-23T16:36:46.281Z</time>
      </trkpt>
      <trkpt lat="45.50386" lon="5.80028">
        <ele>1272.452881</ele>
        <time>2019-05-23T16:36:53.836Z</time>
      </trkpt>
      <trkpt lat="45.50384" lon="5.80025">
        <ele>1274.118164</ele>
        <time>2019-05-23T16:36:58.903Z</time>
      </trkpt>
      <trkpt lat="45.50382" lon="5.80026">
        <ele>1269.525635</ele>
        <time>2019-05-23T16:37:04.338Z</time>
      </trkpt>
      <trkpt lat="45.50379" lon="5.80026">
        <ele>1268.357422</ele>
        <time>2019-05-23T16:37:10.350Z</time>
      </trkpt>
      <trkpt lat="45.50378" lon="5.80024">
        <ele>1268.219604</ele>
        <time>2019-05-23T16:37:18.345Z</time>
      </trkpt>
      <trkpt lat="45.50381" lon="5.80025">
        <ele>1268.546021</ele>
        <time>2019-05-23T16:37:24.177Z</time>
      </trkpt>
      <trkpt lat="45.50383" lon="5.80024">
        <ele>1270.159668</ele>
        <time>2019-05-23T16:37:38.357Z</time>
      </trkpt>
      <trkpt lat="45.5039" lon="5.8002">
        <ele>1274.665039</ele>
        <time>2019-05-23T16:37:43.357Z</time>
      </trkpt>
      <trkpt lat="45.50398" lon="5.80012">
        <ele>1269.386963</ele>
        <time>2019-05-23T16:37:48.357Z</time>
      </trkpt>
      <trkpt lat="45.50409" lon="5.80008">
        <ele>1264.007935</ele>
        <time>2019-05-23T16:37:53.357Z</time>
      </trkpt>
      <trkpt lat="45.50412" lon="5.80005">
        <ele>1260.08252</ele>
        <time>2019-05-23T16:38:04.356Z</time>
      </trkpt>
      <trkpt lat="45.50412" lon="5.80004">
        <ele>1257.345703</ele>
        <time>2019-05-23T16:38:12.345Z</time>
      </trkpt>
      <trkpt lat="45.5041" lon="5.80002">
        <ele>1256.916992</ele>
        <time>2019-05-23T16:38:17.345Z</time>
      </trkpt>
      <trkpt lat="45.50406" lon="5.79998">
        <ele>1254.677368</ele>
        <time>2019-05-23T16:38:23.358Z</time>
      </trkpt>
      <trkpt lat="45.50402" lon="5.79991">
        <ele>1253.613647</ele>
        <time>2019-05-23T16:38:28.364Z</time>
      </trkpt>
      <trkpt lat="45.50398" lon="5.79988">
        <ele>1250.913574</ele>
        <time>2019-05-23T16:38:33.364Z</time>
      </trkpt>
      <trkpt lat="45.50396" lon="5.79989">
        <ele>1247.140015</ele>
        <time>2019-05-23T16:38:39.980Z</time>
      </trkpt>
      <trkpt lat="45.50398" lon="5.79987">
        <ele>1248.973511</ele>
        <time>2019-05-23T16:39:10.338Z</time>
      </trkpt>
      <trkpt lat="45.50404" lon="5.79979">
        <ele>1248.084717</ele>
        <time>2019-05-23T16:39:15.374Z</time>
      </trkpt>
      <trkpt lat="45.50409" lon="5.79968">
        <ele>1250.266479</ele>
        <time>2019-05-23T16:39:20.379Z</time>
      </trkpt>
      <trkpt lat="45.50412" lon="5.79965">
        <ele>1250.047729</ele>
        <time>2019-05-23T16:39:29.368Z</time>
      </trkpt>
      <trkpt lat="45.50406" lon="5.79961">
        <ele>1246.130493</ele>
        <time>2019-05-23T16:39:34.368Z</time>
      </trkpt>
      <trkpt lat="45.50399" lon="5.79953">
        <ele>1244.033691</ele>
        <time>2019-05-23T16:39:39.368Z</time>
      </trkpt>
      <trkpt lat="45.50394" lon="5.79944">
        <ele>1243.733398</ele>
        <time>2019-05-23T16:39:45.357Z</time>
      </trkpt>
      <trkpt lat="45.50391" lon="5.79943">
        <ele>1243.328979</ele>
        <time>2019-05-23T16:39:50.357Z</time>
      </trkpt>
      <trkpt lat="45.50393" lon="5.79943">
        <ele>1240.283691</ele>
        <time>2019-05-23T16:39:55.748Z</time>
      </trkpt>
      <trkpt lat="45.50399" lon="5.7994">
        <ele>1234.982056</ele>
        <time>2019-05-23T16:40:00.809Z</time>
      </trkpt>
      <trkpt lat="45.50408" lon="5.79934">
        <ele>1232.623535</ele>
        <time>2019-05-23T16:40:05.878Z</time>
      </trkpt>
      <trkpt lat="45.50411" lon="5.79925">
        <ele>1228.950562</ele>
        <time>2019-05-23T16:40:42.393Z</time>
      </trkpt>
      <trkpt lat="45.50412" lon="5.79926">
        <ele>1228.709473</ele>
        <time>2019-05-23T16:40:48.850Z</time>
      </trkpt>
      <trkpt lat="45.50414" lon="5.79926">
        <ele>1227.596924</ele>
        <time>2019-05-23T16:40:56.378Z</time>
      </trkpt>
      <trkpt lat="45.50414" lon="5.79925">
        <ele>1228.918335</ele>
        <time>2019-05-23T16:41:01.480Z</time>
      </trkpt>
      <trkpt lat="45.50416" lon="5.79921">
        <ele>1229.037964</ele>
        <time>2019-05-23T16:41:06.562Z</time>
      </trkpt>
      <trkpt lat="45.50416" lon="5.79919">
        <ele>1231.474121</ele>
        <time>2019-05-23T16:41:34.479Z</time>
      </trkpt>
      <trkpt lat="45.50415" lon="5.7992">
        <ele>1229.776855</ele>
        <time>2019-05-23T16:41:39.543Z</time>
      </trkpt>
      <trkpt lat="45.50413" lon="5.79919">
        <ele>1228.411865</ele>
        <time>2019-05-23T16:42:16.341Z</time>
      </trkpt>
      <trkpt lat="45.50404" lon="5.7991">
        <ele>1227.241455</ele>
        <time>2019-05-23T16:42:21.341Z</time>
      </trkpt>
      <trkpt lat="45.50392" lon="5.79891">
        <ele>1223.953003</ele>
        <time>2019-05-23T16:42:26.343Z</time>
      </trkpt>
      <trkpt lat="45.50386" lon="5.79881">
        <ele>1219.442993</ele>
        <time>2019-05-23T16:42:31.347Z</time>
      </trkpt>
      <trkpt lat="45.50371" lon="5.79869">
        <ele>1214.148193</ele>
        <time>2019-05-23T16:42:36.358Z</time>
      </trkpt>
      <trkpt lat="45.50353" lon="5.79852">
        <ele>1209.785645</ele>
        <time>2019-05-23T16:42:41.358Z</time>
      </trkpt>
      <trkpt lat="45.50342" lon="5.79842">
        <ele>1209.073242</ele>
        <time>2019-05-23T16:42:46.358Z</time>
      </trkpt>
      <trkpt lat="45.50326" lon="5.79833">
        <ele>1206.399536</ele>
        <time>2019-05-23T16:42:51.358Z</time>
      </trkpt>
      <trkpt lat="45.50316" lon="5.79819">
        <ele>1204.028931</ele>
        <time>2019-05-23T16:42:56.358Z</time>
      </trkpt>
      <trkpt lat="45.50311" lon="5.79816">
        <ele>1196.258545</ele>
        <time>2019-05-23T16:43:01.363Z</time>
      </trkpt>
      <trkpt lat="45.50302" lon="5.7981">
        <ele>1193.561646</ele>
        <time>2019-05-23T16:43:06.363Z</time>
      </trkpt>
      <trkpt lat="45.50294" lon="5.79809">
        <ele>1192.364258</ele>
        <time>2019-05-23T16:43:11.363Z</time>
      </trkpt>
      <trkpt lat="45.50291" lon="5.79806">
        <ele>1190.186279</ele>
        <time>2019-05-23T16:43:16.363Z</time>
      </trkpt>
      <trkpt lat="45.50285" lon="5.79807">
        <ele>1189.434082</ele>
        <time>2019-05-23T16:43:21.364Z</time>
      </trkpt>
      <trkpt lat="45.50279" lon="5.79801">
        <ele>1188.763916</ele>
        <time>2019-05-23T16:43:26.374Z</time>
      </trkpt>
      <trkpt lat="45.50271" lon="5.7979">
        <ele>1186.529785</ele>
        <time>2019-05-23T16:43:31.374Z</time>
      </trkpt>
      <trkpt lat="45.5026" lon="5.79781">
        <ele>1180.276489</ele>
        <time>2019-05-23T16:43:36.374Z</time>
      </trkpt>
      <trkpt lat="45.50249" lon="5.79772">
        <ele>1171.35022</ele>
        <time>2019-05-23T16:43:41.374Z</time>
      </trkpt>
      <trkpt lat="45.50243" lon="5.79764">
        <ele>1171.770264</ele>
        <time>2019-05-23T16:43:46.374Z</time>
      </trkpt>
      <trkpt lat="45.50235" lon="5.79759">
        <ele>1166.0354</ele>
        <time>2019-05-23T16:43:51.374Z</time>
      </trkpt>
      <trkpt lat="45.50223" lon="5.79754">
        <ele>1161.731201</ele>
        <time>2019-05-23T16:43:56.374Z</time>
      </trkpt>
      <trkpt lat="45.50212" lon="5.79743">
        <ele>1158.927124</ele>
        <time>2019-05-23T16:44:01.374Z</time>
      </trkpt>
      <trkpt lat="45.50201" lon="5.79738">
        <ele>1158.163574</ele>
        <time>2019-05-23T16:44:06.380Z</time>
      </trkpt>
      <trkpt lat="45.50189" lon="5.79734">
        <ele>1155.115356</ele>
        <time>2019-05-23T16:44:11.380Z</time>
      </trkpt>
      <trkpt lat="45.50185" lon="5.79721">
        <ele>1150.159668</ele>
        <time>2019-05-23T16:44:16.380Z</time>
      </trkpt>
      <trkpt lat="45.50197" lon="5.79712">
        <ele>1148.026245</ele>
        <time>2019-05-23T16:44:21.380Z</time>
      </trkpt>
      <trkpt lat="45.50223" lon="5.79699">
        <ele>1144.818848</ele>
        <time>2019-05-23T16:44:26.380Z</time>
      </trkpt>
      <trkpt lat="45.50241" lon="5.79691">
        <ele>1144.140991</ele>
        <time>2019-05-23T16:44:31.380Z</time>
      </trkpt>
      <trkpt lat="45.50253" lon="5.79688">
        <ele>1143.458374</ele>
        <time>2019-05-23T16:44:36.380Z</time>
      </trkpt>
      <trkpt lat="45.50264" lon="5.79686">
        <ele>1143.203247</ele>
        <time>2019-05-23T16:44:41.380Z</time>
      </trkpt>
      <trkpt lat="45.50282" lon="5.79678">
        <ele>1134.995972</ele>
        <time>2019-05-23T16:44:46.380Z</time>
      </trkpt>
      <trkpt lat="45.50305" lon="5.79669">
        <ele>1136.141724</ele>
        <time>2019-05-23T16:44:51.380Z</time>
      </trkpt>
      <trkpt lat="45.50316" lon="5.79668">
        <ele>1128.98291</ele>
        <time>2019-05-23T16:45:09.676Z</time>
      </trkpt>
      <trkpt lat="45.50317" lon="5.79667">
        <ele>1128.981079</ele>
        <time>2019-05-23T16:45:14.706Z</time>
      </trkpt>
      <trkpt lat="45.50316" lon="5.79664">
        <ele>1128.319702</ele>
        <time>2019-05-23T16:45:19.737Z</time>
      </trkpt>
      <trkpt lat="45.50312" lon="5.79661">
        <ele>1125.460938</ele>
        <time>2019-05-23T16:45:24.797Z</time>
      </trkpt>
      <trkpt lat="45.50314" lon="5.79658">
        <ele>1122.571533</ele>
        <time>2019-05-23T16:45:36.343Z</time>
      </trkpt>
      <trkpt lat="45.50322" lon="5.79646">
        <ele>1120.090454</ele>
        <time>2019-05-23T16:45:41.351Z</time>
      </trkpt>
      <trkpt lat="45.50334" lon="5.7965">
        <ele>1118.015259</ele>
        <time>2019-05-23T16:45:46.358Z</time>
      </trkpt>
      <trkpt lat="45.5034" lon="5.7965">
        <ele>1116.67041</ele>
        <time>2019-05-23T16:45:51.358Z</time>
      </trkpt>
      <trkpt lat="45.50348" lon="5.79649">
        <ele>1114.880493</ele>
        <time>2019-05-23T16:46:00.338Z</time>
      </trkpt>
      <trkpt lat="45.50349" lon="5.79649">
        <ele>1115.408813</ele>
        <time>2019-05-23T16:46:07.348Z</time>
      </trkpt>
      <trkpt lat="45.50351" lon="5.79647">
        <ele>1111.892456</ele>
        <time>2019-05-23T16:46:14.363Z</time>
      </trkpt>
      <trkpt lat="45.50354" lon="5.79649">
        <ele>1110.02478</ele>
        <time>2019-05-23T16:46:19.363Z</time>
      </trkpt>
      <trkpt lat="45.50352" lon="5.79653">
        <ele>1110.099854</ele>
        <time>2019-05-23T16:46:24.395Z</time>
      </trkpt>
      <trkpt lat="45.50354" lon="5.79653">
        <ele>1109.01709</ele>
        <time>2019-05-23T16:46:32.371Z</time>
      </trkpt>
      <trkpt lat="45.50355" lon="5.79652">
        <ele>1107.662598</ele>
        <time>2019-05-23T16:46:46.360Z</time>
      </trkpt>
      <trkpt lat="45.50358" lon="5.79652">
        <ele>1105.761475</ele>
        <time>2019-05-23T16:46:51.360Z</time>
      </trkpt>
      <trkpt lat="45.50362" lon="5.79654">
        <ele>1103.598267</ele>
        <time>2019-05-23T16:46:57.369Z</time>
      </trkpt>
      <trkpt lat="45.50363" lon="5.79653">
        <ele>1103.792725</ele>
        <time>2019-05-23T16:47:03.366Z</time>
      </trkpt>
      <trkpt lat="45.50367" lon="5.79656">
        <ele>1103.958252</ele>
        <time>2019-05-23T16:47:16.345Z</time>
      </trkpt>
      <trkpt lat="45.50369" lon="5.79655">
        <ele>1101.894653</ele>
        <time>2019-05-23T16:47:23.767Z</time>
      </trkpt>
      <trkpt lat="45.5037" lon="5.79655">
        <ele>1100.696777</ele>
        <time>2019-05-23T16:47:28.779Z</time>
      </trkpt>
      <trkpt lat="45.50371" lon="5.79656">
        <ele>1099.895508</ele>
        <time>2019-05-23T16:47:38.341Z</time>
      </trkpt>
      <trkpt lat="45.50378" lon="5.79658">
        <ele>1100.140015</ele>
        <time>2019-05-23T16:47:43.341Z</time>
      </trkpt>
      <trkpt lat="45.50381" lon="5.79653">
        <ele>1100.098511</ele>
        <time>2019-05-23T16:47:48.997Z</time>
      </trkpt>
      <trkpt lat="45.50382" lon="5.79655">
        <ele>1099.390381</ele>
        <time>2019-05-23T16:48:01.339Z</time>
      </trkpt>
      <trkpt lat="45.50382" lon="5.79661">
        <ele>1097.756836</ele>
        <time>2019-05-23T16:48:06.886Z</time>
      </trkpt>
      <trkpt lat="45.50384" lon="5.79658">
        <ele>1093.319946</ele>
        <time>2019-05-23T16:48:13.338Z</time>
      </trkpt>
      <trkpt lat="45.50386" lon="5.79657">
        <ele>1095.269287</ele>
        <time>2019-05-23T16:48:21.341Z</time>
      </trkpt>
      <trkpt lat="45.5039" lon="5.79657">
        <ele>1095.679565</ele>
        <time>2019-05-23T16:48:26.342Z</time>
      </trkpt>
      <trkpt lat="45.50391" lon="5.7966">
        <ele>1095.668457</ele>
        <time>2019-05-23T16:48:32.205Z</time>
      </trkpt>
      <trkpt lat="45.50392" lon="5.7966">
        <ele>1093.499634</ele>
        <time>2019-05-23T16:48:37.216Z</time>
      </trkpt>
      <trkpt lat="45.50394" lon="5.79658">
        <ele>1091.663086</ele>
        <time>2019-05-23T16:48:42.342Z</time>
      </trkpt>
      <trkpt lat="45.50398" lon="5.79657">
        <ele>1088.143799</ele>
        <time>2019-05-23T16:48:47.358Z</time>
      </trkpt>
      <trkpt lat="45.504" lon="5.79655">
        <ele>1088.514771</ele>
        <time>2019-05-23T16:48:52.358Z</time>
      </trkpt>
      <trkpt lat="45.50401" lon="5.79655">
        <ele>1088.599243</ele>
        <time>2019-05-23T16:49:06.350Z</time>
      </trkpt>
      <trkpt lat="45.50403" lon="5.79654">
        <ele>1088.665771</ele>
        <time>2019-05-23T16:49:12.351Z</time>
      </trkpt>
      <trkpt lat="45.504" lon="5.7965">
        <ele>1084.44519</ele>
        <time>2019-05-23T16:49:17.352Z</time>
      </trkpt>
      <trkpt lat="45.50401" lon="5.79647">
        <ele>1084.914307</ele>
        <time>2019-05-23T16:49:22.996Z</time>
      </trkpt>
      <trkpt lat="45.50404" lon="5.79645">
        <ele>1082.700562</ele>
        <time>2019-05-23T16:49:30.361Z</time>
      </trkpt>
      <trkpt lat="45.50403" lon="5.79643">
        <ele>1080.950073</ele>
        <time>2019-05-23T16:49:35.624Z</time>
      </trkpt>
      <trkpt lat="45.50401" lon="5.7964">
        <ele>1080.313721</ele>
        <time>2019-05-23T16:49:44.377Z</time>
      </trkpt>
      <trkpt lat="45.504" lon="5.79633">
        <ele>1081.763672</ele>
        <time>2019-05-23T16:49:51.378Z</time>
      </trkpt>
      <trkpt lat="45.50404" lon="5.79634">
        <ele>1081.09375</ele>
        <time>2019-05-23T16:49:56.378Z</time>
      </trkpt>
      <trkpt lat="45.50409" lon="5.79638">
        <ele>1078.72229</ele>
        <time>2019-05-23T16:50:02.357Z</time>
      </trkpt>
      <trkpt lat="45.5041" lon="5.79639">
        <ele>1081.065674</ele>
        <time>2019-05-23T16:50:08.349Z</time>
      </trkpt>
      <trkpt lat="45.50416" lon="5.79642">
        <ele>1080.641724</ele>
        <time>2019-05-23T16:50:13.355Z</time>
      </trkpt>
      <trkpt lat="45.5042" lon="5.79645">
        <ele>1078.323608</ele>
        <time>2019-05-23T16:50:25.377Z</time>
      </trkpt>
      <trkpt lat="45.50422" lon="5.79645">
        <ele>1077.605835</ele>
        <time>2019-05-23T16:50:31.379Z</time>
      </trkpt>
      <trkpt lat="45.50427" lon="5.79642">
        <ele>1074.937134</ele>
        <time>2019-05-23T16:50:36.379Z</time>
      </trkpt>
      <trkpt lat="45.50429" lon="5.79638">
        <ele>1074.200928</ele>
        <time>2019-05-23T16:50:41.379Z</time>
      </trkpt>
      <trkpt lat="45.50431" lon="5.79639">
        <ele>1074.481934</ele>
        <time>2019-05-23T16:50:50.367Z</time>
      </trkpt>
      <trkpt lat="45.50436" lon="5.79639">
        <ele>1069.835449</ele>
        <time>2019-05-23T16:50:56.697Z</time>
      </trkpt>
      <trkpt lat="45.50437" lon="5.79641">
        <ele>1070.168213</ele>
        <time>2019-05-23T16:51:04.345Z</time>
      </trkpt>
      <trkpt lat="45.50441" lon="5.79644">
        <ele>1070.762329</ele>
        <time>2019-05-23T16:51:09.345Z</time>
      </trkpt>
      <trkpt lat="45.50447" lon="5.79645">
        <ele>1068.325195</ele>
        <time>2019-05-23T16:51:14.346Z</time>
      </trkpt>
      <trkpt lat="45.50457" lon="5.79645">
        <ele>1069.644409</ele>
        <time>2019-05-23T16:51:19.352Z</time>
      </trkpt>
      <trkpt lat="45.50458" lon="5.79646">
        <ele>1068.450806</ele>
        <time>2019-05-23T16:51:25.367Z</time>
      </trkpt>
      <trkpt lat="45.50457" lon="5.79643">
        <ele>1066.637817</ele>
        <time>2019-05-23T16:51:33.354Z</time>
      </trkpt>
      <trkpt lat="45.50452" lon="5.79633">
        <ele>1060.387695</ele>
        <time>2019-05-23T16:51:38.355Z</time>
      </trkpt>
      <trkpt lat="45.50445" lon="5.79625">
        <ele>1056.985596</ele>
        <time>2019-05-23T16:51:43.355Z</time>
      </trkpt>
      <trkpt lat="45.50441" lon="5.79611">
        <ele>1052.893921</ele>
        <time>2019-05-23T16:51:48.355Z</time>
      </trkpt>
      <trkpt lat="45.50434" lon="5.79598">
        <ele>1052.209229</ele>
        <time>2019-05-23T16:51:53.356Z</time>
      </trkpt>
      <trkpt lat="45.50427" lon="5.79583">
        <ele>1051.340576</ele>
        <time>2019-05-23T16:51:58.356Z</time>
      </trkpt>
      <trkpt lat="45.50421" lon="5.79565">
        <ele>1050.692139</ele>
        <time>2019-05-23T16:52:03.356Z</time>
      </trkpt>
      <trkpt lat="45.50417" lon="5.79557">
        <ele>1051.033936</ele>
        <time>2019-05-23T16:52:11.345Z</time>
      </trkpt>
      <trkpt lat="45.50418" lon="5.79555">
        <ele>1050.816772</ele>
        <time>2019-05-23T16:52:16.371Z</time>
      </trkpt>
      <trkpt lat="45.50413" lon="5.79559">
        <ele>1049.498779</ele>
        <time>2019-05-23T16:52:48.116Z</time>
      </trkpt>
      <trkpt lat="45.50414" lon="5.79561">
        <ele>1046.348755</ele>
        <time>2019-05-23T16:53:07.347Z</time>
      </trkpt>
      <trkpt lat="45.50422" lon="5.79558">
        <ele>1044.532471</ele>
        <time>2019-05-23T16:53:12.347Z</time>
      </trkpt>
      <trkpt lat="45.50433" lon="5.79555">
        <ele>1043.135864</ele>
        <time>2019-05-23T16:53:17.353Z</time>
      </trkpt>
      <trkpt lat="45.50443" lon="5.79548">
        <ele>1040.69043</ele>
        <time>2019-05-23T16:53:22.355Z</time>
      </trkpt>
      <trkpt lat="45.50456" lon="5.79544">
        <ele>1037.457397</ele>
        <time>2019-05-23T16:53:27.355Z</time>
      </trkpt>
      <trkpt lat="45.50462" lon="5.79543">
        <ele>1033.028198</ele>
        <time>2019-05-23T16:53:35.345Z</time>
      </trkpt>
      <trkpt lat="45.50463" lon="5.79541">
        <ele>1031.775391</ele>
        <time>2019-05-23T16:53:40.348Z</time>
      </trkpt>
      <trkpt lat="45.50468" lon="5.79534">
        <ele>1030.186646</ele>
        <time>2019-05-23T16:53:45.351Z</time>
      </trkpt>
      <trkpt lat="45.50474" lon="5.79537">
        <ele>1026.448364</ele>
        <time>2019-05-23T16:53:50.352Z</time>
      </trkpt>
      <trkpt lat="45.50476" lon="5.79536">
        <ele>1026.408813</ele>
        <time>2019-05-23T16:53:57.344Z</time>
      </trkpt>
      <trkpt lat="45.50486" lon="5.79528">
        <ele>1023.10376</ele>
        <time>2019-05-23T16:54:02.350Z</time>
      </trkpt>
      <trkpt lat="45.50505" lon="5.7952">
        <ele>1015.725098</ele>
        <time>2019-05-23T16:54:07.350Z</time>
      </trkpt>
      <trkpt lat="45.50524" lon="5.79523">
        <ele>1016.833618</ele>
        <time>2019-05-23T16:54:12.350Z</time>
      </trkpt>
      <trkpt lat="45.50543" lon="5.79531">
        <ele>1016.219482</ele>
        <time>2019-05-23T16:54:17.351Z</time>
      </trkpt>
      <trkpt lat="45.50554" lon="5.79533">
        <ele>1016.245728</ele>
        <time>2019-05-23T16:54:30.362Z</time>
      </trkpt>
      <trkpt lat="45.50557" lon="5.79532">
        <ele>1014.642334</ele>
        <time>2019-05-23T16:55:27.544Z</time>
      </trkpt>
      <trkpt lat="45.50557" lon="5.79534">
        <ele>1014.838013</ele>
        <time>2019-05-23T16:55:32.574Z</time>
      </trkpt>
      <trkpt lat="45.50567" lon="5.79533">
        <ele>1014.59082</ele>
        <time>2019-05-23T16:55:37.607Z</time>
      </trkpt>
      <trkpt lat="45.50573" lon="5.79518">
        <ele>1013.218506</ele>
        <time>2019-05-23T16:55:42.641Z</time>
      </trkpt>
      <trkpt lat="45.50579" lon="5.79512">
        <ele>1005.23584</ele>
        <time>2019-05-23T16:55:47.857Z</time>
      </trkpt>
      <trkpt lat="45.50589" lon="5.79514">
        <ele>1007.0271</ele>
        <time>2019-05-23T16:56:33.345Z</time>
      </trkpt>
      <trkpt lat="45.5059" lon="5.79514">
        <ele>1006.328125</ele>
        <time>2019-05-23T16:57:06.343Z</time>
      </trkpt>
      <trkpt lat="45.50591" lon="5.79513">
        <ele>1005.802002</ele>
        <time>2019-05-23T16:57:29.339Z</time>
      </trkpt>
      <trkpt lat="45.50593" lon="5.79513">
        <ele>1005.376709</ele>
        <time>2019-05-23T16:57:41.336Z</time>
      </trkpt>
      <trkpt lat="45.50591" lon="5.79515">
        <ele>1006.685913</ele>
        <time>2019-05-23T16:58:12.355Z</time>
      </trkpt>
      <trkpt lat="45.50588" lon="5.79516">
        <ele>1004.645752</ele>
        <time>2019-05-23T16:58:18.384Z</time>
      </trkpt>
      <trkpt lat="45.50589" lon="5.79514">
        <ele>1003.917847</ele>
        <time>2019-05-23T16:58:36.952Z</time>
      </trkpt>
      <trkpt lat="45.50583" lon="5.79512">
        <ele>1002.868652</ele>
        <time>2019-05-23T16:58:41.964Z</time>
      </trkpt>
      <trkpt lat="45.50576" lon="5.7951">
        <ele>1003.166504</ele>
        <time>2019-05-23T16:58:47.038Z</time>
      </trkpt>
      <trkpt lat="45.50568" lon="5.79506">
        <ele>1004.685303</ele>
        <time>2019-05-23T16:58:52.072Z</time>
      </trkpt>
      <trkpt lat="45.50558" lon="5.79505">
        <ele>1005.609375</ele>
        <time>2019-05-23T16:58:57.097Z</time>
      </trkpt>
      <trkpt lat="45.5055" lon="5.79501">
        <ele>1004.744141</ele>
        <time>2019-05-23T16:59:02.171Z</time>
      </trkpt>
      <trkpt lat="45.5054" lon="5.79497">
        <ele>1005.665771</ele>
        <time>2019-05-23T16:59:07.236Z</time>
      </trkpt>
      <trkpt lat="45.5053" lon="5.79491">
        <ele>1004.284912</ele>
        <time>2019-05-23T16:59:12.301Z</time>
      </trkpt>
      <trkpt lat="45.50519" lon="5.79486">
        <ele>1006.40332</ele>
        <time>2019-05-23T16:59:17.327Z</time>
      </trkpt>
      <trkpt lat="45.5051" lon="5.79482">
        <ele>1006.311035</ele>
        <time>2019-05-23T16:59:22.377Z</time>
      </trkpt>
      <trkpt lat="45.50499" lon="5.79477">
        <ele>1007.73584</ele>
        <time>2019-05-23T16:59:27.377Z</time>
      </trkpt>
      <trkpt lat="45.5049" lon="5.79472">
        <ele>1006.5271</ele>
        <time>2019-05-23T16:59:32.377Z</time>
      </trkpt>
      <trkpt lat="45.5048" lon="5.79465">
        <ele>1005.917725</ele>
        <time>2019-05-23T16:59:37.377Z</time>
      </trkpt>
      <trkpt lat="45.50471" lon="5.7946">
        <ele>1007.519531</ele>
        <time>2019-05-23T16:59:42.377Z</time>
      </trkpt>
      <trkpt lat="45.50461" lon="5.79456">
        <ele>1010.321533</ele>
        <time>2019-05-23T16:59:47.377Z</time>
      </trkpt>
      <trkpt lat="45.50453" lon="5.79451">
        <ele>1012.765625</ele>
        <time>2019-05-23T16:59:52.377Z</time>
      </trkpt>
      <trkpt lat="45.50443" lon="5.79451">
        <ele>1012.559814</ele>
        <time>2019-05-23T16:59:57.377Z</time>
      </trkpt>
      <trkpt lat="45.50428" lon="5.79455">
        <ele>1009.276855</ele>
        <time>2019-05-23T17:00:02.377Z</time>
      </trkpt>
      <trkpt lat="45.50407" lon="5.79467">
        <ele>1006.164185</ele>
        <time>2019-05-23T17:00:07.377Z</time>
      </trkpt>
      <trkpt lat="45.50382" lon="5.79478">
        <ele>1004.814941</ele>
        <time>2019-05-23T17:00:12.377Z</time>
      </trkpt>
      <trkpt lat="45.5035" lon="5.79473">
        <ele>1005.129517</ele>
        <time>2019-05-23T17:00:17.377Z</time>
      </trkpt>
      <trkpt lat="45.50317" lon="5.79453">
        <ele>1003.722412</ele>
        <time>2019-05-23T17:00:22.377Z</time>
      </trkpt>
      <trkpt lat="45.50283" lon="5.79435">
        <ele>1002.062622</ele>
        <time>2019-05-23T17:00:27.377Z</time>
      </trkpt>
      <trkpt lat="45.50243" lon="5.79434">
        <ele>1000.154785</ele>
        <time>2019-05-23T17:00:32.377Z</time>
      </trkpt>
      <trkpt lat="45.50204" lon="5.79435">
        <ele>996.343384</ele>
        <time>2019-05-23T17:00:37.382Z</time>
      </trkpt>
      <trkpt lat="45.50166" lon="5.79442">
        <ele>990.937012</ele>
        <time>2019-05-23T17:00:42.382Z</time>
      </trkpt>
      <trkpt lat="45.50135" lon="5.79457">
        <ele>986.429199</ele>
        <time>2019-05-23T17:00:47.382Z</time>
      </trkpt>
      <trkpt lat="45.50096" lon="5.79462">
        <ele>982.80188</ele>
        <time>2019-05-23T17:00:52.382Z</time>
      </trkpt>
      <trkpt lat="45.50056" lon="5.79457">
        <ele>975.949463</ele>
        <time>2019-05-23T17:00:57.382Z</time>
      </trkpt>
      <trkpt lat="45.50018" lon="5.79452">
        <ele>970.35437</ele>
        <time>2019-05-23T17:01:02.382Z</time>
      </trkpt>
      <trkpt lat="45.49999" lon="5.79422">
        <ele>967.610352</ele>
        <time>2019-05-23T17:01:07.382Z</time>
      </trkpt>
      <trkpt lat="45.49998" lon="5.79365">
        <ele>964.962646</ele>
        <time>2019-05-23T17:01:12.382Z</time>
      </trkpt>
      <trkpt lat="45.49996" lon="5.79316">
        <ele>963.799805</ele>
        <time>2019-05-23T17:01:17.382Z</time>
      </trkpt>
      <trkpt lat="45.49971" lon="5.79319">
        <ele>958.718018</ele>
        <time>2019-05-23T17:01:22.382Z</time>
      </trkpt>
      <trkpt lat="45.49952" lon="5.79354">
        <ele>954.860107</ele>
        <time>2019-05-23T17:01:27.382Z</time>
      </trkpt>
      <trkpt lat="45.49937" lon="5.79397">
        <ele>944.912231</ele>
        <time>2019-05-23T17:01:32.382Z</time>
      </trkpt>
      <trkpt lat="45.49907" lon="5.79406">
        <ele>947.435181</ele>
        <time>2019-05-23T17:01:37.382Z</time>
      </trkpt>
      <trkpt lat="45.49885" lon="5.79375">
        <ele>941.676514</ele>
        <time>2019-05-23T17:01:42.382Z</time>
      </trkpt>
      <trkpt lat="45.4986" lon="5.79335">
        <ele>936.850342</ele>
        <time>2019-05-23T17:01:47.382Z</time>
      </trkpt>
      <trkpt lat="45.49837" lon="5.79326">
        <ele>934.080322</ele>
        <time>2019-05-23T17:01:52.382Z</time>
      </trkpt>
      <trkpt lat="45.49815" lon="5.79302">
        <ele>933.462891</ele>
        <time>2019-05-23T17:01:57.382Z</time>
      </trkpt>
      <trkpt lat="45.49806" lon="5.79253">
        <ele>927.325684</ele>
        <time>2019-05-23T17:02:02.382Z</time>
      </trkpt>
      <trkpt lat="45.49792" lon="5.79201">
        <ele>927.118896</ele>
        <time>2019-05-23T17:02:07.382Z</time>
      </trkpt>
      <trkpt lat="45.49779" lon="5.79154">
        <ele>924.145264</ele>
        <time>2019-05-23T17:02:12.382Z</time>
      </trkpt>
      <trkpt lat="45.49758" lon="5.79171">
        <ele>917.548218</ele>
        <time>2019-05-23T17:02:17.382Z</time>
      </trkpt>
      <trkpt lat="45.49734" lon="5.79202">
        <ele>914.021729</ele>
        <time>2019-05-23T17:02:22.382Z</time>
      </trkpt>
      <trkpt lat="45.49706" lon="5.79222">
        <ele>911.331543</ele>
        <time>2019-05-23T17:02:27.382Z</time>
      </trkpt>
      <trkpt lat="45.49671" lon="5.79197">
        <ele>908.381714</ele>
        <time>2019-05-23T17:02:32.382Z</time>
      </trkpt>
      <trkpt lat="45.49633" lon="5.79175">
        <ele>905.493896</ele>
        <time>2019-05-23T17:02:37.382Z</time>
      </trkpt>
      <trkpt lat="45.49609" lon="5.79125">
        <ele>908.174561</ele>
        <time>2019-05-23T17:02:42.382Z</time>
      </trkpt>
      <trkpt lat="45.49591" lon="5.79084">
        <ele>908.282593</ele>
        <time>2019-05-23T17:02:47.382Z</time>
      </trkpt>
      <trkpt lat="45.49573" lon="5.79062">
        <ele>912.92749</ele>
        <time>2019-05-23T17:02:52.382Z</time>
      </trkpt>
      <trkpt lat="45.49567" lon="5.79046">
        <ele>911.362183</ele>
        <time>2019-05-23T17:02:57.382Z</time>
      </trkpt>
      <trkpt lat="45.49569" lon="5.79032">
        <ele>908.31958</ele>
        <time>2019-05-23T17:03:02.382Z</time>
      </trkpt>
      <trkpt lat="45.49562" lon="5.79017">
        <ele>911.71582</ele>
        <time>2019-05-23T17:03:07.382Z</time>
      </trkpt>
      <trkpt lat="45.49557" lon="5.79003">
        <ele>915.645508</ele>
        <time>2019-05-23T17:03:12.382Z</time>
      </trkpt>
      <trkpt lat="45.49561" lon="5.78989">
        <ele>916.428711</ele>
        <time>2019-05-23T17:03:17.382Z</time>
      </trkpt>
      <trkpt lat="45.49567" lon="5.78977">
        <ele>916.481079</ele>
        <time>2019-05-23T17:03:22.382Z</time>
      </trkpt>
      <trkpt lat="45.49567" lon="5.78964">
        <ele>918.193604</ele>
        <time>2019-05-23T17:03:27.382Z</time>
      </trkpt>
      <trkpt lat="45.49554" lon="5.78957">
        <ele>916.341553</ele>
        <time>2019-05-23T17:03:32.382Z</time>
      </trkpt>
      <trkpt lat="45.49542" lon="5.78956">
        <ele>917.035645</ele>
        <time>2019-05-23T17:03:37.382Z</time>
      </trkpt>
      <trkpt lat="45.49535" lon="5.78951">
        <ele>920.875122</ele>
        <time>2019-05-23T17:03:42.382Z</time>
      </trkpt>
      <trkpt lat="45.49525" lon="5.78949">
        <ele>920.829346</ele>
        <time>2019-05-23T17:03:47.382Z</time>
      </trkpt>
      <trkpt lat="45.49512" lon="5.78953">
        <ele>920.582886</ele>
        <time>2019-05-23T17:03:52.382Z</time>
      </trkpt>
      <trkpt lat="45.49502" lon="5.78964">
        <ele>917.938965</ele>
        <time>2019-05-23T17:03:57.382Z</time>
      </trkpt>
      <trkpt lat="45.49493" lon="5.78972">
        <ele>918.583252</ele>
        <time>2019-05-23T17:04:02.382Z</time>
      </trkpt>
      <trkpt lat="45.49485" lon="5.78977">
        <ele>918.771484</ele>
        <time>2019-05-23T17:04:07.382Z</time>
      </trkpt>
      <trkpt lat="45.49475" lon="5.7898">
        <ele>919.460815</ele>
        <time>2019-05-23T17:04:12.382Z</time>
      </trkpt>
      <trkpt lat="45.49468" lon="5.78984">
        <ele>920.492676</ele>
        <time>2019-05-23T17:04:17.382Z</time>
      </trkpt>
      <trkpt lat="45.49463" lon="5.78992">
        <ele>923.188477</ele>
        <time>2019-05-23T17:04:22.382Z</time>
      </trkpt>
      <trkpt lat="45.49462" lon="5.79006">
        <ele>921.123779</ele>
        <time>2019-05-23T17:04:27.382Z</time>
      </trkpt>
      <trkpt lat="45.49464" lon="5.79034">
        <ele>918.301758</ele>
        <time>2019-05-23T17:04:32.392Z</time>
      </trkpt>
      <trkpt lat="45.49453" lon="5.79056">
        <ele>918.435059</ele>
        <time>2019-05-23T17:04:37.392Z</time>
      </trkpt>
      <trkpt lat="45.49426" lon="5.79053">
        <ele>923.634766</ele>
        <time>2019-05-23T17:04:42.392Z</time>
      </trkpt>
      <trkpt lat="45.49407" lon="5.79064">
        <ele>922.638184</ele>
        <time>2019-05-23T17:04:47.392Z</time>
      </trkpt>
      <trkpt lat="45.49391" lon="5.79073">
        <ele>923.220947</ele>
        <time>2019-05-23T17:06:00.345Z</time>
      </trkpt>
      <trkpt lat="45.49384" lon="5.79077">
        <ele>922.563477</ele>
        <time>2019-05-23T17:06:05.346Z</time>
      </trkpt>
      <trkpt lat="45.49367" lon="5.79076">
        <ele>917.370117</ele>
        <time>2019-05-23T17:06:10.358Z</time>
      </trkpt>
      <trkpt lat="45.49344" lon="5.79074">
        <ele>911.861084</ele>
        <time>2019-05-23T17:06:15.358Z</time>
      </trkpt>
      <trkpt lat="45.49339" lon="5.79069">
        <ele>899.885986</ele>
        <time>2019-05-23T17:06:40.364Z</time>
      </trkpt>
      <trkpt lat="45.49337" lon="5.79073">
        <ele>898.544434</ele>
        <time>2019-05-23T17:06:45.364Z</time>
      </trkpt>
      <trkpt lat="45.49325" lon="5.79077">
        <ele>895.690674</ele>
        <time>2019-05-23T17:06:50.364Z</time>
      </trkpt>
      <trkpt lat="45.49318" lon="5.79083">
        <ele>899.020752</ele>
        <time>2019-05-23T17:06:55.364Z</time>
      </trkpt>
      <trkpt lat="45.49314" lon="5.79086">
        <ele>898.789917</ele>
        <time>2019-05-23T17:07:00.793Z</time>
      </trkpt>
      <trkpt lat="45.49313" lon="5.79084">
        <ele>898.244629</ele>
        <time>2019-05-23T17:07:07.366Z</time>
      </trkpt>
      <trkpt lat="45.49311" lon="5.79085">
        <ele>899.8396</ele>
        <time>2019-05-23T17:07:12.366Z</time>
      </trkpt>
      <trkpt lat="45.49303" lon="5.79088">
        <ele>902.487305</ele>
        <time>2019-05-23T17:07:18.355Z</time>
      </trkpt>
      <trkpt lat="45.49293" lon="5.79084">
        <ele>907.632202</ele>
        <time>2019-05-23T17:07:23.360Z</time>
      </trkpt>
      <trkpt lat="45.4929" lon="5.79072">
        <ele>909.160645</ele>
        <time>2019-05-23T17:07:28.361Z</time>
      </trkpt>
      <trkpt lat="45.49291" lon="5.79063">
        <ele>910.144531</ele>
        <time>2019-05-23T17:07:36.152Z</time>
      </trkpt>
      <trkpt lat="45.49293" lon="5.7906">
        <ele>910.428955</ele>
        <time>2019-05-23T17:07:41.170Z</time>
      </trkpt>
      <trkpt lat="45.49292" lon="5.79052">
        <ele>912.427368</ele>
        <time>2019-05-23T17:07:46.249Z</time>
      </trkpt>
      <trkpt lat="45.49293" lon="5.79043">
        <ele>911.990234</ele>
        <time>2019-05-23T17:07:51.290Z</time>
      </trkpt>
      <trkpt lat="45.49294" lon="5.79035">
        <ele>912.170776</ele>
        <time>2019-05-23T17:07:56.334Z</time>
      </trkpt>
      <trkpt lat="45.49292" lon="5.79031">
        <ele>915.237915</ele>
        <time>2019-05-23T17:08:01.338Z</time>
      </trkpt>
      <trkpt lat="45.49285" lon="5.79026">
        <ele>913.517944</ele>
        <time>2019-05-23T17:08:06.363Z</time>
      </trkpt>
      <trkpt lat="45.49283" lon="5.79019">
        <ele>910.811401</ele>
        <time>2019-05-23T17:08:11.363Z</time>
      </trkpt>
      <trkpt lat="45.49282" lon="5.79016">
        <ele>915.19104</ele>
        <time>2019-05-23T17:08:16.363Z</time>
      </trkpt>
      <trkpt lat="45.49281" lon="5.79006">
        <ele>913.000977</ele>
        <time>2019-05-23T17:08:21.363Z</time>
      </trkpt>
      <trkpt lat="45.49278" lon="5.78997">
        <ele>913.159668</ele>
        <time>2019-05-23T17:08:26.363Z</time>
      </trkpt>
      <trkpt lat="45.49274" lon="5.78986">
        <ele>914.707764</ele>
        <time>2019-05-23T17:08:31.363Z</time>
      </trkpt>
      <trkpt lat="45.49266" lon="5.78975">
        <ele>916.204346</ele>
        <time>2019-05-23T17:08:36.363Z</time>
      </trkpt>
      <trkpt lat="45.49262" lon="5.78959">
        <ele>916.628174</ele>
        <time>2019-05-23T17:08:41.363Z</time>
      </trkpt>
      <trkpt lat="45.49259" lon="5.78945">
        <ele>916.944946</ele>
        <time>2019-05-23T17:08:46.363Z</time>
      </trkpt>
      <trkpt lat="45.49258" lon="5.78941">
        <ele>918.615967</ele>
        <time>2019-05-23T17:08:55.341Z</time>
      </trkpt>
      <trkpt lat="45.49254" lon="5.78935">
        <ele>917.292603</ele>
        <time>2019-05-23T17:09:00.366Z</time>
      </trkpt>
      <trkpt lat="45.49257" lon="5.78934">
        <ele>916.145996</ele>
        <time>2019-05-23T17:09:21.342Z</time>
      </trkpt>
      <trkpt lat="45.49254" lon="5.78931">
        <ele>913.803467</ele>
        <time>2019-05-23T17:10:12.366Z</time>
      </trkpt>
      <trkpt lat="45.49247" lon="5.78925">
        <ele>913.996216</ele>
        <time>2019-05-23T17:10:17.366Z</time>
      </trkpt>
      <trkpt lat="45.49239" lon="5.78916">
        <ele>908.670654</ele>
        <time>2019-05-23T17:10:22.366Z</time>
      </trkpt>
      <trkpt lat="45.49219" lon="5.78901">
        <ele>902.493286</ele>
        <time>2019-05-23T17:10:27.366Z</time>
      </trkpt>
      <trkpt lat="45.49194" lon="5.78882">
        <ele>903.324219</ele>
        <time>2019-05-23T17:10:32.393Z</time>
      </trkpt>
      <trkpt lat="45.49175" lon="5.78862">
        <ele>906.617432</ele>
        <time>2019-05-23T17:10:37.394Z</time>
      </trkpt>
      <trkpt lat="45.49166" lon="5.78853">
        <ele>908.945068</ele>
        <time>2019-05-23T17:10:42.394Z</time>
      </trkpt>
      <trkpt lat="45.49159" lon="5.78843">
        <ele>908.436035</ele>
        <time>2019-05-23T17:10:47.394Z</time>
      </trkpt>
      <trkpt lat="45.49156" lon="5.78833">
        <ele>909.240723</ele>
        <time>2019-05-23T17:10:52.394Z</time>
      </trkpt>
      <trkpt lat="45.49149" lon="5.78826">
        <ele>913.448975</ele>
        <time>2019-05-23T17:10:57.394Z</time>
      </trkpt>
      <trkpt lat="45.49144" lon="5.78825">
        <ele>915.722168</ele>
        <time>2019-05-23T17:11:02.394Z</time>
      </trkpt>
      <trkpt lat="45.49136" lon="5.78825">
        <ele>914.965698</ele>
        <time>2019-05-23T17:11:07.394Z</time>
      </trkpt>
      <trkpt lat="45.49123" lon="5.78821">
        <ele>916.236572</ele>
        <time>2019-05-23T17:11:12.394Z</time>
      </trkpt>
      <trkpt lat="45.49105" lon="5.78807">
        <ele>916.137207</ele>
        <time>2019-05-23T17:11:17.394Z</time>
      </trkpt>
      <trkpt lat="45.49108" lon="5.78802">
        <ele>920.057007</ele>
        <time>2019-05-23T17:11:37.374Z</time>
      </trkpt>
      <trkpt lat="45.49108" lon="5.788">
        <ele>919.915771</ele>
        <time>2019-05-23T17:11:45.363Z</time>
      </trkpt>
      <trkpt lat="45.49111" lon="5.78792">
        <ele>917.420044</ele>
        <time>2019-05-23T17:11:50.363Z</time>
      </trkpt>
      <trkpt lat="45.49111" lon="5.78784">
        <ele>914.258545</ele>
        <time>2019-05-23T17:11:55.363Z</time>
      </trkpt>
      <trkpt lat="45.49105" lon="5.78771">
        <ele>907.901733</ele>
        <time>2019-05-23T17:12:00.363Z</time>
      </trkpt>
      <trkpt lat="45.49103" lon="5.78759">
        <ele>896.695557</ele>
        <time>2019-05-23T17:12:05.363Z</time>
      </trkpt>
      <trkpt lat="45.49093" lon="5.78751">
        <ele>888.214478</ele>
        <time>2019-05-23T17:12:10.363Z</time>
      </trkpt>
      <trkpt lat="45.49088" lon="5.78738">
        <ele>884.360596</ele>
        <time>2019-05-23T17:12:15.363Z</time>
      </trkpt>
      <trkpt lat="45.49077" lon="5.78736">
        <ele>881.249878</ele>
        <time>2019-05-23T17:12:20.363Z</time>
      </trkpt>
      <trkpt lat="45.49063" lon="5.78728">
        <ele>876.141357</ele>
        <time>2019-05-23T17:12:25.367Z</time>
      </trkpt>
      <trkpt lat="45.49058" lon="5.7873">
        <ele>876.711426</ele>
        <time>2019-05-23T17:12:56.363Z</time>
      </trkpt>
      <trkpt lat="45.49062" lon="5.78719">
        <ele>890.368896</ele>
        <time>2019-05-23T17:13:38.367Z</time>
      </trkpt>
      <trkpt lat="45.49059" lon="5.78723">
        <ele>888.616211</ele>
        <time>2019-05-23T17:13:49.375Z</time>
      </trkpt>
      <trkpt lat="45.49061" lon="5.78725">
        <ele>884.626831</ele>
        <time>2019-05-23T17:13:54.444Z</time>
      </trkpt>
      <trkpt lat="45.49063" lon="5.78723">
        <ele>887.137695</ele>
        <time>2019-05-23T17:14:04.343Z</time>
      </trkpt>
      <trkpt lat="45.4906" lon="5.78724">
        <ele>891.14563</ele>
        <time>2019-05-23T17:14:11.339Z</time>
      </trkpt>
      <trkpt lat="45.49058" lon="5.78725">
        <ele>893.872192</ele>
        <time>2019-05-23T17:14:16.361Z</time>
      </trkpt>
      <trkpt lat="45.49058" lon="5.78722">
        <ele>890.818604</ele>
        <time>2019-05-23T17:14:59.379Z</time>
      </trkpt>
      <trkpt lat="45.49056" lon="5.78722">
        <ele>893.782715</ele>
        <time>2019-05-23T17:15:06.385Z</time>
      </trkpt>
      <trkpt lat="45.49052" lon="5.78725">
        <ele>893.313599</ele>
        <time>2019-05-23T17:15:13.344Z</time>
      </trkpt>
      <trkpt lat="45.4905" lon="5.78723">
        <ele>888.910889</ele>
        <time>2019-05-23T17:15:26.666Z</time>
      </trkpt>
      <trkpt lat="45.4905" lon="5.78719">
        <ele>891.192627</ele>
        <time>2019-05-23T17:15:50.382Z</time>
      </trkpt>
      <trkpt lat="45.49048" lon="5.78718">
        <ele>891.117798</ele>
        <time>2019-05-23T17:15:55.382Z</time>
      </trkpt>
      <trkpt lat="45.49043" lon="5.78715">
        <ele>889.510986</ele>
        <time>2019-05-23T17:16:00.382Z</time>
      </trkpt>
      <trkpt lat="45.49045" lon="5.78714">
        <ele>890.296387</ele>
        <time>2019-05-23T17:16:11.392Z</time>
      </trkpt>
      <trkpt lat="45.49046" lon="5.78713">
        <ele>891.5271</ele>
        <time>2019-05-23T17:16:21.361Z</time>
      </trkpt>
      <trkpt lat="45.49054" lon="5.7871">
        <ele>890.560181</ele>
        <time>2019-05-23T17:16:26.361Z</time>
      </trkpt>
      <trkpt lat="45.49049" lon="5.7871">
        <ele>889.756348</ele>
        <time>2019-05-23T17:16:31.361Z</time>
      </trkpt>
      <trkpt lat="45.49052" lon="5.78708">
        <ele>886.0979</ele>
        <time>2019-05-23T17:16:36.365Z</time>
      </trkpt>
      <trkpt lat="45.49056" lon="5.78695">
        <ele>880.772949</ele>
        <time>2019-05-23T17:16:41.372Z</time>
      </trkpt>
      <trkpt lat="45.49048" lon="5.78687">
        <ele>878.930176</ele>
        <time>2019-05-23T17:16:46.373Z</time>
      </trkpt>
      <trkpt lat="45.49037" lon="5.78678">
        <ele>876.029053</ele>
        <time>2019-05-23T17:16:51.373Z</time>
      </trkpt>
      <trkpt lat="45.49037" lon="5.78667">
        <ele>872.329834</ele>
        <time>2019-05-23T17:16:56.373Z</time>
      </trkpt>
      <trkpt lat="45.4904" lon="5.78657">
        <ele>871.630981</ele>
        <time>2019-05-23T17:17:01.373Z</time>
      </trkpt>
      <trkpt lat="45.49035" lon="5.78657">
        <ele>870.371216</ele>
        <time>2019-05-23T17:17:06.373Z</time>
      </trkpt>
      <trkpt lat="45.49031" lon="5.78656">
        <ele>869.346436</ele>
        <time>2019-05-23T17:17:11.373Z</time>
      </trkpt>
      <trkpt lat="45.49028" lon="5.78656">
        <ele>865.125488</ele>
        <time>2019-05-23T17:17:17.950Z</time>
      </trkpt>
      <trkpt lat="45.49025" lon="5.7865">
        <ele>860.928467</ele>
        <time>2019-05-23T17:17:23.035Z</time>
      </trkpt>
      <trkpt lat="45.49026" lon="5.78648">
        <ele>860.308594</ele>
        <time>2019-05-23T17:17:28.268Z</time>
      </trkpt>
      <trkpt lat="45.49026" lon="5.78643">
        <ele>860.034424</ele>
        <time>2019-05-23T17:17:36.353Z</time>
      </trkpt>
      <trkpt lat="45.4902" lon="5.78621">
        <ele>856.361084</ele>
        <time>2019-05-23T17:17:41.355Z</time>
      </trkpt>
      <trkpt lat="45.49012" lon="5.78618">
        <ele>855.284424</ele>
        <time>2019-05-23T17:17:46.360Z</time>
      </trkpt>
      <trkpt lat="45.4901" lon="5.78617">
        <ele>853.642944</ele>
        <time>2019-05-23T17:17:55.362Z</time>
      </trkpt>
      <trkpt lat="45.49007" lon="5.78615">
        <ele>855.784546</ele>
        <time>2019-05-23T17:18:21.347Z</time>
      </trkpt>
      <trkpt lat="45.49005" lon="5.78614">
        <ele>852.480469</ele>
        <time>2019-05-23T17:18:35.363Z</time>
      </trkpt>
      <trkpt lat="45.49006" lon="5.78617">
        <ele>848.373413</ele>
        <time>2019-05-23T17:19:19.508Z</time>
      </trkpt>
      <trkpt lat="45.49004" lon="5.78618">
        <ele>844.833252</ele>
        <time>2019-05-23T17:19:35.345Z</time>
      </trkpt>
      <trkpt lat="45.49002" lon="5.78603">
        <ele>841.125977</ele>
        <time>2019-05-23T17:19:40.354Z</time>
      </trkpt>
      <trkpt lat="45.49005" lon="5.78602">
        <ele>837.289307</ele>
        <time>2019-05-23T17:19:51.365Z</time>
      </trkpt>
      <trkpt lat="45.49004" lon="5.786">
        <ele>834.976563</ele>
        <time>2019-05-23T17:20:04.359Z</time>
      </trkpt>
      <trkpt lat="45.49003" lon="5.78597">
        <ele>833.007324</ele>
        <time>2019-05-23T17:20:13.368Z</time>
      </trkpt>
      <trkpt lat="45.49002" lon="5.78594">
        <ele>837.412109</ele>
        <time>2019-05-23T17:25:20.975Z</time>
      </trkpt>
      <trkpt lat="45.49002" lon="5.78593">
        <ele>837.412476</ele>
        <time>2019-05-23T17:26:27.344Z</time>
      </trkpt>
      <trkpt lat="45.49001" lon="5.78593">
        <ele>836.962891</ele>
        <time>2019-05-23T17:26:56.354Z</time>
      </trkpt>
      <trkpt lat="45.49001" lon="5.78594">
        <ele>837.519775</ele>
        <time>2019-05-23T17:27:01.354Z</time>
      </trkpt>
      <trkpt lat="45.49002" lon="5.7859">
        <ele>839.765503</ele>
        <time>2019-05-23T17:27:24.346Z</time>
      </trkpt>
      <trkpt lat="45.49003" lon="5.78581">
        <ele>836.632568</ele>
        <time>2019-05-23T17:27:29.346Z</time>
      </trkpt>
      <trkpt lat="45.49" lon="5.78577">
        <ele>834.862305</ele>
        <time>2019-05-23T17:27:44.418Z</time>
      </trkpt>
      <trkpt lat="45.48996" lon="5.78572">
        <ele>835.015137</ele>
        <time>2019-05-23T17:27:49.418Z</time>
      </trkpt>
      <trkpt lat="45.48991" lon="5.78569">
        <ele>836.754639</ele>
        <time>2019-05-23T17:28:18.387Z</time>
      </trkpt>
      <trkpt lat="45.48987" lon="5.78569">
        <ele>837.585083</ele>
        <time>2019-05-23T17:28:27.368Z</time>
      </trkpt>
      <trkpt lat="45.48987" lon="5.78568">
        <ele>838.83252</ele>
        <time>2019-05-23T17:28:40.354Z</time>
      </trkpt>
      <trkpt lat="45.48987" lon="5.78566">
        <ele>838.800293</ele>
        <time>2019-05-23T17:28:45.354Z</time>
      </trkpt>
      <trkpt lat="45.48986" lon="5.78564">
        <ele>838.917969</ele>
        <time>2019-05-23T17:28:53.402Z</time>
      </trkpt>
      <trkpt lat="45.48983" lon="5.78564">
        <ele>838.815918</ele>
        <time>2019-05-23T17:28:59.357Z</time>
      </trkpt>
      <trkpt lat="45.48977" lon="5.78564">
        <ele>838.290283</ele>
        <time>2019-05-23T17:29:04.362Z</time>
      </trkpt>
      <trkpt lat="45.48975" lon="5.78565">
        <ele>838.594238</ele>
        <time>2019-05-23T17:29:10.272Z</time>
      </trkpt>
      <trkpt lat="45.48972" lon="5.78564">
        <ele>839.421143</ele>
        <time>2019-05-23T17:29:15.334Z</time>
      </trkpt>
      <trkpt lat="45.48967" lon="5.78563">
        <ele>840.280884</ele>
        <time>2019-05-23T17:29:20.354Z</time>
      </trkpt>
      <trkpt lat="45.48964" lon="5.78564">
        <ele>842.503174</ele>
        <time>2019-05-23T17:29:25.354Z</time>
      </trkpt>
      <trkpt lat="45.48962" lon="5.78563">
        <ele>842.945313</ele>
        <time>2019-05-23T17:29:30.359Z</time>
      </trkpt>
      <trkpt lat="45.4896" lon="5.7855">
        <ele>843.552368</ele>
        <time>2019-05-23T17:29:35.359Z</time>
      </trkpt>
      <trkpt lat="45.48956" lon="5.78524">
        <ele>836.61853</ele>
        <time>2019-05-23T17:29:40.368Z</time>
      </trkpt>
      <trkpt lat="45.48951" lon="5.78505">
        <ele>831.479736</ele>
        <time>2019-05-23T17:29:45.368Z</time>
      </trkpt>
      <trkpt lat="45.48932" lon="5.78474">
        <ele>832.041748</ele>
        <time>2019-05-23T17:29:50.368Z</time>
      </trkpt>
      <trkpt lat="45.48921" lon="5.78455">
        <ele>832.618896</ele>
        <time>2019-05-23T17:29:59.344Z</time>
      </trkpt>
      <trkpt lat="45.48915" lon="5.7844">
        <ele>831.722656</ele>
        <time>2019-05-23T17:30:04.349Z</time>
      </trkpt>
      <trkpt lat="45.48907" lon="5.78429">
        <ele>831.817383</ele>
        <time>2019-05-23T17:30:09.349Z</time>
      </trkpt>
      <trkpt lat="45.48898" lon="5.78412">
        <ele>831.474121</ele>
        <time>2019-05-23T17:30:14.356Z</time>
      </trkpt>
      <trkpt lat="45.48892" lon="5.78401">
        <ele>831.384521</ele>
        <time>2019-05-23T17:30:19.391Z</time>
      </trkpt>
      <trkpt lat="45.48893" lon="5.78384">
        <ele>829.597778</ele>
        <time>2019-05-23T17:30:26.356Z</time>
      </trkpt>
      <trkpt lat="45.48891" lon="5.78376">
        <ele>828.13501</ele>
        <time>2019-05-23T17:30:31.356Z</time>
      </trkpt>
      <trkpt lat="45.48887" lon="5.78364">
        <ele>826.415283</ele>
        <time>2019-05-23T17:30:36.379Z</time>
      </trkpt>
      <trkpt lat="45.4888" lon="5.78361">
        <ele>825.413818</ele>
        <time>2019-05-23T17:30:42.353Z</time>
      </trkpt>
      <trkpt lat="45.48873" lon="5.78356">
        <ele>825.789063</ele>
        <time>2019-05-23T17:30:47.362Z</time>
      </trkpt>
      <trkpt lat="45.48864" lon="5.78348">
        <ele>826.364258</ele>
        <time>2019-05-23T17:30:52.363Z</time>
      </trkpt>
      <trkpt lat="45.4886" lon="5.78337">
        <ele>825.600342</ele>
        <time>2019-05-23T17:30:57.363Z</time>
      </trkpt>
      <trkpt lat="45.48854" lon="5.78319">
        <ele>825.466309</ele>
        <time>2019-05-23T17:31:02.363Z</time>
      </trkpt>
      <trkpt lat="45.48846" lon="5.78306">
        <ele>826.090332</ele>
        <time>2019-05-23T17:31:07.363Z</time>
      </trkpt>
      <trkpt lat="45.48839" lon="5.78293">
        <ele>825.449463</ele>
        <time>2019-05-23T17:31:12.363Z</time>
      </trkpt>
      <trkpt lat="45.48833" lon="5.78281">
        <ele>826.149414</ele>
        <time>2019-05-23T17:31:17.363Z</time>
      </trkpt>
      <trkpt lat="45.48823" lon="5.78268">
        <ele>828.526489</ele>
        <time>2019-05-23T17:31:22.365Z</time>
      </trkpt>
      <trkpt lat="45.48815" lon="5.78254">
        <ele>828.321289</ele>
        <time>2019-05-23T17:31:27.365Z</time>
      </trkpt>
      <trkpt lat="45.48811" lon="5.78237">
        <ele>831.774292</ele>
        <time>2019-05-23T17:31:32.365Z</time>
      </trkpt>
      <trkpt lat="45.48806" lon="5.78218">
        <ele>831.68689</ele>
        <time>2019-05-23T17:31:37.370Z</time>
      </trkpt>
      <trkpt lat="45.48799" lon="5.782">
        <ele>835.275391</ele>
        <time>2019-05-23T17:31:42.370Z</time>
      </trkpt>
      <trkpt lat="45.48798" lon="5.78188">
        <ele>834.930664</ele>
        <time>2019-05-23T17:31:47.370Z</time>
      </trkpt>
      <trkpt lat="45.48794" lon="5.78185">
        <ele>837.404053</ele>
        <time>2019-05-23T17:31:56.366Z</time>
      </trkpt>
      <trkpt lat="45.48786" lon="5.7818">
        <ele>834.96167</ele>
        <time>2019-05-23T17:32:01.369Z</time>
      </trkpt>
      <trkpt lat="45.48783" lon="5.78167">
        <ele>834.644653</ele>
        <time>2019-05-23T17:32:06.370Z</time>
      </trkpt>
      <trkpt lat="45.48776" lon="5.7816">
        <ele>831.525879</ele>
        <time>2019-05-23T17:32:11.370Z</time>
      </trkpt>
      <trkpt lat="45.48763" lon="5.78157">
        <ele>825.689697</ele>
        <time>2019-05-23T17:32:16.370Z</time>
      </trkpt>
      <trkpt lat="45.48723" lon="5.78151">
        <ele>822.039795</ele>
        <time>2019-05-23T17:32:21.370Z</time>
      </trkpt>
      <trkpt lat="45.48709" lon="5.7815">
        <ele>816.452637</ele>
        <time>2019-05-23T17:32:26.370Z</time>
      </trkpt>
      <trkpt lat="45.48709" lon="5.78132">
        <ele>820.358643</ele>
        <time>2019-05-23T17:32:38.381Z</time>
      </trkpt>
      <trkpt lat="45.48709" lon="5.78133">
        <ele>818.570557</ele>
        <time>2019-05-23T17:32:51.338Z</time>
      </trkpt>
      <trkpt lat="45.48706" lon="5.78135">
        <ele>818.053955</ele>
        <time>2019-05-23T17:33:21.360Z</time>
      </trkpt>
      <trkpt lat="45.48704" lon="5.78134">
        <ele>818.640381</ele>
        <time>2019-05-23T17:33:34.362Z</time>
      </trkpt>
      <trkpt lat="45.48708" lon="5.7812">
        <ele>813.849243</ele>
        <time>2019-05-23T17:33:39.362Z</time>
      </trkpt>
      <trkpt lat="45.48714" lon="5.78097">
        <ele>810.307129</ele>
        <time>2019-05-23T17:33:44.362Z</time>
      </trkpt>
      <trkpt lat="45.48702" lon="5.78062">
        <ele>804.453369</ele>
        <time>2019-05-23T17:33:49.364Z</time>
      </trkpt>
      <trkpt lat="45.48684" lon="5.78027">
        <ele>798.830322</ele>
        <time>2019-05-23T17:33:54.373Z</time>
      </trkpt>
      <trkpt lat="45.48684" lon="5.7799">
        <ele>794.723267</ele>
        <time>2019-05-23T17:33:59.373Z</time>
      </trkpt>
      <trkpt lat="45.48685" lon="5.77948">
        <ele>787.485107</ele>
        <time>2019-05-23T17:34:04.373Z</time>
      </trkpt>
      <trkpt lat="45.48681" lon="5.77918">
        <ele>780.279541</ele>
        <time>2019-05-23T17:34:09.373Z</time>
      </trkpt>
      <trkpt lat="45.48665" lon="5.77908">
        <ele>778.139404</ele>
        <time>2019-05-23T17:34:14.373Z</time>
      </trkpt>
      <trkpt lat="45.48644" lon="5.77901">
        <ele>777.83252</ele>
        <time>2019-05-23T17:34:19.373Z</time>
      </trkpt>
      <trkpt lat="45.48626" lon="5.77894">
        <ele>778.19043</ele>
        <time>2019-05-23T17:34:24.373Z</time>
      </trkpt>
      <trkpt lat="45.48616" lon="5.77886">
        <ele>778.500488</ele>
        <time>2019-05-23T17:34:29.373Z</time>
      </trkpt>
      <trkpt lat="45.48606" lon="5.77877">
        <ele>778.633911</ele>
        <time>2019-05-23T17:34:34.373Z</time>
      </trkpt>
      <trkpt lat="45.48594" lon="5.77865">
        <ele>779.454834</ele>
        <time>2019-05-23T17:34:39.373Z</time>
      </trkpt>
      <trkpt lat="45.48579" lon="5.77854">
        <ele>777.032959</ele>
        <time>2019-05-23T17:34:44.380Z</time>
      </trkpt>
      <trkpt lat="45.48556" lon="5.77836">
        <ele>771.588867</ele>
        <time>2019-05-23T17:34:49.380Z</time>
      </trkpt>
      <trkpt lat="45.48534" lon="5.77822">
        <ele>766.243164</ele>
        <time>2019-05-23T17:34:54.380Z</time>
      </trkpt>
      <trkpt lat="45.48504" lon="5.77811">
        <ele>761.275757</ele>
        <time>2019-05-23T17:34:59.380Z</time>
      </trkpt>
      <trkpt lat="45.4848" lon="5.77791">
        <ele>754.036377</ele>
        <time>2019-05-23T17:35:04.380Z</time>
      </trkpt>
      <trkpt lat="45.48458" lon="5.77777">
        <ele>747.349365</ele>
        <time>2019-05-23T17:35:09.380Z</time>
      </trkpt>
      <trkpt lat="45.48434" lon="5.77754">
        <ele>741.649902</ele>
        <time>2019-05-23T17:35:14.380Z</time>
      </trkpt>
      <trkpt lat="45.48419" lon="5.77736">
        <ele>739.158936</ele>
        <time>2019-05-23T17:35:19.380Z</time>
      </trkpt>
      <trkpt lat="45.48417" lon="5.7771">
        <ele>735.460205</ele>
        <time>2019-05-23T17:35:24.380Z</time>
      </trkpt>
      <trkpt lat="45.48415" lon="5.77679">
        <ele>734.500977</ele>
        <time>2019-05-23T17:35:29.380Z</time>
      </trkpt>
      <trkpt lat="45.48422" lon="5.77649">
        <ele>733.93103</ele>
        <time>2019-05-23T17:35:34.380Z</time>
      </trkpt>
      <trkpt lat="45.48424" lon="5.77617">
        <ele>732.061768</ele>
        <time>2019-05-23T17:35:39.380Z</time>
      </trkpt>
      <trkpt lat="45.48426" lon="5.77586">
        <ele>730.287109</ele>
        <time>2019-05-23T17:35:44.380Z</time>
      </trkpt>
      <trkpt lat="45.48431" lon="5.77554">
        <ele>726.38855</ele>
        <time>2019-05-23T17:35:49.380Z</time>
      </trkpt>
      <trkpt lat="45.48429" lon="5.77547">
        <ele>724.163574</ele>
        <time>2019-05-23T17:35:55.345Z</time>
      </trkpt>
      <trkpt lat="45.48414" lon="5.77534">
        <ele>721.638428</ele>
        <time>2019-05-23T17:36:00.363Z</time>
      </trkpt>
      <trkpt lat="45.48382" lon="5.77528">
        <ele>712.762939</ele>
        <time>2019-05-23T17:36:05.365Z</time>
      </trkpt>
      <trkpt lat="45.48351" lon="5.77507">
        <ele>710.408691</ele>
        <time>2019-05-23T17:36:10.371Z</time>
      </trkpt>
      <trkpt lat="45.48341" lon="5.77458">
        <ele>706.500244</ele>
        <time>2019-05-23T17:36:15.371Z</time>
      </trkpt>
      <trkpt lat="45.4834" lon="5.77432">
        <ele>706.102539</ele>
        <time>2019-05-23T17:36:20.371Z</time>
      </trkpt>
      <trkpt lat="45.48351" lon="5.77397">
        <ele>702.820313</ele>
        <time>2019-05-23T17:36:25.376Z</time>
      </trkpt>
      <trkpt lat="45.48365" lon="5.77355">
        <ele>696.835938</ele>
        <time>2019-05-23T17:36:30.378Z</time>
      </trkpt>
      <trkpt lat="45.48381" lon="5.77326">
        <ele>693.221558</ele>
        <time>2019-05-23T17:36:35.378Z</time>
      </trkpt>
      <trkpt lat="45.48385" lon="5.77286">
        <ele>690.540039</ele>
        <time>2019-05-23T17:36:40.378Z</time>
      </trkpt>
      <trkpt lat="45.48393" lon="5.77257">
        <ele>687.461914</ele>
        <time>2019-05-23T17:36:45.378Z</time>
      </trkpt>
      <trkpt lat="45.48393" lon="5.77225">
        <ele>680.754395</ele>
        <time>2019-05-23T17:36:50.378Z</time>
      </trkpt>
      <trkpt lat="45.48373" lon="5.77218">
        <ele>675.300537</ele>
        <time>2019-05-23T17:36:55.378Z</time>
      </trkpt>
      <trkpt lat="45.48354" lon="5.77232">
        <ele>667.755493</ele>
        <time>2019-05-23T17:37:00.378Z</time>
      </trkpt>
      <trkpt lat="45.4833" lon="5.7725">
        <ele>659.302002</ele>
        <time>2019-05-23T17:37:05.378Z</time>
      </trkpt>
      <trkpt lat="45.483" lon="5.77245">
        <ele>659.700928</ele>
        <time>2019-05-23T17:37:10.378Z</time>
      </trkpt>
      <trkpt lat="45.48293" lon="5.77243">
        <ele>657.142578</ele>
        <time>2019-05-23T17:37:40.376Z</time>
      </trkpt>
      <trkpt lat="45.48288" lon="5.77245">
        <ele>657.298584</ele>
        <time>2019-05-23T17:37:45.376Z</time>
      </trkpt>
      <trkpt lat="45.48288" lon="5.77253">
        <ele>652.189453</ele>
        <time>2019-05-23T17:37:50.376Z</time>
      </trkpt>
      <trkpt lat="45.48284" lon="5.77263">
        <ele>651.668213</ele>
        <time>2019-05-23T17:37:55.376Z</time>
      </trkpt>
      <trkpt lat="45.4828" lon="5.77266">
        <ele>651.837646</ele>
        <time>2019-05-23T17:38:00.376Z</time>
      </trkpt>
      <trkpt lat="45.48279" lon="5.77274">
        <ele>651.808594</ele>
        <time>2019-05-23T17:38:06.351Z</time>
      </trkpt>
      <trkpt lat="45.4828" lon="5.77283">
        <ele>652.989868</ele>
        <time>2019-05-23T17:38:11.363Z</time>
      </trkpt>
      <trkpt lat="45.48281" lon="5.77288">
        <ele>651.167969</ele>
        <time>2019-05-23T17:38:16.608Z</time>
      </trkpt>
      <trkpt lat="45.48281" lon="5.77294">
        <ele>654.122925</ele>
        <time>2019-05-23T17:38:21.687Z</time>
      </trkpt>
      <trkpt lat="45.48281" lon="5.773">
        <ele>654.71875</ele>
        <time>2019-05-23T17:38:26.926Z</time>
      </trkpt>
      <trkpt lat="45.48282" lon="5.77308">
        <ele>657.968994</ele>
        <time>2019-05-23T17:38:32.043Z</time>
      </trkpt>
      <trkpt lat="45.4828" lon="5.77311">
        <ele>662.011963</ele>
        <time>2019-05-23T17:38:39.618Z</time>
      </trkpt>
      <trkpt lat="45.48277" lon="5.77317">
        <ele>661.5625</ele>
        <time>2019-05-23T17:38:44.644Z</time>
      </trkpt>
      <trkpt lat="45.48275" lon="5.77321">
        <ele>662.467285</ele>
        <time>2019-05-23T17:38:49.669Z</time>
      </trkpt>
      <trkpt lat="45.48271" lon="5.77323">
        <ele>660.772949</ele>
        <time>2019-05-23T17:38:54.704Z</time>
      </trkpt>
      <trkpt lat="45.48268" lon="5.77328">
        <ele>662.449829</ele>
        <time>2019-05-23T17:38:59.757Z</time>
      </trkpt>
      <trkpt lat="45.48268" lon="5.77331">
        <ele>662.640381</ele>
        <time>2019-05-23T17:39:04.803Z</time>
      </trkpt>
      <trkpt lat="45.48263" lon="5.77331">
        <ele>667.885742</ele>
        <time>2019-05-23T17:39:09.844Z</time>
      </trkpt>
      <trkpt lat="45.48257" lon="5.7733">
        <ele>673.10376</ele>
        <time>2019-05-23T17:39:14.877Z</time>
      </trkpt>
      <trkpt lat="45.48254" lon="5.77332">
        <ele>674.091797</ele>
        <time>2019-05-23T17:39:19.938Z</time>
      </trkpt>
      <trkpt lat="45.48252" lon="5.77332">
        <ele>675.374146</ele>
        <time>2019-05-23T17:39:26.353Z</time>
      </trkpt>
      <trkpt lat="45.48249" lon="5.77336">
        <ele>675.599976</ele>
        <time>2019-05-23T17:39:31.363Z</time>
      </trkpt>
      <trkpt lat="45.48247" lon="5.77337">
        <ele>677.469727</ele>
        <time>2019-05-23T17:39:36.381Z</time>
      </trkpt>
      <trkpt lat="45.48244" lon="5.77338">
        <ele>679.518066</ele>
        <time>2019-05-23T17:39:41.381Z</time>
      </trkpt>
      <trkpt lat="45.48243" lon="5.77338">
        <ele>682.701904</ele>
        <time>2019-05-23T17:39:50.205Z</time>
      </trkpt>
      <trkpt lat="45.48239" lon="5.7734">
        <ele>684.021484</ele>
        <time>2019-05-23T17:39:55.207Z</time>
      </trkpt>
      <trkpt lat="45.48234" lon="5.77342">
        <ele>684.161499</ele>
        <time>2019-05-23T17:40:00.262Z</time>
      </trkpt>
      <trkpt lat="45.4823" lon="5.77343">
        <ele>686.400269</ele>
        <time>2019-05-23T17:40:05.333Z</time>
      </trkpt>
      <trkpt lat="45.48227" lon="5.77346">
        <ele>684.380127</ele>
        <time>2019-05-23T17:40:14.368Z</time>
      </trkpt>
      <trkpt lat="45.48223" lon="5.77345">
        <ele>683.861328</ele>
        <time>2019-05-23T17:40:19.368Z</time>
      </trkpt>
      <trkpt lat="45.48221" lon="5.77344">
        <ele>685.585693</ele>
        <time>2019-05-23T17:40:26.425Z</time>
      </trkpt>
      <trkpt lat="45.48217" lon="5.77345">
        <ele>686.430664</ele>
        <time>2019-05-23T17:40:33.135Z</time>
      </trkpt>
      <trkpt lat="45.48213" lon="5.77348">
        <ele>687.005371</ele>
        <time>2019-05-23T17:40:38.186Z</time>
      </trkpt>
      <trkpt lat="45.48207" lon="5.77351">
        <ele>690.416016</ele>
        <time>2019-05-23T17:40:43.207Z</time>
      </trkpt>
      <trkpt lat="45.48203" lon="5.7735">
        <ele>692.210205</ele>
        <time>2019-05-23T17:40:51.420Z</time>
      </trkpt>
      <trkpt lat="45.48202" lon="5.77359">
        <ele>693.718506</ele>
        <time>2019-05-23T17:40:57.369Z</time>
      </trkpt>
      <trkpt lat="45.48204" lon="5.77364">
        <ele>697.768921</ele>
        <time>2019-05-23T17:41:02.369Z</time>
      </trkpt>
      <trkpt lat="45.48203" lon="5.7737">
        <ele>695.339111</ele>
        <time>2019-05-23T17:41:07.369Z</time>
      </trkpt>
      <trkpt lat="45.48201" lon="5.77379">
        <ele>694.694092</ele>
        <time>2019-05-23T17:41:12.369Z</time>
      </trkpt>
      <trkpt lat="45.48198" lon="5.77386">
        <ele>690.811279</ele>
        <time>2019-05-23T17:41:17.369Z</time>
      </trkpt>
      <trkpt lat="45.48194" lon="5.77387">
        <ele>686.778076</ele>
        <time>2019-05-23T17:41:45.350Z</time>
      </trkpt>
      <trkpt lat="45.48189" lon="5.77387">
        <ele>689.169434</ele>
        <time>2019-05-23T17:41:51.363Z</time>
      </trkpt>
      <trkpt lat="45.48188" lon="5.77384">
        <ele>688.667725</ele>
        <time>2019-05-23T17:41:56.546Z</time>
      </trkpt>
      <trkpt lat="45.48189" lon="5.7738">
        <ele>693.227661</ele>
        <time>2019-05-23T17:42:01.620Z</time>
      </trkpt>
      <trkpt lat="45.48188" lon="5.77374">
        <ele>697.026367</ele>
        <time>2019-05-23T17:42:06.684Z</time>
      </trkpt>
      <trkpt lat="45.48187" lon="5.77372">
        <ele>699.311646</ele>
        <time>2019-05-23T17:42:21.356Z</time>
      </trkpt>
      <trkpt lat="45.48182" lon="5.77368">
        <ele>700.30127</ele>
        <time>2019-05-23T17:42:30.347Z</time>
      </trkpt>
      <trkpt lat="45.48178" lon="5.77366">
        <ele>700.917969</ele>
        <time>2019-05-23T17:42:36.357Z</time>
      </trkpt>
      <trkpt lat="45.48177" lon="5.77365">
        <ele>697.616333</ele>
        <time>2019-05-23T17:42:42.010Z</time>
      </trkpt>
      <trkpt lat="45.48175" lon="5.77361">
        <ele>702.656494</ele>
        <time>2019-05-23T17:42:47.070Z</time>
      </trkpt>
      <trkpt lat="45.48169" lon="5.77355">
        <ele>698.488403</ele>
        <time>2019-05-23T17:43:00.393Z</time>
      </trkpt>
      <trkpt lat="45.48168" lon="5.77353">
        <ele>701.239258</ele>
        <time>2019-05-23T17:43:05.393Z</time>
      </trkpt>
      <trkpt lat="45.48163" lon="5.7735">
        <ele>700.151367</ele>
        <time>2019-05-23T17:43:10.393Z</time>
      </trkpt>
      <trkpt lat="45.48161" lon="5.77348">
        <ele>700.765137</ele>
        <time>2019-05-23T17:43:20.358Z</time>
      </trkpt>
      <trkpt lat="45.48155" lon="5.77345">
        <ele>702.406738</ele>
        <time>2019-05-23T17:43:25.369Z</time>
      </trkpt>
      <trkpt lat="45.48149" lon="5.77342">
        <ele>706.543579</ele>
        <time>2019-05-23T17:43:30.369Z</time>
      </trkpt>
      <trkpt lat="45.48148" lon="5.77337">
        <ele>707.146851</ele>
        <time>2019-05-23T17:43:42.378Z</time>
      </trkpt>
      <trkpt lat="45.48147" lon="5.77336">
        <ele>709.534424</ele>
        <time>2019-05-23T17:43:55.365Z</time>
      </trkpt>
      <trkpt lat="45.48146" lon="5.77334">
        <ele>711.989502</ele>
        <time>2019-05-23T17:44:00.366Z</time>
      </trkpt>
      <trkpt lat="45.48142" lon="5.7733">
        <ele>721.401001</ele>
        <time>2019-05-23T17:44:21.368Z</time>
      </trkpt>
      <trkpt lat="45.4814" lon="5.77328">
        <ele>722.445068</ele>
        <time>2019-05-23T17:44:26.372Z</time>
      </trkpt>
      <trkpt lat="45.48138" lon="5.77324">
        <ele>722.87854</ele>
        <time>2019-05-23T17:44:31.372Z</time>
      </trkpt>
      <trkpt lat="45.48136" lon="5.77321">
        <ele>723.101074</ele>
        <time>2019-05-23T17:44:37.390Z</time>
      </trkpt>
      <trkpt lat="45.48132" lon="5.77317">
        <ele>723.425415</ele>
        <time>2019-05-23T17:44:42.390Z</time>
      </trkpt>
      <trkpt lat="45.48131" lon="5.77314">
        <ele>720.620117</ele>
        <time>2019-05-23T17:44:47.390Z</time>
      </trkpt>
      <trkpt lat="45.4813" lon="5.77312">
        <ele>717.499268</ele>
        <time>2019-05-23T17:44:53.352Z</time>
      </trkpt>
      <trkpt lat="45.48128" lon="5.77311">
        <ele>717.12793</ele>
        <time>2019-05-23T17:44:58.601Z</time>
      </trkpt>
      <trkpt lat="45.48126" lon="5.7731">
        <ele>716.70813</ele>
        <time>2019-05-23T17:45:03.639Z</time>
      </trkpt>
      <trkpt lat="45.48121" lon="5.77306">
        <ele>716.768066</ele>
        <time>2019-05-23T17:45:08.679Z</time>
      </trkpt>
      <trkpt lat="45.48117" lon="5.77301">
        <ele>714.108643</ele>
        <time>2019-05-23T17:45:13.745Z</time>
      </trkpt>
      <trkpt lat="45.48115" lon="5.77298">
        <ele>711.797363</ele>
        <time>2019-05-23T17:45:18.817Z</time>
      </trkpt>
      <trkpt lat="45.48113" lon="5.77297">
        <ele>711.758667</ele>
        <time>2019-05-23T17:45:23.868Z</time>
      </trkpt>
      <trkpt lat="45.48108" lon="5.7729">
        <ele>710.323364</ele>
        <time>2019-05-23T17:45:28.913Z</time>
      </trkpt>
      <trkpt lat="45.4811" lon="5.77279">
        <ele>708.136353</ele>
        <time>2019-05-23T17:45:33.988Z</time>
      </trkpt>
      <trkpt lat="45.48108" lon="5.77266">
        <ele>703.730225</ele>
        <time>2019-05-23T17:45:39.069Z</time>
      </trkpt>
      <trkpt lat="45.48098" lon="5.77253">
        <ele>702.729004</ele>
        <time>2019-05-23T17:45:44.126Z</time>
      </trkpt>
      <trkpt lat="45.48078" lon="5.77238">
        <ele>700.819092</ele>
        <time>2019-05-23T17:45:49.155Z</time>
      </trkpt>
      <trkpt lat="45.48055" lon="5.77221">
        <ele>696.681885</ele>
        <time>2019-05-23T17:45:54.247Z</time>
      </trkpt>
      <trkpt lat="45.48042" lon="5.77211">
        <ele>695.584961</ele>
        <time>2019-05-23T17:45:59.274Z</time>
      </trkpt>
      <trkpt lat="45.48038" lon="5.77215">
        <ele>695.303589</ele>
        <time>2019-05-23T17:46:04.343Z</time>
      </trkpt>
      <trkpt lat="45.48033" lon="5.77213">
        <ele>695.571411</ele>
        <time>2019-05-23T17:46:09.380Z</time>
      </trkpt>
      <trkpt lat="45.48028" lon="5.77209">
        <ele>695.800415</ele>
        <time>2019-05-23T17:46:14.380Z</time>
      </trkpt>
      <trkpt lat="45.48024" lon="5.77205">
        <ele>696.976563</ele>
        <time>2019-05-23T17:46:19.380Z</time>
      </trkpt>
      <trkpt lat="45.48019" lon="5.77201">
        <ele>697.900879</ele>
        <time>2019-05-23T17:46:24.380Z</time>
      </trkpt>
      <trkpt lat="45.48014" lon="5.77199">
        <ele>698.894287</ele>
        <time>2019-05-23T17:46:29.380Z</time>
      </trkpt>
      <trkpt lat="45.4801" lon="5.77196">
        <ele>698.091431</ele>
        <time>2019-05-23T17:46:34.380Z</time>
      </trkpt>
      <trkpt lat="45.48005" lon="5.77191">
        <ele>700.066895</ele>
        <time>2019-05-23T17:46:39.380Z</time>
      </trkpt>
      <trkpt lat="45.48" lon="5.77186">
        <ele>699.260254</ele>
        <time>2019-05-23T17:46:44.380Z</time>
      </trkpt>
      <trkpt lat="45.47996" lon="5.77181">
        <ele>700.11792</ele>
        <time>2019-05-23T17:46:49.380Z</time>
      </trkpt>
      <trkpt lat="45.47992" lon="5.77176">
        <ele>701.170654</ele>
        <time>2019-05-23T17:46:54.380Z</time>
      </trkpt>
      <trkpt lat="45.47989" lon="5.77169">
        <ele>701.664551</ele>
        <time>2019-05-23T17:46:59.380Z</time>
      </trkpt>
      <trkpt lat="45.47985" lon="5.77165">
        <ele>703.887329</ele>
        <time>2019-05-23T17:47:04.380Z</time>
      </trkpt>
      <trkpt lat="45.47983" lon="5.77165">
        <ele>702.587646</ele>
        <time>2019-05-23T17:47:15.326Z</time>
      </trkpt>
      <trkpt lat="45.4798" lon="5.77164">
        <ele>702.596191</ele>
        <time>2019-05-23T17:47:20.365Z</time>
      </trkpt>
      <trkpt lat="45.47975" lon="5.77164">
        <ele>703.56958</ele>
        <time>2019-05-23T17:47:25.365Z</time>
      </trkpt>
      <trkpt lat="45.4797" lon="5.77163">
        <ele>703.654785</ele>
        <time>2019-05-23T17:47:30.365Z</time>
      </trkpt>
      <trkpt lat="45.47965" lon="5.77163">
        <ele>702.348877</ele>
        <time>2019-05-23T17:47:35.365Z</time>
      </trkpt>
      <trkpt lat="45.47961" lon="5.77162">
        <ele>703.657227</ele>
        <time>2019-05-23T17:47:40.573Z</time>
      </trkpt>
      <trkpt lat="45.47959" lon="5.77162">
        <ele>704.739502</ele>
        <time>2019-05-23T17:47:49.369Z</time>
      </trkpt>
      <trkpt lat="45.47953" lon="5.77162">
        <ele>705.668945</ele>
        <time>2019-05-23T17:47:54.369Z</time>
      </trkpt>
      <trkpt lat="45.47948" lon="5.77164">
        <ele>702.151001</ele>
        <time>2019-05-23T17:47:59.372Z</time>
      </trkpt>
      <trkpt lat="45.47944" lon="5.77168">
        <ele>701.712158</ele>
        <time>2019-05-23T17:48:04.372Z</time>
      </trkpt>
      <trkpt lat="45.47938" lon="5.77174">
        <ele>702.518311</ele>
        <time>2019-05-23T17:48:13.616Z</time>
      </trkpt>
      <trkpt lat="45.47931" lon="5.77177">
        <ele>705.607422</ele>
        <time>2019-05-23T17:48:18.672Z</time>
      </trkpt>
      <trkpt lat="45.47923" lon="5.77171">
        <ele>708.61084</ele>
        <time>2019-05-23T17:48:23.713Z</time>
      </trkpt>
      <trkpt lat="45.47922" lon="5.77165">
        <ele>709.991211</ele>
        <time>2019-05-23T17:48:30.350Z</time>
      </trkpt>
      <trkpt lat="45.47918" lon="5.77164">
        <ele>710.061401</ele>
        <time>2019-05-23T17:48:35.353Z</time>
      </trkpt>
      <trkpt lat="45.47913" lon="5.77164">
        <ele>709.887939</ele>
        <time>2019-05-23T17:48:40.373Z</time>
      </trkpt>
      <trkpt lat="45.47912" lon="5.77159">
        <ele>713.936035</ele>
        <time>2019-05-23T17:48:53.407Z</time>
      </trkpt>
      <trkpt lat="45.47906" lon="5.77157">
        <ele>714.166748</ele>
        <time>2019-05-23T17:48:58.407Z</time>
      </trkpt>
      <trkpt lat="45.479" lon="5.77153">
        <ele>711.953735</ele>
        <time>2019-05-23T17:49:03.407Z</time>
      </trkpt>
      <trkpt lat="45.47896" lon="5.7715">
        <ele>713.671997</ele>
        <time>2019-05-23T17:49:08.407Z</time>
      </trkpt>
      <trkpt lat="45.4789" lon="5.77145">
        <ele>716.159424</ele>
        <time>2019-05-23T17:49:13.407Z</time>
      </trkpt>
      <trkpt lat="45.47883" lon="5.77142">
        <ele>718.035889</ele>
        <time>2019-05-23T17:49:18.407Z</time>
      </trkpt>
      <trkpt lat="45.4788" lon="5.77142">
        <ele>721.781494</ele>
        <time>2019-05-23T17:49:25.387Z</time>
      </trkpt>
      <trkpt lat="45.47875" lon="5.7714">
        <ele>722.089478</ele>
        <time>2019-05-23T17:49:30.387Z</time>
      </trkpt>
      <trkpt lat="45.4787" lon="5.77141">
        <ele>724.369141</ele>
        <time>2019-05-23T17:49:38.354Z</time>
      </trkpt>
      <trkpt lat="45.47864" lon="5.77141">
        <ele>724.567383</ele>
        <time>2019-05-23T17:49:44.618Z</time>
      </trkpt>
      <trkpt lat="45.47858" lon="5.7714">
        <ele>726.61731</ele>
        <time>2019-05-23T17:49:49.677Z</time>
      </trkpt>
      <trkpt lat="45.47851" lon="5.77139">
        <ele>727.729004</ele>
        <time>2019-05-23T17:49:54.891Z</time>
      </trkpt>
      <trkpt lat="45.47846" lon="5.77138">
        <ele>730.411133</ele>
        <time>2019-05-23T17:50:05.028Z</time>
      </trkpt>
      <trkpt lat="45.47841" lon="5.77138">
        <ele>730.93042</ele>
        <time>2019-05-23T17:50:10.081Z</time>
      </trkpt>
      <trkpt lat="45.47836" lon="5.77136">
        <ele>731.812378</ele>
        <time>2019-05-23T17:50:15.111Z</time>
      </trkpt>
      <trkpt lat="45.47832" lon="5.77135">
        <ele>733.030029</ele>
        <time>2019-05-23T17:50:20.182Z</time>
      </trkpt>
      <trkpt lat="45.47831" lon="5.77135">
        <ele>732.776978</ele>
        <time>2019-05-23T17:50:27.356Z</time>
      </trkpt>
      <trkpt lat="45.47825" lon="5.77133">
        <ele>736.699463</ele>
        <time>2019-05-23T17:50:32.356Z</time>
      </trkpt>
      <trkpt lat="45.47821" lon="5.77132">
        <ele>740.310303</ele>
        <time>2019-05-23T17:50:37.786Z</time>
      </trkpt>
      <trkpt lat="45.4782" lon="5.77131">
        <ele>738.670776</ele>
        <time>2019-05-23T17:50:45.410Z</time>
      </trkpt>
      <trkpt lat="45.47813" lon="5.77132">
        <ele>740.625977</ele>
        <time>2019-05-23T17:50:50.410Z</time>
      </trkpt>
      <trkpt lat="45.4781" lon="5.77132">
        <ele>741.518677</ele>
        <time>2019-05-23T17:50:55.410Z</time>
      </trkpt>
      <trkpt lat="45.47804" lon="5.77132">
        <ele>741.986816</ele>
        <time>2019-05-23T17:51:00.410Z</time>
      </trkpt>
      <trkpt lat="45.478" lon="5.77132">
        <ele>744.099609</ele>
        <time>2019-05-23T17:51:05.763Z</time>
      </trkpt>
      <trkpt lat="45.47803" lon="5.7713">
        <ele>746.369141</ele>
        <time>2019-05-23T17:52:20.355Z</time>
      </trkpt>
      <trkpt lat="45.47803" lon="5.77128">
        <ele>755.761841</ele>
        <time>2019-05-23T17:52:57.374Z</time>
      </trkpt>
      <trkpt lat="45.47801" lon="5.77123">
        <ele>772.649536</ele>
        <time>2019-05-23T17:53:14.842Z</time>
      </trkpt>
      <trkpt lat="45.47804" lon="5.77119">
        <ele>764.068604</ele>
        <time>2019-05-23T17:53:32.367Z</time>
      </trkpt>
      <trkpt lat="45.47801" lon="5.77124">
        <ele>757.294189</ele>
        <time>2019-05-23T17:53:37.367Z</time>
      </trkpt>
      <trkpt lat="45.47796" lon="5.77127">
        <ele>756.813721</ele>
        <time>2019-05-23T17:53:42.367Z</time>
      </trkpt>
      <trkpt lat="45.47791" lon="5.7713">
        <ele>756.765869</ele>
        <time>2019-05-23T17:53:47.370Z</time>
      </trkpt>
      <trkpt lat="45.47785" lon="5.77135">
        <ele>757.174194</ele>
        <time>2019-05-23T17:53:52.370Z</time>
      </trkpt>
      <trkpt lat="45.4778" lon="5.77139">
        <ele>754.802246</ele>
        <time>2019-05-23T17:53:57.370Z</time>
      </trkpt>
      <trkpt lat="45.47776" lon="5.77144">
        <ele>751.652344</ele>
        <time>2019-05-23T17:54:02.401Z</time>
      </trkpt>
      <trkpt lat="45.47772" lon="5.77147">
        <ele>748.576416</ele>
        <time>2019-05-23T17:54:07.401Z</time>
      </trkpt>
      <trkpt lat="45.47767" lon="5.7715">
        <ele>748.380127</ele>
        <time>2019-05-23T17:54:12.401Z</time>
      </trkpt>
      <trkpt lat="45.47762" lon="5.7715">
        <ele>750.541016</ele>
        <time>2019-05-23T17:54:17.401Z</time>
      </trkpt>
      <trkpt lat="45.47757" lon="5.7715">
        <ele>750.522461</ele>
        <time>2019-05-23T17:54:23.111Z</time>
      </trkpt>
      <trkpt lat="45.47752" lon="5.77149">
        <ele>753.505371</ele>
        <time>2019-05-23T17:54:28.174Z</time>
      </trkpt>
      <trkpt lat="45.47747" lon="5.77146">
        <ele>754.36792</ele>
        <time>2019-05-23T17:54:33.270Z</time>
      </trkpt>
      <trkpt lat="45.47745" lon="5.77148">
        <ele>755.655762</ele>
        <time>2019-05-23T17:54:40.362Z</time>
      </trkpt>
      <trkpt lat="45.47741" lon="5.77148">
        <ele>756.021118</ele>
        <time>2019-05-23T17:54:45.371Z</time>
      </trkpt>
      <trkpt lat="45.47736" lon="5.77146">
        <ele>757.733398</ele>
        <time>2019-05-23T17:54:51.022Z</time>
      </trkpt>
      <trkpt lat="45.47734" lon="5.77146">
        <ele>756.48999</ele>
        <time>2019-05-23T17:54:56.120Z</time>
      </trkpt>
      <trkpt lat="45.47731" lon="5.77147">
        <ele>757.191895</ele>
        <time>2019-05-23T17:55:01.155Z</time>
      </trkpt>
      <trkpt lat="45.47729" lon="5.77147">
        <ele>755.710693</ele>
        <time>2019-05-23T17:55:06.181Z</time>
      </trkpt>
      <trkpt lat="45.47724" lon="5.77147">
        <ele>756.53418</ele>
        <time>2019-05-23T17:55:16.314Z</time>
      </trkpt>
      <trkpt lat="45.4772" lon="5.77146">
        <ele>757.648071</ele>
        <time>2019-05-23T17:55:21.367Z</time>
      </trkpt>
      <trkpt lat="45.47714" lon="5.77142">
        <ele>758.390137</ele>
        <time>2019-05-23T17:55:26.371Z</time>
      </trkpt>
      <trkpt lat="45.47709" lon="5.77141">
        <ele>759.473877</ele>
        <time>2019-05-23T17:55:31.371Z</time>
      </trkpt>
      <trkpt lat="45.47703" lon="5.77141">
        <ele>760.297363</ele>
        <time>2019-05-23T17:55:40.372Z</time>
      </trkpt>
      <trkpt lat="45.47699" lon="5.77139">
        <ele>760.151367</ele>
        <time>2019-05-23T17:55:45.372Z</time>
      </trkpt>
      <trkpt lat="45.47695" lon="5.77138">
        <ele>761.425903</ele>
        <time>2019-05-23T17:55:50.372Z</time>
      </trkpt>
      <trkpt lat="45.47694" lon="5.77137">
        <ele>761.522949</ele>
        <time>2019-05-23T17:56:04.491Z</time>
      </trkpt>
      <trkpt lat="45.47689" lon="5.77136">
        <ele>762.667969</ele>
        <time>2019-05-23T17:56:09.526Z</time>
      </trkpt>
      <trkpt lat="45.4768" lon="5.77135">
        <ele>763.540283</ele>
        <time>2019-05-23T17:56:14.616Z</time>
      </trkpt>
      <trkpt lat="45.47677" lon="5.77134">
        <ele>763.333618</ele>
        <time>2019-05-23T17:56:19.620Z</time>
      </trkpt>
      <trkpt lat="45.47674" lon="5.77133">
        <ele>764.816162</ele>
        <time>2019-05-23T17:56:24.681Z</time>
      </trkpt>
      <trkpt lat="45.47671" lon="5.7713">
        <ele>765.51123</ele>
        <time>2019-05-23T17:56:29.721Z</time>
      </trkpt>
      <trkpt lat="45.47667" lon="5.77127">
        <ele>765.936768</ele>
        <time>2019-05-23T17:56:34.731Z</time>
      </trkpt>
      <trkpt lat="45.47662" lon="5.77123">
        <ele>768.543457</ele>
        <time>2019-05-23T17:56:39.774Z</time>
      </trkpt>
      <trkpt lat="45.47659" lon="5.77122">
        <ele>767.497681</ele>
        <time>2019-05-23T17:56:44.844Z</time>
      </trkpt>
      <trkpt lat="45.47655" lon="5.7712">
        <ele>768.669922</ele>
        <time>2019-05-23T17:56:49.878Z</time>
      </trkpt>
      <trkpt lat="45.47656" lon="5.77121">
        <ele>768.989258</ele>
        <time>2019-05-23T17:57:02.381Z</time>
      </trkpt>
      <trkpt lat="45.47652" lon="5.7712">
        <ele>770.680054</ele>
        <time>2019-05-23T17:57:07.706Z</time>
      </trkpt>
      <trkpt lat="45.4765" lon="5.77119">
        <ele>769.442139</ele>
        <time>2019-05-23T17:57:12.768Z</time>
      </trkpt>
      <trkpt lat="45.47648" lon="5.77119">
        <ele>769.78064</ele>
        <time>2019-05-23T17:57:17.788Z</time>
      </trkpt>
      <trkpt lat="45.47646" lon="5.77118">
        <ele>772.131958</ele>
        <time>2019-05-23T17:57:28.351Z</time>
      </trkpt>
      <trkpt lat="45.47636" lon="5.77115">
        <ele>771.332764</ele>
        <time>2019-05-23T17:57:33.370Z</time>
      </trkpt>
      <trkpt lat="45.47633" lon="5.77114">
        <ele>772.863281</ele>
        <time>2019-05-23T17:57:38.388Z</time>
      </trkpt>
      <trkpt lat="45.47633" lon="5.77113">
        <ele>775.188721</ele>
        <time>2019-05-23T17:57:47.361Z</time>
      </trkpt>
      <trkpt lat="45.47628" lon="5.7711">
        <ele>775.218506</ele>
        <time>2019-05-23T17:57:52.361Z</time>
      </trkpt>
      <trkpt lat="45.47625" lon="5.77108">
        <ele>774.824463</ele>
        <time>2019-05-23T17:57:57.402Z</time>
      </trkpt>
      <trkpt lat="45.47622" lon="5.77106">
        <ele>778.100586</ele>
        <time>2019-05-23T17:58:02.402Z</time>
      </trkpt>
      <trkpt lat="45.4762" lon="5.77105">
        <ele>780.369385</ele>
        <time>2019-05-23T17:58:09.350Z</time>
      </trkpt>
      <trkpt lat="45.47613" lon="5.771">
        <ele>781.076416</ele>
        <time>2019-05-23T17:58:14.350Z</time>
      </trkpt>
      <trkpt lat="45.47605" lon="5.77096">
        <ele>779.609985</ele>
        <time>2019-05-23T17:58:19.363Z</time>
      </trkpt>
      <trkpt lat="45.476" lon="5.77094">
        <ele>778.831543</ele>
        <time>2019-05-23T17:58:25.352Z</time>
      </trkpt>
      <trkpt lat="45.47599" lon="5.77092">
        <ele>782.38562</ele>
        <time>2019-05-23T17:58:37.349Z</time>
      </trkpt>
      <trkpt lat="45.47595" lon="5.77091">
        <ele>782.147705</ele>
        <time>2019-05-23T17:58:42.365Z</time>
      </trkpt>
      <trkpt lat="45.47591" lon="5.7709">
        <ele>781.494629</ele>
        <time>2019-05-23T17:58:47.365Z</time>
      </trkpt>
      <trkpt lat="45.47587" lon="5.77086">
        <ele>783.234985</ele>
        <time>2019-05-23T17:58:52.365Z</time>
      </trkpt>
      <trkpt lat="45.47584" lon="5.77085">
        <ele>783.590942</ele>
        <time>2019-05-23T17:58:57.389Z</time>
      </trkpt>
      <trkpt lat="45.47583" lon="5.77084">
        <ele>784.810791</ele>
        <time>2019-05-23T17:59:03.374Z</time>
      </trkpt>
      <trkpt lat="45.47581" lon="5.77083">
        <ele>786.403564</ele>
        <time>2019-05-23T17:59:16.350Z</time>
      </trkpt>
      <trkpt lat="45.47574" lon="5.77078">
        <ele>785.488037</ele>
        <time>2019-05-23T17:59:21.366Z</time>
      </trkpt>
      <trkpt lat="45.4757" lon="5.77076">
        <ele>786.10376</ele>
        <time>2019-05-23T17:59:26.373Z</time>
      </trkpt>
      <trkpt lat="45.47568" lon="5.77077">
        <ele>787.781616</ele>
        <time>2019-05-23T17:59:32.153Z</time>
      </trkpt>
      <trkpt lat="45.47564" lon="5.77077">
        <ele>788.611572</ele>
        <time>2019-05-23T17:59:47.385Z</time>
      </trkpt>
      <trkpt lat="45.47555" lon="5.77074">
        <ele>789.74646</ele>
        <time>2019-05-23T17:59:52.385Z</time>
      </trkpt>
      <trkpt lat="45.47546" lon="5.7707">
        <ele>790.636719</ele>
        <time>2019-05-23T17:59:57.385Z</time>
      </trkpt>
      <trkpt lat="45.47541" lon="5.77068">
        <ele>792.893555</ele>
        <time>2019-05-23T18:00:02.385Z</time>
      </trkpt>
      <trkpt lat="45.47535" lon="5.77064">
        <ele>794.405029</ele>
        <time>2019-05-23T18:00:07.396Z</time>
      </trkpt>
      <trkpt lat="45.47527" lon="5.7706">
        <ele>794.865479</ele>
        <time>2019-05-23T18:00:12.396Z</time>
      </trkpt>
      <trkpt lat="45.47524" lon="5.77058">
        <ele>796.603271</ele>
        <time>2019-05-23T18:00:17.396Z</time>
      </trkpt>
      <trkpt lat="45.47526" lon="5.77058">
        <ele>796.814941</ele>
        <time>2019-05-23T18:00:22.399Z</time>
      </trkpt>
      <trkpt lat="45.47524" lon="5.77057">
        <ele>797.986938</ele>
        <time>2019-05-23T18:00:27.399Z</time>
      </trkpt>
      <trkpt lat="45.47519" lon="5.77054">
        <ele>797.051025</ele>
        <time>2019-05-23T18:00:32.399Z</time>
      </trkpt>
      <trkpt lat="45.47509" lon="5.7705">
        <ele>798.594727</ele>
        <time>2019-05-23T18:00:53.358Z</time>
      </trkpt>
      <trkpt lat="45.47504" lon="5.7705">
        <ele>799.364624</ele>
        <time>2019-05-23T18:00:59.368Z</time>
      </trkpt>
      <trkpt lat="45.47504" lon="5.77052">
        <ele>800.215332</ele>
        <time>2019-05-23T18:01:04.392Z</time>
      </trkpt>
      <trkpt lat="45.47501" lon="5.77053">
        <ele>800.900635</ele>
        <time>2019-05-23T18:01:09.399Z</time>
      </trkpt>
      <trkpt lat="45.47497" lon="5.77053">
        <ele>802.659424</ele>
        <time>2019-05-23T18:01:14.399Z</time>
      </trkpt>
      <trkpt lat="45.47493" lon="5.77054">
        <ele>803.900269</ele>
        <time>2019-05-23T18:01:19.399Z</time>
      </trkpt>
      <trkpt lat="45.47488" lon="5.77055">
        <ele>805.717773</ele>
        <time>2019-05-23T18:01:24.399Z</time>
      </trkpt>
      <trkpt lat="45.47487" lon="5.77055">
        <ele>805.530518</ele>
        <time>2019-05-23T18:01:38.350Z</time>
      </trkpt>
      <trkpt lat="45.47476" lon="5.77054">
        <ele>805.852905</ele>
        <time>2019-05-23T18:01:43.362Z</time>
      </trkpt>
      <trkpt lat="45.4747" lon="5.77053">
        <ele>806.2229</ele>
        <time>2019-05-23T18:01:48.370Z</time>
      </trkpt>
      <trkpt lat="45.47469" lon="5.77053">
        <ele>807.174561</ele>
        <time>2019-05-23T18:02:01.370Z</time>
      </trkpt>
      <trkpt lat="45.47461" lon="5.77055">
        <ele>808.145264</ele>
        <time>2019-05-23T18:02:06.595Z</time>
      </trkpt>
      <trkpt lat="45.47457" lon="5.77055">
        <ele>808.641602</ele>
        <time>2019-05-23T18:02:11.690Z</time>
      </trkpt>
      <trkpt lat="45.47455" lon="5.77055">
        <ele>810.142822</ele>
        <time>2019-05-23T18:02:16.757Z</time>
      </trkpt>
      <trkpt lat="45.47453" lon="5.77055">
        <ele>811.735596</ele>
        <time>2019-05-23T18:02:24.350Z</time>
      </trkpt>
      <trkpt lat="45.47446" lon="5.77055">
        <ele>811.889771</ele>
        <time>2019-05-23T18:02:29.384Z</time>
      </trkpt>
      <trkpt lat="45.47441" lon="5.77056">
        <ele>814.227051</ele>
        <time>2019-05-23T18:02:34.425Z</time>
      </trkpt>
      <trkpt lat="45.47442" lon="5.77055">
        <ele>817.756104</ele>
        <time>2019-05-23T18:02:39.488Z</time>
      </trkpt>
      <trkpt lat="45.47441" lon="5.77054">
        <ele>821.260498</ele>
        <time>2019-05-23T18:02:44.508Z</time>
      </trkpt>
      <trkpt lat="45.47436" lon="5.77052">
        <ele>820.423462</ele>
        <time>2019-05-23T18:02:49.564Z</time>
      </trkpt>
      <trkpt lat="45.47434" lon="5.77051">
        <ele>820.86499</ele>
        <time>2019-05-23T18:02:55.347Z</time>
      </trkpt>
      <trkpt lat="45.47425" lon="5.77047">
        <ele>821.638428</ele>
        <time>2019-05-23T18:03:00.361Z</time>
      </trkpt>
      <trkpt lat="45.47421" lon="5.77043">
        <ele>821.905884</ele>
        <time>2019-05-23T18:03:06.358Z</time>
      </trkpt>
      <trkpt lat="45.47419" lon="5.77039">
        <ele>824.487427</ele>
        <time>2019-05-23T18:03:11.377Z</time>
      </trkpt>
      <trkpt lat="45.47417" lon="5.77037">
        <ele>825.279297</ele>
        <time>2019-05-23T18:03:16.377Z</time>
      </trkpt>
      <trkpt lat="45.47414" lon="5.77039">
        <ele>822.568237</ele>
        <time>2019-05-23T18:03:23.357Z</time>
      </trkpt>
      <trkpt lat="45.47404" lon="5.77045">
        <ele>825.213867</ele>
        <time>2019-05-23T18:03:28.362Z</time>
      </trkpt>
      <trkpt lat="45.47401" lon="5.77046">
        <ele>824.910156</ele>
        <time>2019-05-23T18:03:35.123Z</time>
      </trkpt>
      <trkpt lat="45.47403" lon="5.77045">
        <ele>825.463867</ele>
        <time>2019-05-23T18:03:40.154Z</time>
      </trkpt>
      <trkpt lat="45.47394" lon="5.77043">
        <ele>826.573853</ele>
        <time>2019-05-23T18:03:45.236Z</time>
      </trkpt>
      <trkpt lat="45.4739" lon="5.77042">
        <ele>829.522949</ele>
        <time>2019-05-23T18:03:50.300Z</time>
      </trkpt>
      <trkpt lat="45.47386" lon="5.77042">
        <ele>833.730225</ele>
        <time>2019-05-23T18:04:04.351Z</time>
      </trkpt>
      <trkpt lat="45.47377" lon="5.77044">
        <ele>837.616089</ele>
        <time>2019-05-23T18:04:09.386Z</time>
      </trkpt>
      <trkpt lat="45.47373" lon="5.77043">
        <ele>840.809692</ele>
        <time>2019-05-23T18:04:14.401Z</time>
      </trkpt>
      <trkpt lat="45.47371" lon="5.77044">
        <ele>839.412964</ele>
        <time>2019-05-23T18:04:19.401Z</time>
      </trkpt>
      <trkpt lat="45.47367" lon="5.77046">
        <ele>837.985107</ele>
        <time>2019-05-23T18:04:24.409Z</time>
      </trkpt>
      <trkpt lat="45.47363" lon="5.77049">
        <ele>839.766113</ele>
        <time>2019-05-23T18:04:29.409Z</time>
      </trkpt>
      <trkpt lat="45.47358" lon="5.77054">
        <ele>842.048584</ele>
        <time>2019-05-23T18:04:34.409Z</time>
      </trkpt>
      <trkpt lat="45.47354" lon="5.77057">
        <ele>841.461426</ele>
        <time>2019-05-23T18:04:39.409Z</time>
      </trkpt>
      <trkpt lat="45.4735" lon="5.77058">
        <ele>841.317383</ele>
        <time>2019-05-23T18:04:45.369Z</time>
      </trkpt>
      <trkpt lat="45.47344" lon="5.77062">
        <ele>838.620605</ele>
        <time>2019-05-23T18:04:50.369Z</time>
      </trkpt>
      <trkpt lat="45.47337" lon="5.77065">
        <ele>838.739624</ele>
        <time>2019-05-23T18:04:55.369Z</time>
      </trkpt>
      <trkpt lat="45.47337" lon="5.77067">
        <ele>838.290527</ele>
        <time>2019-05-23T18:05:00.375Z</time>
      </trkpt>
      <trkpt lat="45.47335" lon="5.77069">
        <ele>839.840576</ele>
        <time>2019-05-23T18:05:05.375Z</time>
      </trkpt>
      <trkpt lat="45.4733" lon="5.77074">
        <ele>840.768799</ele>
        <time>2019-05-23T18:05:10.381Z</time>
      </trkpt>
      <trkpt lat="45.47329" lon="5.77076">
        <ele>840.963135</ele>
        <time>2019-05-23T18:05:15.387Z</time>
      </trkpt>
      <trkpt lat="45.47326" lon="5.77079">
        <ele>841.314575</ele>
        <time>2019-05-23T18:05:20.387Z</time>
      </trkpt>
      <trkpt lat="45.47322" lon="5.77085">
        <ele>840.363159</ele>
        <time>2019-05-23T18:05:25.387Z</time>
      </trkpt>
      <trkpt lat="45.47319" lon="5.7709">
        <ele>840.647705</ele>
        <time>2019-05-23T18:05:30.387Z</time>
      </trkpt>
      <trkpt lat="45.47316" lon="5.7709">
        <ele>841.12854</ele>
        <time>2019-05-23T18:05:35.403Z</time>
      </trkpt>
      <trkpt lat="45.47313" lon="5.77089">
        <ele>841.296509</ele>
        <time>2019-05-23T18:06:14.354Z</time>
      </trkpt>
      <trkpt lat="45.47307" lon="5.77083">
        <ele>840.860596</ele>
        <time>2019-05-23T18:06:19.372Z</time>
      </trkpt>
      <trkpt lat="45.47302" lon="5.77073">
        <ele>840.827148</ele>
        <time>2019-05-23T18:06:24.374Z</time>
      </trkpt>
      <trkpt lat="45.473" lon="5.7706">
        <ele>840.070435</ele>
        <time>2019-05-23T18:06:29.374Z</time>
      </trkpt>
      <trkpt lat="45.47298" lon="5.77049">
        <ele>840.299316</ele>
        <time>2019-05-23T18:06:34.374Z</time>
      </trkpt>
      <trkpt lat="45.47293" lon="5.77041">
        <ele>840.728516</ele>
        <time>2019-05-23T18:06:39.374Z</time>
      </trkpt>
      <trkpt lat="45.47284" lon="5.77038">
        <ele>841.196899</ele>
        <time>2019-05-23T18:06:44.374Z</time>
      </trkpt>
      <trkpt lat="45.4728" lon="5.77037">
        <ele>840.98645</ele>
        <time>2019-05-23T18:06:50.412Z</time>
      </trkpt>
      <trkpt lat="45.47276" lon="5.77037">
        <ele>841.307495</ele>
        <time>2019-05-23T18:06:56.351Z</time>
      </trkpt>
      <trkpt lat="45.47268" lon="5.77031">
        <ele>843.434814</ele>
        <time>2019-05-23T18:07:01.364Z</time>
      </trkpt>
      <trkpt lat="45.47258" lon="5.77025">
        <ele>843.855835</ele>
        <time>2019-05-23T18:07:06.368Z</time>
      </trkpt>
      <trkpt lat="45.47251" lon="5.77019">
        <ele>844.894531</ele>
        <time>2019-05-23T18:07:11.368Z</time>
      </trkpt>
      <trkpt lat="45.47245" lon="5.77015">
        <ele>844.06665</ele>
        <time>2019-05-23T18:07:16.368Z</time>
      </trkpt>
      <trkpt lat="45.47238" lon="5.77008">
        <ele>843.783203</ele>
        <time>2019-05-23T18:07:21.368Z</time>
      </trkpt>
      <trkpt lat="45.47231" lon="5.77005">
        <ele>844.250977</ele>
        <time>2019-05-23T18:07:26.368Z</time>
      </trkpt>
      <trkpt lat="45.47223" lon="5.77003">
        <ele>844.039063</ele>
        <time>2019-05-23T18:07:31.368Z</time>
      </trkpt>
      <trkpt lat="45.4721" lon="5.77001">
        <ele>844.141724</ele>
        <time>2019-05-23T18:07:36.368Z</time>
      </trkpt>
      <trkpt lat="45.47196" lon="5.76997">
        <ele>844.595703</ele>
        <time>2019-05-23T18:07:41.368Z</time>
      </trkpt>
      <trkpt lat="45.4718" lon="5.76995">
        <ele>844.723633</ele>
        <time>2019-05-23T18:07:46.369Z</time>
      </trkpt>
      <trkpt lat="45.47164" lon="5.76994">
        <ele>843.747559</ele>
        <time>2019-05-23T18:07:51.369Z</time>
      </trkpt>
      <trkpt lat="45.47149" lon="5.76992">
        <ele>843.503906</ele>
        <time>2019-05-23T18:07:56.369Z</time>
      </trkpt>
      <trkpt lat="45.47132" lon="5.76992">
        <ele>843.024658</ele>
        <time>2019-05-23T18:08:01.369Z</time>
      </trkpt>
      <trkpt lat="45.47119" lon="5.76992">
        <ele>843.804199</ele>
        <time>2019-05-23T18:08:06.369Z</time>
      </trkpt>
      <trkpt lat="45.47107" lon="5.76988">
        <ele>843.665039</ele>
        <time>2019-05-23T18:08:11.373Z</time>
      </trkpt>
      <trkpt lat="45.47095" lon="5.76984">
        <ele>844.148193</ele>
        <time>2019-05-23T18:08:16.376Z</time>
      </trkpt>
      <trkpt lat="45.47082" lon="5.76979">
        <ele>844.463623</ele>
        <time>2019-05-23T18:08:21.376Z</time>
      </trkpt>
      <trkpt lat="45.47065" lon="5.76971">
        <ele>846.503418</ele>
        <time>2019-05-23T18:08:26.376Z</time>
      </trkpt>
      <trkpt lat="45.47049" lon="5.76965">
        <ele>847.554321</ele>
        <time>2019-05-23T18:08:31.376Z</time>
      </trkpt>
      <trkpt lat="45.47035" lon="5.76956">
        <ele>847.727539</ele>
        <time>2019-05-23T18:08:36.376Z</time>
      </trkpt>
      <trkpt lat="45.47023" lon="5.76944">
        <ele>847.292725</ele>
        <time>2019-05-23T18:08:41.376Z</time>
      </trkpt>
      <trkpt lat="45.4701" lon="5.76936">
        <ele>847.218506</ele>
        <time>2019-05-23T18:08:46.376Z</time>
      </trkpt>
      <trkpt lat="45.46995" lon="5.76934">
        <ele>848.874756</ele>
        <time>2019-05-23T18:08:51.424Z</time>
      </trkpt>
      <trkpt lat="45.46981" lon="5.76937">
        <ele>848.768311</ele>
        <time>2019-05-23T18:08:56.434Z</time>
      </trkpt>
      <trkpt lat="45.46967" lon="5.76943">
        <ele>847.590332</ele>
        <time>2019-05-23T18:09:01.434Z</time>
      </trkpt>
      <trkpt lat="45.46953" lon="5.7695">
        <ele>847.840332</ele>
        <time>2019-05-23T18:09:06.434Z</time>
      </trkpt>
      <trkpt lat="45.46942" lon="5.76956">
        <ele>849.479004</ele>
        <time>2019-05-23T18:09:11.743Z</time>
      </trkpt>
      <trkpt lat="45.46927" lon="5.7696">
        <ele>849.295654</ele>
        <time>2019-05-23T18:09:16.843Z</time>
      </trkpt>
      <trkpt lat="45.46912" lon="5.76965">
        <ele>848.569702</ele>
        <time>2019-05-23T18:09:21.907Z</time>
      </trkpt>
      <trkpt lat="45.46898" lon="5.7697">
        <ele>850.274658</ele>
        <time>2019-05-23T18:09:27.016Z</time>
      </trkpt>
      <trkpt lat="45.46883" lon="5.76976">
        <ele>850.196167</ele>
        <time>2019-05-23T18:09:32.055Z</time>
      </trkpt>
      <trkpt lat="45.46866" lon="5.7698">
        <ele>851.320923</ele>
        <time>2019-05-23T18:09:37.066Z</time>
      </trkpt>
      <trkpt lat="45.46849" lon="5.76976">
        <ele>850.611938</ele>
        <time>2019-05-23T18:09:42.101Z</time>
      </trkpt>
      <trkpt lat="45.46832" lon="5.76968">
        <ele>853.199341</ele>
        <time>2019-05-23T18:09:47.185Z</time>
      </trkpt>
      <trkpt lat="45.46814" lon="5.76964">
        <ele>853.488525</ele>
        <time>2019-05-23T18:09:52.246Z</time>
      </trkpt>
      <trkpt lat="45.468" lon="5.76964">
        <ele>853.170654</ele>
        <time>2019-05-23T18:09:57.283Z</time>
      </trkpt>
      <trkpt lat="45.46786" lon="5.76954">
        <ele>851.554688</ele>
        <time>2019-05-23T18:10:02.313Z</time>
      </trkpt>
      <trkpt lat="45.46762" lon="5.76935">
        <ele>849.462036</ele>
        <time>2019-05-23T18:10:07.371Z</time>
      </trkpt>
      <trkpt lat="45.46734" lon="5.76913">
        <ele>848.222656</ele>
        <time>2019-05-23T18:10:12.371Z</time>
      </trkpt>
      <trkpt lat="45.46701" lon="5.76908">
        <ele>844.389526</ele>
        <time>2019-05-23T18:10:17.371Z</time>
      </trkpt>
      <trkpt lat="45.46669" lon="5.7692">
        <ele>843.808105</ele>
        <time>2019-05-23T18:10:22.371Z</time>
      </trkpt>
      <trkpt lat="45.46642" lon="5.76942">
        <ele>840.573975</ele>
        <time>2019-05-23T18:10:27.371Z</time>
      </trkpt>
      <trkpt lat="45.46616" lon="5.76965">
        <ele>839.715088</ele>
        <time>2019-05-23T18:10:32.371Z</time>
      </trkpt>
      <trkpt lat="45.46587" lon="5.76974">
        <ele>834.849121</ele>
        <time>2019-05-23T18:10:37.371Z</time>
      </trkpt>
      <trkpt lat="45.46558" lon="5.76977">
        <ele>829.094971</ele>
        <time>2019-05-23T18:10:42.371Z</time>
      </trkpt>
      <trkpt lat="45.46528" lon="5.76976">
        <ele>825.77832</ele>
        <time>2019-05-23T18:10:47.371Z</time>
      </trkpt>
      <trkpt lat="45.46505" lon="5.7696">
        <ele>818.243896</ele>
        <time>2019-05-23T18:10:52.371Z</time>
      </trkpt>
      <trkpt lat="45.46487" lon="5.7695">
        <ele>814.859497</ele>
        <time>2019-05-23T18:10:57.371Z</time>
      </trkpt>
      <trkpt lat="45.46472" lon="5.76947">
        <ele>810.958984</ele>
        <time>2019-05-23T18:11:02.371Z</time>
      </trkpt>
      <trkpt lat="45.46455" lon="5.76941">
        <ele>805.775635</ele>
        <time>2019-05-23T18:11:07.371Z</time>
      </trkpt>
      <trkpt lat="45.46428" lon="5.76936">
        <ele>804.183594</ele>
        <time>2019-05-23T18:11:12.371Z</time>
      </trkpt>
      <trkpt lat="45.46404" lon="5.76926">
        <ele>798.2854</ele>
        <time>2019-05-23T18:11:17.371Z</time>
      </trkpt>
      <trkpt lat="45.46378" lon="5.76916">
        <ele>792.357666</ele>
        <time>2019-05-23T18:11:22.371Z</time>
      </trkpt>
      <trkpt lat="45.46364" lon="5.76905">
        <ele>786.391846</ele>
        <time>2019-05-23T18:11:27.371Z</time>
      </trkpt>
      <trkpt lat="45.46364" lon="5.76901">
        <ele>784.282715</ele>
        <time>2019-05-23T18:11:38.684Z</time>
      </trkpt>
      <trkpt lat="45.46361" lon="5.7689">
        <ele>782.087524</ele>
        <time>2019-05-23T18:11:43.721Z</time>
      </trkpt>
      <trkpt lat="45.46349" lon="5.7687">
        <ele>781.360596</ele>
        <time>2019-05-23T18:11:48.772Z</time>
      </trkpt>
      <trkpt lat="45.46331" lon="5.76844">
        <ele>779.065186</ele>
        <time>2019-05-23T18:11:53.791Z</time>
      </trkpt>
      <trkpt lat="45.46315" lon="5.76823">
        <ele>772.802368</ele>
        <time>2019-05-23T18:11:58.872Z</time>
      </trkpt>
      <trkpt lat="45.46297" lon="5.76797">
        <ele>771.314209</ele>
        <time>2019-05-23T18:12:03.908Z</time>
      </trkpt>
      <trkpt lat="45.46295" lon="5.76776">
        <ele>767.176025</ele>
        <time>2019-05-23T18:12:08.975Z</time>
      </trkpt>
      <trkpt lat="45.46289" lon="5.76763">
        <ele>766.099121</ele>
        <time>2019-05-23T18:12:14.015Z</time>
      </trkpt>
      <trkpt lat="45.46285" lon="5.76742">
        <ele>756.974854</ele>
        <time>2019-05-23T18:12:19.080Z</time>
      </trkpt>
      <trkpt lat="45.46284" lon="5.76718">
        <ele>755.233398</ele>
        <time>2019-05-23T18:12:24.305Z</time>
      </trkpt>
      <trkpt lat="45.46285" lon="5.7672">
        <ele>755.05188</ele>
        <time>2019-05-23T18:12:38.360Z</time>
      </trkpt>
      <trkpt lat="45.46285" lon="5.76717">
        <ele>758.238281</ele>
        <time>2019-05-23T18:12:44.541Z</time>
      </trkpt>
      <trkpt lat="45.46283" lon="5.76716">
        <ele>755.298706</ele>
        <time>2019-05-23T18:13:09.832Z</time>
      </trkpt>
      <trkpt lat="45.46281" lon="5.76714">
        <ele>752.582764</ele>
        <time>2019-05-23T18:13:14.903Z</time>
      </trkpt>
      <trkpt lat="45.46274" lon="5.7672">
        <ele>752.661011</ele>
        <time>2019-05-23T18:13:19.933Z</time>
      </trkpt>
      <trkpt lat="45.46262" lon="5.76728">
        <ele>752.467041</ele>
        <time>2019-05-23T18:13:25.143Z</time>
      </trkpt>
      <trkpt lat="45.46251" lon="5.76736">
        <ele>751.218018</ele>
        <time>2019-05-23T18:13:30.248Z</time>
      </trkpt>
      <trkpt lat="45.46244" lon="5.76746">
        <ele>752.007813</ele>
        <time>2019-05-23T18:13:35.287Z</time>
      </trkpt>
      <trkpt lat="45.46232" lon="5.76755">
        <ele>751.519043</ele>
        <time>2019-05-23T18:13:40.315Z</time>
      </trkpt>
      <trkpt lat="45.46205" lon="5.76769">
        <ele>751.222656</ele>
        <time>2019-05-23T18:13:45.379Z</time>
      </trkpt>
      <trkpt lat="45.46187" lon="5.76779">
        <ele>749.634521</ele>
        <time>2019-05-23T18:13:50.379Z</time>
      </trkpt>
      <trkpt lat="45.46173" lon="5.76794">
        <ele>747.752686</ele>
        <time>2019-05-23T18:13:55.386Z</time>
      </trkpt>
      <trkpt lat="45.46157" lon="5.76802">
        <ele>746.927979</ele>
        <time>2019-05-23T18:14:00.386Z</time>
      </trkpt>
      <trkpt lat="45.46136" lon="5.76813">
        <ele>744.55835</ele>
        <time>2019-05-23T18:14:05.386Z</time>
      </trkpt>
      <trkpt lat="45.46109" lon="5.76833">
        <ele>742.086914</ele>
        <time>2019-05-23T18:14:10.386Z</time>
      </trkpt>
      <trkpt lat="45.46084" lon="5.76833">
        <ele>741.146484</ele>
        <time>2019-05-23T18:14:15.386Z</time>
      </trkpt>
      <trkpt lat="45.46065" lon="5.76828">
        <ele>735.273193</ele>
        <time>2019-05-23T18:14:20.386Z</time>
      </trkpt>
      <trkpt lat="45.46061" lon="5.76824">
        <ele>732.848755</ele>
        <time>2019-05-23T18:14:27.362Z</time>
      </trkpt>
      <trkpt lat="45.4605" lon="5.76816">
        <ele>730.853271</ele>
        <time>2019-05-23T18:14:32.362Z</time>
      </trkpt>
      <trkpt lat="45.46034" lon="5.76809">
        <ele>728.835205</ele>
        <time>2019-05-23T18:14:37.371Z</time>
      </trkpt>
      <trkpt lat="45.46006" lon="5.76802">
        <ele>725.298828</ele>
        <time>2019-05-23T18:14:42.371Z</time>
      </trkpt>
      <trkpt lat="45.46001" lon="5.76773">
        <ele>724.83313</ele>
        <time>2019-05-23T18:14:47.371Z</time>
      </trkpt>
      <trkpt lat="45.46003" lon="5.76752">
        <ele>721.493896</ele>
        <time>2019-05-23T18:14:52.371Z</time>
      </trkpt>
      <trkpt lat="45.46008" lon="5.76735">
        <ele>718.549561</ele>
        <time>2019-05-23T18:14:57.371Z</time>
      </trkpt>
      <trkpt lat="45.46006" lon="5.7671">
        <ele>714.243164</ele>
        <time>2019-05-23T18:15:02.371Z</time>
      </trkpt>
      <trkpt lat="45.45995" lon="5.76677">
        <ele>712.298096</ele>
        <time>2019-05-23T18:15:07.371Z</time>
      </trkpt>
      <trkpt lat="45.45994" lon="5.76643">
        <ele>709.469849</ele>
        <time>2019-05-23T18:15:12.371Z</time>
      </trkpt>
      <trkpt lat="45.45981" lon="5.76623">
        <ele>705.307617</ele>
        <time>2019-05-23T18:15:17.371Z</time>
      </trkpt>
      <trkpt lat="45.45955" lon="5.76631">
        <ele>700.690918</ele>
        <time>2019-05-23T18:15:22.371Z</time>
      </trkpt>
      <trkpt lat="45.45922" lon="5.76637">
        <ele>696.12439</ele>
        <time>2019-05-23T18:15:27.377Z</time>
      </trkpt>
      <trkpt lat="45.45911" lon="5.76612">
        <ele>695.247437</ele>
        <time>2019-05-23T18:15:32.379Z</time>
      </trkpt>
      <trkpt lat="45.45926" lon="5.76588">
        <ele>689.755249</ele>
        <time>2019-05-23T18:15:37.379Z</time>
      </trkpt>
      <trkpt lat="45.45955" lon="5.76569">
        <ele>691.01416</ele>
        <time>2019-05-23T18:15:42.379Z</time>
      </trkpt>
      <trkpt lat="45.45974" lon="5.76539">
        <ele>691.450684</ele>
        <time>2019-05-23T18:15:47.379Z</time>
      </trkpt>
      <trkpt lat="45.45965" lon="5.76528">
        <ele>689.317871</ele>
        <time>2019-05-23T18:15:57.365Z</time>
      </trkpt>
      <trkpt lat="45.45963" lon="5.7652">
        <ele>687.817139</ele>
        <time>2019-05-23T18:16:03.352Z</time>
      </trkpt>
      <trkpt lat="45.4595" lon="5.76513">
        <ele>683.654175</ele>
        <time>2019-05-23T18:16:08.353Z</time>
      </trkpt>
      <trkpt lat="45.45917" lon="5.76513">
        <ele>681.331299</ele>
        <time>2019-05-23T18:16:13.366Z</time>
      </trkpt>
      <trkpt lat="45.45878" lon="5.76501">
        <ele>679.936523</ele>
        <time>2019-05-23T18:16:18.366Z</time>
      </trkpt>
      <trkpt lat="45.45844" lon="5.76488">
        <ele>674.943481</ele>
        <time>2019-05-23T18:16:23.366Z</time>
      </trkpt>
      <trkpt lat="45.45805" lon="5.76494">
        <ele>673.418701</ele>
        <time>2019-05-23T18:16:28.366Z</time>
      </trkpt>
      <trkpt lat="45.45777" lon="5.76506">
        <ele>671.288818</ele>
        <time>2019-05-23T18:16:33.366Z</time>
      </trkpt>
      <trkpt lat="45.45766" lon="5.76543">
        <ele>666.504761</ele>
        <time>2019-05-23T18:16:38.379Z</time>
      </trkpt>
      <trkpt lat="45.45739" lon="5.76567">
        <ele>662.47583</ele>
        <time>2019-05-23T18:16:43.379Z</time>
      </trkpt>
      <trkpt lat="45.45732" lon="5.76594">
        <ele>658.710693</ele>
        <time>2019-05-23T18:16:48.379Z</time>
      </trkpt>
      <trkpt lat="45.4573" lon="5.76619">
        <ele>656.810669</ele>
        <time>2019-05-23T18:16:53.379Z</time>
      </trkpt>
      <trkpt lat="45.45715" lon="5.76634">
        <ele>653.785034</ele>
        <time>2019-05-23T18:16:58.379Z</time>
      </trkpt>
      <trkpt lat="45.45697" lon="5.7662">
        <ele>652.980225</ele>
        <time>2019-05-23T18:17:03.379Z</time>
      </trkpt>
      <trkpt lat="45.45685" lon="5.76606">
        <ele>655.114868</ele>
        <time>2019-05-23T18:17:08.379Z</time>
      </trkpt>
      <trkpt lat="45.45669" lon="5.76592">
        <ele>652.557373</ele>
        <time>2019-05-23T18:17:13.379Z</time>
      </trkpt>
      <trkpt lat="45.45652" lon="5.76562">
        <ele>650.541992</ele>
        <time>2019-05-23T18:17:18.379Z</time>
      </trkpt>
      <trkpt lat="45.45632" lon="5.76554">
        <ele>645.776611</ele>
        <time>2019-05-23T18:17:23.381Z</time>
      </trkpt>
      <trkpt lat="45.45609" lon="5.76539">
        <ele>646.306885</ele>
        <time>2019-05-23T18:17:28.381Z</time>
      </trkpt>
      <trkpt lat="45.45588" lon="5.7653">
        <ele>631.961914</ele>
        <time>2019-05-23T18:17:33.381Z</time>
      </trkpt>
      <trkpt lat="45.45571" lon="5.7653">
        <ele>625.794189</ele>
        <time>2019-05-23T18:17:38.382Z</time>
      </trkpt>
      <trkpt lat="45.45559" lon="5.76529">
        <ele>623.246582</ele>
        <time>2019-05-23T18:17:43.383Z</time>
      </trkpt>
      <trkpt lat="45.45537" lon="5.76521">
        <ele>621.87793</ele>
        <time>2019-05-23T18:17:48.383Z</time>
      </trkpt>
      <trkpt lat="45.45517" lon="5.76499">
        <ele>617.742188</ele>
        <time>2019-05-23T18:17:53.383Z</time>
      </trkpt>
      <trkpt lat="45.45515" lon="5.76462">
        <ele>613.107056</ele>
        <time>2019-05-23T18:17:58.383Z</time>
      </trkpt>
      <trkpt lat="45.45502" lon="5.76466">
        <ele>609.965576</ele>
        <time>2019-05-23T18:18:03.388Z</time>
      </trkpt>
      <trkpt lat="45.4549" lon="5.76463">
        <ele>610.477295</ele>
        <time>2019-05-23T18:18:08.388Z</time>
      </trkpt>
      <trkpt lat="45.45481" lon="5.7646">
        <ele>609.182373</ele>
        <time>2019-05-23T18:18:13.388Z</time>
      </trkpt>
      <trkpt lat="45.45479" lon="5.76456">
        <ele>612.046021</ele>
        <time>2019-05-23T18:18:18.388Z</time>
      </trkpt>
      <trkpt lat="45.45477" lon="5.76453">
        <ele>616.634521</ele>
        <time>2019-05-23T18:18:23.388Z</time>
      </trkpt>
      <trkpt lat="45.45475" lon="5.76452">
        <ele>617.870728</ele>
        <time>2019-05-23T18:18:28.391Z</time>
      </trkpt>
      <trkpt lat="45.4547" lon="5.76451">
        <ele>619.601318</ele>
        <time>2019-05-23T18:18:33.391Z</time>
      </trkpt>
      <trkpt lat="45.45464" lon="5.76448">
        <ele>616.863525</ele>
        <time>2019-05-23T18:18:39.373Z</time>
      </trkpt>
      <trkpt lat="45.45459" lon="5.76446">
        <ele>620.889404</ele>
        <time>2019-05-23T18:18:44.373Z</time>
      </trkpt>
      <trkpt lat="45.45456" lon="5.76442">
        <ele>619.658203</ele>
        <time>2019-05-23T18:18:49.373Z</time>
      </trkpt>
      <trkpt lat="45.45451" lon="5.76444">
        <ele>620.704834</ele>
        <time>2019-05-23T18:18:54.373Z</time>
      </trkpt>
      <trkpt lat="45.45444" lon="5.76439">
        <ele>622.885254</ele>
        <time>2019-05-23T18:18:59.373Z</time>
      </trkpt>
      <trkpt lat="45.45439" lon="5.76429">
        <ele>625.42627</ele>
        <time>2019-05-23T18:19:04.373Z</time>
      </trkpt>
      <trkpt lat="45.45436" lon="5.76418">
        <ele>629.323486</ele>
        <time>2019-05-23T18:19:09.373Z</time>
      </trkpt>
      <trkpt lat="45.45431" lon="5.76409">
        <ele>625.823364</ele>
        <time>2019-05-23T18:19:14.373Z</time>
      </trkpt>
      <trkpt lat="45.45425" lon="5.76403">
        <ele>625.253784</ele>
        <time>2019-05-23T18:19:39.359Z</time>
      </trkpt>
      <trkpt lat="45.45419" lon="5.76396">
        <ele>622.958618</ele>
        <time>2019-05-23T18:19:44.362Z</time>
      </trkpt>
      <trkpt lat="45.45402" lon="5.76383">
        <ele>619.797119</ele>
        <time>2019-05-23T18:19:49.362Z</time>
      </trkpt>
      <trkpt lat="45.45387" lon="5.76367">
        <ele>617.994019</ele>
        <time>2019-05-23T18:19:54.362Z</time>
      </trkpt>
      <trkpt lat="45.45382" lon="5.76335">
        <ele>615.415527</ele>
        <time>2019-05-23T18:19:59.362Z</time>
      </trkpt>
      <trkpt lat="45.45361" lon="5.7632">
        <ele>612.59668</ele>
        <time>2019-05-23T18:20:04.362Z</time>
      </trkpt>
      <trkpt lat="45.45338" lon="5.76304">
        <ele>604.703857</ele>
        <time>2019-05-23T18:20:09.362Z</time>
      </trkpt>
      <trkpt lat="45.45319" lon="5.76299">
        <ele>605.350342</ele>
        <time>2019-05-23T18:20:14.362Z</time>
      </trkpt>
      <trkpt lat="45.453" lon="5.76295">
        <ele>600.936523</ele>
        <time>2019-05-23T18:20:19.362Z</time>
      </trkpt>
      <trkpt lat="45.45284" lon="5.76292">
        <ele>603.061035</ele>
        <time>2019-05-23T18:20:24.364Z</time>
      </trkpt>
      <trkpt lat="45.45273" lon="5.76296">
        <ele>601.511719</ele>
        <time>2019-05-23T18:20:29.365Z</time>
      </trkpt>
      <trkpt lat="45.45261" lon="5.76288">
        <ele>598.597046</ele>
        <time>2019-05-23T18:20:34.365Z</time>
      </trkpt>
      <trkpt lat="45.45236" lon="5.76259">
        <ele>594.911377</ele>
        <time>2019-05-23T18:20:39.365Z</time>
      </trkpt>
      <trkpt lat="45.45223" lon="5.76253">
        <ele>590.121094</ele>
        <time>2019-05-23T18:20:44.369Z</time>
      </trkpt>
      <trkpt lat="45.45216" lon="5.76242">
        <ele>591.058594</ele>
        <time>2019-05-23T18:20:49.369Z</time>
      </trkpt>
      <trkpt lat="45.45208" lon="5.7623">
        <ele>589.322021</ele>
        <time>2019-05-23T18:20:54.371Z</time>
      </trkpt>
      <trkpt lat="45.45184" lon="5.76207">
        <ele>584.735474</ele>
        <time>2019-05-23T18:20:59.371Z</time>
      </trkpt>
      <trkpt lat="45.45181" lon="5.76194">
        <ele>578.891968</ele>
        <time>2019-05-23T18:21:04.372Z</time>
      </trkpt>
      <trkpt lat="45.45181" lon="5.76177">
        <ele>577.13623</ele>
        <time>2019-05-23T18:21:09.372Z</time>
      </trkpt>
      <trkpt lat="45.45171" lon="5.76151">
        <ele>574.25</ele>
        <time>2019-05-23T18:21:14.375Z</time>
      </trkpt>
      <trkpt lat="45.45155" lon="5.76117">
        <ele>573.358398</ele>
        <time>2019-05-23T18:21:19.375Z</time>
      </trkpt>
      <trkpt lat="45.45144" lon="5.76105">
        <ele>568.464111</ele>
        <time>2019-05-23T18:21:24.375Z</time>
      </trkpt>
      <trkpt lat="45.45135" lon="5.76085">
        <ele>560.664307</ele>
        <time>2019-05-23T18:21:29.375Z</time>
      </trkpt>
      <trkpt lat="45.45121" lon="5.76073">
        <ele>559.30127</ele>
        <time>2019-05-23T18:21:34.375Z</time>
      </trkpt>
      <trkpt lat="45.45105" lon="5.76058">
        <ele>554.010254</ele>
        <time>2019-05-23T18:21:39.375Z</time>
      </trkpt>
      <trkpt lat="45.45083" lon="5.76038">
        <ele>545.942139</ele>
        <time>2019-05-23T18:21:44.375Z</time>
      </trkpt>
      <trkpt lat="45.45067" lon="5.76014">
        <ele>540.476807</ele>
        <time>2019-05-23T18:21:49.375Z</time>
      </trkpt>
      <trkpt lat="45.45039" lon="5.75982">
        <ele>535.131348</ele>
        <time>2019-05-23T18:21:54.375Z</time>
      </trkpt>
      <trkpt lat="45.45028" lon="5.75968">
        <ele>528.603638</ele>
        <time>2019-05-23T18:21:59.375Z</time>
      </trkpt>
      <trkpt lat="45.45015" lon="5.75953">
        <ele>524.181152</ele>
        <time>2019-05-23T18:22:04.375Z</time>
      </trkpt>
      <trkpt lat="45.45007" lon="5.75933">
        <ele>516.523987</ele>
        <time>2019-05-23T18:22:09.375Z</time>
      </trkpt>
      <trkpt lat="45.44997" lon="5.75921">
        <ele>510.226318</ele>
        <time>2019-05-23T18:22:14.375Z</time>
      </trkpt>
      <trkpt lat="45.4499" lon="5.75905">
        <ele>511.723633</ele>
        <time>2019-05-23T18:22:19.385Z</time>
      </trkpt>
      <trkpt lat="45.4499" lon="5.75888">
        <ele>501.838745</ele>
        <time>2019-05-23T18:22:24.385Z</time>
      </trkpt>
      <trkpt lat="45.4499" lon="5.75878">
        <ele>502.177124</ele>
        <time>2019-05-23T18:22:29.385Z</time>
      </trkpt>
      <trkpt lat="45.44994" lon="5.75865">
        <ele>500.712158</ele>
        <time>2019-05-23T18:22:34.385Z</time>
      </trkpt>
      <trkpt lat="45.44999" lon="5.75858">
        <ele>499.592102</ele>
        <time>2019-05-23T18:22:39.385Z</time>
      </trkpt>
      <trkpt lat="45.45004" lon="5.75861">
        <ele>501.094238</ele>
        <time>2019-05-23T18:22:45.129Z</time>
      </trkpt>
      <trkpt lat="45.45008" lon="5.75863">
        <ele>499.023438</ele>
        <time>2019-05-23T18:22:50.364Z</time>
      </trkpt>
      <trkpt lat="45.45008" lon="5.75847">
        <ele>494.601685</ele>
        <time>2019-05-23T18:22:55.370Z</time>
      </trkpt>
      <trkpt lat="45.44993" lon="5.75822">
        <ele>491.461792</ele>
        <time>2019-05-23T18:23:00.370Z</time>
      </trkpt>
      <trkpt lat="45.44978" lon="5.75805">
        <ele>487.861755</ele>
        <time>2019-05-23T18:23:05.370Z</time>
      </trkpt>
      <trkpt lat="45.44963" lon="5.75778">
        <ele>483.868164</ele>
        <time>2019-05-23T18:23:10.380Z</time>
      </trkpt>
      <trkpt lat="45.44946" lon="5.75754">
        <ele>481.216858</ele>
        <time>2019-05-23T18:23:15.380Z</time>
      </trkpt>
      <trkpt lat="45.44927" lon="5.75725">
        <ele>474.654114</ele>
        <time>2019-05-23T18:23:20.380Z</time>
      </trkpt>
      <trkpt lat="45.44907" lon="5.75698">
        <ele>473.447876</ele>
        <time>2019-05-23T18:23:25.380Z</time>
      </trkpt>
      <trkpt lat="45.44883" lon="5.7568">
        <ele>469.494385</ele>
        <time>2019-05-23T18:23:30.380Z</time>
      </trkpt>
      <trkpt lat="45.44863" lon="5.75679">
        <ele>473.083618</ele>
        <time>2019-05-23T18:23:35.380Z</time>
      </trkpt>
      <trkpt lat="45.44851" lon="5.75682">
        <ele>476.027466</ele>
        <time>2019-05-23T18:23:40.380Z</time>
      </trkpt>
      <trkpt lat="45.44841" lon="5.75677">
        <ele>483.340942</ele>
        <time>2019-05-23T18:23:45.380Z</time>
      </trkpt>
      <trkpt lat="45.44831" lon="5.75657">
        <ele>479.732788</ele>
        <time>2019-05-23T18:23:50.380Z</time>
      </trkpt>
      <trkpt lat="45.44806" lon="5.75621">
        <ele>473.613281</ele>
        <time>2019-05-23T18:23:55.380Z</time>
      </trkpt>
      <trkpt lat="45.44776" lon="5.75591">
        <ele>468.325684</ele>
        <time>2019-05-23T18:24:00.380Z</time>
      </trkpt>
      <trkpt lat="45.44744" lon="5.7556">
        <ele>465.659851</ele>
        <time>2019-05-23T18:24:05.380Z</time>
      </trkpt>
      <trkpt lat="45.44724" lon="5.75542">
        <ele>465.24823</ele>
        <time>2019-05-23T18:24:10.380Z</time>
      </trkpt>
      <trkpt lat="45.44724" lon="5.75546">
        <ele>462.311768</ele>
        <time>2019-05-23T18:24:26.355Z</time>
      </trkpt>
      <trkpt lat="45.44717" lon="5.7554">
        <ele>464.438354</ele>
        <time>2019-05-23T18:24:31.364Z</time>
      </trkpt>
      <trkpt lat="45.44713" lon="5.75531">
        <ele>464.207886</ele>
        <time>2019-05-23T18:24:36.364Z</time>
      </trkpt>
      <trkpt lat="45.44699" lon="5.75522">
        <ele>461.529114</ele>
        <time>2019-05-23T18:24:41.365Z</time>
      </trkpt>
      <trkpt lat="45.44679" lon="5.75514">
        <ele>459.772644</ele>
        <time>2019-05-23T18:24:46.365Z</time>
      </trkpt>
      <trkpt lat="45.4466" lon="5.75504">
        <ele>458.741577</ele>
        <time>2019-05-23T18:24:51.365Z</time>
      </trkpt>
      <trkpt lat="45.44644" lon="5.75499">
        <ele>457.459595</ele>
        <time>2019-05-23T18:24:56.365Z</time>
      </trkpt>
      <trkpt lat="45.44627" lon="5.7549">
        <ele>453.910339</ele>
        <time>2019-05-23T18:25:01.366Z</time>
      </trkpt>
      <trkpt lat="45.44604" lon="5.75469">
        <ele>455.084106</ele>
        <time>2019-05-23T18:25:06.379Z</time>
      </trkpt>
      <trkpt lat="45.4458" lon="5.75455">
        <ele>454.120911</ele>
        <time>2019-05-23T18:25:11.379Z</time>
      </trkpt>
      <trkpt lat="45.44552" lon="5.75435">
        <ele>455.751221</ele>
        <time>2019-05-23T18:25:16.380Z</time>
      </trkpt>
      <trkpt lat="45.4453" lon="5.75419">
        <ele>456.413696</ele>
        <time>2019-05-23T18:25:21.380Z</time>
      </trkpt>
      <trkpt lat="45.44509" lon="5.754">
        <ele>453.31665</ele>
        <time>2019-05-23T18:25:26.380Z</time>
      </trkpt>
      <trkpt lat="45.44479" lon="5.75379">
        <ele>452.710571</ele>
        <time>2019-05-23T18:25:31.383Z</time>
      </trkpt>
      <trkpt lat="45.4445" lon="5.75357">
        <ele>450.075012</ele>
        <time>2019-05-23T18:25:36.383Z</time>
      </trkpt>
      <trkpt lat="45.44425" lon="5.75343">
        <ele>449.223389</ele>
        <time>2019-05-23T18:25:41.383Z</time>
      </trkpt>
      <trkpt lat="45.44395" lon="5.75338">
        <ele>446.863892</ele>
        <time>2019-05-23T18:25:46.383Z</time>
      </trkpt>
      <trkpt lat="45.44371" lon="5.75341">
        <ele>443.069824</ele>
        <time>2019-05-23T18:25:51.383Z</time>
      </trkpt>
      <trkpt lat="45.4436" lon="5.75334">
        <ele>445.431519</ele>
        <time>2019-05-23T18:26:11.391Z</time>
      </trkpt>
      <trkpt lat="45.44349" lon="5.75331">
        <ele>443.057129</ele>
        <time>2019-05-23T18:26:16.391Z</time>
      </trkpt>
      <trkpt lat="45.44336" lon="5.75326">
        <ele>444.216553</ele>
        <time>2019-05-23T18:26:21.391Z</time>
      </trkpt>
      <trkpt lat="45.44322" lon="5.75318">
        <ele>439.636353</ele>
        <time>2019-05-23T18:26:26.391Z</time>
      </trkpt>
      <trkpt lat="45.44307" lon="5.75316">
        <ele>439.923767</ele>
        <time>2019-05-23T18:26:31.391Z</time>
      </trkpt>
      <trkpt lat="45.44292" lon="5.75312">
        <ele>439.844666</ele>
        <time>2019-05-23T18:26:36.393Z</time>
      </trkpt>
      <trkpt lat="45.44279" lon="5.75309">
        <ele>438.119385</ele>
        <time>2019-05-23T18:26:41.393Z</time>
      </trkpt>
      <trkpt lat="45.44269" lon="5.75301">
        <ele>440.109863</ele>
        <time>2019-05-23T18:26:48.366Z</time>
      </trkpt>
      <trkpt lat="45.44257" lon="5.75293">
        <ele>439.884399</ele>
        <time>2019-05-23T18:26:53.366Z</time>
      </trkpt>
      <trkpt lat="45.44238" lon="5.7529">
        <ele>438.22583</ele>
        <time>2019-05-23T18:26:58.366Z</time>
      </trkpt>
      <trkpt lat="45.44213" lon="5.75289">
        <ele>438.373474</ele>
        <time>2019-05-23T18:27:03.366Z</time>
      </trkpt>
      <trkpt lat="45.44188" lon="5.75285">
        <ele>436.243164</ele>
        <time>2019-05-23T18:27:08.366Z</time>
      </trkpt>
      <trkpt lat="45.44159" lon="5.75281">
        <ele>437.100037</ele>
        <time>2019-05-23T18:27:13.366Z</time>
      </trkpt>
      <trkpt lat="45.44135" lon="5.75275">
        <ele>434.512207</ele>
        <time>2019-05-23T18:27:18.366Z</time>
      </trkpt>
      <trkpt lat="45.44107" lon="5.75272">
        <ele>435.771606</ele>
        <time>2019-05-23T18:27:23.366Z</time>
      </trkpt>
      <trkpt lat="45.44081" lon="5.75269">
        <ele>432.307007</ele>
        <time>2019-05-23T18:27:28.366Z</time>
      </trkpt>
      <trkpt lat="45.44058" lon="5.75265">
        <ele>431.061707</ele>
        <time>2019-05-23T18:27:33.366Z</time>
      </trkpt>
      <trkpt lat="45.44033" lon="5.75261">
        <ele>432.54895</ele>
        <time>2019-05-23T18:27:38.366Z</time>
      </trkpt>
      <trkpt lat="45.44007" lon="5.7526">
        <ele>432.619507</ele>
        <time>2019-05-23T18:27:43.366Z</time>
      </trkpt>
      <trkpt lat="45.4398" lon="5.75257">
        <ele>435.216248</ele>
        <time>2019-05-23T18:27:48.370Z</time>
      </trkpt>
      <trkpt lat="45.43957" lon="5.75253">
        <ele>434.874023</ele>
        <time>2019-05-23T18:27:53.371Z</time>
      </trkpt>
      <trkpt lat="45.43935" lon="5.75247">
        <ele>437.5979</ele>
        <time>2019-05-23T18:27:58.371Z</time>
      </trkpt>
      <trkpt lat="45.4391" lon="5.75243">
        <ele>439.743164</ele>
        <time>2019-05-23T18:28:03.371Z</time>
      </trkpt>
      <trkpt lat="45.43887" lon="5.75241">
        <ele>441.097168</ele>
        <time>2019-05-23T18:28:08.371Z</time>
      </trkpt>
      <trkpt lat="45.43863" lon="5.7524">
        <ele>439.362915</ele>
        <time>2019-05-23T18:28:13.371Z</time>
      </trkpt>
      <trkpt lat="45.4384" lon="5.75237">
        <ele>438.880859</ele>
        <time>2019-05-23T18:28:18.375Z</time>
      </trkpt>
      <trkpt lat="45.43813" lon="5.75235">
        <ele>441.418945</ele>
        <time>2019-05-23T18:28:23.375Z</time>
      </trkpt>
      <trkpt lat="45.43789" lon="5.7523">
        <ele>441.18042</ele>
        <time>2019-05-23T18:28:28.375Z</time>
      </trkpt>
      <trkpt lat="45.43771" lon="5.75227">
        <ele>441.050781</ele>
        <time>2019-05-23T18:28:33.375Z</time>
      </trkpt>
      <trkpt lat="45.43761" lon="5.7523">
        <ele>441.747925</ele>
        <time>2019-05-23T18:28:38.375Z</time>
      </trkpt>
      <trkpt lat="45.43746" lon="5.75248">
        <ele>439.865723</ele>
        <time>2019-05-23T18:28:43.375Z</time>
      </trkpt>
      <trkpt lat="45.43739" lon="5.75277">
        <ele>439.335693</ele>
        <time>2019-05-23T18:28:48.376Z</time>
      </trkpt>
      <trkpt lat="45.43735" lon="5.75306">
        <ele>439.168701</ele>
        <time>2019-05-23T18:28:53.376Z</time>
      </trkpt>
      <trkpt lat="45.43729" lon="5.75337">
        <ele>438.969727</ele>
        <time>2019-05-23T18:28:58.376Z</time>
      </trkpt>
      <trkpt lat="45.43715" lon="5.75341">
        <ele>438.556519</ele>
        <time>2019-05-23T18:29:03.376Z</time>
      </trkpt>
      <trkpt lat="45.43692" lon="5.75345">
        <ele>439.084961</ele>
        <time>2019-05-23T18:29:08.376Z</time>
      </trkpt>
      <trkpt lat="45.43671" lon="5.75353">
        <ele>438.99939</ele>
        <time>2019-05-23T18:29:13.378Z</time>
      </trkpt>
      <trkpt lat="45.4365" lon="5.7536">
        <ele>438.303284</ele>
        <time>2019-05-23T18:29:18.378Z</time>
      </trkpt>
      <trkpt lat="45.43631" lon="5.7537">
        <ele>440.142761</ele>
        <time>2019-05-23T18:29:23.378Z</time>
      </trkpt>
      <trkpt lat="45.4362" lon="5.75384">
        <ele>439.132446</ele>
        <time>2019-05-23T18:29:28.378Z</time>
      </trkpt>
      <trkpt lat="45.43619" lon="5.75408">
        <ele>441.310181</ele>
        <time>2019-05-23T18:29:33.384Z</time>
      </trkpt>
      <trkpt lat="45.43605" lon="5.75411">
        <ele>439.72522</ele>
        <time>2019-05-23T18:29:38.384Z</time>
      </trkpt>
      <trkpt lat="45.43584" lon="5.75412">
        <ele>439.67749</ele>
        <time>2019-05-23T18:29:43.384Z</time>
      </trkpt>
      <trkpt lat="45.43556" lon="5.75423">
        <ele>439.703369</ele>
        <time>2019-05-23T18:29:48.384Z</time>
      </trkpt>
      <trkpt lat="45.4353" lon="5.75451">
        <ele>441.223389</ele>
        <time>2019-05-23T18:29:53.384Z</time>
      </trkpt>
      <trkpt lat="45.43503" lon="5.75466">
        <ele>438.834229</ele>
        <time>2019-05-23T18:29:58.384Z</time>
      </trkpt>
      <trkpt lat="45.43476" lon="5.75478">
        <ele>437.233032</ele>
        <time>2019-05-23T18:30:03.384Z</time>
      </trkpt>
      <trkpt lat="45.43454" lon="5.75487">
        <ele>438.05426</ele>
        <time>2019-05-23T18:30:08.384Z</time>
      </trkpt>
      <trkpt lat="45.43451" lon="5.75488">
        <ele>437.983032</ele>
        <time>2019-05-23T18:30:16.338Z</time>
      </trkpt>
      <trkpt lat="45.43449" lon="5.75489">
        <ele>436.015137</ele>
        <time>2019-05-23T18:31:23.379Z</time>
      </trkpt>
      <trkpt lat="45.43439" lon="5.75494">
        <ele>434.485046</ele>
        <time>2019-05-23T18:31:28.379Z</time>
      </trkpt>
      <trkpt lat="45.43425" lon="5.75501">
        <ele>435.245605</ele>
        <time>2019-05-23T18:31:33.379Z</time>
      </trkpt>
      <trkpt lat="45.43408" lon="5.75503">
        <ele>435.574219</ele>
        <time>2019-05-23T18:31:38.379Z</time>
      </trkpt>
      <trkpt lat="45.43393" lon="5.75507">
        <ele>435.177246</ele>
        <time>2019-05-23T18:31:43.381Z</time>
      </trkpt>
      <trkpt lat="45.43377" lon="5.75522">
        <ele>437.959656</ele>
        <time>2019-05-23T18:31:48.381Z</time>
      </trkpt>
      <trkpt lat="45.43367" lon="5.75534">
        <ele>438.112122</ele>
        <time>2019-05-23T18:31:53.381Z</time>
      </trkpt>
      <trkpt lat="45.43367" lon="5.75552">
        <ele>439.413208</ele>
        <time>2019-05-23T18:31:58.381Z</time>
      </trkpt>
      <trkpt lat="45.4337" lon="5.75567">
        <ele>439.744507</ele>
        <time>2019-05-23T18:32:03.381Z</time>
      </trkpt>
      <trkpt lat="45.43369" lon="5.75581">
        <ele>440.893066</ele>
        <time>2019-05-23T18:32:08.381Z</time>
      </trkpt>
      <trkpt lat="45.43362" lon="5.75593">
        <ele>440.546753</ele>
        <time>2019-05-23T18:32:13.381Z</time>
      </trkpt>
      <trkpt lat="45.43358" lon="5.75608">
        <ele>438.421936</ele>
        <time>2019-05-23T18:32:18.381Z</time>
      </trkpt>
      <trkpt lat="45.43358" lon="5.75622">
        <ele>438.378784</ele>
        <time>2019-05-23T18:32:23.381Z</time>
      </trkpt>
      <trkpt lat="45.43364" lon="5.75642">
        <ele>439.240234</ele>
        <time>2019-05-23T18:32:28.381Z</time>
      </trkpt>
      <trkpt lat="45.43371" lon="5.75658">
        <ele>439.016724</ele>
        <time>2019-05-23T18:32:33.381Z</time>
      </trkpt>
      <trkpt lat="45.43378" lon="5.75676">
        <ele>438.436646</ele>
        <time>2019-05-23T18:32:38.381Z</time>
      </trkpt>
      <trkpt lat="45.43381" lon="5.75693">
        <ele>439.726929</ele>
        <time>2019-05-23T18:32:43.389Z</time>
      </trkpt>
      <trkpt lat="45.4339" lon="5.75719">
        <ele>443.118225</ele>
        <time>2019-05-23T18:32:48.389Z</time>
      </trkpt>
      <trkpt lat="45.43395" lon="5.75741">
        <ele>441.249268</ele>
        <time>2019-05-23T18:32:53.389Z</time>
      </trkpt>
      <trkpt lat="45.43401" lon="5.75762">
        <ele>438.745361</ele>
        <time>2019-05-23T18:32:58.389Z</time>
      </trkpt>
      <trkpt lat="45.43405" lon="5.75785">
        <ele>438.657104</ele>
        <time>2019-05-23T18:33:03.389Z</time>
      </trkpt>
      <trkpt lat="45.43411" lon="5.75815">
        <ele>440.196045</ele>
        <time>2019-05-23T18:33:08.389Z</time>
      </trkpt>
      <trkpt lat="45.4342" lon="5.75841">
        <ele>441.146606</ele>
        <time>2019-05-23T18:33:13.389Z</time>
      </trkpt>
      <trkpt lat="45.43435" lon="5.75865">
        <ele>444.537964</ele>
        <time>2019-05-23T18:33:18.389Z</time>
      </trkpt>
      <trkpt lat="45.43448" lon="5.75891">
        <ele>445.123474</ele>
        <time>2019-05-23T18:33:23.389Z</time>
      </trkpt>
      <trkpt lat="45.43454" lon="5.75918">
        <ele>443.998108</ele>
        <time>2019-05-23T18:33:28.389Z</time>
      </trkpt>
      <trkpt lat="45.43456" lon="5.75952">
        <ele>442.375183</ele>
        <time>2019-05-23T18:33:33.389Z</time>
      </trkpt>
      <trkpt lat="45.4346" lon="5.7599">
        <ele>443.85968</ele>
        <time>2019-05-23T18:33:38.391Z</time>
      </trkpt>
      <trkpt lat="45.43467" lon="5.76019">
        <ele>446.58905</ele>
        <time>2019-05-23T18:33:43.391Z</time>
      </trkpt>
      <trkpt lat="45.43478" lon="5.76053">
        <ele>447.271729</ele>
        <time>2019-05-23T18:33:48.391Z</time>
      </trkpt>
      <trkpt lat="45.43489" lon="5.76089">
        <ele>445.971069</ele>
        <time>2019-05-23T18:33:53.391Z</time>
      </trkpt>
      <trkpt lat="45.43495" lon="5.76124">
        <ele>446.895508</ele>
        <time>2019-05-23T18:33:58.391Z</time>
      </trkpt>
      <trkpt lat="45.43497" lon="5.76162">
        <ele>447.428467</ele>
        <time>2019-05-23T18:34:03.391Z</time>
      </trkpt>
      <trkpt lat="45.43499" lon="5.76197">
        <ele>446.43811</ele>
        <time>2019-05-23T18:34:08.391Z</time>
      </trkpt>
      <trkpt lat="45.43503" lon="5.76234">
        <ele>444.134399</ele>
        <time>2019-05-23T18:34:13.391Z</time>
      </trkpt>
      <trkpt lat="45.4351" lon="5.76269">
        <ele>445.522217</ele>
        <time>2019-05-23T18:34:18.391Z</time>
      </trkpt>
      <trkpt lat="45.43522" lon="5.76298">
        <ele>444.639893</ele>
        <time>2019-05-23T18:34:23.391Z</time>
      </trkpt>
      <trkpt lat="45.43536" lon="5.76326">
        <ele>444.09436</ele>
        <time>2019-05-23T18:34:28.391Z</time>
      </trkpt>
      <trkpt lat="45.4355" lon="5.76352">
        <ele>444.570068</ele>
        <time>2019-05-23T18:34:33.391Z</time>
      </trkpt>
      <trkpt lat="45.43566" lon="5.76382">
        <ele>446.171692</ele>
        <time>2019-05-23T18:34:38.391Z</time>
      </trkpt>
      <trkpt lat="45.4358" lon="5.7641">
        <ele>449.078491</ele>
        <time>2019-05-23T18:34:43.391Z</time>
      </trkpt>
      <trkpt lat="45.43596" lon="5.76433">
        <ele>449.651245</ele>
        <time>2019-05-23T18:34:48.391Z</time>
      </trkpt>
      <trkpt lat="45.43619" lon="5.76454">
        <ele>450.007324</ele>
        <time>2019-05-23T18:34:53.391Z</time>
      </trkpt>
      <trkpt lat="45.4364" lon="5.76472">
        <ele>449.782776</ele>
        <time>2019-05-23T18:34:58.391Z</time>
      </trkpt>
      <trkpt lat="45.43661" lon="5.76489">
        <ele>448.759094</ele>
        <time>2019-05-23T18:35:03.391Z</time>
      </trkpt>
      <trkpt lat="45.43673" lon="5.76511">
        <ele>444.86438</ele>
        <time>2019-05-23T18:35:08.391Z</time>
      </trkpt>
      <trkpt lat="45.43682" lon="5.76546">
        <ele>447.13208</ele>
        <time>2019-05-23T18:35:13.391Z</time>
      </trkpt>
      <trkpt lat="45.43684" lon="5.76578">
        <ele>448.609497</ele>
        <time>2019-05-23T18:35:18.391Z</time>
      </trkpt>
      <trkpt lat="45.43684" lon="5.76609">
        <ele>447.553711</ele>
        <time>2019-05-23T18:35:23.391Z</time>
      </trkpt>
      <trkpt lat="45.43683" lon="5.76644">
        <ele>450.014771</ele>
        <time>2019-05-23T18:35:28.391Z</time>
      </trkpt>
      <trkpt lat="45.43687" lon="5.76682">
        <ele>452.188354</ele>
        <time>2019-05-23T18:35:33.391Z</time>
      </trkpt>
      <trkpt lat="45.43693" lon="5.76715">
        <ele>451.571899</ele>
        <time>2019-05-23T18:35:38.419Z</time>
      </trkpt>
      <trkpt lat="45.43699" lon="5.7675">
        <ele>450.491455</ele>
        <time>2019-05-23T18:35:43.419Z</time>
      </trkpt>
      <trkpt lat="45.43704" lon="5.76786">
        <ele>450.074402</ele>
        <time>2019-05-23T18:35:48.419Z</time>
      </trkpt>
      <trkpt lat="45.43703" lon="5.7682">
        <ele>451.682251</ele>
        <time>2019-05-23T18:35:53.419Z</time>
      </trkpt>
      <trkpt lat="45.43704" lon="5.76855">
        <ele>452.665039</ele>
        <time>2019-05-23T18:35:58.419Z</time>
      </trkpt>
      <trkpt lat="45.43707" lon="5.76887">
        <ele>452.961914</ele>
        <time>2019-05-23T18:36:03.419Z</time>
      </trkpt>
      <trkpt lat="45.43712" lon="5.76924">
        <ele>453.66571</ele>
        <time>2019-05-23T18:36:08.419Z</time>
      </trkpt>
      <trkpt lat="45.43724" lon="5.76958">
        <ele>453.832397</ele>
        <time>2019-05-23T18:36:13.419Z</time>
      </trkpt>
      <trkpt lat="45.43734" lon="5.76978">
        <ele>455.507446</ele>
        <time>2019-05-23T18:36:18.419Z</time>
      </trkpt>
      <trkpt lat="45.43753" lon="5.76994">
        <ele>456.382935</ele>
        <time>2019-05-23T18:36:23.419Z</time>
      </trkpt>
      <trkpt lat="45.43777" lon="5.77009">
        <ele>457.446533</ele>
        <time>2019-05-23T18:36:28.419Z</time>
      </trkpt>
      <trkpt lat="45.438" lon="5.77024">
        <ele>456.391785</ele>
        <time>2019-05-23T18:36:33.419Z</time>
      </trkpt>
      <trkpt lat="45.43819" lon="5.77043">
        <ele>454.961792</ele>
        <time>2019-05-23T18:36:38.419Z</time>
      </trkpt>
      <trkpt lat="45.43827" lon="5.77074">
        <ele>456.118591</ele>
        <time>2019-05-23T18:36:43.419Z</time>
      </trkpt>
      <trkpt lat="45.43837" lon="5.77111">
        <ele>454.259033</ele>
        <time>2019-05-23T18:36:48.419Z</time>
      </trkpt>
      <trkpt lat="45.43842" lon="5.77141">
        <ele>455.245972</ele>
        <time>2019-05-23T18:36:53.419Z</time>
      </trkpt>
      <trkpt lat="45.43844" lon="5.77175">
        <ele>457.719971</ele>
        <time>2019-05-23T18:36:58.419Z</time>
      </trkpt>
      <trkpt lat="45.43842" lon="5.77208">
        <ele>457.998291</ele>
        <time>2019-05-23T18:37:03.419Z</time>
      </trkpt>
      <trkpt lat="45.4384" lon="5.77236">
        <ele>458.265015</ele>
        <time>2019-05-23T18:37:08.419Z</time>
      </trkpt>
      <trkpt lat="45.43837" lon="5.77269">
        <ele>457.432861</ele>
        <time>2019-05-23T18:37:13.419Z</time>
      </trkpt>
      <trkpt lat="45.43843" lon="5.77294">
        <ele>454.997742</ele>
        <time>2019-05-23T18:37:18.419Z</time>
      </trkpt>
      <trkpt lat="45.43863" lon="5.7731">
        <ele>455.406982</ele>
        <time>2019-05-23T18:37:24.360Z</time>
      </trkpt>
      <trkpt lat="45.43881" lon="5.77329">
        <ele>453.816162</ele>
        <time>2019-05-23T18:37:29.367Z</time>
      </trkpt>
      <trkpt lat="45.43879" lon="5.77365">
        <ele>456.579102</ele>
        <time>2019-05-23T18:37:34.369Z</time>
      </trkpt>
      <trkpt lat="45.43869" lon="5.77395">
        <ele>454.13092</ele>
        <time>2019-05-23T18:37:39.369Z</time>
      </trkpt>
      <trkpt lat="45.43861" lon="5.77423">
        <ele>455.510132</ele>
        <time>2019-05-23T18:37:44.409Z</time>
      </trkpt>
      <trkpt lat="45.43848" lon="5.77422">
        <ele>454.956482</ele>
        <time>2019-05-23T18:37:49.409Z</time>
      </trkpt>
      <trkpt lat="45.43831" lon="5.77413">
        <ele>456.699829</ele>
        <time>2019-05-23T18:37:54.409Z</time>
      </trkpt>
    </trkseg>
  </trk>
</gpx>